<?xml version='1.0' encoding='UTF-8'?><gpx version="1.1" creator="JPX - https://github.com/jenetics/jpx" xmlns="http://www.topografix.com/GPX/1/1"><trk><trkseg><trkpt lat="49.13368588149338" lon="2.5078309542365234"><ele>77.0</ele><time>2026-04-17T13:02:19.288Z</time></trkpt><trkpt lat="49.133754042471104" lon="2.507818885664364"><ele>77.0</ele><time>2026-04-17T13:02:20.288Z</time></trkpt><trkpt lat="49.133792239293314" lon="2.5077104674134176"><ele>77.0</ele><time>2026-04-17T13:02:23.289Z</time></trkpt><trkpt lat="49.13387835773528" lon="2.507597835015938"><ele>77.0</ele><time>2026-04-17T13:02:25.289Z</time></trkpt><trkpt lat="49.13392563556743" lon="2.507487582612594"><ele>77.0</ele><time>2026-04-17T13:02:27.992Z</time></trkpt><trkpt lat="49.13397232430307" lon="2.507415152716107"><ele>77.0</ele><time>2026-04-17T13:02:29.993Z</time></trkpt><trkpt lat="49.13401676813307" lon="2.5073249062231366"><ele>77.0</ele><time>2026-04-17T13:02:31.994Z</time></trkpt><trkpt lat="49.134051754492816" lon="2.5072363988306834"><ele>77.0</ele><time>2026-04-17T13:02:33.994Z</time></trkpt><trkpt lat="49.13410607433678" lon="2.507122552518505"><ele>77.0</ele><time>2026-04-17T13:02:36.995Z</time></trkpt><trkpt lat="49.13414511395704" lon="2.5070091116042694"><ele>77.0</ele><time>2026-04-17T13:02:39.996Z</time></trkpt><trkpt lat="49.1341899472909" lon="2.5068879476304993"><ele>77.0</ele><time>2026-04-17T13:02:42.997Z</time></trkpt><trkpt lat="49.134233712772" lon="2.506774652951982"><ele>77.0</ele><time>2026-04-17T13:02:45.997Z</time></trkpt><trkpt lat="49.134328380469555" lon="2.506751720154206"><ele>77.42857142857143</ele><time>2026-04-17T13:02:49.998Z</time></trkpt><trkpt lat="49.134392191987835" lon="2.5067829843402523"><ele>77.85714285714286</ele><time>2026-04-17T13:02:51.998Z</time></trkpt><trkpt lat="49.134451612332775" lon="2.506827345321833"><ele>78.28571428571428</ele><time>2026-04-17T13:02:53.998Z</time></trkpt><trkpt lat="49.13451098862421" lon="2.50686030304249"><ele>78.71428571428572</ele><time>2026-04-17T13:02:55.998Z</time></trkpt><trkpt lat="49.13457248269385" lon="2.5069054488063767"><ele>79.14285714285714</ele><time>2026-04-17T13:02:57.998Z</time></trkpt><trkpt lat="49.13463840961462" lon="2.5069364510612178"><ele>79.57142857142857</ele><time>2026-04-17T13:02:59.998Z</time></trkpt><trkpt lat="49.13471354735193" lon="2.5069663679398677"><ele>80.0</ele><time>2026-04-17T13:03:01.998Z</time></trkpt><trkpt lat="49.134791358080044" lon="2.5069917914782436"><ele>80.0</ele><time>2026-04-17T13:03:03.999Z</time></trkpt><trkpt lat="49.13487273735469" lon="2.5070121095213573"><ele>80.0</ele><time>2026-04-17T13:03:05.999Z</time></trkpt><trkpt lat="49.134953226368886" lon="2.5070480933491552"><ele>80.0</ele><time>2026-04-17T13:03:07.999Z</time></trkpt><trkpt lat="49.1350348946276" lon="2.507064788530646"><ele>80.0</ele><time>2026-04-17T13:03:09.999Z</time></trkpt><trkpt lat="49.13511393049185" lon="2.507088017914347"><ele>80.0</ele><time>2026-04-17T13:03:11.999Z</time></trkpt><trkpt lat="49.135195350258556" lon="2.5070972305090327"><ele>80.0</ele><time>2026-04-17T13:03:13.999Z</time></trkpt><trkpt lat="49.13528242700938" lon="2.5071100659431735"><ele>79.0</ele><time>2026-04-17T13:03:15.999Z</time></trkpt><trkpt lat="49.135365293508706" lon="2.5071386025811457"><ele>78.0</ele><time>2026-04-17T13:03:17.999Z</time></trkpt><trkpt lat="49.1354519294627" lon="2.5071576589761286"><ele>77.0</ele><time>2026-04-17T13:03:19.999Z</time></trkpt><trkpt lat="49.13553987341369" lon="2.507175734839223"><ele>76.0</ele><time>2026-04-17T13:03:21.999Z</time></trkpt><trkpt lat="49.13563164776372" lon="2.5071896390595265"><ele>75.0</ele><time>2026-04-17T13:03:23.999Z</time></trkpt><trkpt lat="49.135734155567604" lon="2.507223531472613"><ele>75.0</ele><time>2026-04-17T13:03:25.999Z</time></trkpt><trkpt lat="49.135840801720526" lon="2.5072435966426037"><ele>75.0</ele><time>2026-04-17T13:03:27.998Z</time></trkpt><trkpt lat="49.135943367933464" lon="2.5072850145394425"><ele>75.0</ele><time>2026-04-17T13:03:29.998Z</time></trkpt><trkpt lat="49.13603508200016" lon="2.5071434035016735"><ele>75.0</ele><time>2026-04-17T13:03:31.998Z</time></trkpt><trkpt lat="49.13613566491629" lon="2.507129653037399"><ele>75.0</ele><time>2026-04-17T13:03:33.998Z</time></trkpt><trkpt lat="49.13620620131326" lon="2.5070869734808032"><ele>75.83333333333333</ele><time>2026-04-17T13:03:35.998Z</time></trkpt><trkpt lat="49.136286375654585" lon="2.507004554459392"><ele>76.66666666666667</ele><time>2026-04-17T13:03:37.998Z</time></trkpt><trkpt lat="49.13635598715718" lon="2.506932993986952"><ele>77.5</ele><time>2026-04-17T13:03:39.998Z</time></trkpt><trkpt lat="49.1364282106678" lon="2.506858748355517"><ele>78.33333333333334</ele><time>2026-04-17T13:03:41.998Z</time></trkpt><trkpt lat="49.13648089545766" lon="2.506804710600827"><ele>79.16666666666667</ele><time>2026-04-17T13:03:43.998Z</time></trkpt><trkpt lat="49.136555755393005" lon="2.5067284704307395"><ele>80.0</ele><time>2026-04-17T13:03:45.998Z</time></trkpt><trkpt lat="49.136621951558524" lon="2.506656611714921"><ele>80.0</ele><time>2026-04-17T13:03:47.998Z</time></trkpt><trkpt lat="49.136689969267046" lon="2.506582366570171"><ele>80.0</ele><time>2026-04-17T13:03:49.998Z</time></trkpt><trkpt lat="49.13677135597348" lon="2.5065138090110572"><ele>80.0</ele><time>2026-04-17T13:03:51.998Z</time></trkpt><trkpt lat="49.137074263220654" lon="2.507023859799481"><ele>80.0</ele><time>2026-04-17T13:03:52.998Z</time></trkpt><trkpt lat="49.13718082998906" lon="2.5070011171384468"><ele>80.0</ele><time>2026-04-17T13:03:54.998Z</time></trkpt><trkpt lat="49.13727594050451" lon="2.5069939071304685"><ele>80.0</ele><time>2026-04-17T13:03:56.998Z</time></trkpt><trkpt lat="49.13739466158378" lon="2.5069464781824933"><ele>80.0</ele><time>2026-04-17T13:03:58.998Z</time></trkpt><trkpt lat="49.137460301729504" lon="2.506952751065455"><ele>80.0</ele><time>2026-04-17T13:03:59.998Z</time></trkpt><trkpt lat="49.137509754074905" lon="2.507018533948342"><ele>80.0</ele><time>2026-04-17T13:04:00.998Z</time></trkpt><trkpt lat="49.137591603494926" lon="2.5071265309761745"><ele>80.0</ele><time>2026-04-17T13:04:02.998Z</time></trkpt><trkpt lat="49.13766950713743" lon="2.507237913947106"><ele>80.0</ele><time>2026-04-17T13:04:04.998Z</time></trkpt><trkpt lat="49.1377608294719" lon="2.5072887755167903"><ele>80.0</ele><time>2026-04-17T13:04:06.998Z</time></trkpt><trkpt lat="49.13785112770245" lon="2.50739892906331"><ele>80.0</ele><time>2026-04-17T13:04:08.997Z</time></trkpt><trkpt lat="49.13794517465806" lon="2.5074564743369647"><ele>80.0</ele><time>2026-04-17T13:04:10.997Z</time></trkpt><trkpt lat="49.138039211935855" lon="2.507469829946145"><ele>80.0</ele><time>2026-04-17T13:04:12.997Z</time></trkpt><trkpt lat="49.13813702999731" lon="2.5074983828757356"><ele>80.0</ele><time>2026-04-17T13:04:14.997Z</time></trkpt><trkpt lat="49.13823288749208" lon="2.507470835075581"><ele>80.0</ele><time>2026-04-17T13:04:16.997Z</time></trkpt><trkpt lat="49.1383316379187" lon="2.5074922518525375"><ele>80.0</ele><time>2026-04-17T13:04:18.997Z</time></trkpt><trkpt lat="49.13838871321327" lon="2.507590911809875"><ele>78.8</ele><time>2026-04-17T13:04:20.997Z</time></trkpt><trkpt lat="49.13846135565699" lon="2.507519433318949"><ele>77.6</ele><time>2026-04-17T13:04:22.997Z</time></trkpt><trkpt lat="49.13852243363494" lon="2.5074391566352268"><ele>76.4</ele><time>2026-04-17T13:04:24.997Z</time></trkpt><trkpt lat="49.13859125235289" lon="2.507342556528592"><ele>75.2</ele><time>2026-04-17T13:04:26.997Z</time></trkpt><trkpt lat="49.138663667566945" lon="2.5072259549213114"><ele>74.0</ele><time>2026-04-17T13:04:29Z</time></trkpt><trkpt lat="49.13876382758097" lon="2.5071790940673733"><ele>74.0</ele><time>2026-04-17T13:04:31Z</time></trkpt><trkpt lat="49.13883150748655" lon="2.507152378435603"><ele>74.0</ele><time>2026-04-17T13:04:32Z</time></trkpt><trkpt lat="49.138878536260066" lon="2.5070871204896674"><ele>74.0</ele><time>2026-04-17T13:04:33Z</time></trkpt><trkpt lat="49.13891616791244" lon="2.506997161259989"><ele>74.0</ele><time>2026-04-17T13:04:34Z</time></trkpt><trkpt lat="49.13897525076353" lon="2.5068840421464222"><ele>74.0</ele><time>2026-04-17T13:04:36Z</time></trkpt><trkpt lat="49.139012590467416" lon="2.506801604800719"><ele>74.0</ele><time>2026-04-17T13:04:37Z</time></trkpt><trkpt lat="49.139046686264074" lon="2.5066988128091645"><ele>74.0</ele><time>2026-04-17T13:04:38Z</time></trkpt><trkpt lat="49.139087359924964" lon="2.5065874676053523"><ele>73.8</ele><time>2026-04-17T13:04:39Z</time></trkpt><trkpt lat="49.139142442801365" lon="2.506493510921262"><ele>73.60000000000001</ele><time>2026-04-17T13:04:41Z</time></trkpt><trkpt lat="49.139181768080306" lon="2.506408515177872"><ele>73.4</ele><time>2026-04-17T13:04:42Z</time></trkpt><trkpt lat="49.1392204401956" lon="2.506279425318856"><ele>73.2</ele><time>2026-04-17T13:04:44Z</time></trkpt><trkpt lat="49.13930112255849" lon="2.506147146427093"><ele>73.0</ele><time>2026-04-17T13:04:46Z</time></trkpt><trkpt lat="49.139396448036166" lon="2.506092526269999"><ele>73.0</ele><time>2026-04-17T13:04:47.999Z</time></trkpt><trkpt lat="49.13950005235436" lon="2.5060568494836786"><ele>73.0</ele><time>2026-04-17T13:04:49.999Z</time></trkpt><trkpt lat="49.13959853461204" lon="2.5061354113215395"><ele>73.0</ele><time>2026-04-17T13:04:51.999Z</time></trkpt><trkpt lat="49.13970041077672" lon="2.506208731264811"><ele>73.0</ele><time>2026-04-17T13:04:53.999Z</time></trkpt><trkpt lat="49.1397836492238" lon="2.5063097692615908"><ele>73.0</ele><time>2026-04-17T13:04:55.999Z</time></trkpt><trkpt lat="49.139879079629395" lon="2.5062844514695968"><ele>72.8</ele><time>2026-04-17T13:04:57.999Z</time></trkpt><trkpt lat="49.139962267667414" lon="2.5063696838769887"><ele>72.6</ele><time>2026-04-17T13:04:59.999Z</time></trkpt><trkpt lat="49.140046767519436" lon="2.5064536920435727"><ele>72.4</ele><time>2026-04-17T13:05:01.999Z</time></trkpt><trkpt lat="49.140103822419896" lon="2.5065440339486864"><ele>72.2</ele><time>2026-04-17T13:05:03.999Z</time></trkpt><trkpt lat="49.14018680925143" lon="2.5066303495806186"><ele>72.0</ele><time>2026-04-17T13:05:05.999Z</time></trkpt><trkpt lat="49.140247651319086" lon="2.506745981372162"><ele>72.0</ele><time>2026-04-17T13:05:07.999Z</time></trkpt><trkpt lat="49.14030604748504" lon="2.5068651979300074"><ele>72.0</ele><time>2026-04-17T13:05:09.999Z</time></trkpt><trkpt lat="49.140388946915536" lon="2.5069401262772772"><ele>72.0</ele><time>2026-04-17T13:05:11.999Z</time></trkpt><trkpt lat="49.14047710693601" lon="2.506980969719196"><ele>72.0</ele><time>2026-04-17T13:05:13.999Z</time></trkpt><trkpt lat="49.140556910783715" lon="2.5070836667298786"><ele>72.0</ele><time>2026-04-17T13:05:15.999Z</time></trkpt><trkpt lat="49.1406432921244" lon="2.507134152092108"><ele>71.5</ele><time>2026-04-17T13:05:17.999Z</time></trkpt><trkpt lat="49.140726429377594" lon="2.507109565330701"><ele>71.0</ele><time>2026-04-17T13:05:19.999Z</time></trkpt><trkpt lat="49.14080577041602" lon="2.507122423048742"><ele>70.5</ele><time>2026-04-17T13:05:21.999Z</time></trkpt><trkpt lat="49.1408800601168" lon="2.5071291459746115"><ele>70.0</ele><time>2026-04-17T13:05:23.999Z</time></trkpt><trkpt lat="49.14095805294822" lon="2.5071227060328276"><ele>69.5</ele><time>2026-04-17T13:05:25.999Z</time></trkpt><trkpt lat="49.14104388010752" lon="2.5071365545881865"><ele>69.0</ele><time>2026-04-17T13:05:27.998Z</time></trkpt><trkpt lat="49.14112458521793" lon="2.5071259674383195"><ele>69.0</ele><time>2026-04-17T13:05:29.998Z</time></trkpt><trkpt lat="49.14122266152686" lon="2.5071204078541656"><ele>69.0</ele><time>2026-04-17T13:05:32.998Z</time></trkpt><trkpt lat="49.14128971958783" lon="2.507110585820065"><ele>69.0</ele><time>2026-04-17T13:05:34.998Z</time></trkpt><trkpt lat="49.14137586018975" lon="2.5071118652667117"><ele>69.0</ele><time>2026-04-17T13:05:36.998Z</time></trkpt><trkpt lat="49.14141848799364" lon="2.507022757748086"><ele>69.0</ele><time>2026-04-17T13:05:38.998Z</time></trkpt><trkpt lat="49.14143931519144" lon="2.5069208729782457"><ele>69.0</ele><time>2026-04-17T13:05:40.998Z</time></trkpt><trkpt lat="49.14145858821501" lon="2.506779104785838"><ele>69.83333333333333</ele><time>2026-04-17T13:05:43.998Z</time></trkpt><trkpt lat="49.14148263606058" lon="2.5066830597421808"><ele>70.66666666666667</ele><time>2026-04-17T13:05:45.998Z</time></trkpt><trkpt lat="49.141501363073054" lon="2.5065493409305106"><ele>71.5</ele><time>2026-04-17T13:05:48.998Z</time></trkpt><trkpt lat="49.141523706635795" lon="2.506430513894326"><ele>72.33333333333334</ele><time>2026-04-17T13:05:50.998Z</time></trkpt><trkpt lat="49.14153732697111" lon="2.506323625250418"><ele>73.16666666666667</ele><time>2026-04-17T13:05:52.998Z</time></trkpt><trkpt lat="49.141561167367804" lon="2.5062194473141783"><ele>74.0</ele><time>2026-04-17T13:05:54.998Z</time></trkpt><trkpt lat="49.14158733546892" lon="2.506073898493868"><ele>74.16666666666667</ele><time>2026-04-17T13:05:57.998Z</time></trkpt><trkpt lat="49.141601278491656" lon="2.505965465957308"><ele>74.33333333333334</ele><time>2026-04-17T13:05:59.998Z</time></trkpt><trkpt lat="49.14161632533783" lon="2.505851821056551"><ele>74.5</ele><time>2026-04-17T13:06:01.998Z</time></trkpt><trkpt lat="49.14163551663512" lon="2.5057308306198447"><ele>74.66666666666667</ele><time>2026-04-17T13:06:03.998Z</time></trkpt><trkpt lat="49.14165911528025" lon="2.5055924633441773"><ele>74.83333333333333</ele><time>2026-04-17T13:06:06.997Z</time></trkpt><trkpt lat="49.14168101899982" lon="2.5054898070115073"><ele>75.0</ele><time>2026-04-17T13:06:08.997Z</time></trkpt><trkpt lat="49.14169894310221" lon="2.5053851564630945"><ele>75.16666666666667</ele><time>2026-04-17T13:06:10.997Z</time></trkpt><trkpt lat="49.14172331217821" lon="2.5052699122392075"><ele>75.33333333333333</ele><time>2026-04-17T13:06:12.997Z</time></trkpt><trkpt lat="49.14173662661823" lon="2.505159345115274"><ele>75.5</ele><time>2026-04-17T13:06:14.997Z</time></trkpt><trkpt lat="49.141758501869006" lon="2.505016962431714"><ele>75.66666666666666</ele><time>2026-04-17T13:06:17.997Z</time></trkpt><trkpt lat="49.141775948476486" lon="2.5049211395163327"><ele>75.83333333333333</ele><time>2026-04-17T13:06:19.997Z</time></trkpt><trkpt lat="49.141797586045215" lon="2.5048282865533142"><ele>76.0</ele><time>2026-04-17T13:06:21.997Z</time></trkpt><trkpt lat="49.14179964808621" lon="2.5047086250836132"><ele>76.0</ele><time>2026-04-17T13:06:23.997Z</time></trkpt><trkpt lat="49.141831762934174" lon="2.504600067217184"><ele>76.0</ele><time>2026-04-17T13:06:25.997Z</time></trkpt><trkpt lat="49.14190132368215" lon="2.504559129008064"><ele>76.0</ele><time>2026-04-17T13:06:27.997Z</time></trkpt><trkpt lat="49.14196757658778" lon="2.5045612927817715"><ele>76.0</ele><time>2026-04-17T13:06:29.997Z</time></trkpt><trkpt lat="49.14204127469106" lon="2.5045558865986512"><ele>76.0</ele><time>2026-04-17T13:06:31.997Z</time></trkpt><trkpt lat="49.14211363272192" lon="2.5045455189117294"><ele>76.0</ele><time>2026-04-17T13:06:34Z</time></trkpt><trkpt lat="49.14219824359348" lon="2.504541690970352"><ele>76.0</ele><time>2026-04-17T13:06:36Z</time></trkpt><trkpt lat="49.142273200152964" lon="2.5045402891052615"><ele>76.0</ele><time>2026-04-17T13:06:38Z</time></trkpt><trkpt lat="49.14233985343024" lon="2.504522456778092"><ele>76.0</ele><time>2026-04-17T13:06:40Z</time></trkpt><trkpt lat="49.1424141749863" lon="2.504512347703838"><ele>76.0</ele><time>2026-04-17T13:06:42Z</time></trkpt><trkpt lat="49.1424931036586" lon="2.504528510462342"><ele>76.0</ele><time>2026-04-17T13:06:44Z</time></trkpt><trkpt lat="49.14256941689252" lon="2.5045279333910644"><ele>76.0</ele><time>2026-04-17T13:06:46Z</time></trkpt><trkpt lat="49.14264573979072" lon="2.504526091341391"><ele>76.33333333333333</ele><time>2026-04-17T13:06:48Z</time></trkpt><trkpt lat="49.14273658258745" lon="2.5045330098581426"><ele>76.66666666666666</ele><time>2026-04-17T13:06:51Z</time></trkpt><trkpt lat="49.142819712936635" lon="2.5045331671532614"><ele>77.0</ele><time>2026-04-17T13:06:53Z</time></trkpt><trkpt lat="49.14289862643485" lon="2.5045257370019955"><ele>77.33333333333333</ele><time>2026-04-17T13:06:55Z</time></trkpt><trkpt lat="49.142982001217625" lon="2.5045348573739497"><ele>77.66666666666667</ele><time>2026-04-17T13:06:57Z</time></trkpt><trkpt lat="49.1430791584639" lon="2.504523703525763"><ele>78.0</ele><time>2026-04-17T13:06:59Z</time></trkpt><trkpt lat="49.143158748596974" lon="2.5045371713441456"><ele>78.16666666666667</ele><time>2026-04-17T13:07:01Z</time></trkpt><trkpt lat="49.143254222354344" lon="2.504526563112819"><ele>78.33333333333333</ele><time>2026-04-17T13:07:03Z</time></trkpt><trkpt lat="49.143339586162014" lon="2.5045165999182584"><ele>78.5</ele><time>2026-04-17T13:07:05Z</time></trkpt><trkpt lat="49.14342969437297" lon="2.504505150894091"><ele>78.66666666666666</ele><time>2026-04-17T13:07:06.999Z</time></trkpt><trkpt lat="49.14349068170501" lon="2.5045427007382433"><ele>78.83333333333333</ele><time>2026-04-17T13:07:08.999Z</time></trkpt><trkpt lat="49.14357327541118" lon="2.5045186996020243"><ele>79.0</ele><time>2026-04-17T13:07:10.999Z</time></trkpt><trkpt lat="49.14366710451772" lon="2.504506535614432"><ele>79.0</ele><time>2026-04-17T13:07:12.999Z</time></trkpt><trkpt lat="49.143752595781194" lon="2.5045028759523285"><ele>79.0</ele><time>2026-04-17T13:07:14.999Z</time></trkpt><trkpt lat="49.14383888883638" lon="2.504505538735479"><ele>79.0</ele><time>2026-04-17T13:07:16.999Z</time></trkpt><trkpt lat="49.143926451288884" lon="2.50449770012279"><ele>79.0</ele><time>2026-04-17T13:07:18.999Z</time></trkpt><trkpt lat="49.1440020173135" lon="2.5044972575149798"><ele>79.0</ele><time>2026-04-17T13:07:20.999Z</time></trkpt><trkpt lat="49.14406363031096" lon="2.504461062027313"><ele>79.0</ele><time>2026-04-17T13:07:22.999Z</time></trkpt><trkpt lat="49.144158212590554" lon="2.504503612968313"><ele>78.5</ele><time>2026-04-17T13:07:25.999Z</time></trkpt><trkpt lat="49.14424530723395" lon="2.50448881935156"><ele>78.0</ele><time>2026-04-17T13:07:27.999Z</time></trkpt><trkpt lat="49.144315031091004" lon="2.504483425065539"><ele>77.5</ele><time>2026-04-17T13:07:29.999Z</time></trkpt><trkpt lat="49.144403318462196" lon="2.5044693751230467"><ele>77.0</ele><time>2026-04-17T13:07:31.999Z</time></trkpt><trkpt lat="49.14449449532036" lon="2.50447884489168"><ele>76.5</ele><time>2026-04-17T13:07:33.999Z</time></trkpt><trkpt lat="49.1445815457809" lon="2.5044837722054103"><ele>76.0</ele><time>2026-04-17T13:07:35.999Z</time></trkpt><trkpt lat="49.144660054996365" lon="2.504483948885619"><ele>76.0</ele><time>2026-04-17T13:07:37.999Z</time></trkpt><trkpt lat="49.14476543450564" lon="2.5044783449377515"><ele>76.0</ele><time>2026-04-17T13:07:39.999Z</time></trkpt><trkpt lat="49.14486386273873" lon="2.5044798577716874"><ele>76.0</ele><time>2026-04-17T13:07:41.999Z</time></trkpt><trkpt lat="49.144956426209056" lon="2.5044762986850784"><ele>76.0</ele><time>2026-04-17T13:07:43.998Z</time></trkpt><trkpt lat="49.14505106420433" lon="2.504475588231737"><ele>76.0</ele><time>2026-04-17T13:07:45.998Z</time></trkpt><trkpt lat="49.14513546724758" lon="2.504466254211036"><ele>75.5</ele><time>2026-04-17T13:07:47.998Z</time></trkpt><trkpt lat="49.145223105596486" lon="2.5044668165672674"><ele>75.0</ele><time>2026-04-17T13:07:49.998Z</time></trkpt><trkpt lat="49.14530580763115" lon="2.5044554076708243"><ele>74.5</ele><time>2026-04-17T13:07:51.998Z</time></trkpt><trkpt lat="49.14538439672997" lon="2.504453756135402"><ele>74.0</ele><time>2026-04-17T13:07:53.998Z</time></trkpt><trkpt lat="49.14546616307638" lon="2.5044378579070687"><ele>73.5</ele><time>2026-04-17T13:07:55.998Z</time></trkpt><trkpt lat="49.145505073722845" lon="2.5043171107068183"><ele>73.0</ele><time>2026-04-17T13:07:57.998Z</time></trkpt><trkpt lat="49.145513546529415" lon="2.5042106543117706"><ele>73.0</ele><time>2026-04-17T13:07:59.998Z</time></trkpt><trkpt lat="49.145535809936646" lon="2.5040817272995275"><ele>73.0</ele><time>2026-04-17T13:08:01.998Z</time></trkpt><trkpt lat="49.1455503300644" lon="2.5039707908167443"><ele>73.0</ele><time>2026-04-17T13:08:03.998Z</time></trkpt><trkpt lat="49.14557077696622" lon="2.5038577363797923"><ele>73.0</ele><time>2026-04-17T13:08:05.998Z</time></trkpt><trkpt lat="49.145601494363376" lon="2.503733015362337"><ele>73.0</ele><time>2026-04-17T13:08:07.998Z</time></trkpt><trkpt lat="49.14561884772906" lon="2.503617814465683"><ele>73.0</ele><time>2026-04-17T13:08:09.998Z</time></trkpt><trkpt lat="49.14563553419014" lon="2.5034908848984188"><ele>73.2</ele><time>2026-04-17T13:08:11.998Z</time></trkpt><trkpt lat="49.145659059304" lon="2.5033575579801544"><ele>73.4</ele><time>2026-04-17T13:08:13.998Z</time></trkpt><trkpt lat="49.14567458125851" lon="2.5032114315658776"><ele>73.60000000000001</ele><time>2026-04-17T13:08:15.998Z</time></trkpt><trkpt lat="49.14568871064935" lon="2.5030656085329634"><ele>73.8</ele><time>2026-04-17T13:08:17.998Z</time></trkpt><trkpt lat="49.145717155356756" lon="2.5029225148968988"><ele>74.0</ele><time>2026-04-17T13:08:19.997Z</time></trkpt><trkpt lat="49.14573660523221" lon="2.50277518474888"><ele>72.8</ele><time>2026-04-17T13:08:21.997Z</time></trkpt><trkpt lat="49.14576048223786" lon="2.5026261672654764"><ele>71.60000000000001</ele><time>2026-04-17T13:08:23.997Z</time></trkpt><trkpt lat="49.1457811553694" lon="2.5024717364286295"><ele>70.4</ele><time>2026-04-17T13:08:25.997Z</time></trkpt><trkpt lat="49.14579777689217" lon="2.502309525919692"><ele>69.2</ele><time>2026-04-17T13:08:27.997Z</time></trkpt><trkpt lat="49.14582664877172" lon="2.5021643368453854"><ele>68.0</ele><time>2026-04-17T13:08:29.997Z</time></trkpt><trkpt lat="49.14589215120016" lon="2.5021435720529013"><ele>68.0</ele><time>2026-04-17T13:08:31.997Z</time></trkpt><trkpt lat="49.14595380235628" lon="2.502198055219044"><ele>68.0</ele><time>2026-04-17T13:08:33.997Z</time></trkpt><trkpt lat="49.14601936940963" lon="2.502250945575022"><ele>68.0</ele><time>2026-04-17T13:08:35.997Z</time></trkpt><trkpt lat="49.14608728542797" lon="2.5022927322207695"><ele>68.0</ele><time>2026-04-17T13:08:37.997Z</time></trkpt><trkpt lat="49.146167390166056" lon="2.502370283634673"><ele>68.0</ele><time>2026-04-17T13:08:40Z</time></trkpt><trkpt lat="49.14625301704406" lon="2.5024468955783195"><ele>68.0</ele><time>2026-04-17T13:08:42Z</time></trkpt><trkpt lat="49.14634871020855" lon="2.5025092175138846"><ele>68.0</ele><time>2026-04-17T13:08:44Z</time></trkpt><trkpt lat="49.146433859405704" lon="2.5025845867566487"><ele>68.0</ele><time>2026-04-17T13:08:46Z</time></trkpt><trkpt lat="49.14653129165193" lon="2.5026684055181447"><ele>68.0</ele><time>2026-04-17T13:08:48Z</time></trkpt><trkpt lat="49.14662105738427" lon="2.5027358165856257"><ele>68.0</ele><time>2026-04-17T13:08:50Z</time></trkpt><trkpt lat="49.146716431019044" lon="2.502812468695639"><ele>68.0</ele><time>2026-04-17T13:08:52Z</time></trkpt><trkpt lat="49.14680876732688" lon="2.5029022913592427"><ele>66.5</ele><time>2026-04-17T13:08:54Z</time></trkpt><trkpt lat="49.14690261070573" lon="2.502994654352328"><ele>65.0</ele><time>2026-04-17T13:08:56Z</time></trkpt><trkpt lat="49.14700321695746" lon="2.5030760624952353"><ele>63.5</ele><time>2026-04-17T13:08:58Z</time></trkpt><trkpt lat="49.1471009552539" lon="2.50316461554304"><ele>62.0</ele><time>2026-04-17T13:09:00Z</time></trkpt><trkpt lat="49.14719790922889" lon="2.503250212120354"><ele>62.0</ele><time>2026-04-17T13:09:02Z</time></trkpt><trkpt lat="49.14729734103333" lon="2.5033406262123443"><ele>62.0</ele><time>2026-04-17T13:09:04Z</time></trkpt><trkpt lat="49.14739744489386" lon="2.503426259964531"><ele>62.0</ele><time>2026-04-17T13:09:06Z</time></trkpt><trkpt lat="49.14749920012761" lon="2.503503442745878"><ele>62.0</ele><time>2026-04-17T13:09:08Z</time></trkpt><trkpt lat="49.147584698777884" lon="2.5035908293304168"><ele>62.0</ele><time>2026-04-17T13:09:10Z</time></trkpt><trkpt lat="49.14768228859657" lon="2.503671379953961"><ele>62.2</ele><time>2026-04-17T13:09:12Z</time></trkpt><trkpt lat="49.1477776950184" lon="2.503758839279349"><ele>62.400000000000006</ele><time>2026-04-17T13:09:14Z</time></trkpt><trkpt lat="49.147868093106446" lon="2.5038480596869506"><ele>62.599999999999994</ele><time>2026-04-17T13:09:15.999Z</time></trkpt><trkpt lat="49.14796227410392" lon="2.5039288093228533"><ele>62.8</ele><time>2026-04-17T13:09:17.999Z</time></trkpt><trkpt lat="49.148057799136495" lon="2.5040053600921213"><ele>63.0</ele><time>2026-04-17T13:09:19.999Z</time></trkpt><trkpt lat="49.14815303758064" lon="2.504086188906352"><ele>64.0</ele><time>2026-04-17T13:09:21.999Z</time></trkpt><trkpt lat="49.14824880574459" lon="2.504170392165588"><ele>65.0</ele><time>2026-04-17T13:09:23.999Z</time></trkpt><trkpt lat="49.14834378323114" lon="2.504239859812131"><ele>66.0</ele><time>2026-04-17T13:09:25.999Z</time></trkpt><trkpt lat="49.14842392087038" lon="2.504333276204193"><ele>67.0</ele><time>2026-04-17T13:09:27.999Z</time></trkpt><trkpt lat="49.148493295019" lon="2.5043949570613133"><ele>68.0</ele><time>2026-04-17T13:09:29.999Z</time></trkpt><trkpt lat="49.14861873391932" lon="2.50423048299899"><ele>68.0</ele><time>2026-04-17T13:09:32.999Z</time></trkpt><trkpt lat="49.14869604435768" lon="2.5041603147817972"><ele>68.0</ele><time>2026-04-17T13:09:35.999Z</time></trkpt><trkpt lat="49.14878042228272" lon="2.504128995318193"><ele>68.0</ele><time>2026-04-17T13:09:37.999Z</time></trkpt><trkpt lat="49.14884769278037" lon="2.5040849564179117"><ele>68.0</ele><time>2026-04-17T13:09:39.999Z</time></trkpt><trkpt lat="49.14891160415135" lon="2.504059344138667"><ele>68.0</ele><time>2026-04-17T13:09:41.999Z</time></trkpt><trkpt lat="49.14898941126267" lon="2.5040145527657423"><ele>68.0</ele><time>2026-04-17T13:09:43.999Z</time></trkpt><trkpt lat="49.14905606415628" lon="2.5039714897655245"><ele>68.16666666666667</ele><time>2026-04-17T13:09:46.999Z</time></trkpt><trkpt lat="49.1491411708156" lon="2.5039252618723267"><ele>68.33333333333334</ele><time>2026-04-17T13:09:48.998Z</time></trkpt><trkpt lat="49.149220841217776" lon="2.5038784347516314"><ele>68.5</ele><time>2026-04-17T13:09:50.998Z</time></trkpt><trkpt lat="49.149302700265466" lon="2.5038312326914602"><ele>68.66666666666667</ele><time>2026-04-17T13:09:52.998Z</time></trkpt><trkpt lat="49.149385930211785" lon="2.5037849360947573"><ele>68.83333333333333</ele><time>2026-04-17T13:09:54.998Z</time></trkpt><trkpt lat="49.14947177644339" lon="2.503728675587652"><ele>69.0</ele><time>2026-04-17T13:09:56.998Z</time></trkpt><trkpt lat="49.14954650271748" lon="2.503690060765496"><ele>69.14285714285714</ele><time>2026-04-17T13:09:58.998Z</time></trkpt><trkpt lat="49.14962119355615" lon="2.5036416760370765"><ele>69.28571428571429</ele><time>2026-04-17T13:10:00.998Z</time></trkpt><trkpt lat="49.14969606348269" lon="2.503601937670073"><ele>69.42857142857143</ele><time>2026-04-17T13:10:02.998Z</time></trkpt><trkpt lat="49.14976801096271" lon="2.5035640632077865"><ele>69.57142857142857</ele><time>2026-04-17T13:10:04.998Z</time></trkpt><trkpt lat="49.14982874498535" lon="2.503513434258875"><ele>69.71428571428572</ele><time>2026-04-17T13:10:06.998Z</time></trkpt><trkpt lat="49.14989303591515" lon="2.5034671024197372"><ele>69.85714285714286</ele><time>2026-04-17T13:10:08.998Z</time></trkpt><trkpt lat="49.149959818463074" lon="2.5034401620712763"><ele>70.0</ele><time>2026-04-17T13:10:10.998Z</time></trkpt><trkpt lat="49.1500266812752" lon="2.5034027099637965"><ele>70.0</ele><time>2026-04-17T13:10:12.998Z</time></trkpt><trkpt lat="49.15010902196986" lon="2.5033536524061155"><ele>70.0</ele><time>2026-04-17T13:10:14.998Z</time></trkpt><trkpt lat="49.15019073822485" lon="2.503293584008912"><ele>70.0</ele><time>2026-04-17T13:10:16.998Z</time></trkpt><trkpt lat="49.15026838893137" lon="2.503238472966434"><ele>70.0</ele><time>2026-04-17T13:10:18.998Z</time></trkpt><trkpt lat="49.15036140991824" lon="2.5032043069012055"><ele>70.0</ele><time>2026-04-17T13:10:20.998Z</time></trkpt><trkpt lat="49.15042613725373" lon="2.503154373685091"><ele>70.0</ele><time>2026-04-17T13:10:22.998Z</time></trkpt><trkpt lat="49.15051306720465" lon="2.503097248083108"><ele>70.0</ele><time>2026-04-17T13:10:24.997Z</time></trkpt><trkpt lat="49.15058955625172" lon="2.5030514327420983"><ele>70.0</ele><time>2026-04-17T13:10:26.997Z</time></trkpt><trkpt lat="49.15067366793525" lon="2.50300344781151"><ele>70.0</ele><time>2026-04-17T13:10:28.997Z</time></trkpt><trkpt lat="49.15074368375601" lon="2.5029662951832874"><ele>70.0</ele><time>2026-04-17T13:10:30.997Z</time></trkpt><trkpt lat="49.150813665831166" lon="2.502914929754026"><ele>70.0</ele><time>2026-04-17T13:10:32.997Z</time></trkpt><trkpt lat="49.150906553152616" lon="2.5028642324279433"><ele>70.0</ele><time>2026-04-17T13:10:34.997Z</time></trkpt><trkpt lat="49.15096540929891" lon="2.5028180537166613"><ele>69.8</ele><time>2026-04-17T13:10:36.997Z</time></trkpt><trkpt lat="49.151058914385" lon="2.5027514400397877"><ele>69.6</ele><time>2026-04-17T13:10:38.997Z</time></trkpt><trkpt lat="49.15113757614041" lon="2.502711119148681"><ele>69.4</ele><time>2026-04-17T13:10:40.997Z</time></trkpt><trkpt lat="49.15122610502847" lon="2.5026684780470316"><ele>69.2</ele><time>2026-04-17T13:10:42.997Z</time></trkpt><trkpt lat="49.151326978051" lon="2.5026060458988892"><ele>69.0</ele><time>2026-04-17T13:10:45Z</time></trkpt><trkpt lat="49.151429625509664" lon="2.50254716833664"><ele>69.0</ele><time>2026-04-17T13:10:47Z</time></trkpt><trkpt lat="49.151525474219426" lon="2.5024829783014435"><ele>69.0</ele><time>2026-04-17T13:10:49Z</time></trkpt><trkpt lat="49.15162987241405" lon="2.50242142153965"><ele>69.0</ele><time>2026-04-17T13:10:51Z</time></trkpt><trkpt lat="49.15173805074166" lon="2.502375702283903"><ele>69.0</ele><time>2026-04-17T13:10:53Z</time></trkpt><trkpt lat="49.15183064920669" lon="2.502291418971888"><ele>69.0</ele><time>2026-04-17T13:10:55Z</time></trkpt><trkpt lat="49.15190744368513" lon="2.5022297023877207"><ele>68.66666666666667</ele><time>2026-04-17T13:10:57Z</time></trkpt><trkpt lat="49.1519764694273" lon="2.5021825782160545"><ele>68.33333333333333</ele><time>2026-04-17T13:10:58Z</time></trkpt><trkpt lat="49.15205998712784" lon="2.5021536724482507"><ele>68.0</ele><time>2026-04-17T13:10:59Z</time></trkpt><trkpt lat="49.15215539916506" lon="2.502124312493952"><ele>67.66666666666666</ele><time>2026-04-17T13:11:01Z</time></trkpt><trkpt lat="49.152234370722454" lon="2.502060262836101"><ele>67.33333333333333</ele><time>2026-04-17T13:11:03Z</time></trkpt><trkpt lat="49.152320357890765" lon="2.502007736783514"><ele>67.0</ele><time>2026-04-17T13:11:05Z</time></trkpt><trkpt lat="49.152421196305525" lon="2.501948222019249"><ele>67.0</ele><time>2026-04-17T13:11:07Z</time></trkpt><trkpt lat="49.15252236942407" lon="2.5018910221855037"><ele>67.0</ele><time>2026-04-17T13:11:09Z</time></trkpt><trkpt lat="49.15261495159948" lon="2.501839621874271"><ele>67.0</ele><time>2026-04-17T13:11:11Z</time></trkpt><trkpt lat="49.15270686730303" lon="2.50177747920668"><ele>67.0</ele><time>2026-04-17T13:11:13Z</time></trkpt><trkpt lat="49.152795792829195" lon="2.501709691482715"><ele>67.0</ele><time>2026-04-17T13:11:15Z</time></trkpt><trkpt lat="49.152879281014926" lon="2.501652785463327"><ele>67.0</ele><time>2026-04-17T13:11:17Z</time></trkpt><trkpt lat="49.152972839041986" lon="2.501623516392038"><ele>67.0</ele><time>2026-04-17T13:11:18.999Z</time></trkpt><trkpt lat="49.153055248042634" lon="2.5015633386681917"><ele>67.0</ele><time>2026-04-17T13:11:20.999Z</time></trkpt><trkpt lat="49.153128452993066" lon="2.501522674054246"><ele>67.0</ele><time>2026-04-17T13:11:22.999Z</time></trkpt><trkpt lat="49.153205519039034" lon="2.501498109447717"><ele>67.0</ele><time>2026-04-17T13:11:24.999Z</time></trkpt><trkpt lat="49.1532903728887" lon="2.5014383863102143"><ele>67.0</ele><time>2026-04-17T13:11:26.999Z</time></trkpt><trkpt lat="49.15336034561887" lon="2.501390665672751"><ele>67.0</ele><time>2026-04-17T13:11:28.999Z</time></trkpt><trkpt lat="49.15344796537914" lon="2.5013493776159916"><ele>67.0</ele><time>2026-04-17T13:11:30.999Z</time></trkpt><trkpt lat="49.15351804336257" lon="2.5013063890577025"><ele>67.0</ele><time>2026-04-17T13:11:32.999Z</time></trkpt><trkpt lat="49.15360363003582" lon="2.5012528832317686"><ele>67.0</ele><time>2026-04-17T13:11:34.999Z</time></trkpt><trkpt lat="49.15368347514873" lon="2.501191861595829"><ele>67.0</ele><time>2026-04-17T13:11:36.999Z</time></trkpt><trkpt lat="49.15376884304329" lon="2.5011604669074434"><ele>67.0</ele><time>2026-04-17T13:11:38.999Z</time></trkpt><trkpt lat="49.15383183055112" lon="2.501109867498523"><ele>67.0</ele><time>2026-04-17T13:11:40.999Z</time></trkpt><trkpt lat="49.1539054479836" lon="2.5010588039658934"><ele>67.0</ele><time>2026-04-17T13:11:42.999Z</time></trkpt><trkpt lat="49.15397409514046" lon="2.5010216398957605"><ele>67.0</ele><time>2026-04-17T13:11:44.999Z</time></trkpt><trkpt lat="49.154042735085696" lon="2.5009896032338643"><ele>67.0</ele><time>2026-04-17T13:11:46.999Z</time></trkpt><trkpt lat="49.15412083041415" lon="2.500934566555422"><ele>67.0</ele><time>2026-04-17T13:11:48.998Z</time></trkpt><trkpt lat="49.15419453256095" lon="2.5009014120334925"><ele>67.0</ele><time>2026-04-17T13:11:50.998Z</time></trkpt><trkpt lat="49.15427205673899" lon="2.50084410567557"><ele>67.0</ele><time>2026-04-17T13:11:52.998Z</time></trkpt><trkpt lat="49.15434403630756" lon="2.500794029169657"><ele>67.0</ele><time>2026-04-17T13:11:54.998Z</time></trkpt><trkpt lat="49.15442740514654" lon="2.500746765677692"><ele>67.0</ele><time>2026-04-17T13:11:56.998Z</time></trkpt><trkpt lat="49.1545143612005" lon="2.5007003456902432"><ele>67.0</ele><time>2026-04-17T13:11:58.998Z</time></trkpt><trkpt lat="49.15459471137473" lon="2.5006620438826137"><ele>67.0</ele><time>2026-04-17T13:12:00.998Z</time></trkpt><trkpt lat="49.15468788363748" lon="2.500600933783318"><ele>67.0</ele><time>2026-04-17T13:12:02.998Z</time></trkpt><trkpt lat="49.15477021974566" lon="2.5005565965011383"><ele>67.0</ele><time>2026-04-17T13:12:04.998Z</time></trkpt><trkpt lat="49.154870122601096" lon="2.5004924352696354"><ele>67.0</ele><time>2026-04-17T13:12:06.998Z</time></trkpt><trkpt lat="49.15496661956524" lon="2.5004328920608714"><ele>67.0</ele><time>2026-04-17T13:12:08.998Z</time></trkpt><trkpt lat="49.15505247675729" lon="2.5003710899723535"><ele>67.0</ele><time>2026-04-17T13:12:10.998Z</time></trkpt><trkpt lat="49.15514993381956" lon="2.500319173012971"><ele>67.0</ele><time>2026-04-17T13:12:12.998Z</time></trkpt><trkpt lat="49.155254485986305" lon="2.5002659193947667"><ele>66.8</ele><time>2026-04-17T13:12:14.998Z</time></trkpt><trkpt lat="49.155341983060865" lon="2.5002030362542293"><ele>66.6</ele><time>2026-04-17T13:12:16.998Z</time></trkpt><trkpt lat="49.15544391263403" lon="2.5001471381940465"><ele>66.39999999999999</ele><time>2026-04-17T13:12:18.998Z</time></trkpt><trkpt lat="49.15553831566005" lon="2.5000763069298295"><ele>66.2</ele><time>2026-04-17T13:12:20.998Z</time></trkpt><trkpt lat="49.15563806339057" lon="2.5000223751598734"><ele>66.0</ele><time>2026-04-17T13:12:22.997Z</time></trkpt><trkpt lat="49.1557336608578" lon="2.4999781553869087"><ele>66.0</ele><time>2026-04-17T13:12:24.997Z</time></trkpt><trkpt lat="49.155861518897325" lon="2.499913092070573"><ele>66.0</ele><time>2026-04-17T13:12:26.997Z</time></trkpt><trkpt lat="49.1559714930248" lon="2.4998466890413344"><ele>66.0</ele><time>2026-04-17T13:12:28.997Z</time></trkpt><trkpt lat="49.15606516152843" lon="2.499783002448712"><ele>66.0</ele><time>2026-04-17T13:12:30.997Z</time></trkpt><trkpt lat="49.15615287819843" lon="2.4997473108354016"><ele>66.0</ele><time>2026-04-17T13:12:32.997Z</time></trkpt><trkpt lat="49.15621653493503" lon="2.4997076809471364"><ele>66.0</ele><time>2026-04-17T13:12:34.997Z</time></trkpt><trkpt lat="49.1561789117965" lon="2.499618241380946"><ele>66.0</ele><time>2026-04-17T13:12:36.997Z</time></trkpt><trkpt lat="49.15615824409308" lon="2.499722206296871"><ele>66.0</ele><time>2026-04-17T13:12:39.997Z</time></trkpt><trkpt lat="49.15623097271926" lon="2.4996995825509063"><ele>66.0</ele><time>2026-04-17T13:13:18Z</time></trkpt><trkpt lat="49.156288445485195" lon="2.499747570506946"><ele>66.0</ele><time>2026-04-17T13:13:21Z</time></trkpt><trkpt lat="49.15635021687961" lon="2.499826376500767"><ele>66.0</ele><time>2026-04-17T13:13:22.999Z</time></trkpt><trkpt lat="49.15645049064551" lon="2.4998863186438034"><ele>66.0</ele><time>2026-04-17T13:13:24.999Z</time></trkpt><trkpt lat="49.156502604161396" lon="2.499941859996406"><ele>66.0</ele><time>2026-04-17T13:13:25.999Z</time></trkpt><trkpt lat="49.156571143973515" lon="2.49999986782435"><ele>66.0</ele><time>2026-04-17T13:13:26.999Z</time></trkpt><trkpt lat="49.15664168745505" lon="2.500067979166596"><ele>66.0</ele><time>2026-04-17T13:13:27.999Z</time></trkpt><trkpt lat="49.15670540123997" lon="2.500141933831633"><ele>66.0</ele><time>2026-04-17T13:13:28.999Z</time></trkpt><trkpt lat="49.15680399198015" lon="2.500216997985798"><ele>66.0</ele><time>2026-04-17T13:13:29.999Z</time></trkpt><trkpt lat="49.15688812123312" lon="2.5002963463185814"><ele>64.75</ele><time>2026-04-17T13:13:30.999Z</time></trkpt><trkpt lat="49.156988347179166" lon="2.5003962612264634"><ele>63.5</ele><time>2026-04-17T13:13:31.999Z</time></trkpt><trkpt lat="49.157084541855234" lon="2.5004791578373005"><ele>62.25</ele><time>2026-04-17T13:13:32.999Z</time></trkpt><trkpt lat="49.15718538236653" lon="2.5005704986376656"><ele>61.0</ele><time>2026-04-17T13:13:33.999Z</time></trkpt><trkpt lat="49.1572826176606" lon="2.5006584308964146"><ele>58.599999999999994</ele><time>2026-04-17T13:13:34.999Z</time></trkpt><trkpt lat="49.15738138605484" lon="2.5007407389009106"><ele>56.199999999999996</ele><time>2026-04-17T13:13:35.999Z</time></trkpt><trkpt lat="49.157475405298" lon="2.5008231493125623"><ele>53.8</ele><time>2026-04-17T13:13:36.999Z</time></trkpt><trkpt lat="49.15756770336934" lon="2.5009036454480666"><ele>51.400000000000006</ele><time>2026-04-17T13:13:37.999Z</time></trkpt><trkpt lat="49.157652768666324" lon="2.500983822071784"><ele>49.0</ele><time>2026-04-17T13:13:38.999Z</time></trkpt><trkpt lat="49.15773919128451" lon="2.5010553320996785"><ele>48.99999999999999</ele><time>2026-04-17T13:13:39.999Z</time></trkpt><trkpt lat="49.157819151687285" lon="2.50112624391623"><ele>49.0</ele><time>2026-04-17T13:13:40.999Z</time></trkpt><trkpt lat="49.157884396583206" lon="2.501214822602036"><ele>49.0</ele><time>2026-04-17T13:13:41.999Z</time></trkpt><trkpt lat="49.15795210069465" lon="2.5012764695350502"><ele>49.0</ele><time>2026-04-17T13:13:42.999Z</time></trkpt><trkpt lat="49.15802190455014" lon="2.5013413265935815"><ele>48.99999999999999</ele><time>2026-04-17T13:13:43.999Z</time></trkpt><trkpt lat="49.158088191315336" lon="2.5014021713519785"><ele>49.0</ele><time>2026-04-17T13:13:44.999Z</time></trkpt><trkpt lat="49.15815288335896" lon="2.5014379613144375"><ele>49.6</ele><time>2026-04-17T13:13:45.999Z</time></trkpt><trkpt lat="49.15823608492655" lon="2.5015364062481344"><ele>50.2</ele><time>2026-04-17T13:13:47.999Z</time></trkpt><trkpt lat="49.15830179684821" lon="2.501607508363941"><ele>50.800000000000004</ele><time>2026-04-17T13:13:49.999Z</time></trkpt><trkpt lat="49.15835095382091" lon="2.5014341058015512"><ele>51.400000000000006</ele><time>2026-04-17T13:13:53.998Z</time></trkpt><trkpt lat="49.15834653588477" lon="2.5013218395908448"><ele>52.0</ele><time>2026-04-17T13:13:55.998Z</time></trkpt><trkpt lat="49.15833400175735" lon="2.501206994592192"><ele>51.99999999999999</ele><time>2026-04-17T13:13:57.998Z</time></trkpt><trkpt lat="49.15834598572523" lon="2.501048188755978"><ele>52.0</ele><time>2026-04-17T13:14:00.998Z</time></trkpt><trkpt lat="49.15833678614463" lon="2.500929615030647"><ele>52.0</ele><time>2026-04-17T13:14:02.998Z</time></trkpt><trkpt lat="49.15833872086546" lon="2.5008252959993937"><ele>52.0</ele><time>2026-04-17T13:14:04.998Z</time></trkpt><trkpt lat="49.15834048700403" lon="2.5006998616477323"><ele>51.99999999999999</ele><time>2026-04-17T13:14:06.998Z</time></trkpt><trkpt lat="49.15834482898757" lon="2.5006016992970097"><ele>52.0</ele><time>2026-04-17T13:14:08.998Z</time></trkpt><trkpt lat="49.1583412025456" lon="2.5004814437311773"><ele>52.49999999999999</ele><time>2026-04-17T13:14:10.998Z</time></trkpt><trkpt lat="49.15834673763164" lon="2.500375814818538"><ele>53.0</ele><time>2026-04-17T13:14:12.998Z</time></trkpt><trkpt lat="49.15834588255663" lon="2.5002448665210726"><ele>53.5</ele><time>2026-04-17T13:14:14.998Z</time></trkpt><trkpt lat="49.15834439306923" lon="2.5001141006929366"><ele>54.0</ele><time>2026-04-17T13:14:16.998Z</time></trkpt><trkpt lat="49.15833944039723" lon="2.4999909228851402"><ele>54.49999999999999</ele><time>2026-04-17T13:14:18.998Z</time></trkpt><trkpt lat="49.158352847665384" lon="2.499869238572002"><ele>55.0</ele><time>2026-04-17T13:14:20.998Z</time></trkpt><trkpt lat="49.158353159472085" lon="2.499743050543045"><ele>54.99999999999999</ele><time>2026-04-17T13:14:22.998Z</time></trkpt><trkpt lat="49.15833745735032" lon="2.499619965580958"><ele>55.0</ele><time>2026-04-17T13:14:24.998Z</time></trkpt><trkpt lat="49.15834011196169" lon="2.499498236942608"><ele>55.0</ele><time>2026-04-17T13:14:26.997Z</time></trkpt><trkpt lat="49.15833881570211" lon="2.499365193828192"><ele>55.0</ele><time>2026-04-17T13:14:28.997Z</time></trkpt><trkpt lat="49.15835368611807" lon="2.499221643235552"><ele>54.99999999999999</ele><time>2026-04-17T13:14:30.997Z</time></trkpt><trkpt lat="49.15834782465668" lon="2.4990730288856793"><ele>55.0</ele><time>2026-04-17T13:14:32.997Z</time></trkpt><trkpt lat="49.158343454620095" lon="2.498919246370792"><ele>54.8</ele><time>2026-04-17T13:14:34.997Z</time></trkpt><trkpt lat="49.15835273998426" lon="2.498761584193082"><ele>54.6</ele><time>2026-04-17T13:14:36.997Z</time></trkpt><trkpt lat="49.1583467112314" lon="2.498599769782648"><ele>54.400000000000006</ele><time>2026-04-17T13:14:38.997Z</time></trkpt><trkpt lat="49.15834636039414" lon="2.4984622584207297"><ele>54.2</ele><time>2026-04-17T13:14:40.997Z</time></trkpt><trkpt lat="49.15836017936975" lon="2.4983288205580125"><ele>54.0</ele><time>2026-04-17T13:14:42.997Z</time></trkpt><trkpt lat="49.158368380328604" lon="2.49822139795694"><ele>54.0</ele><time>2026-04-17T13:14:44.997Z</time></trkpt><trkpt lat="49.15837884532052" lon="2.4981062679023154"><ele>54.0</ele><time>2026-04-17T13:14:46.997Z</time></trkpt><trkpt lat="49.15839101964343" lon="2.497975644609395"><ele>54.0</ele><time>2026-04-17T13:14:48.997Z</time></trkpt><trkpt lat="49.15840175545053" lon="2.497850812843692"><ele>54.0</ele><time>2026-04-17T13:14:50.997Z</time></trkpt><trkpt lat="49.15841225253393" lon="2.4977238648600926"><ele>54.0</ele><time>2026-04-17T13:14:52.997Z</time></trkpt><trkpt lat="49.15842197242958" lon="2.4976083616070013"><ele>54.0</ele><time>2026-04-17T13:14:54.997Z</time></trkpt><trkpt lat="49.15843246348526" lon="2.4974836946404575"><ele>54.333333333333336</ele><time>2026-04-17T13:14:57Z</time></trkpt><trkpt lat="49.15841933655716" lon="2.4973595066575562"><ele>54.66666666666667</ele><time>2026-04-17T13:14:59Z</time></trkpt><trkpt lat="49.158427076349604" lon="2.4972340563522284"><ele>55.0</ele><time>2026-04-17T13:15:01Z</time></trkpt><trkpt lat="49.1584372694016" lon="2.497104391136442"><ele>55.333333333333336</ele><time>2026-04-17T13:15:03Z</time></trkpt><trkpt lat="49.15846523916421" lon="2.4969819040729675"><ele>55.66666666666667</ele><time>2026-04-17T13:15:05Z</time></trkpt><trkpt lat="49.15847358838384" lon="2.496857530860804"><ele>56.0</ele><time>2026-04-17T13:15:07Z</time></trkpt><trkpt lat="49.15848125114312" lon="2.4967188311793893"><ele>56.4</ele><time>2026-04-17T13:15:09Z</time></trkpt><trkpt lat="49.15848409063251" lon="2.496579411452284"><ele>56.8</ele><time>2026-04-17T13:15:11Z</time></trkpt><trkpt lat="49.158495782335166" lon="2.4964302806019476"><ele>57.199999999999996</ele><time>2026-04-17T13:15:13Z</time></trkpt><trkpt lat="49.15850337125374" lon="2.4962802925046725"><ele>57.599999999999994</ele><time>2026-04-17T13:15:15Z</time></trkpt><trkpt lat="49.15852095632038" lon="2.496117639775493"><ele>58.0</ele><time>2026-04-17T13:15:17Z</time></trkpt><trkpt lat="49.15853465333611" lon="2.495941513254175"><ele>58.0</ele><time>2026-04-17T13:15:19Z</time></trkpt><trkpt lat="49.15854115382501" lon="2.495762477384571"><ele>58.0</ele><time>2026-04-17T13:15:21Z</time></trkpt><trkpt lat="49.158538337374914" lon="2.4955861337939527"><ele>58.0</ele><time>2026-04-17T13:15:23Z</time></trkpt><trkpt lat="49.15855442592076" lon="2.495414854015343"><ele>58.0</ele><time>2026-04-17T13:15:25Z</time></trkpt><trkpt lat="49.158554844896464" lon="2.495238632998234"><ele>57.4</ele><time>2026-04-17T13:15:26.999Z</time></trkpt><trkpt lat="49.15855190170831" lon="2.4950741442609607"><ele>56.8</ele><time>2026-04-17T13:15:28.999Z</time></trkpt><trkpt lat="49.158541200510754" lon="2.4949084990156467"><ele>56.2</ele><time>2026-04-17T13:15:30.999Z</time></trkpt><trkpt lat="49.15852019446832" lon="2.4947304418756517"><ele>55.6</ele><time>2026-04-17T13:15:32.999Z</time></trkpt><trkpt lat="49.158507323151" lon="2.494561328544238"><ele>55.0</ele><time>2026-04-17T13:15:34.999Z</time></trkpt><trkpt lat="49.15848750279609" lon="2.4943833070244326"><ele>55.0</ele><time>2026-04-17T13:15:36.999Z</time></trkpt><trkpt lat="49.15846471295305" lon="2.4942052996779824"><ele>55.0</ele><time>2026-04-17T13:15:38.999Z</time></trkpt><trkpt lat="49.158448796760595" lon="2.4940361777567377"><ele>55.0</ele><time>2026-04-17T13:15:40.999Z</time></trkpt><trkpt lat="49.158430996968235" lon="2.493864712784488"><ele>55.0</ele><time>2026-04-17T13:15:42.999Z</time></trkpt><trkpt lat="49.15840473402017" lon="2.493678519183971"><ele>55.2</ele><time>2026-04-17T13:15:44.999Z</time></trkpt><trkpt lat="49.15839545434001" lon="2.4935034719888183"><ele>55.4</ele><time>2026-04-17T13:15:46.999Z</time></trkpt><trkpt lat="49.15837682834877" lon="2.493339388911187"><ele>55.599999999999994</ele><time>2026-04-17T13:15:48.999Z</time></trkpt><trkpt lat="49.15835650395156" lon="2.493166497584213"><ele>55.8</ele><time>2026-04-17T13:15:50.999Z</time></trkpt><trkpt lat="49.158331230821915" lon="2.4930067244167793"><ele>56.0</ele><time>2026-04-17T13:15:52.999Z</time></trkpt><trkpt lat="49.158312935725355" lon="2.492830311473583"><ele>56.0</ele><time>2026-04-17T13:15:54.999Z</time></trkpt><trkpt lat="49.15829717934214" lon="2.4926580540946164"><ele>55.99999999999999</ele><time>2026-04-17T13:15:56.998Z</time></trkpt><trkpt lat="49.158285957864926" lon="2.4925027911726514"><ele>55.99999999999999</ele><time>2026-04-17T13:15:58.998Z</time></trkpt><trkpt lat="49.158271204524205" lon="2.492348250245696"><ele>56.0</ele><time>2026-04-17T13:16:00.998Z</time></trkpt><trkpt lat="49.15825191200404" lon="2.4922053471420176"><ele>56.0</ele><time>2026-04-17T13:16:02.998Z</time></trkpt><trkpt lat="49.15824084374865" lon="2.4920604680543583"><ele>56.199999999999996</ele><time>2026-04-17T13:16:04.998Z</time></trkpt><trkpt lat="49.15822331329521" lon="2.491911791221959"><ele>56.39999999999999</ele><time>2026-04-17T13:16:06.998Z</time></trkpt><trkpt lat="49.158216308313115" lon="2.4917723389681177"><ele>56.6</ele><time>2026-04-17T13:16:08.998Z</time></trkpt><trkpt lat="49.15820644728796" lon="2.4916252548921896"><ele>56.8</ele><time>2026-04-17T13:16:10.998Z</time></trkpt><trkpt lat="49.1581873940199" lon="2.491480621243447"><ele>57.0</ele><time>2026-04-17T13:16:12.998Z</time></trkpt><trkpt lat="49.158172318036875" lon="2.491326570324132"><ele>55.6</ele><time>2026-04-17T13:16:14.998Z</time></trkpt><trkpt lat="49.15815760772616" lon="2.4911656893728478"><ele>54.2</ele><time>2026-04-17T13:16:16.998Z</time></trkpt><trkpt lat="49.15814705158055" lon="2.490997406059442"><ele>52.8</ele><time>2026-04-17T13:16:18.998Z</time></trkpt><trkpt lat="49.15812969499962" lon="2.490823292919471"><ele>51.4</ele><time>2026-04-17T13:16:20.998Z</time></trkpt><trkpt lat="49.15811011350874" lon="2.490648976674896"><ele>50.0</ele><time>2026-04-17T13:16:22.998Z</time></trkpt><trkpt lat="49.15809150794309" lon="2.49047919171486"><ele>50.0</ele><time>2026-04-17T13:16:24.998Z</time></trkpt><trkpt lat="49.15807570895016" lon="2.4903105517104462"><ele>50.0</ele><time>2026-04-17T13:16:26.998Z</time></trkpt><trkpt lat="49.158064925571516" lon="2.4901510223385617"><ele>50.0</ele><time>2026-04-17T13:16:28.998Z</time></trkpt><trkpt lat="49.15806961571287" lon="2.490007447901724"><ele>50.0</ele><time>2026-04-17T13:16:30.997Z</time></trkpt><trkpt lat="49.158095634193614" lon="2.4898582835438114"><ele>50.0</ele><time>2026-04-17T13:16:32.997Z</time></trkpt><trkpt lat="49.15814615575432" lon="2.48971355459422"><ele>52.0</ele><time>2026-04-17T13:16:34.997Z</time></trkpt><trkpt lat="49.15822391931102" lon="2.4895879178273814"><ele>54.0</ele><time>2026-04-17T13:16:36.997Z</time></trkpt><trkpt lat="49.15830773421281" lon="2.489469840279931"><ele>56.0</ele><time>2026-04-17T13:16:38.997Z</time></trkpt><trkpt lat="49.158387337783104" lon="2.4893449798280467"><ele>58.0</ele><time>2026-04-17T13:16:40.997Z</time></trkpt><trkpt lat="49.15848039773316" lon="2.48923944842389"><ele>58.0</ele><time>2026-04-17T13:16:42.997Z</time></trkpt><trkpt lat="49.15855405789126" lon="2.4891002852258572"><ele>58.0</ele><time>2026-04-17T13:16:44.997Z</time></trkpt><trkpt lat="49.15863237262621" lon="2.488969620033871"><ele>58.0</ele><time>2026-04-17T13:16:46.997Z</time></trkpt><trkpt lat="49.15871461682838" lon="2.488840848096857"><ele>58.0</ele><time>2026-04-17T13:16:48.997Z</time></trkpt><trkpt lat="49.15879863897008" lon="2.4887175342821566"><ele>57.25</ele><time>2026-04-17T13:16:50.997Z</time></trkpt><trkpt lat="49.1588775374076" lon="2.488590741274764"><ele>56.5</ele><time>2026-04-17T13:16:52.997Z</time></trkpt><trkpt lat="49.15896173295158" lon="2.4884664194251007"><ele>55.75</ele><time>2026-04-17T13:16:54.997Z</time></trkpt><trkpt lat="49.15904185281815" lon="2.4883479324422364"><ele>55.0</ele><time>2026-04-17T13:16:56.997Z</time></trkpt><trkpt lat="49.15912134539539" lon="2.4882199649668646"><ele>55.8</ele><time>2026-04-17T13:16:58.997Z</time></trkpt><trkpt lat="49.15920425602125" lon="2.488102999035781"><ele>56.6</ele><time>2026-04-17T13:17:00.997Z</time></trkpt><trkpt lat="49.15928003369137" lon="2.488000561157431"><ele>57.400000000000006</ele><time>2026-04-17T13:17:03Z</time></trkpt><trkpt lat="49.159367149103446" lon="2.487899254595941"><ele>58.2</ele><time>2026-04-17T13:17:05Z</time></trkpt><trkpt lat="49.159429908915456" lon="2.4877556339190923"><ele>59.0</ele><time>2026-04-17T13:17:07Z</time></trkpt><trkpt lat="49.15949613150132" lon="2.4876220328590586"><ele>59.0</ele><time>2026-04-17T13:17:09Z</time></trkpt><trkpt lat="49.15956945824425" lon="2.487499639855706"><ele>59.00000000000001</ele><time>2026-04-17T13:17:11Z</time></trkpt><trkpt lat="49.15963843920399" lon="2.487370868496004"><ele>59.00000000000001</ele><time>2026-04-17T13:17:13Z</time></trkpt><trkpt lat="49.159707210448516" lon="2.487246304063416"><ele>59.0</ele><time>2026-04-17T13:17:15Z</time></trkpt><trkpt lat="49.159750749027246" lon="2.487119304038541"><ele>59.0</ele><time>2026-04-17T13:17:17Z</time></trkpt><trkpt lat="49.15979486736562" lon="2.4870207576308645"><ele>58.333333333333336</ele><time>2026-04-17T13:17:19Z</time></trkpt><trkpt lat="49.159852684484676" lon="2.487059610231702"><ele>57.66666666666667</ele><time>2026-04-17T13:17:20Z</time></trkpt><trkpt lat="49.15990176510713" lon="2.4869778303937116"><ele>57.0</ele><time>2026-04-17T13:17:23Z</time></trkpt><trkpt lat="49.15995408475067" lon="2.486887766263817"><ele>56.33333333333333</ele><time>2026-04-17T13:17:25Z</time></trkpt><trkpt lat="49.16000744991911" lon="2.4867924703371274"><ele>55.666666666666664</ele><time>2026-04-17T13:17:27Z</time></trkpt><trkpt lat="49.16006102863068" lon="2.486689856115103"><ele>55.0</ele><time>2026-04-17T13:17:28.999Z</time></trkpt><trkpt lat="49.16011540882383" lon="2.4865840825163232"><ele>56.666666666666664</ele><time>2026-04-17T13:17:30.999Z</time></trkpt><trkpt lat="49.16015947842688" lon="2.486462173566436"><ele>58.33333333333333</ele><time>2026-04-17T13:17:32.999Z</time></trkpt><trkpt lat="49.16022175316353" lon="2.4863549674421437"><ele>60.0</ele><time>2026-04-17T13:17:34.999Z</time></trkpt><trkpt lat="49.160281330120675" lon="2.486250137657613"><ele>61.66666666666667</ele><time>2026-04-17T13:17:36.999Z</time></trkpt><trkpt lat="49.16033702152278" lon="2.486150263071453"><ele>63.333333333333336</ele><time>2026-04-17T13:17:38.999Z</time></trkpt><trkpt lat="49.16039459873038" lon="2.4860605614157554"><ele>65.0</ele><time>2026-04-17T13:17:40.999Z</time></trkpt><trkpt lat="49.16044468474124" lon="2.485975361088765"><ele>65.33333333333334</ele><time>2026-04-17T13:17:42.999Z</time></trkpt><trkpt lat="49.1605053167793" lon="2.485898822440883"><ele>65.66666666666667</ele><time>2026-04-17T13:17:44.999Z</time></trkpt><trkpt lat="49.16055176466495" lon="2.485794512390596"><ele>66.0</ele><time>2026-04-17T13:17:46.999Z</time></trkpt><trkpt lat="49.16060992851133" lon="2.485694974694088"><ele>66.33333333333333</ele><time>2026-04-17T13:17:48.999Z</time></trkpt><trkpt lat="49.160669327452254" lon="2.4856024425510075"><ele>66.66666666666666</ele><time>2026-04-17T13:17:50.999Z</time></trkpt><trkpt lat="49.16072318903535" lon="2.4855045146934445"><ele>67.0</ele><time>2026-04-17T13:17:52.999Z</time></trkpt><trkpt lat="49.16077478336288" lon="2.4854050062022965"><ele>67.33333333333333</ele><time>2026-04-17T13:17:54.999Z</time></trkpt><trkpt lat="49.16082742523629" lon="2.485305087401512"><ele>67.66666666666666</ele><time>2026-04-17T13:17:56.999Z</time></trkpt><trkpt lat="49.16087835644095" lon="2.4852108833210362"><ele>68.0</ele><time>2026-04-17T13:17:58.999Z</time></trkpt><trkpt lat="49.160940846747955" lon="2.4851199906154666"><ele>68.33333333333333</ele><time>2026-04-17T13:18:00.998Z</time></trkpt><trkpt lat="49.16100783652025" lon="2.4850234568134106"><ele>68.66666666666667</ele><time>2026-04-17T13:18:02.998Z</time></trkpt><trkpt lat="49.16106135665824" lon="2.4849171313835203"><ele>69.0</ele><time>2026-04-17T13:18:04.998Z</time></trkpt><trkpt lat="49.16111935019895" lon="2.484813186270533"><ele>69.0</ele><time>2026-04-17T13:18:06.998Z</time></trkpt><trkpt lat="49.16117818743706" lon="2.484715903666079"><ele>69.0</ele><time>2026-04-17T13:18:08.998Z</time></trkpt><trkpt lat="49.16123605454062" lon="2.4846203784939305"><ele>69.0</ele><time>2026-04-17T13:18:10.998Z</time></trkpt><trkpt lat="49.16129233504895" lon="2.484516676075028"><ele>69.0</ele><time>2026-04-17T13:18:12.998Z</time></trkpt><trkpt lat="49.161350633345634" lon="2.484424133025392"><ele>69.0</ele><time>2026-04-17T13:18:14.998Z</time></trkpt><trkpt lat="49.161405968729454" lon="2.4843249610793"><ele>69.0</ele><time>2026-04-17T13:18:16.998Z</time></trkpt><trkpt lat="49.16146280459508" lon="2.4842330765086316"><ele>69.4</ele><time>2026-04-17T13:18:18.998Z</time></trkpt><trkpt lat="49.16152299426007" lon="2.484121956898664"><ele>69.80000000000001</ele><time>2026-04-17T13:18:20.998Z</time></trkpt><trkpt lat="49.16158375832031" lon="2.4840135749045955"><ele>70.19999999999999</ele><time>2026-04-17T13:18:22.998Z</time></trkpt><trkpt lat="49.161646869271294" lon="2.483905624671985"><ele>70.6</ele><time>2026-04-17T13:18:24.998Z</time></trkpt><trkpt lat="49.16170926132253" lon="2.4838004198173644"><ele>71.0</ele><time>2026-04-17T13:18:26.998Z</time></trkpt><trkpt lat="49.161773251159445" lon="2.4836867183191824"><ele>71.2</ele><time>2026-04-17T13:18:28.998Z</time></trkpt><trkpt lat="49.161832675549235" lon="2.483577390170518"><ele>71.39999999999999</ele><time>2026-04-17T13:18:30.998Z</time></trkpt><trkpt lat="49.16190235684061" lon="2.4834612259747577"><ele>71.6</ele><time>2026-04-17T13:18:32.997Z</time></trkpt><trkpt lat="49.161967400823634" lon="2.483346505481345"><ele>71.8</ele><time>2026-04-17T13:18:34.997Z</time></trkpt><trkpt lat="49.16202779483092" lon="2.4832413028624942"><ele>72.0</ele><time>2026-04-17T13:18:36.997Z</time></trkpt><trkpt lat="49.16208830569333" lon="2.4831348213436324"><ele>72.0</ele><time>2026-04-17T13:18:38.997Z</time></trkpt><trkpt lat="49.162155187818094" lon="2.483024173442275"><ele>72.0</ele><time>2026-04-17T13:18:40.997Z</time></trkpt><trkpt lat="49.162217251891356" lon="2.4829336506406783"><ele>72.0</ele><time>2026-04-17T13:18:42.997Z</time></trkpt><trkpt lat="49.16228238544055" lon="2.482813917554009"><ele>72.0</ele><time>2026-04-17T13:18:44.997Z</time></trkpt><trkpt lat="49.16234951124058" lon="2.4827027688313494"><ele>72.0</ele><time>2026-04-17T13:18:46.997Z</time></trkpt><trkpt lat="49.16240735895892" lon="2.4826058659320633"><ele>72.2</ele><time>2026-04-17T13:18:48.997Z</time></trkpt><trkpt lat="49.16247112775434" lon="2.482488455935945"><ele>72.4</ele><time>2026-04-17T13:18:50.997Z</time></trkpt><trkpt lat="49.16253837977107" lon="2.4823666667064255"><ele>72.6</ele><time>2026-04-17T13:18:52.997Z</time></trkpt><trkpt lat="49.16259634918925" lon="2.4822496594556327"><ele>72.8</ele><time>2026-04-17T13:18:54.997Z</time></trkpt><trkpt lat="49.162655218780685" lon="2.4821355431164664"><ele>73.0</ele><time>2026-04-17T13:18:56.997Z</time></trkpt><trkpt lat="49.1627138652529" lon="2.482026219166667"><ele>73.0</ele><time>2026-04-17T13:18:58.997Z</time></trkpt><trkpt lat="49.16277735874436" lon="2.481905877821704"><ele>73.0</ele><time>2026-04-17T13:19:00.997Z</time></trkpt><trkpt lat="49.16283381833266" lon="2.4817988361230596"><ele>73.0</ele><time>2026-04-17T13:19:02.997Z</time></trkpt><trkpt lat="49.1628958770083" lon="2.4816927991264515"><ele>73.0</ele><time>2026-04-17T13:19:04.996Z</time></trkpt><trkpt lat="49.16295231531584" lon="2.481577671204731"><ele>73.0</ele><time>2026-04-17T13:19:06.996Z</time></trkpt><trkpt lat="49.163019642825105" lon="2.4814692110319267"><ele>73.0</ele><time>2026-04-17T13:19:09Z</time></trkpt><trkpt lat="49.16309221079787" lon="2.4813704597354405"><ele>73.0</ele><time>2026-04-17T13:19:11Z</time></trkpt><trkpt lat="49.16316154340811" lon="2.4812581637059057"><ele>73.0</ele><time>2026-04-17T13:19:13Z</time></trkpt><trkpt lat="49.1632372130525" lon="2.4811365651137596"><ele>73.0</ele><time>2026-04-17T13:19:15Z</time></trkpt><trkpt lat="49.16330748852441" lon="2.4810040835459426"><ele>73.0</ele><time>2026-04-17T13:19:17Z</time></trkpt><trkpt lat="49.16338091464931" lon="2.4808886572953064"><ele>72.8</ele><time>2026-04-17T13:19:19Z</time></trkpt><trkpt lat="49.16345506666373" lon="2.4807629651123086"><ele>72.6</ele><time>2026-04-17T13:19:21Z</time></trkpt><trkpt lat="49.16352310678156" lon="2.480647721454946"><ele>72.4</ele><time>2026-04-17T13:19:23Z</time></trkpt><trkpt lat="49.16359261237211" lon="2.4805325731150147"><ele>72.2</ele><time>2026-04-17T13:19:25Z</time></trkpt><trkpt lat="49.163659242965835" lon="2.4804112957664612"><ele>72.0</ele><time>2026-04-17T13:19:27Z</time></trkpt><trkpt lat="49.16373164815028" lon="2.4802870874129472"><ele>72.0</ele><time>2026-04-17T13:19:29Z</time></trkpt><trkpt lat="49.16379654488973" lon="2.480169712927531"><ele>72.0</ele><time>2026-04-17T13:19:31Z</time></trkpt><trkpt lat="49.16387351365804" lon="2.480054777391511"><ele>72.0</ele><time>2026-04-17T13:19:33Z</time></trkpt><trkpt lat="49.163939166931314" lon="2.4799312951095507"><ele>72.0</ele><time>2026-04-17T13:19:34.999Z</time></trkpt><trkpt lat="49.16400201711033" lon="2.4798076648071454"><ele>72.0</ele><time>2026-04-17T13:19:36.999Z</time></trkpt><trkpt lat="49.1640800372928" lon="2.479700202107479"><ele>71.4</ele><time>2026-04-17T13:19:38.999Z</time></trkpt><trkpt lat="49.16414177165062" lon="2.479577848993416"><ele>70.80000000000001</ele><time>2026-04-17T13:19:40.999Z</time></trkpt><trkpt lat="49.164208907672155" lon="2.4794615261476634"><ele>70.2</ele><time>2026-04-17T13:19:42.999Z</time></trkpt><trkpt lat="49.164276052094564" lon="2.479348036331652"><ele>69.60000000000001</ele><time>2026-04-17T13:19:44.999Z</time></trkpt><trkpt lat="49.16434127710095" lon="2.479237093818693"><ele>69.0</ele><time>2026-04-17T13:19:46.999Z</time></trkpt><trkpt lat="49.164404500772996" lon="2.479120624379588"><ele>69.0</ele><time>2026-04-17T13:19:48.999Z</time></trkpt><trkpt lat="49.16447644210742" lon="2.47900939334543"><ele>69.0</ele><time>2026-04-17T13:19:50.999Z</time></trkpt><trkpt lat="49.16453901057684" lon="2.4788881107272727"><ele>69.0</ele><time>2026-04-17T13:19:52.999Z</time></trkpt><trkpt lat="49.164607541691645" lon="2.4787817466842363"><ele>69.0</ele><time>2026-04-17T13:19:54.999Z</time></trkpt><trkpt lat="49.164673171281606" lon="2.4786628630594674"><ele>69.0</ele><time>2026-04-17T13:19:56.999Z</time></trkpt><trkpt lat="49.16473633561082" lon="2.478549999708121"><ele>69.0</ele><time>2026-04-17T13:19:58.999Z</time></trkpt><trkpt lat="49.16479957371854" lon="2.4784489245710013"><ele>69.0</ele><time>2026-04-17T13:20:00.999Z</time></trkpt><trkpt lat="49.16485804404226" lon="2.4783328215817284"><ele>69.0</ele><time>2026-04-17T13:20:02.999Z</time></trkpt><trkpt lat="49.164922887953345" lon="2.478223554709214"><ele>69.0</ele><time>2026-04-17T13:20:04.999Z</time></trkpt><trkpt lat="49.16497981622656" lon="2.478110588209215"><ele>69.0</ele><time>2026-04-17T13:20:06.998Z</time></trkpt><trkpt lat="49.165045317617256" lon="2.478001597051661"><ele>69.60000000000001</ele><time>2026-04-17T13:20:08.998Z</time></trkpt><trkpt lat="49.165108601161684" lon="2.4778902730389496"><ele>70.2</ele><time>2026-04-17T13:20:10.998Z</time></trkpt><trkpt lat="49.165175488738036" lon="2.477782173613178"><ele>70.80000000000001</ele><time>2026-04-17T13:20:12.998Z</time></trkpt><trkpt lat="49.165240400192616" lon="2.4776682118391413"><ele>71.4</ele><time>2026-04-17T13:20:14.998Z</time></trkpt><trkpt lat="49.165304601144214" lon="2.477556913505715"><ele>72.0</ele><time>2026-04-17T13:20:16.998Z</time></trkpt><trkpt lat="49.165370525199904" lon="2.4774419646939347"><ele>72.0</ele><time>2026-04-17T13:20:18.998Z</time></trkpt><trkpt lat="49.16543959619468" lon="2.4773309475555902"><ele>72.0</ele><time>2026-04-17T13:20:20.998Z</time></trkpt><trkpt lat="49.16550597141446" lon="2.4772185404275877"><ele>72.0</ele><time>2026-04-17T13:20:22.998Z</time></trkpt><trkpt lat="49.165572376902674" lon="2.4771015400069105"><ele>72.0</ele><time>2026-04-17T13:20:24.998Z</time></trkpt><trkpt lat="49.165641228709404" lon="2.4769812703126277"><ele>72.0</ele><time>2026-04-17T13:20:26.998Z</time></trkpt><trkpt lat="49.165711484787586" lon="2.476863148400494"><ele>71.8</ele><time>2026-04-17T13:20:28.998Z</time></trkpt><trkpt lat="49.165776256388945" lon="2.4767387183372183"><ele>71.6</ele><time>2026-04-17T13:20:30.998Z</time></trkpt><trkpt lat="49.16584913553584" lon="2.476618828520464"><ele>71.39999999999999</ele><time>2026-04-17T13:20:32.998Z</time></trkpt><trkpt lat="49.16591958914407" lon="2.4765022336272"><ele>71.2</ele><time>2026-04-17T13:20:34.998Z</time></trkpt><trkpt lat="49.16598529291026" lon="2.4763783050966364"><ele>71.0</ele><time>2026-04-17T13:20:36.998Z</time></trkpt><trkpt lat="49.166056909036755" lon="2.4762657366647742"><ele>71.0</ele><time>2026-04-17T13:20:38.997Z</time></trkpt><trkpt lat="49.16612683929797" lon="2.476147951533217"><ele>71.0</ele><time>2026-04-17T13:20:40.997Z</time></trkpt><trkpt lat="49.166194766676895" lon="2.476022940677799"><ele>71.0</ele><time>2026-04-17T13:20:42.997Z</time></trkpt><trkpt lat="49.16626071881452" lon="2.4758991483736628"><ele>71.0</ele><time>2026-04-17T13:20:44.997Z</time></trkpt><trkpt lat="49.166342991591755" lon="2.4758048568864317"><ele>71.0</ele><time>2026-04-17T13:20:46.997Z</time></trkpt><trkpt lat="49.1664097362524" lon="2.475688595383266"><ele>71.0</ele><time>2026-04-17T13:20:48.997Z</time></trkpt><trkpt lat="49.166475775122194" lon="2.475574223327987"><ele>71.0</ele><time>2026-04-17T13:20:50.997Z</time></trkpt><trkpt lat="49.16654358270831" lon="2.4754568614809225"><ele>71.0</ele><time>2026-04-17T13:20:52.997Z</time></trkpt><trkpt lat="49.166601243878155" lon="2.4753190698487315"><ele>71.0</ele><time>2026-04-17T13:20:54.997Z</time></trkpt><trkpt lat="49.166674510825324" lon="2.4751931904741085"><ele>71.0</ele><time>2026-04-17T13:20:56.997Z</time></trkpt><trkpt lat="49.16674605762434" lon="2.4750657336071358"><ele>70.8</ele><time>2026-04-17T13:20:58.997Z</time></trkpt><trkpt lat="49.16681780935955" lon="2.4749412590408446"><ele>70.6</ele><time>2026-04-17T13:21:00.997Z</time></trkpt><trkpt lat="49.16689033765484" lon="2.4748152582960126"><ele>70.4</ele><time>2026-04-17T13:21:02.997Z</time></trkpt><trkpt lat="49.16696596772228" lon="2.4746894738124294"><ele>70.2</ele><time>2026-04-17T13:21:04.997Z</time></trkpt><trkpt lat="49.167038792480525" lon="2.474562580484486"><ele>70.0</ele><time>2026-04-17T13:21:06.997Z</time></trkpt><trkpt lat="49.167114948852294" lon="2.4744331675225877"><ele>70.0</ele><time>2026-04-17T13:21:08.997Z</time></trkpt><trkpt lat="49.16718960535788" lon="2.474302537027037"><ele>70.0</ele><time>2026-04-17T13:21:10.996Z</time></trkpt><trkpt lat="49.16725219193176" lon="2.474160551982431"><ele>70.0</ele><time>2026-04-17T13:21:12.996Z</time></trkpt><trkpt lat="49.16733027683704" lon="2.4740415494170542"><ele>70.0</ele><time>2026-04-17T13:21:15Z</time></trkpt><trkpt lat="49.167403873664604" lon="2.473927354525731"><ele>70.0</ele><time>2026-04-17T13:21:17Z</time></trkpt><trkpt lat="49.16745132509017" lon="2.473860447042571"><ele>71.0</ele><time>2026-04-17T13:21:18Z</time></trkpt><trkpt lat="49.16751530924954" lon="2.4737332685733575"><ele>72.0</ele><time>2026-04-17T13:21:20Z</time></trkpt><trkpt lat="49.167587181450976" lon="2.4735985710593122"><ele>73.0</ele><time>2026-04-17T13:21:22Z</time></trkpt><trkpt lat="49.16766296072033" lon="2.473479887774936"><ele>74.0</ele><time>2026-04-17T13:21:24Z</time></trkpt><trkpt lat="49.16772068305428" lon="2.473360537582851"><ele>75.0</ele><time>2026-04-17T13:21:26Z</time></trkpt><trkpt lat="49.16778660690607" lon="2.473240843106536"><ele>75.0</ele><time>2026-04-17T13:21:28Z</time></trkpt><trkpt lat="49.16785530213785" lon="2.473136753714525"><ele>75.0</ele><time>2026-04-17T13:21:30Z</time></trkpt><trkpt lat="49.167916258614746" lon="2.4730378780874527"><ele>75.0</ele><time>2026-04-17T13:21:32Z</time></trkpt><trkpt lat="49.16797549916894" lon="2.4729409191736345"><ele>75.0</ele><time>2026-04-17T13:21:34Z</time></trkpt><trkpt lat="49.16804790885922" lon="2.4729123710774346"><ele>75.0</ele><time>2026-04-17T13:21:36Z</time></trkpt><trkpt lat="49.168118563537504" lon="2.472807943740539"><ele>75.0</ele><time>2026-04-17T13:21:38.999Z</time></trkpt><trkpt lat="49.168165002115714" lon="2.472738206480413"><ele>75.0</ele><time>2026-04-17T13:21:40.999Z</time></trkpt><trkpt lat="49.16821025357374" lon="2.472667663979162"><ele>75.0</ele><time>2026-04-17T13:21:42.999Z</time></trkpt><trkpt lat="49.16827024262344" lon="2.472568028760572"><ele>75.0</ele><time>2026-04-17T13:21:44.999Z</time></trkpt><trkpt lat="49.16831220730898" lon="2.4724932277613263"><ele>75.0</ele><time>2026-04-17T13:21:46.999Z</time></trkpt><trkpt lat="49.1683582788647" lon="2.472411106209114"><ele>75.0</ele><time>2026-04-17T13:21:48.999Z</time></trkpt><trkpt lat="49.168421135319264" lon="2.472303948407592"><ele>75.0</ele><time>2026-04-17T13:21:51.999Z</time></trkpt><trkpt lat="49.168470395140616" lon="2.4722341856480314"><ele>75.0</ele><time>2026-04-17T13:21:53.999Z</time></trkpt><trkpt lat="49.16853571089306" lon="2.472169410433841"><ele>75.0</ele><time>2026-04-17T13:21:55.999Z</time></trkpt><trkpt lat="49.16860277730095" lon="2.47212976303676"><ele>75.0</ele><time>2026-04-17T13:21:57.999Z</time></trkpt><trkpt lat="49.16867379313589" lon="2.4720881447983807"><ele>75.0</ele><time>2026-04-17T13:21:59.999Z</time></trkpt><trkpt lat="49.168745703736974" lon="2.472022404064575"><ele>75.0</ele><time>2026-04-17T13:22:02.999Z</time></trkpt><trkpt lat="49.16880811098362" lon="2.4719618665527"><ele>75.0</ele><time>2026-04-17T13:22:06.999Z</time></trkpt><trkpt lat="49.16886879537635" lon="2.471908504310402"><ele>75.0</ele><time>2026-04-17T13:22:10.998Z</time></trkpt><trkpt lat="49.168931083589165" lon="2.4718906845738524"><ele>75.0</ele><time>2026-04-17T13:22:14.998Z</time></trkpt><trkpt lat="49.16901000707147" lon="2.471855541523141"><ele>75.0</ele><time>2026-04-17T13:22:17.998Z</time></trkpt><trkpt lat="49.169096582636115" lon="2.4718813990252357"><ele>75.0</ele><time>2026-04-17T13:22:20.998Z</time></trkpt><trkpt lat="49.169186780806974" lon="2.47187696050958"><ele>75.0</ele><time>2026-04-17T13:22:23.998Z</time></trkpt><trkpt lat="49.16925921566286" lon="2.4718711130897213"><ele>75.0</ele><time>2026-04-17T13:22:25.998Z</time></trkpt><trkpt lat="49.1693425718795" lon="2.4718282231142186"><ele>74.6</ele><time>2026-04-17T13:22:28.998Z</time></trkpt><trkpt lat="49.169430110941185" lon="2.4718167026568705"><ele>74.2</ele><time>2026-04-17T13:22:30.998Z</time></trkpt><trkpt lat="49.169523352983845" lon="2.4717953372823698"><ele>73.8</ele><time>2026-04-17T13:22:32.998Z</time></trkpt><trkpt lat="49.16961646411262" lon="2.471785250848737"><ele>73.4</ele><time>2026-04-17T13:22:34.998Z</time></trkpt><trkpt lat="49.16971105201001" lon="2.471771569387908"><ele>73.0</ele><time>2026-04-17T13:22:36.998Z</time></trkpt><trkpt lat="49.169795698798104" lon="2.471764715641457"><ele>72.8</ele><time>2026-04-17T13:22:38.998Z</time></trkpt><trkpt lat="49.16989055910337" lon="2.471735586321843"><ele>72.6</ele><time>2026-04-17T13:22:40.997Z</time></trkpt><trkpt lat="49.16998568775291" lon="2.4717285669036824"><ele>72.4</ele><time>2026-04-17T13:22:42.997Z</time></trkpt><trkpt lat="49.170079351803054" lon="2.4717063503392573"><ele>72.2</ele><time>2026-04-17T13:22:44.997Z</time></trkpt><trkpt lat="49.1701838577242" lon="2.4717199925749003"><ele>72.0</ele><time>2026-04-17T13:22:46.997Z</time></trkpt><trkpt lat="49.17028228680417" lon="2.4717066415216142"><ele>72.0</ele><time>2026-04-17T13:22:48.997Z</time></trkpt><trkpt lat="49.17038012747645" lon="2.471693553161965"><ele>72.0</ele><time>2026-04-17T13:22:50.997Z</time></trkpt><trkpt lat="49.17047528132782" lon="2.4716808567468784"><ele>72.0</ele><time>2026-04-17T13:22:52.997Z</time></trkpt><trkpt lat="49.17057062211088" lon="2.471668135387012"><ele>72.0</ele><time>2026-04-17T13:22:54.997Z</time></trkpt><trkpt lat="49.17066491293761" lon="2.4716555541290033"><ele>72.0</ele><time>2026-04-17T13:22:56.997Z</time></trkpt><trkpt lat="49.17076013542857" lon="2.4716423270258137"><ele>71.6</ele><time>2026-04-17T13:22:58.997Z</time></trkpt><trkpt lat="49.17085162133874" lon="2.4716077722423924"><ele>71.2</ele><time>2026-04-17T13:23:00.997Z</time></trkpt><trkpt lat="49.170941052398575" lon="2.4716024494055637"><ele>70.8</ele><time>2026-04-17T13:23:02.997Z</time></trkpt><trkpt lat="49.171030119417" lon="2.4715870595091904"><ele>70.4</ele><time>2026-04-17T13:23:04.997Z</time></trkpt><trkpt lat="49.171123286990735" lon="2.4715757379139354"><ele>70.0</ele><time>2026-04-17T13:23:06.997Z</time></trkpt><trkpt lat="49.1712173001729" lon="2.471566335217496"><ele>70.0</ele><time>2026-04-17T13:23:08.997Z</time></trkpt><trkpt lat="49.171308989789054" lon="2.4715550324067626"><ele>70.0</ele><time>2026-04-17T13:23:10.997Z</time></trkpt><trkpt lat="49.1713981699624" lon="2.471537583711809"><ele>70.0</ele><time>2026-04-17T13:23:12.996Z</time></trkpt><trkpt lat="49.171491769808426" lon="2.4715184769699308"><ele>70.0</ele><time>2026-04-17T13:23:14.996Z</time></trkpt><trkpt lat="49.17158690649682" lon="2.471524581351686"><ele>70.0</ele><time>2026-04-17T13:23:16.996Z</time></trkpt><trkpt lat="49.17167956164964" lon="2.471511718094218"><ele>70.0</ele><time>2026-04-17T13:23:18.996Z</time></trkpt><trkpt lat="49.17176535249935" lon="2.4714803241572225"><ele>70.0</ele><time>2026-04-17T13:23:21Z</time></trkpt><trkpt lat="49.17185141007026" lon="2.471487860479117"><ele>70.0</ele><time>2026-04-17T13:23:23Z</time></trkpt><trkpt lat="49.1719403877001" lon="2.4714512061896965"><ele>70.0</ele><time>2026-04-17T13:23:25Z</time></trkpt><trkpt lat="49.17203237384031" lon="2.4714447231583447"><ele>70.0</ele><time>2026-04-17T13:23:27Z</time></trkpt><trkpt lat="49.172123320166925" lon="2.4714311614087787"><ele>70.0</ele><time>2026-04-17T13:23:29Z</time></trkpt><trkpt lat="49.172207127640185" lon="2.4714378724653367"><ele>70.0</ele><time>2026-04-17T13:23:31Z</time></trkpt><trkpt lat="49.17228852790968" lon="2.4714094163273876"><ele>70.0</ele><time>2026-04-17T13:23:33Z</time></trkpt><trkpt lat="49.172373545752286" lon="2.4714003021673716"><ele>70.0</ele><time>2026-04-17T13:23:35Z</time></trkpt><trkpt lat="49.17246058239471" lon="2.4713895022999797"><ele>70.0</ele><time>2026-04-17T13:23:37Z</time></trkpt><trkpt lat="49.172550120754984" lon="2.4713756723971194"><ele>70.0</ele><time>2026-04-17T13:23:39Z</time></trkpt><trkpt lat="49.17263819136059" lon="2.4713573525487185"><ele>70.4</ele><time>2026-04-17T13:23:41Z</time></trkpt><trkpt lat="49.17272862900288" lon="2.4713483308968867"><ele>70.8</ele><time>2026-04-17T13:23:42.999Z</time></trkpt><trkpt lat="49.172855717295555" lon="2.4713519764215124"><ele>71.2</ele><time>2026-04-17T13:23:45.999Z</time></trkpt><trkpt lat="49.172934887910905" lon="2.4713227765411134"><ele>71.6</ele><time>2026-04-17T13:23:47.999Z</time></trkpt><trkpt lat="49.17301216044859" lon="2.471312286368101"><ele>72.0</ele><time>2026-04-17T13:23:49.999Z</time></trkpt><trkpt lat="49.17309029614262" lon="2.4713016007295074"><ele>72.0</ele><time>2026-04-17T13:23:51.999Z</time></trkpt><trkpt lat="49.17317930197509" lon="2.471287965011432"><ele>72.0</ele><time>2026-04-17T13:23:53.999Z</time></trkpt><trkpt lat="49.17326960649782" lon="2.4712812302036578"><ele>72.0</ele><time>2026-04-17T13:23:55.999Z</time></trkpt><trkpt lat="49.17336068540566" lon="2.471271639939453"><ele>72.0</ele><time>2026-04-17T13:23:57.999Z</time></trkpt><trkpt lat="49.17345342428238" lon="2.4712536417553115"><ele>72.0</ele><time>2026-04-17T13:23:59.999Z</time></trkpt><trkpt lat="49.173545630201225" lon="2.471241685286933"><ele>71.8</ele><time>2026-04-17T13:24:01.999Z</time></trkpt><trkpt lat="49.173643190953314" lon="2.471236963796605"><ele>71.6</ele><time>2026-04-17T13:24:03.999Z</time></trkpt><trkpt lat="49.17373833225735" lon="2.471224019393222"><ele>71.39999999999999</ele><time>2026-04-17T13:24:05.999Z</time></trkpt><trkpt lat="49.17383234946752" lon="2.4711987306048036"><ele>71.2</ele><time>2026-04-17T13:24:07.999Z</time></trkpt><trkpt lat="49.173929240524025" lon="2.471184675668276"><ele>71.0</ele><time>2026-04-17T13:24:09.999Z</time></trkpt><trkpt lat="49.17402579996761" lon="2.4711699598609145"><ele>70.8</ele><time>2026-04-17T13:24:11.999Z</time></trkpt><trkpt lat="49.17412369121529" lon="2.471159384672744"><ele>70.6</ele><time>2026-04-17T13:24:13.999Z</time></trkpt><trkpt lat="49.17422031286428" lon="2.4711500061035174"><ele>70.4</ele><time>2026-04-17T13:24:15.998Z</time></trkpt><trkpt lat="49.17431799203654" lon="2.4711322305011025"><ele>70.2</ele><time>2026-04-17T13:24:17.998Z</time></trkpt><trkpt lat="49.17441685945167" lon="2.4711186361828688"><ele>70.0</ele><time>2026-04-17T13:24:19.998Z</time></trkpt><trkpt lat="49.17451639208232" lon="2.471100148639084"><ele>70.0</ele><time>2026-04-17T13:24:21.998Z</time></trkpt><trkpt lat="49.174621631343754" lon="2.4710936037665183"><ele>70.0</ele><time>2026-04-17T13:24:23.998Z</time></trkpt><trkpt lat="49.17471935268001" lon="2.471076317418883"><ele>70.0</ele><time>2026-04-17T13:24:25.998Z</time></trkpt><trkpt lat="49.17482403058739" lon="2.4710827046877464"><ele>70.0</ele><time>2026-04-17T13:24:27.998Z</time></trkpt><trkpt lat="49.17492973931423" lon="2.471069642549125"><ele>70.0</ele><time>2026-04-17T13:24:29.998Z</time></trkpt><trkpt lat="49.17503434469514" lon="2.4710474649862078"><ele>69.6</ele><time>2026-04-17T13:24:31.998Z</time></trkpt><trkpt lat="49.17513844506299" lon="2.471027161490446"><ele>69.2</ele><time>2026-04-17T13:24:33.998Z</time></trkpt><trkpt lat="49.1752422609261" lon="2.4710190470961573"><ele>68.8</ele><time>2026-04-17T13:24:35.998Z</time></trkpt><trkpt lat="49.17534569005658" lon="2.470998837358543"><ele>68.4</ele><time>2026-04-17T13:24:37.998Z</time></trkpt><trkpt lat="49.175448177316554" lon="2.4709826591750685"><ele>68.0</ele><time>2026-04-17T13:24:39.998Z</time></trkpt><trkpt lat="49.17555283288094" lon="2.4709660557010587"><ele>68.0</ele><time>2026-04-17T13:24:41.998Z</time></trkpt><trkpt lat="49.17565708581792" lon="2.4709502257120355"><ele>68.0</ele><time>2026-04-17T13:24:43.998Z</time></trkpt><trkpt lat="49.17576060842211" lon="2.4709571670223327"><ele>68.0</ele><time>2026-04-17T13:24:45.998Z</time></trkpt><trkpt lat="49.17586757012683" lon="2.4709420437282086"><ele>68.0</ele><time>2026-04-17T13:24:47.997Z</time></trkpt><trkpt lat="49.1759763250783" lon="2.470902712056055"><ele>68.0</ele><time>2026-04-17T13:24:49.997Z</time></trkpt><trkpt lat="49.176104548295484" lon="2.470881925234614"><ele>68.0</ele><time>2026-04-17T13:24:51.997Z</time></trkpt><trkpt lat="49.17616923375367" lon="2.4708806280540077"><ele>68.0</ele><time>2026-04-17T13:24:52.997Z</time></trkpt><trkpt lat="49.17627522121396" lon="2.470857858907292"><ele>68.0</ele><time>2026-04-17T13:24:54.997Z</time></trkpt><trkpt lat="49.17637108458739" lon="2.4708495269746966"><ele>68.0</ele><time>2026-04-17T13:24:56.997Z</time></trkpt><trkpt lat="49.17646752373217" lon="2.4708330443977"><ele>68.0</ele><time>2026-04-17T13:24:58.997Z</time></trkpt><trkpt lat="49.1765379991957" lon="2.4708213714077254"><ele>68.0</ele><time>2026-04-17T13:24:59.997Z</time></trkpt><trkpt lat="49.17665736547681" lon="2.470815544245663"><ele>68.0</ele><time>2026-04-17T13:25:01.997Z</time></trkpt><trkpt lat="49.17677406841934" lon="2.470797692773038"><ele>68.0</ele><time>2026-04-17T13:25:03.997Z</time></trkpt><trkpt lat="49.17688909826771" lon="2.4707797487834617"><ele>68.0</ele><time>2026-04-17T13:25:05.997Z</time></trkpt><trkpt lat="49.17700581267108" lon="2.4707648198586116"><ele>68.0</ele><time>2026-04-17T13:25:07.997Z</time></trkpt><trkpt lat="49.17712112388316" lon="2.4707471354589328"><ele>68.0</ele><time>2026-04-17T13:25:09.997Z</time></trkpt><trkpt lat="49.177232612440946" lon="2.4707230456143523"><ele>68.0</ele><time>2026-04-17T13:25:11.997Z</time></trkpt><trkpt lat="49.17734809462276" lon="2.4707102223389548"><ele>68.0</ele><time>2026-04-17T13:25:13.997Z</time></trkpt><trkpt lat="49.17746582888154" lon="2.4706817342489114"><ele>68.0</ele><time>2026-04-17T13:25:15.997Z</time></trkpt><trkpt lat="49.17758140930855" lon="2.4706628135201476"><ele>68.4</ele><time>2026-04-17T13:25:17.997Z</time></trkpt><trkpt lat="49.17768984127112" lon="2.4706550751905465"><ele>68.8</ele><time>2026-04-17T13:25:19.996Z</time></trkpt><trkpt lat="49.177792892672095" lon="2.470642185712537"><ele>69.2</ele><time>2026-04-17T13:25:21.996Z</time></trkpt><trkpt lat="49.177901836547626" lon="2.470631201301446"><ele>69.6</ele><time>2026-04-17T13:25:23.996Z</time></trkpt><trkpt lat="49.1780070027179" lon="2.470621403257294"><ele>70.0</ele><time>2026-04-17T13:25:26Z</time></trkpt><trkpt lat="49.1781134510587" lon="2.4706047811157736"><ele>70.0</ele><time>2026-04-17T13:25:28Z</time></trkpt><trkpt lat="49.17822133039153" lon="2.470584842635239"><ele>70.0</ele><time>2026-04-17T13:25:30Z</time></trkpt><trkpt lat="49.17833082672861" lon="2.470577027891533"><ele>70.0</ele><time>2026-04-17T13:25:32Z</time></trkpt><trkpt lat="49.178439784688955" lon="2.4705600194746777"><ele>70.0</ele><time>2026-04-17T13:25:34Z</time></trkpt><trkpt lat="49.178547535823085" lon="2.470535761763104"><ele>70.0</ele><time>2026-04-17T13:25:36Z</time></trkpt><trkpt lat="49.17865660522978" lon="2.4705206918156746"><ele>70.0</ele><time>2026-04-17T13:25:38Z</time></trkpt><trkpt lat="49.17876187069584" lon="2.470503906192818"><ele>70.0</ele><time>2026-04-17T13:25:40Z</time></trkpt><trkpt lat="49.178869418234356" lon="2.470487353521946"><ele>70.0</ele><time>2026-04-17T13:25:42Z</time></trkpt><trkpt lat="49.17897250429949" lon="2.4704767327114534"><ele>70.0</ele><time>2026-04-17T13:25:43.999Z</time></trkpt><trkpt lat="49.17907549275814" lon="2.4704614172653097"><ele>70.0</ele><time>2026-04-17T13:25:45.999Z</time></trkpt><trkpt lat="49.179179801249624" lon="2.4704514660854744"><ele>69.6</ele><time>2026-04-17T13:25:47.999Z</time></trkpt><trkpt lat="49.179281119213414" lon="2.470438483840135"><ele>69.2</ele><time>2026-04-17T13:25:49.999Z</time></trkpt><trkpt lat="49.17937494156214" lon="2.470417789223251"><ele>68.8</ele><time>2026-04-17T13:25:51.999Z</time></trkpt><trkpt lat="49.17947293715059" lon="2.470423940197874"><ele>68.4</ele><time>2026-04-17T13:25:53.999Z</time></trkpt><trkpt lat="49.179586195605054" lon="2.4703937239591984"><ele>68.0</ele><time>2026-04-17T13:25:55.999Z</time></trkpt><trkpt lat="49.17970211079525" lon="2.47037829983764"><ele>68.0</ele><time>2026-04-17T13:25:57.999Z</time></trkpt><trkpt lat="49.17981528741516" lon="2.470359788252134"><ele>68.0</ele><time>2026-04-17T13:25:59.999Z</time></trkpt><trkpt lat="49.179930476886085" lon="2.4703333697437495"><ele>68.0</ele><time>2026-04-17T13:26:01.999Z</time></trkpt><trkpt lat="49.180053826076715" lon="2.4703378910608382"><ele>68.0</ele><time>2026-04-17T13:26:03.999Z</time></trkpt><trkpt lat="49.18011561271694" lon="2.4703076118864526"><ele>68.0</ele><time>2026-04-17T13:26:04.999Z</time></trkpt><trkpt lat="49.18023663773967" lon="2.47029889313985"><ele>67.6</ele><time>2026-04-17T13:26:06.999Z</time></trkpt><trkpt lat="49.18036106070037" lon="2.470279369741072"><ele>67.19999999999999</ele><time>2026-04-17T13:26:08.999Z</time></trkpt><trkpt lat="49.1804261699115" lon="2.470269347856711"><ele>66.8</ele><time>2026-04-17T13:26:09.999Z</time></trkpt><trkpt lat="49.180491397345286" lon="2.470261865976745"><ele>66.39999999999999</ele><time>2026-04-17T13:26:10.999Z</time></trkpt><trkpt lat="49.18061729595864" lon="2.470249501622668"><ele>66.0</ele><time>2026-04-17T13:26:12.999Z</time></trkpt><trkpt lat="49.1807410515632" lon="2.4702240829809954"><ele>65.83333333333333</ele><time>2026-04-17T13:26:14.999Z</time></trkpt><trkpt lat="49.18086450397081" lon="2.4702091641563166"><ele>65.66666666666667</ele><time>2026-04-17T13:26:16.999Z</time></trkpt><trkpt lat="49.18092723347361" lon="2.4701937499583817"><ele>65.5</ele><time>2026-04-17T13:26:17.999Z</time></trkpt><trkpt lat="49.18099257819072" lon="2.4701853357878636"><ele>65.33333333333334</ele><time>2026-04-17T13:26:18.998Z</time></trkpt><trkpt lat="49.181055829703325" lon="2.4701767051299575"><ele>65.16666666666667</ele><time>2026-04-17T13:26:19.998Z</time></trkpt><trkpt lat="49.18118056161904" lon="2.470165230746881"><ele>65.0</ele><time>2026-04-17T13:26:21.998Z</time></trkpt><trkpt lat="49.181297155397765" lon="2.470142578136569"><ele>65.0</ele><time>2026-04-17T13:26:23.998Z</time></trkpt><trkpt lat="49.18141767659608" lon="2.4701061281898524"><ele>65.0</ele><time>2026-04-17T13:26:25.998Z</time></trkpt><trkpt lat="49.18153780208658" lon="2.4701032147224837"><ele>65.0</ele><time>2026-04-17T13:26:27.998Z</time></trkpt><trkpt lat="49.181659915257995" lon="2.4700779888801887"><ele>65.0</ele><time>2026-04-17T13:26:29.998Z</time></trkpt><trkpt lat="49.181775538492474" lon="2.4700348054460695"><ele>65.25</ele><time>2026-04-17T13:26:31.998Z</time></trkpt><trkpt lat="49.181890465219176" lon="2.470009550858314"><ele>65.5</ele><time>2026-04-17T13:26:33.998Z</time></trkpt><trkpt lat="49.18200297637687" lon="2.4699834110460444"><ele>65.75</ele><time>2026-04-17T13:26:35.998Z</time></trkpt><trkpt lat="49.18212194425306" lon="2.46995813574963"><ele>66.0</ele><time>2026-04-17T13:26:37.998Z</time></trkpt><trkpt lat="49.18223501256999" lon="2.4699340289692397"><ele>66.0</ele><time>2026-04-17T13:26:39.998Z</time></trkpt><trkpt lat="49.182346683265905" lon="2.4699024163647123"><ele>66.0</ele><time>2026-04-17T13:26:41.998Z</time></trkpt><trkpt lat="49.18245717685257" lon="2.46987773057622"><ele>66.0</ele><time>2026-04-17T13:26:43.998Z</time></trkpt><trkpt lat="49.18256451470969" lon="2.469847106527703"><ele>66.0</ele><time>2026-04-17T13:26:45.998Z</time></trkpt><trkpt lat="49.18268013100224" lon="2.4698235992161757"><ele>65.8</ele><time>2026-04-17T13:26:47.998Z</time></trkpt><trkpt lat="49.18279221523483" lon="2.4698235145917957"><ele>65.6</ele><time>2026-04-17T13:26:49.998Z</time></trkpt><trkpt lat="49.18289350224058" lon="2.46980170844207"><ele>65.4</ele><time>2026-04-17T13:26:51.997Z</time></trkpt><trkpt lat="49.18300191860688" lon="2.4697783351627867"><ele>65.2</ele><time>2026-04-17T13:26:53.997Z</time></trkpt><trkpt lat="49.18310259656785" lon="2.4697370637705944"><ele>65.0</ele><time>2026-04-17T13:26:55.997Z</time></trkpt><trkpt lat="49.18321607120707" lon="2.4697291452984134"><ele>65.2</ele><time>2026-04-17T13:26:57.997Z</time></trkpt><trkpt lat="49.18332059952691" lon="2.4697043805590084"><ele>65.4</ele><time>2026-04-17T13:26:59.997Z</time></trkpt><trkpt lat="49.18342296422552" lon="2.4696801284146477"><ele>65.6</ele><time>2026-04-17T13:27:01.997Z</time></trkpt><trkpt lat="49.18352224517241" lon="2.4696330483014064"><ele>65.8</ele><time>2026-04-17T13:27:03.997Z</time></trkpt><trkpt lat="49.18362300012844" lon="2.4696093019231222"><ele>66.0</ele><time>2026-04-17T13:27:05.997Z</time></trkpt><trkpt lat="49.183722960798804" lon="2.469586187473573"><ele>66.0</ele><time>2026-04-17T13:27:07.997Z</time></trkpt><trkpt lat="49.18382191385769" lon="2.469560592677187"><ele>66.0</ele><time>2026-04-17T13:27:09.997Z</time></trkpt><trkpt lat="49.18391996454704" lon="2.4695372263985003"><ele>66.0</ele><time>2026-04-17T13:27:11.997Z</time></trkpt><trkpt lat="49.184019057918434" lon="2.46951798078967"><ele>66.0</ele><time>2026-04-17T13:27:13.997Z</time></trkpt><trkpt lat="49.1841212895866" lon="2.469513509338157"><ele>66.0</ele><time>2026-04-17T13:27:15.997Z</time></trkpt><trkpt lat="49.184218501896915" lon="2.4694665116423145"><ele>66.2</ele><time>2026-04-17T13:27:17.997Z</time></trkpt><trkpt lat="49.18431370013074" lon="2.469444198359654"><ele>66.39999999999999</ele><time>2026-04-17T13:27:19.997Z</time></trkpt><trkpt lat="49.18441219154999" lon="2.46944343020622"><ele>66.6</ele><time>2026-04-17T13:27:21.997Z</time></trkpt><trkpt lat="49.184505402467735" lon="2.4694209746603004"><ele>66.8</ele><time>2026-04-17T13:27:23.996Z</time></trkpt><trkpt lat="49.18459553178911" lon="2.4693992615166587"><ele>67.0</ele><time>2026-04-17T13:27:25.996Z</time></trkpt><trkpt lat="49.18468749586463" lon="2.469377106340185"><ele>67.0</ele><time>2026-04-17T13:27:27.996Z</time></trkpt><trkpt lat="49.18477473205583" lon="2.469331867677582"><ele>67.0</ele><time>2026-04-17T13:27:29.996Z</time></trkpt><trkpt lat="49.18486876108876" lon="2.469333437556146"><ele>67.0</ele><time>2026-04-17T13:27:32Z</time></trkpt><trkpt lat="49.18496245967473" lon="2.4693108645076247"><ele>67.0</ele><time>2026-04-17T13:27:34Z</time></trkpt><trkpt lat="49.185049058881035" lon="2.4692701710616443"><ele>67.0</ele><time>2026-04-17T13:27:36Z</time></trkpt><trkpt lat="49.18514277004841" lon="2.469244309245436"><ele>66.6</ele><time>2026-04-17T13:27:38Z</time></trkpt><trkpt lat="49.18523838321416" lon="2.4692439145471154"><ele>66.2</ele><time>2026-04-17T13:27:40Z</time></trkpt><trkpt lat="49.185330230175296" lon="2.469221624908255"><ele>65.8</ele><time>2026-04-17T13:27:42Z</time></trkpt><trkpt lat="49.185420135570205" lon="2.4691998065125316"><ele>65.4</ele><time>2026-04-17T13:27:44Z</time></trkpt><trkpt lat="49.185516960143886" lon="2.469176308845209"><ele>65.0</ele><time>2026-04-17T13:27:46Z</time></trkpt><trkpt lat="49.185611894828" lon="2.4691382875945362"><ele>65.0</ele><time>2026-04-17T13:27:47.999Z</time></trkpt><trkpt lat="49.185720025749546" lon="2.4691234776752617"><ele>65.0</ele><time>2026-04-17T13:27:49.999Z</time></trkpt><trkpt lat="49.18582672445531" lon="2.469101201126126"><ele>65.0</ele><time>2026-04-17T13:27:51.999Z</time></trkpt><trkpt lat="49.18593220159366" lon="2.4690691124913404"><ele>65.0</ele><time>2026-04-17T13:27:53.999Z</time></trkpt><trkpt lat="49.18604279156538" lon="2.4690445860279366"><ele>65.0</ele><time>2026-04-17T13:27:55.999Z</time></trkpt><trkpt lat="49.18614633296739" lon="2.4690254354436476"><ele>65.0</ele><time>2026-04-17T13:27:57.999Z</time></trkpt><trkpt lat="49.18624919987768" lon="2.4689998463820597"><ele>65.0</ele><time>2026-04-17T13:27:59.999Z</time></trkpt><trkpt lat="49.18634909878063" lon="2.4689681715639034"><ele>65.0</ele><time>2026-04-17T13:28:01.999Z</time></trkpt><trkpt lat="49.186451516912975" lon="2.4689447978243626"><ele>65.0</ele><time>2026-04-17T13:28:03.999Z</time></trkpt><trkpt lat="49.18656106905561" lon="2.4689127684599246"><ele>65.0</ele><time>2026-04-17T13:28:05.999Z</time></trkpt><trkpt lat="49.186667499272765" lon="2.4689047028880196"><ele>65.0</ele><time>2026-04-17T13:28:07.999Z</time></trkpt><trkpt lat="49.18676508792868" lon="2.4688589888818986"><ele>65.0</ele><time>2026-04-17T13:28:09.999Z</time></trkpt><trkpt lat="49.18688128996934" lon="2.468841809586266"><ele>65.0</ele><time>2026-04-17T13:28:11.999Z</time></trkpt><trkpt lat="49.18699097060724" lon="2.468821105375447"><ele>65.0</ele><time>2026-04-17T13:28:13.999Z</time></trkpt><trkpt lat="49.187101815322045" lon="2.4688088238755808"><ele>65.0</ele><time>2026-04-17T13:28:15.999Z</time></trkpt><trkpt lat="49.18721682791675" lon="2.468784631957459"><ele>65.0</ele><time>2026-04-17T13:28:17.999Z</time></trkpt><trkpt lat="49.18731265476964" lon="2.468864254323955"><ele>65.0</ele><time>2026-04-17T13:28:19.999Z</time></trkpt><trkpt lat="49.18741499888482" lon="2.4688705836199833"><ele>65.0</ele><time>2026-04-17T13:28:21.999Z</time></trkpt><trkpt lat="49.18746944449207" lon="2.468723912196126"><ele>65.0</ele><time>2026-04-17T13:28:23.999Z</time></trkpt><trkpt lat="49.18745936993781" lon="2.468571201934523"><ele>65.0</ele><time>2026-04-17T13:28:25.998Z</time></trkpt><trkpt lat="49.1874899202623" lon="2.468447380592677"><ele>64.16666666666667</ele><time>2026-04-17T13:28:27.998Z</time></trkpt><trkpt lat="49.18755741210424" lon="2.468228126729342"><ele>63.333333333333336</ele><time>2026-04-17T13:28:31.998Z</time></trkpt><trkpt lat="49.187594505709306" lon="2.46813542322343"><ele>62.5</ele><time>2026-04-17T13:28:33.998Z</time></trkpt><trkpt lat="49.18762363786251" lon="2.4680392822967416"><ele>61.66666666666667</ele><time>2026-04-17T13:28:35.998Z</time></trkpt><trkpt lat="49.18768002138842" lon="2.467960496948337"><ele>60.833333333333336</ele><time>2026-04-17T13:28:37.998Z</time></trkpt><trkpt lat="49.18770771280311" lon="2.4678626964122774"><ele>60.0</ele><time>2026-04-17T13:28:39.998Z</time></trkpt><trkpt lat="49.18779794353158" lon="2.467866543412571"><ele>60.0</ele><time>2026-04-17T13:28:42.998Z</time></trkpt><trkpt lat="49.18779809684998" lon="2.467672211263735"><ele>60.0</ele><time>2026-04-17T13:28:44.998Z</time></trkpt><trkpt lat="49.18777674626036" lon="2.467556155799878"><ele>60.0</ele><time>2026-04-17T13:28:46.998Z</time></trkpt><trkpt lat="49.18775447993775" lon="2.4674351233512537"><ele>60.0</ele><time>2026-04-17T13:28:48.998Z</time></trkpt><trkpt lat="49.1877324854494" lon="2.46731556849405"><ele>60.0</ele><time>2026-04-17T13:28:50.998Z</time></trkpt><trkpt lat="49.18771054616962" lon="2.467196313796097"><ele>60.333333333333336</ele><time>2026-04-17T13:28:52.998Z</time></trkpt><trkpt lat="49.18768856857379" lon="2.467076850779121"><ele>60.66666666666667</ele><time>2026-04-17T13:28:54.998Z</time></trkpt><trkpt lat="49.187665805170454" lon="2.466953116348438"><ele>61.0</ele><time>2026-04-17T13:28:56.998Z</time></trkpt><trkpt lat="49.187627985173016" lon="2.466833226922925"><ele>61.333333333333336</ele><time>2026-04-17T13:28:58.997Z</time></trkpt><trkpt lat="49.187608383463946" lon="2.4667102357757917"><ele>61.66666666666667</ele><time>2026-04-17T13:29:00.997Z</time></trkpt><trkpt lat="49.18760112197514" lon="2.4665847360056645"><ele>62.0</ele><time>2026-04-17T13:29:02.997Z</time></trkpt><trkpt lat="49.18758090793409" lon="2.466468614051556"><ele>62.00000000000001</ele><time>2026-04-17T13:29:04.997Z</time></trkpt><trkpt lat="49.187559433013526" lon="2.4663452488014297"><ele>62.0</ele><time>2026-04-17T13:29:06.997Z</time></trkpt><trkpt lat="49.18752238981781" lon="2.4662225339628714"><ele>62.0</ele><time>2026-04-17T13:29:08.997Z</time></trkpt><trkpt lat="49.18751575800295" lon="2.46609446201686"><ele>62.0</ele><time>2026-04-17T13:29:10.997Z</time></trkpt><trkpt lat="49.187494870768106" lon="2.4659826166170533"><ele>62.00000000000001</ele><time>2026-04-17T13:29:12.997Z</time></trkpt><trkpt lat="49.187474330570794" lon="2.46587262958408"><ele>62.0</ele><time>2026-04-17T13:29:14.997Z</time></trkpt><trkpt lat="49.18743659610827" lon="2.46575867089664"><ele>62.0</ele><time>2026-04-17T13:29:16.997Z</time></trkpt><trkpt lat="49.18742548682687" lon="2.4656226384181825"><ele>62.0</ele><time>2026-04-17T13:29:18.997Z</time></trkpt><trkpt lat="49.18738352185255" lon="2.465508127168786"><ele>62.0</ele><time>2026-04-17T13:29:20.997Z</time></trkpt><trkpt lat="49.18735448175002" lon="2.465372218465916"><ele>62.0</ele><time>2026-04-17T13:29:22.997Z</time></trkpt><trkpt lat="49.18732113526589" lon="2.465244505403087"><ele>62.0</ele><time>2026-04-17T13:29:24.997Z</time></trkpt><trkpt lat="49.187288906866975" lon="2.4651138151202905"><ele>62.0</ele><time>2026-04-17T13:29:26.997Z</time></trkpt><trkpt lat="49.1872519798638" lon="2.46497806968059"><ele>62.0</ele><time>2026-04-17T13:29:28.997Z</time></trkpt><trkpt lat="49.18721149465587" lon="2.464837442960053"><ele>62.0</ele><time>2026-04-17T13:29:30.996Z</time></trkpt><trkpt lat="49.18717330860357" lon="2.464689309922833"><ele>62.0</ele><time>2026-04-17T13:29:32.996Z</time></trkpt><trkpt lat="49.187147671979666" lon="2.4645394258462807"><ele>62.0</ele><time>2026-04-17T13:29:34.996Z</time></trkpt><trkpt lat="49.18709650609198" lon="2.4643973447848944"><ele>61.8</ele><time>2026-04-17T13:29:36.996Z</time></trkpt><trkpt lat="49.18705630227831" lon="2.4642446625180017"><ele>61.6</ele><time>2026-04-17T13:29:39Z</time></trkpt><trkpt lat="49.18701858604323" lon="2.4640902209680373"><ele>61.39999999999999</ele><time>2026-04-17T13:29:41Z</time></trkpt><trkpt lat="49.18698349457418" lon="2.4639345502236027"><ele>61.199999999999996</ele><time>2026-04-17T13:29:43Z</time></trkpt><trkpt lat="49.186955156808125" lon="2.4637775944501077"><ele>61.0</ele><time>2026-04-17T13:29:45Z</time></trkpt><trkpt lat="49.18695208187484" lon="2.4636417639503563"><ele>60.83333333333333</ele><time>2026-04-17T13:29:47Z</time></trkpt><trkpt lat="49.186937172958714" lon="2.463517533779247"><ele>60.666666666666664</ele><time>2026-04-17T13:29:52Z</time></trkpt><trkpt lat="49.18692461279131" lon="2.463410802739202"><ele>60.5</ele><time>2026-04-17T13:29:54Z</time></trkpt><trkpt lat="49.186911212387734" lon="2.463296932272091"><ele>60.33333333333333</ele><time>2026-04-17T13:29:56Z</time></trkpt><trkpt lat="49.18689717632849" lon="2.4631776617914083"><ele>60.166666666666664</ele><time>2026-04-17T13:29:57.999Z</time></trkpt><trkpt lat="49.18687753326609" lon="2.4630423536916264"><ele>60.0</ele><time>2026-04-17T13:29:59.999Z</time></trkpt><trkpt lat="49.18677300483919" lon="2.463012052193635"><ele>59.8</ele><time>2026-04-17T13:30:00.999Z</time></trkpt><trkpt lat="49.18672843802719" lon="2.4628880594404596"><ele>59.6</ele><time>2026-04-17T13:30:02.999Z</time></trkpt><trkpt lat="49.18669166105083" lon="2.4627604946184367"><ele>59.400000000000006</ele><time>2026-04-17T13:30:04.999Z</time></trkpt><trkpt lat="49.18665839084447" lon="2.4626330174985367"><ele>59.2</ele><time>2026-04-17T13:30:06.999Z</time></trkpt><trkpt lat="49.186620522225525" lon="2.462505048527147"><ele>59.0</ele><time>2026-04-17T13:30:08.999Z</time></trkpt><trkpt lat="49.18659197966751" lon="2.4623798439817044"><ele>59.00000000000001</ele><time>2026-04-17T13:30:10.999Z</time></trkpt><trkpt lat="49.18656531274457" lon="2.4622499146872556"><ele>59.0</ele><time>2026-04-17T13:30:12.999Z</time></trkpt><trkpt lat="49.18653325112515" lon="2.4621233342486857"><ele>59.0</ele><time>2026-04-17T13:30:14.999Z</time></trkpt><trkpt lat="49.186525293419216" lon="2.4619967234583013"><ele>59.0</ele><time>2026-04-17T13:30:16.999Z</time></trkpt><trkpt lat="49.186582528193824" lon="2.461949334501014"><ele>59.00000000000001</ele><time>2026-04-17T13:30:18.999Z</time></trkpt><trkpt lat="49.186510623717396" lon="2.4618020847431836"><ele>59.0</ele><time>2026-04-17T13:30:21.999Z</time></trkpt><trkpt lat="49.18648767185521" lon="2.4616992609201045"><ele>58.75</ele><time>2026-04-17T13:30:23.999Z</time></trkpt><trkpt lat="49.186750737757784" lon="2.46188183466445"><ele>58.5</ele><time>2026-04-17T13:30:24.999Z</time></trkpt><trkpt lat="49.18684320087289" lon="2.461844731203493"><ele>58.25</ele><time>2026-04-17T13:30:26.999Z</time></trkpt><trkpt lat="49.186904674648446" lon="2.4618200631297382"><ele>58.0</ele><time>2026-04-17T13:30:28.999Z</time></trkpt><trkpt lat="49.18699306549703" lon="2.4617845938317835"><ele>58.0</ele><time>2026-04-17T13:30:31.998Z</time></trkpt><trkpt lat="49.18704198623054" lon="2.4615123050132577"><ele>58.0</ele><time>2026-04-17T13:30:34.998Z</time></trkpt><trkpt lat="49.187116901141735" lon="2.4615424751809254"><ele>58.0</ele><time>2026-04-17T13:30:36.998Z</time></trkpt><trkpt lat="49.18722992610041" lon="2.4614475138890053"><ele>58.0</ele><time>2026-04-17T13:30:38.998Z</time></trkpt><trkpt lat="49.187315934838345" lon="2.4615022934762862"><ele>58.166666666666664</ele><time>2026-04-17T13:30:40.998Z</time></trkpt><trkpt lat="49.18739718074489" lon="2.4615541446764593"><ele>58.33333333333333</ele><time>2026-04-17T13:30:42.998Z</time></trkpt><trkpt lat="49.18748739899846" lon="2.46161176528739"><ele>58.5</ele><time>2026-04-17T13:30:44.998Z</time></trkpt><trkpt lat="49.18756358453954" lon="2.4616604425770614"><ele>58.66666666666667</ele><time>2026-04-17T13:30:46.998Z</time></trkpt><trkpt lat="49.18765140453329" lon="2.461716553493761"><ele>58.833333333333336</ele><time>2026-04-17T13:30:48.998Z</time></trkpt><trkpt lat="49.18772454564813" lon="2.4617632855100635"><ele>59.0</ele><time>2026-04-17T13:30:50.998Z</time></trkpt><trkpt lat="49.1878060240752" lon="2.4618153446471287"><ele>59.0</ele><time>2026-04-17T13:30:52.998Z</time></trkpt><trkpt lat="49.18789168555097" lon="2.4618700763673944"><ele>59.00000000000001</ele><time>2026-04-17T13:30:54.998Z</time></trkpt><trkpt lat="49.187980021041746" lon="2.4619268266458167"><ele>59.00000000000001</ele><time>2026-04-17T13:30:56.998Z</time></trkpt><trkpt lat="49.18807836571379" lon="2.4619911193320707"><ele>59.0</ele><time>2026-04-17T13:30:58.998Z</time></trkpt><trkpt lat="49.18817131469369" lon="2.462051884579647"><ele>59.0</ele><time>2026-04-17T13:31:00.998Z</time></trkpt><trkpt lat="49.18826459302213" lon="2.4621128651498774"><ele>58.6</ele><time>2026-04-17T13:31:02.997Z</time></trkpt><trkpt lat="49.1883673514554" lon="2.4621800433698575"><ele>58.2</ele><time>2026-04-17T13:31:04.997Z</time></trkpt><trkpt lat="49.18846356878105" lon="2.462242945279343"><ele>57.800000000000004</ele><time>2026-04-17T13:31:06.997Z</time></trkpt><trkpt lat="49.188557438799336" lon="2.4623043124739787"><ele>57.400000000000006</ele><time>2026-04-17T13:31:08.997Z</time></trkpt><trkpt lat="49.188650489995084" lon="2.4623630735312436"><ele>57.0</ele><time>2026-04-17T13:31:10.997Z</time></trkpt><trkpt lat="49.18873524606019" lon="2.462416733852444"><ele>57.0</ele><time>2026-04-17T13:31:12.997Z</time></trkpt><trkpt lat="49.18882969219559" lon="2.4624765291376827"><ele>57.0</ele><time>2026-04-17T13:31:14.997Z</time></trkpt><trkpt lat="49.18890978122215" lon="2.4625270465067692"><ele>57.0</ele><time>2026-04-17T13:31:16.997Z</time></trkpt><trkpt lat="49.188994167058446" lon="2.4625801796527362"><ele>57.0</ele><time>2026-04-17T13:31:18.997Z</time></trkpt><trkpt lat="49.189076642928136" lon="2.4626321100694923"><ele>57.0</ele><time>2026-04-17T13:31:20.997Z</time></trkpt><trkpt lat="49.18916889016683" lon="2.462690193036509"><ele>57.0</ele><time>2026-04-17T13:31:22.997Z</time></trkpt><trkpt lat="49.1892503252774" lon="2.462741478672497"><ele>57.0</ele><time>2026-04-17T13:31:24.997Z</time></trkpt><trkpt lat="49.18931603188593" lon="2.4627828504574474"><ele>57.0</ele><time>2026-04-17T13:31:26.997Z</time></trkpt><trkpt lat="49.189399223672744" lon="2.462836437048909"><ele>57.0</ele><time>2026-04-17T13:31:28.997Z</time></trkpt><trkpt lat="49.18947875026778" lon="2.462887700493154"><ele>57.0</ele><time>2026-04-17T13:31:30.997Z</time></trkpt><trkpt lat="49.18956434138506" lon="2.4629428854857296"><ele>57.0</ele><time>2026-04-17T13:31:32.997Z</time></trkpt><trkpt lat="49.18963951847913" lon="2.462991356074572"><ele>57.0</ele><time>2026-04-17T13:31:34.996Z</time></trkpt><trkpt lat="49.1897478257402" lon="2.4630611872679364"><ele>57.0</ele><time>2026-04-17T13:31:38.996Z</time></trkpt><trkpt lat="49.18982196198011" lon="2.463014859357953"><ele>57.0</ele><time>2026-04-17T13:31:40.996Z</time></trkpt><trkpt lat="49.189919734690264" lon="2.4631028301794595"><ele>57.0</ele><time>2026-04-17T13:31:43Z</time></trkpt><trkpt lat="49.19000712360852" lon="2.4631658250587374"><ele>57.0</ele><time>2026-04-17T13:31:45Z</time></trkpt><trkpt lat="49.19009994250295" lon="2.4632243256782367"><ele>56.8</ele><time>2026-04-17T13:31:47Z</time></trkpt><trkpt lat="49.19019153007222" lon="2.4632823886994952"><ele>56.6</ele><time>2026-04-17T13:31:49Z</time></trkpt><trkpt lat="49.19028415804737" lon="2.463335982833193"><ele>56.39999999999999</ele><time>2026-04-17T13:31:51Z</time></trkpt><trkpt lat="49.19037749775465" lon="2.4633929110803034"><ele>56.199999999999996</ele><time>2026-04-17T13:31:53Z</time></trkpt><trkpt lat="49.19047189963192" lon="2.463453605644488"><ele>56.0</ele><time>2026-04-17T13:31:55Z</time></trkpt><trkpt lat="49.19056600719043" lon="2.463513328262965"><ele>56.0</ele><time>2026-04-17T13:31:57Z</time></trkpt><trkpt lat="49.19065924646637" lon="2.46356894300146"><ele>55.99999999999999</ele><time>2026-04-17T13:31:59Z</time></trkpt><trkpt lat="49.190753831822775" lon="2.4636311782366866"><ele>55.99999999999999</ele><time>2026-04-17T13:32:01Z</time></trkpt><trkpt lat="49.19085093103503" lon="2.4636925052469896"><ele>56.0</ele><time>2026-04-17T13:32:02.999Z</time></trkpt><trkpt lat="49.19094665048047" lon="2.463754822779757"><ele>56.0</ele><time>2026-04-17T13:32:04.999Z</time></trkpt><trkpt lat="49.19104542519424" lon="2.463815267403992"><ele>56.199999999999996</ele><time>2026-04-17T13:32:06.999Z</time></trkpt><trkpt lat="49.19114306945641" lon="2.4638799969483283"><ele>56.39999999999999</ele><time>2026-04-17T13:32:08.999Z</time></trkpt><trkpt lat="49.19124168585853" lon="2.4639400853391975"><ele>56.6</ele><time>2026-04-17T13:32:10.999Z</time></trkpt><trkpt lat="49.191341354379965" lon="2.4640025349055295"><ele>56.8</ele><time>2026-04-17T13:32:12.999Z</time></trkpt><trkpt lat="49.19144115362417" lon="2.4640686264253553"><ele>57.0</ele><time>2026-04-17T13:32:14.999Z</time></trkpt><trkpt lat="49.19154150031064" lon="2.4641317924385913"><ele>57.0</ele><time>2026-04-17T13:32:16.999Z</time></trkpt><trkpt lat="49.19164236857803" lon="2.4641900300302026"><ele>57.0</ele><time>2026-04-17T13:32:18.999Z</time></trkpt><trkpt lat="49.19174412617594" lon="2.4642615958728076"><ele>57.0</ele><time>2026-04-17T13:32:20.999Z</time></trkpt><trkpt lat="49.19184773146733" lon="2.464329733661862"><ele>57.0</ele><time>2026-04-17T13:32:22.999Z</time></trkpt><trkpt lat="49.191949767983076" lon="2.46438778151763"><ele>57.0</ele><time>2026-04-17T13:32:24.999Z</time></trkpt><trkpt lat="49.19202611566181" lon="2.464408914578661"><ele>57.0</ele><time>2026-04-17T13:32:26.999Z</time></trkpt><trkpt lat="49.19211889325186" lon="2.4644540965161603"><ele>57.0</ele><time>2026-04-17T13:32:28.999Z</time></trkpt><trkpt lat="49.19221619148716" lon="2.4645214940591624"><ele>57.0</ele><time>2026-04-17T13:32:30.999Z</time></trkpt><trkpt lat="49.19230521190735" lon="2.464629678141347"><ele>57.0</ele><time>2026-04-17T13:32:32.999Z</time></trkpt><trkpt lat="49.192416715915094" lon="2.4646837628663394"><ele>57.0</ele><time>2026-04-17T13:32:34.999Z</time></trkpt><trkpt lat="49.19253346258048" lon="2.4647184300254215"><ele>56.75</ele><time>2026-04-17T13:32:36.998Z</time></trkpt><trkpt lat="49.19264700804463" lon="2.46479616279213"><ele>56.5</ele><time>2026-04-17T13:32:38.998Z</time></trkpt><trkpt lat="49.19275658062836" lon="2.464860325244562"><ele>56.25</ele><time>2026-04-17T13:32:40.998Z</time></trkpt><trkpt lat="49.19286915533413" lon="2.4649273606745923"><ele>56.0</ele><time>2026-04-17T13:32:42.998Z</time></trkpt><trkpt lat="49.19297301192925" lon="2.464996677399518"><ele>56.00000000000001</ele><time>2026-04-17T13:32:44.998Z</time></trkpt><trkpt lat="49.19305847179518" lon="2.465076192832133"><ele>56.0</ele><time>2026-04-17T13:32:46.998Z</time></trkpt><trkpt lat="49.193099322501105" lon="2.465210272306244"><ele>56.0</ele><time>2026-04-17T13:32:48.998Z</time></trkpt><trkpt lat="49.193123978922465" lon="2.4653022417761443"><ele>56.0</ele><time>2026-04-17T13:32:50.998Z</time></trkpt><trkpt lat="49.19317967991931" lon="2.4653624313584475"><ele>56.00000000000001</ele><time>2026-04-17T13:32:53.998Z</time></trkpt><trkpt lat="49.193272783516484" lon="2.4653766667575687"><ele>56.0</ele><time>2026-04-17T13:32:59.998Z</time></trkpt><trkpt lat="49.19332912860316" lon="2.4652789227665575"><ele>55.8</ele><time>2026-04-17T13:33:02.998Z</time></trkpt><trkpt lat="49.19339541885856" lon="2.4652728986136987"><ele>55.599999999999994</ele><time>2026-04-17T13:33:04.998Z</time></trkpt><trkpt lat="49.19347703274032" lon="2.465346013653639"><ele>55.4</ele><time>2026-04-17T13:33:06.998Z</time></trkpt><trkpt lat="49.19356468480294" lon="2.465397098970089"><ele>55.2</ele><time>2026-04-17T13:33:08.997Z</time></trkpt><trkpt lat="49.19365691000079" lon="2.4654545048757814"><ele>55.0</ele><time>2026-04-17T13:33:10.997Z</time></trkpt><trkpt lat="49.19375610754392" lon="2.46551589973219"><ele>55.0</ele><time>2026-04-17T13:33:12.997Z</time></trkpt><trkpt lat="49.19385839519828" lon="2.4655847095045647"><ele>55.0</ele><time>2026-04-17T13:33:14.997Z</time></trkpt><trkpt lat="49.193967160403396" lon="2.4656470359473626"><ele>55.0</ele><time>2026-04-17T13:33:16.997Z</time></trkpt><trkpt lat="49.19407683998139" lon="2.465709433854267"><ele>55.0</ele><time>2026-04-17T13:33:18.997Z</time></trkpt><trkpt lat="49.194171340803564" lon="2.4658372699226616"><ele>54.83333333333333</ele><time>2026-04-17T13:33:20.997Z</time></trkpt><trkpt lat="49.194181664684066" lon="2.4659474969030732"><ele>54.666666666666664</ele><time>2026-04-17T13:33:21.997Z</time></trkpt><trkpt lat="49.19417109716358" lon="2.466055340525734"><ele>54.5</ele><time>2026-04-17T13:33:22.997Z</time></trkpt><trkpt lat="49.19416564289625" lon="2.466157096198169"><ele>54.33333333333333</ele><time>2026-04-17T13:33:23.997Z</time></trkpt><trkpt lat="49.19417015282073" lon="2.4662600018187906"><ele>54.166666666666664</ele><time>2026-04-17T13:33:24.997Z</time></trkpt><trkpt lat="49.19417859350402" lon="2.4664541926840458"><ele>54.0</ele><time>2026-04-17T13:33:26.997Z</time></trkpt><trkpt lat="49.19418583572338" lon="2.4666277303224566"><ele>54.0</ele><time>2026-04-17T13:33:28.997Z</time></trkpt><trkpt lat="49.19419381305969" lon="2.466804959206262"><ele>54.0</ele><time>2026-04-17T13:33:30.997Z</time></trkpt><trkpt lat="49.19419673145031" lon="2.4669864152738974"><ele>54.0</ele><time>2026-04-17T13:33:32.997Z</time></trkpt><trkpt lat="49.194203983160776" lon="2.4671614681010583"><ele>54.0</ele><time>2026-04-17T13:33:34.997Z</time></trkpt><trkpt lat="49.19421154067086" lon="2.4673369968205896"><ele>54.6</ele><time>2026-04-17T13:33:36.997Z</time></trkpt><trkpt lat="49.194219239607634" lon="2.4675056704686154"><ele>55.2</ele><time>2026-04-17T13:33:38.997Z</time></trkpt><trkpt lat="49.19422741140417" lon="2.467681212580291"><ele>55.800000000000004</ele><time>2026-04-17T13:33:40.997Z</time></trkpt><trkpt lat="49.1942298006932" lon="2.4678518493545982"><ele>56.400000000000006</ele><time>2026-04-17T13:33:42.996Z</time></trkpt><trkpt lat="49.194233787219" lon="2.4680198971572573"><ele>57.0</ele><time>2026-04-17T13:33:44.996Z</time></trkpt><trkpt lat="49.194241472798716" lon="2.468182933496697"><ele>57.0</ele><time>2026-04-17T13:33:46.996Z</time></trkpt><trkpt lat="49.194251848738745" lon="2.4683470619524575"><ele>57.0</ele><time>2026-04-17T13:33:49Z</time></trkpt><trkpt lat="49.19425444110578" lon="2.4685116879179727"><ele>57.0</ele><time>2026-04-17T13:33:51Z</time></trkpt><trkpt lat="49.194260622805224" lon="2.4686752276178794"><ele>57.0</ele><time>2026-04-17T13:33:53Z</time></trkpt><trkpt lat="49.19426817391899" lon="2.4688398189032488"><ele>57.0</ele><time>2026-04-17T13:33:55Z</time></trkpt><trkpt lat="49.19427817186047" lon="2.4689983750326268"><ele>56.8</ele><time>2026-04-17T13:33:57Z</time></trkpt><trkpt lat="49.19428616452532" lon="2.4691518657943137"><ele>56.6</ele><time>2026-04-17T13:33:59Z</time></trkpt><trkpt lat="49.19428800786214" lon="2.469316942542532"><ele>56.39999999999999</ele><time>2026-04-17T13:34:01Z</time></trkpt><trkpt lat="49.19429419488227" lon="2.469477008516895"><ele>56.199999999999996</ele><time>2026-04-17T13:34:03Z</time></trkpt><trkpt lat="49.19429787958103" lon="2.469639569383538"><ele>56.0</ele><time>2026-04-17T13:34:05Z</time></trkpt><trkpt lat="49.19430450912945" lon="2.469801699649064"><ele>56.0</ele><time>2026-04-17T13:34:07Z</time></trkpt><trkpt lat="49.19431202391222" lon="2.469964552081653"><ele>55.99999999999999</ele><time>2026-04-17T13:34:08.999Z</time></trkpt><trkpt lat="49.194321173070065" lon="2.4701354331224925"><ele>55.99999999999999</ele><time>2026-04-17T13:34:10.999Z</time></trkpt><trkpt lat="49.19432520486703" lon="2.470305668889978"><ele>56.0</ele><time>2026-04-17T13:34:12.999Z</time></trkpt><trkpt lat="49.1943340148245" lon="2.4704756281236806"><ele>56.0</ele><time>2026-04-17T13:34:14.999Z</time></trkpt><trkpt lat="49.19433710740807" lon="2.4706469369483086"><ele>56.0</ele><time>2026-04-17T13:34:16.999Z</time></trkpt><trkpt lat="49.19433618905896" lon="2.470820007086652"><ele>55.99999999999999</ele><time>2026-04-17T13:34:18.999Z</time></trkpt><trkpt lat="49.19434168222641" lon="2.470996415296104"><ele>55.99999999999999</ele><time>2026-04-17T13:34:20.999Z</time></trkpt><trkpt lat="49.19434359329356" lon="2.471165270830748"><ele>56.0</ele><time>2026-04-17T13:34:22.999Z</time></trkpt><trkpt lat="49.194354454813734" lon="2.4713264581933907"><ele>56.0</ele><time>2026-04-17T13:34:24.999Z</time></trkpt><trkpt lat="49.19436026104828" lon="2.471509404465708"><ele>56.0</ele><time>2026-04-17T13:34:26.999Z</time></trkpt><trkpt lat="49.194366380065944" lon="2.471691876706017"><ele>56.0</ele><time>2026-04-17T13:34:28.999Z</time></trkpt><trkpt lat="49.194373939720535" lon="2.4718766661035785"><ele>56.0</ele><time>2026-04-17T13:34:30.999Z</time></trkpt><trkpt lat="49.19438043564862" lon="2.472059928067159"><ele>56.0</ele><time>2026-04-17T13:34:32.999Z</time></trkpt><trkpt lat="49.19438891235298" lon="2.472244137000352"><ele>56.0</ele><time>2026-04-17T13:34:34.999Z</time></trkpt><trkpt lat="49.194391332524205" lon="2.4724221224210554"><ele>55.99999999999999</ele><time>2026-04-17T13:34:36.999Z</time></trkpt><trkpt lat="49.19437103815929" lon="2.472590700194987"><ele>55.99999999999999</ele><time>2026-04-17T13:34:38.999Z</time></trkpt><trkpt lat="49.19438030055147" lon="2.472745412769063"><ele>56.0</ele><time>2026-04-17T13:34:40.999Z</time></trkpt><trkpt lat="49.19438574264054" lon="2.4729041892507366"><ele>56.0</ele><time>2026-04-17T13:34:42.998Z</time></trkpt><trkpt lat="49.19437933243258" lon="2.4730720083684816"><ele>56.0</ele><time>2026-04-17T13:34:44.998Z</time></trkpt><trkpt lat="49.19438653460614" lon="2.4732453202682523"><ele>56.0</ele><time>2026-04-17T13:34:46.998Z</time></trkpt><trkpt lat="49.1943937853196" lon="2.473419800870004"><ele>56.0</ele><time>2026-04-17T13:34:48.998Z</time></trkpt><trkpt lat="49.19439933263987" lon="2.473596311989637"><ele>56.0</ele><time>2026-04-17T13:34:50.998Z</time></trkpt><trkpt lat="49.19440496046533" lon="2.473775488893137"><ele>56.5</ele><time>2026-04-17T13:34:52.998Z</time></trkpt><trkpt lat="49.194410604404574" lon="2.4739557731705584"><ele>57.0</ele><time>2026-04-17T13:34:54.998Z</time></trkpt><trkpt lat="49.19441622594579" lon="2.4741353419621244"><ele>57.5</ele><time>2026-04-17T13:34:56.998Z</time></trkpt><trkpt lat="49.194421864874066" lon="2.474315466160782"><ele>58.0</ele><time>2026-04-17T13:34:58.998Z</time></trkpt><trkpt lat="49.19442663865066" lon="2.474497367274468"><ele>57.75</ele><time>2026-04-17T13:35:00.998Z</time></trkpt><trkpt lat="49.1944311652816" lon="2.474681606454786"><ele>57.5</ele><time>2026-04-17T13:35:02.998Z</time></trkpt><trkpt lat="49.194438689604304" lon="2.4748716800332478"><ele>57.25</ele><time>2026-04-17T13:35:04.998Z</time></trkpt><trkpt lat="49.19444683184829" lon="2.4750511686560177"><ele>57.0</ele><time>2026-04-17T13:35:06.998Z</time></trkpt><trkpt lat="49.194452274695045" lon="2.475231853826539"><ele>57.0</ele><time>2026-04-17T13:35:08.998Z</time></trkpt><trkpt lat="49.19445740861753" lon="2.475415833423809"><ele>57.0</ele><time>2026-04-17T13:35:10.998Z</time></trkpt><trkpt lat="49.19446244865088" lon="2.4755964483372193"><ele>57.0</ele><time>2026-04-17T13:35:12.998Z</time></trkpt><trkpt lat="49.19446659887297" lon="2.475778140500642"><ele>57.0</ele><time>2026-04-17T13:35:14.997Z</time></trkpt><trkpt lat="49.19446601642605" lon="2.4759622218926953"><ele>56.25</ele><time>2026-04-17T13:35:16.997Z</time></trkpt><trkpt lat="49.19446257745293" lon="2.4761519476447753"><ele>55.5</ele><time>2026-04-17T13:35:18.997Z</time></trkpt><trkpt lat="49.194453023978014" lon="2.476339319924606"><ele>54.75</ele><time>2026-04-17T13:35:20.997Z</time></trkpt><trkpt lat="49.19444646241078" lon="2.4765258303250954"><ele>54.0</ele><time>2026-04-17T13:35:22.997Z</time></trkpt><trkpt lat="49.194443166246764" lon="2.4767160898267435"><ele>53.800000000000004</ele><time>2026-04-17T13:35:24.997Z</time></trkpt><trkpt lat="49.194439962326825" lon="2.476901025097137"><ele>53.60000000000001</ele><time>2026-04-17T13:35:26.997Z</time></trkpt><trkpt lat="49.194437873934305" lon="2.4770843434251497"><ele>53.4</ele><time>2026-04-17T13:35:28.997Z</time></trkpt><trkpt lat="49.194436744755514" lon="2.4772142860025714"><ele>53.2</ele><time>2026-04-17T13:35:30.997Z</time></trkpt><trkpt lat="49.19439946692324" lon="2.4773487765607762"><ele>53.0</ele><time>2026-04-17T13:35:32.997Z</time></trkpt><trkpt lat="49.19417039680916" lon="2.4773211850361916"><ele>53.00000000000001</ele><time>2026-04-17T13:35:38.997Z</time></trkpt><trkpt lat="49.19408921029857" lon="2.4772740533749227"><ele>53.0</ele><time>2026-04-17T13:35:40.997Z</time></trkpt><trkpt lat="49.194007742265775" lon="2.477270611664098"><ele>53.0</ele><time>2026-04-17T13:35:42.997Z</time></trkpt><trkpt lat="49.19393515192484" lon="2.477242296170086"><ele>53.0</ele><time>2026-04-17T13:35:44.997Z</time></trkpt><trkpt lat="49.193850409346716" lon="2.477227071946312"><ele>53.00000000000001</ele><time>2026-04-17T13:35:46.997Z</time></trkpt><trkpt lat="49.19377078971063" lon="2.4772009922043967"><ele>53.0</ele><time>2026-04-17T13:35:48.996Z</time></trkpt><trkpt lat="49.193689373266295" lon="2.4772673319649234"><ele>53.16666666666667</ele><time>2026-04-17T13:35:50.996Z</time></trkpt><trkpt lat="49.19360185457474" lon="2.477275781135923"><ele>53.333333333333336</ele><time>2026-04-17T13:35:52.996Z</time></trkpt><trkpt lat="49.193511119735206" lon="2.4772779969099625"><ele>53.5</ele><time>2026-04-17T13:35:55Z</time></trkpt><trkpt lat="49.193438669569126" lon="2.477349545707959"><ele>53.66666666666667</ele><time>2026-04-17T13:35:57Z</time></trkpt><trkpt lat="49.193416211104" lon="2.477480982602682"><ele>53.833333333333336</ele><time>2026-04-17T13:35:59Z</time></trkpt><trkpt lat="49.193404605490734" lon="2.4776220420249264"><ele>54.0</ele><time>2026-04-17T13:36:01Z</time></trkpt><trkpt lat="49.193389739082946" lon="2.477782584903595"><ele>54.2</ele><time>2026-04-17T13:36:03Z</time></trkpt><trkpt lat="49.193397253174005" lon="2.477947579319977"><ele>54.400000000000006</ele><time>2026-04-17T13:36:05Z</time></trkpt><trkpt lat="49.19340007996741" lon="2.4781057867088925"><ele>54.6</ele><time>2026-04-17T13:36:07Z</time></trkpt><trkpt lat="49.193406731104844" lon="2.478272870717189"><ele>54.8</ele><time>2026-04-17T13:36:09Z</time></trkpt><trkpt lat="49.19340921393587" lon="2.4784384765950613"><ele>55.0</ele><time>2026-04-17T13:36:11Z</time></trkpt><trkpt lat="49.19341357630659" lon="2.4786063358810098"><ele>55.2</ele><time>2026-04-17T13:36:12.999Z</time></trkpt><trkpt lat="49.193417718256775" lon="2.4787761513600923"><ele>55.4</ele><time>2026-04-17T13:36:14.999Z</time></trkpt><trkpt lat="49.19341838927364" lon="2.478942978963702"><ele>55.599999999999994</ele><time>2026-04-17T13:36:16.999Z</time></trkpt><trkpt lat="49.1934263412787" lon="2.479110573336624"><ele>55.8</ele><time>2026-04-17T13:36:18.999Z</time></trkpt><trkpt lat="49.19345152245747" lon="2.4792585098667383"><ele>56.0</ele><time>2026-04-17T13:36:20.999Z</time></trkpt><trkpt lat="49.1934657740763" lon="2.479429313120439"><ele>56.0</ele><time>2026-04-17T13:36:22.999Z</time></trkpt><trkpt lat="49.19347005493982" lon="2.4795847249334075"><ele>55.99999999999999</ele><time>2026-04-17T13:36:24.999Z</time></trkpt><trkpt lat="49.19346420614554" lon="2.4797581596747325"><ele>55.99999999999999</ele><time>2026-04-17T13:36:26.999Z</time></trkpt><trkpt lat="49.19347339609945" lon="2.4799103057719334"><ele>56.0</ele><time>2026-04-17T13:36:28.999Z</time></trkpt><trkpt lat="49.193476493128806" lon="2.4800659516250225"><ele>56.0</ele><time>2026-04-17T13:36:30.999Z</time></trkpt><trkpt lat="49.193479323357074" lon="2.480224324090179"><ele>55.4</ele><time>2026-04-17T13:36:32.999Z</time></trkpt><trkpt lat="49.19348509632164" lon="2.4803763046537526"><ele>54.8</ele><time>2026-04-17T13:36:34.999Z</time></trkpt><trkpt lat="49.19346426170197" lon="2.480546995843042"><ele>54.199999999999996</ele><time>2026-04-17T13:36:36.999Z</time></trkpt><trkpt lat="49.19344330964181" lon="2.48071799901982"><ele>53.599999999999994</ele><time>2026-04-17T13:36:38.999Z</time></trkpt><trkpt lat="49.19341891032254" lon="2.480890885183209"><ele>53.0</ele><time>2026-04-17T13:36:40.999Z</time></trkpt><trkpt lat="49.193409384052785" lon="2.480990492427976"><ele>52.599999999999994</ele><time>2026-04-17T13:36:41.999Z</time></trkpt><trkpt lat="49.19335062004895" lon="2.481149370986278"><ele>52.199999999999996</ele><time>2026-04-17T13:36:43.999Z</time></trkpt><trkpt lat="49.19329706461107" lon="2.481322784772298"><ele>51.8</ele><time>2026-04-17T13:36:45.998Z</time></trkpt><trkpt lat="49.19324772170811" lon="2.4814909280885953"><ele>51.4</ele><time>2026-04-17T13:36:47.998Z</time></trkpt><trkpt lat="49.1932172477174" lon="2.481576153595931"><ele>51.0</ele><time>2026-04-17T13:36:48.998Z</time></trkpt><trkpt lat="49.193167616729255" lon="2.481644500700377"><ele>50.199999999999996</ele><time>2026-04-17T13:36:49.998Z</time></trkpt><trkpt lat="49.193130898474735" lon="2.481724724381002"><ele>49.4</ele><time>2026-04-17T13:36:50.998Z</time></trkpt><trkpt lat="49.193052021699714" lon="2.481872748525126"><ele>48.6</ele><time>2026-04-17T13:36:52.998Z</time></trkpt><trkpt lat="49.19296891002923" lon="2.4820053357677074"><ele>47.8</ele><time>2026-04-17T13:36:54.998Z</time></trkpt><trkpt lat="49.19287733225085" lon="2.4821212501151564"><ele>47.0</ele><time>2026-04-17T13:36:56.998Z</time></trkpt><trkpt lat="49.19282279630507" lon="2.4821773564267047"><ele>46.57142857142857</ele><time>2026-04-17T13:36:57.998Z</time></trkpt><trkpt lat="49.19277699242266" lon="2.482246278265859"><ele>46.14285714285714</ele><time>2026-04-17T13:36:58.998Z</time></trkpt><trkpt lat="49.19271455618757" lon="2.4822760099743"><ele>45.714285714285715</ele><time>2026-04-17T13:36:59.998Z</time></trkpt><trkpt lat="49.1926511972695" lon="2.4823239539342428"><ele>45.285714285714285</ele><time>2026-04-17T13:37:00.998Z</time></trkpt><trkpt lat="49.192598196895936" lon="2.4823818861597227"><ele>44.857142857142854</ele><time>2026-04-17T13:37:01.998Z</time></trkpt><trkpt lat="49.1925338768217" lon="2.482414812317315"><ele>44.42857142857143</ele><time>2026-04-17T13:37:02.998Z</time></trkpt><trkpt lat="49.192473206253105" lon="2.48246400840674"><ele>44.0</ele><time>2026-04-17T13:37:03.998Z</time></trkpt><trkpt lat="49.19241536144862" lon="2.4825040994336134"><ele>44.0</ele><time>2026-04-17T13:37:04.998Z</time></trkpt><trkpt lat="49.19235476024072" lon="2.482545023912318"><ele>44.0</ele><time>2026-04-17T13:37:05.998Z</time></trkpt><trkpt lat="49.192295710117335" lon="2.4825849006776655"><ele>44.0</ele><time>2026-04-17T13:37:06.998Z</time></trkpt><trkpt lat="49.192235090159286" lon="2.4826258376566166"><ele>44.0</ele><time>2026-04-17T13:37:07.998Z</time></trkpt><trkpt lat="49.192177211853284" lon="2.482664923204156"><ele>44.0</ele><time>2026-04-17T13:37:08.998Z</time></trkpt><trkpt lat="49.19212389967766" lon="2.4827241065502386"><ele>44.0</ele><time>2026-04-17T13:37:09.998Z</time></trkpt><trkpt lat="49.19206333835107" lon="2.4827647218350277"><ele>44.0</ele><time>2026-04-17T13:37:10.998Z</time></trkpt><trkpt lat="49.19200453548498" lon="2.482806184700829"><ele>44.800000000000004</ele><time>2026-04-17T13:37:11.998Z</time></trkpt><trkpt lat="49.191938714114706" lon="2.4828220731127346"><ele>45.6</ele><time>2026-04-17T13:37:12.998Z</time></trkpt><trkpt lat="49.191832307508285" lon="2.48289603018776"><ele>46.4</ele><time>2026-04-17T13:37:14.998Z</time></trkpt><trkpt lat="49.191730127266545" lon="2.482971699386527"><ele>47.2</ele><time>2026-04-17T13:37:16.998Z</time></trkpt><trkpt lat="49.19164000532918" lon="2.483060021343905"><ele>48.0</ele><time>2026-04-17T13:37:18.997Z</time></trkpt><trkpt lat="49.191580209764595" lon="2.4831897621473455"><ele>48.0</ele><time>2026-04-17T13:37:20.997Z</time></trkpt><trkpt lat="49.19155183614259" lon="2.4833286284391787"><ele>48.0</ele><time>2026-04-17T13:37:22.997Z</time></trkpt><trkpt lat="49.19153060668845" lon="2.4834793778076905"><ele>48.0</ele><time>2026-04-17T13:37:24.997Z</time></trkpt><trkpt lat="49.191505252916606" lon="2.483620614848767"><ele>48.0</ele><time>2026-04-17T13:37:26.997Z</time></trkpt><trkpt lat="49.19151576545949" lon="2.4837625435994894"><ele>48.0</ele><time>2026-04-17T13:37:28.997Z</time></trkpt><trkpt lat="49.191491685859205" lon="2.4839202245674157"><ele>48.8</ele><time>2026-04-17T13:37:30.997Z</time></trkpt><trkpt lat="49.191396194533255" lon="2.4839905872239094"><ele>49.599999999999994</ele><time>2026-04-17T13:37:32.997Z</time></trkpt><trkpt lat="49.19132318738262" lon="2.484032035095335"><ele>50.400000000000006</ele><time>2026-04-17T13:37:34.997Z</time></trkpt><trkpt lat="49.19126483974387" lon="2.484070743233339"><ele>51.2</ele><time>2026-04-17T13:37:36.997Z</time></trkpt><trkpt lat="49.191283380457286" lon="2.484205897658816"><ele>52.0</ele><time>2026-04-17T13:37:37.997Z</time></trkpt><trkpt lat="49.191382156351764" lon="2.48432925145596"><ele>51.99999999999999</ele><time>2026-04-17T13:37:38.997Z</time></trkpt><trkpt lat="49.191504315351544" lon="2.4844039745602085"><ele>52.0</ele><time>2026-04-17T13:37:42.997Z</time></trkpt><trkpt lat="49.191476149704386" lon="2.48450711420029"><ele>52.0</ele><time>2026-04-17T13:37:44.997Z</time></trkpt><trkpt lat="49.19150174393214" lon="2.484641608601609"><ele>52.0</ele><time>2026-04-17T13:37:46.997Z</time></trkpt><trkpt lat="49.191489597535664" lon="2.484756078753675"><ele>51.99999999999999</ele><time>2026-04-17T13:37:48.997Z</time></trkpt><trkpt lat="49.19152374397908" lon="2.4848509655498576"><ele>52.0</ele><time>2026-04-17T13:37:49.997Z</time></trkpt><trkpt lat="49.19154552723913" lon="2.4850054134401534"><ele>51.714285714285715</ele><time>2026-04-17T13:37:51.996Z</time></trkpt><trkpt lat="49.19155072305835" lon="2.485121906763297"><ele>51.42857142857143</ele><time>2026-04-17T13:37:56.996Z</time></trkpt><trkpt lat="49.19160060662423" lon="2.4851996727458054"><ele>51.142857142857146</ele><time>2026-04-17T13:37:59.996Z</time></trkpt><trkpt lat="49.19161258373065" lon="2.4853153013249267"><ele>50.85714285714286</ele><time>2026-04-17T13:38:02.999Z</time></trkpt><trkpt lat="49.19159951460126" lon="2.4854307420939"><ele>50.57142857142857</ele><time>2026-04-17T13:38:05.999Z</time></trkpt><trkpt lat="49.19155419234493" lon="2.485518228878315"><ele>50.28571428571429</ele><time>2026-04-17T13:38:08.999Z</time></trkpt><trkpt lat="49.191507639161614" lon="2.485584980062265"><ele>50.0</ele><time>2026-04-17T13:38:11.999Z</time></trkpt><trkpt lat="49.19146939276446" lon="2.485671165709026"><ele>50.00000000000001</ele><time>2026-04-17T13:38:14.999Z</time></trkpt><trkpt lat="49.19144133245232" lon="2.4857843826482204"><ele>50.0</ele><time>2026-04-17T13:38:17.999Z</time></trkpt><trkpt lat="49.191385445557394" lon="2.4858855149358763"><ele>50.0</ele><time>2026-04-17T13:38:20.999Z</time></trkpt><trkpt lat="49.191322408498365" lon="2.485930276330703"><ele>50.0</ele><time>2026-04-17T13:38:22.999Z</time></trkpt><trkpt lat="49.191236853080696" lon="2.486004865641081"><ele>50.00000000000001</ele><time>2026-04-17T13:38:25.999Z</time></trkpt><trkpt lat="49.19118809242522" lon="2.486090194562719"><ele>50.0</ele><time>2026-04-17T13:38:28.999Z</time></trkpt><trkpt lat="49.191138899477856" lon="2.486171539182574"><ele>50.00000000000001</ele><time>2026-04-17T13:38:30.999Z</time></trkpt><trkpt lat="49.19109654519988" lon="2.4862442104247666"><ele>50.0</ele><time>2026-04-17T13:38:32.999Z</time></trkpt><trkpt lat="49.19105184921113" lon="2.4863193638682706"><ele>50.0</ele><time>2026-04-17T13:38:34.999Z</time></trkpt><trkpt lat="49.19100177950665" lon="2.4863948020659805"><ele>50.0</ele><time>2026-04-17T13:38:36.999Z</time></trkpt><trkpt lat="49.1909542560664" lon="2.486475985722237"><ele>50.0</ele><time>2026-04-17T13:38:38.999Z</time></trkpt><trkpt lat="49.19090580846374" lon="2.4865603359769044"><ele>50.00000000000001</ele><time>2026-04-17T13:38:40.999Z</time></trkpt><trkpt lat="49.19085507065806" lon="2.48663125403932"><ele>50.0</ele><time>2026-04-17T13:38:42.999Z</time></trkpt><trkpt lat="49.19080915194521" lon="2.4867085964804203"><ele>50.66666666666667</ele><time>2026-04-17T13:38:44.998Z</time></trkpt><trkpt lat="49.190750112827246" lon="2.4868041188947188"><ele>51.333333333333336</ele><time>2026-04-17T13:38:47.998Z</time></trkpt><trkpt lat="49.1906964944159" lon="2.4868877209631504"><ele>52.0</ele><time>2026-04-17T13:38:50.998Z</time></trkpt><trkpt lat="49.19064946401959" lon="2.4869610405460056"><ele>52.66666666666667</ele><time>2026-04-17T13:38:53.998Z</time></trkpt><trkpt lat="49.19059121789075" lon="2.4870494679899915"><ele>53.333333333333336</ele><time>2026-04-17T13:38:56.998Z</time></trkpt><trkpt lat="49.190544639290266" lon="2.4871197096973856"><ele>54.0</ele><time>2026-04-17T13:38:58.998Z</time></trkpt><trkpt lat="49.19047731166643" lon="2.487215999644276"><ele>54.57142857142857</ele><time>2026-04-17T13:39:01.998Z</time></trkpt><trkpt lat="49.19041999285093" lon="2.487263726360191"><ele>55.14285714285714</ele><time>2026-04-17T13:39:03.998Z</time></trkpt><trkpt lat="49.19038945953802" lon="2.4873632023527312"><ele>55.71428571428572</ele><time>2026-04-17T13:39:05.998Z</time></trkpt><trkpt lat="49.190352643612414" lon="2.487464564971779"><ele>56.28571428571429</ele><time>2026-04-17T13:39:07.998Z</time></trkpt><trkpt lat="49.190310778682786" lon="2.4875666930490823"><ele>56.85714285714286</ele><time>2026-04-17T13:39:09.998Z</time></trkpt><trkpt lat="49.1902668495352" lon="2.4876653058733225"><ele>57.42857142857144</ele><time>2026-04-17T13:39:11.998Z</time></trkpt><trkpt lat="49.190224936627764" lon="2.487766460617407"><ele>58.00000000000001</ele><time>2026-04-17T13:39:13.998Z</time></trkpt><trkpt lat="49.19017354834055" lon="2.4878553256781535"><ele>58.0</ele><time>2026-04-17T13:39:15.998Z</time></trkpt><trkpt lat="49.18998458721087" lon="2.4879014231975423"><ele>58.0</ele><time>2026-04-17T13:39:17.997Z</time></trkpt><trkpt lat="49.18996231650506" lon="2.488051581657336"><ele>58.0</ele><time>2026-04-17T13:39:20.997Z</time></trkpt><trkpt lat="49.189946681801246" lon="2.4881560197192956"><ele>58.0</ele><time>2026-04-17T13:39:22.997Z</time></trkpt><trkpt lat="49.189913298907825" lon="2.4882790762074714"><ele>58.0</ele><time>2026-04-17T13:39:24.997Z</time></trkpt><trkpt lat="49.18986020106788" lon="2.4884066148182424"><ele>57.75</ele><time>2026-04-17T13:39:26.997Z</time></trkpt><trkpt lat="49.18979189065881" lon="2.4885712261382955"><ele>57.5</ele><time>2026-04-17T13:39:28.997Z</time></trkpt><trkpt lat="49.18972845259724" lon="2.4885582904537755"><ele>57.25</ele><time>2026-04-17T13:39:29.997Z</time></trkpt><trkpt lat="49.18980846731455" lon="2.48886346730338"><ele>57.0</ele><time>2026-04-17T13:39:30.997Z</time></trkpt><trkpt lat="49.18975968017427" lon="2.4889589453348333"><ele>56.0</ele><time>2026-04-17T13:39:31.997Z</time></trkpt><trkpt lat="49.18970587267789" lon="2.489071857023967"><ele>55.0</ele><time>2026-04-17T13:39:32.997Z</time></trkpt><trkpt lat="49.1896566875605" lon="2.48918658289355"><ele>54.0</ele><time>2026-04-17T13:39:33.997Z</time></trkpt><trkpt lat="49.18960513345241" lon="2.489297164025515"><ele>53.0</ele><time>2026-04-17T13:39:34.997Z</time></trkpt><trkpt lat="49.189550728723454" lon="2.4894027292579692"><ele>52.0</ele><time>2026-04-17T13:39:35.997Z</time></trkpt><trkpt lat="49.18949546520712" lon="2.4895183854939917"><ele>52.49999999999999</ele><time>2026-04-17T13:39:36.997Z</time></trkpt><trkpt lat="49.18944582062072" lon="2.4896218634174416"><ele>53.0</ele><time>2026-04-17T13:39:37.997Z</time></trkpt><trkpt lat="49.189393451349986" lon="2.4897227067622105"><ele>53.5</ele><time>2026-04-17T13:39:38.997Z</time></trkpt><trkpt lat="49.18934088692062" lon="2.489824656440757"><ele>54.0</ele><time>2026-04-17T13:39:39.997Z</time></trkpt><trkpt lat="49.18930277725353" lon="2.4899170760257388"><ele>54.49999999999999</ele><time>2026-04-17T13:39:40.997Z</time></trkpt><trkpt lat="49.18927144896945" lon="2.4900857169229997"><ele>55.0</ele><time>2026-04-17T13:39:42.997Z</time></trkpt><trkpt lat="49.18924773471076" lon="2.490240974161313"><ele>54.99999999999999</ele><time>2026-04-17T13:39:44.997Z</time></trkpt><trkpt lat="49.18924071353575" lon="2.4903584322098413"><ele>55.0</ele><time>2026-04-17T13:39:46.997Z</time></trkpt><trkpt lat="49.189247316073164" lon="2.4904635064021035"><ele>55.0</ele><time>2026-04-17T13:39:48.997Z</time></trkpt><trkpt lat="49.18926220716375" lon="2.4905663758857552"><ele>55.0</ele><time>2026-04-17T13:39:50.997Z</time></trkpt><trkpt lat="49.18928420008598" lon="2.4906797409805996"><ele>54.99999999999999</ele><time>2026-04-17T13:39:52.996Z</time></trkpt><trkpt lat="49.189300686840866" lon="2.4908326631750266"><ele>55.0</ele><time>2026-04-17T13:39:55.996Z</time></trkpt><trkpt lat="49.18931883234282" lon="2.490937273438251"><ele>55.166666666666664</ele><time>2026-04-17T13:39:57.996Z</time></trkpt><trkpt lat="49.189315080901984" lon="2.491061591393357"><ele>55.33333333333333</ele><time>2026-04-17T13:39:59.996Z</time></trkpt><trkpt lat="49.1893190848384" lon="2.491194109989803"><ele>55.5</ele><time>2026-04-17T13:40:01.996Z</time></trkpt><trkpt lat="49.18932585266715" lon="2.491331346621241"><ele>55.66666666666667</ele><time>2026-04-17T13:40:03.996Z</time></trkpt><trkpt lat="49.18933243717554" lon="2.4914390261442585"><ele>55.833333333333336</ele><time>2026-04-17T13:40:05.999Z</time></trkpt><trkpt lat="49.18933580029596" lon="2.4915626857546918"><ele>56.0</ele><time>2026-04-17T13:40:07.999Z</time></trkpt><trkpt lat="49.18933887409174" lon="2.491691353741513"><ele>56.14285714285714</ele><time>2026-04-17T13:40:10.999Z</time></trkpt><trkpt lat="49.18934615222193" lon="2.4917985451663176"><ele>56.285714285714285</ele><time>2026-04-17T13:40:12.999Z</time></trkpt><trkpt lat="49.18935143775246" lon="2.4919017021104533"><ele>56.42857142857143</ele><time>2026-04-17T13:40:14.999Z</time></trkpt><trkpt lat="49.189356043755964" lon="2.492011844383092"><ele>56.57142857142857</ele><time>2026-04-17T13:40:16.999Z</time></trkpt><trkpt lat="49.18934421831287" lon="2.4921097737072797"><ele>56.71428571428571</ele><time>2026-04-17T13:40:18.999Z</time></trkpt><trkpt lat="49.189351542702994" lon="2.4922423905354214"><ele>56.857142857142854</ele><time>2026-04-17T13:40:21.999Z</time></trkpt><trkpt lat="49.18936014371511" lon="2.4923606904167372"><ele>57.0</ele><time>2026-04-17T13:40:23.999Z</time></trkpt><trkpt lat="49.18937708898809" lon="2.4924744738183144"><ele>57.285714285714285</ele><time>2026-04-17T13:40:25.999Z</time></trkpt><trkpt lat="49.18938025300448" lon="2.4925922347265406"><ele>57.57142857142857</ele><time>2026-04-17T13:40:27.999Z</time></trkpt><trkpt lat="49.18939708858424" lon="2.4926984190053725"><ele>57.857142857142854</ele><time>2026-04-17T13:40:29.999Z</time></trkpt><trkpt lat="49.189406485028535" lon="2.4928056882351854"><ele>58.14285714285714</ele><time>2026-04-17T13:40:31.999Z</time></trkpt><trkpt lat="49.18942547065702" lon="2.49291972144702"><ele>58.42857142857143</ele><time>2026-04-17T13:40:33.999Z</time></trkpt><trkpt lat="49.18943668157966" lon="2.4930324970838025"><ele>58.71428571428571</ele><time>2026-04-17T13:40:35.999Z</time></trkpt><trkpt lat="49.18944612500539" lon="2.4931511655974523"><ele>59.0</ele><time>2026-04-17T13:40:37.999Z</time></trkpt><trkpt lat="49.18945097160133" lon="2.4932609401070462"><ele>59.00000000000001</ele><time>2026-04-17T13:40:39.999Z</time></trkpt><trkpt lat="49.18944042468834" lon="2.4933696256414613"><ele>59.0</ele><time>2026-04-17T13:40:41.999Z</time></trkpt><trkpt lat="49.189426363915345" lon="2.4934891164457293"><ele>59.0</ele><time>2026-04-17T13:40:43.999Z</time></trkpt><trkpt lat="49.18944848812748" lon="2.4935896393150694"><ele>59.0</ele><time>2026-04-17T13:40:45.999Z</time></trkpt><trkpt lat="49.18949751985666" lon="2.493714155233976"><ele>59.00000000000001</ele><time>2026-04-17T13:40:48.998Z</time></trkpt><trkpt lat="49.18951545874746" lon="2.493810689372442"><ele>59.0</ele><time>2026-04-17T13:40:50.998Z</time></trkpt><trkpt lat="49.189525091023135" lon="2.493915746532241"><ele>59.16666666666667</ele><time>2026-04-17T13:40:52.998Z</time></trkpt><trkpt lat="49.189536523349425" lon="2.494025998065603"><ele>59.333333333333336</ele><time>2026-04-17T13:40:54.998Z</time></trkpt><trkpt lat="49.189542092147" lon="2.494140704312387"><ele>59.5</ele><time>2026-04-17T13:40:56.998Z</time></trkpt><trkpt lat="49.189540620430904" lon="2.494258722834657"><ele>59.66666666666667</ele><time>2026-04-17T13:40:58.998Z</time></trkpt><trkpt lat="49.189531912527535" lon="2.494376053412829"><ele>59.833333333333336</ele><time>2026-04-17T13:41:00.998Z</time></trkpt><trkpt lat="49.189525184501434" lon="2.4944980229444873"><ele>60.0</ele><time>2026-04-17T13:41:02.998Z</time></trkpt><trkpt lat="49.18951844016592" lon="2.4946151523788447"><ele>60.0</ele><time>2026-04-17T13:41:04.998Z</time></trkpt><trkpt lat="49.189511845078876" lon="2.4947335488161637"><ele>60.0</ele><time>2026-04-17T13:41:06.998Z</time></trkpt><trkpt lat="49.18950509025064" lon="2.4948343084421936"><ele>60.0</ele><time>2026-04-17T13:41:08.998Z</time></trkpt><trkpt lat="49.1894953468128" lon="2.494953331295929"><ele>60.0</ele><time>2026-04-17T13:41:10.998Z</time></trkpt><trkpt lat="49.18948493207182" lon="2.4950818420867016"><ele>60.0</ele><time>2026-04-17T13:41:12.998Z</time></trkpt><trkpt lat="49.18947842824027" lon="2.4952093838926017"><ele>60.0</ele><time>2026-04-17T13:41:14.998Z</time></trkpt><trkpt lat="49.18947054815198" lon="2.4953338627538533"><ele>60.0</ele><time>2026-04-17T13:41:16.998Z</time></trkpt><trkpt lat="49.189457151870144" lon="2.4954662424683023"><ele>60.0</ele><time>2026-04-17T13:41:18.998Z</time></trkpt><trkpt lat="49.18944929476476" lon="2.495589365779854"><ele>60.0</ele><time>2026-04-17T13:41:20.998Z</time></trkpt><trkpt lat="49.18944801359305" lon="2.495727141040182"><ele>60.0</ele><time>2026-04-17T13:41:22.998Z</time></trkpt><trkpt lat="49.18944382332158" lon="2.4958564233875644"><ele>60.0</ele><time>2026-04-17T13:41:24.997Z</time></trkpt><trkpt lat="49.1894313872434" lon="2.4960004825430437"><ele>60.0</ele><time>2026-04-17T13:41:26.997Z</time></trkpt><trkpt lat="49.18942587914494" lon="2.496136458108418"><ele>60.2</ele><time>2026-04-17T13:41:28.997Z</time></trkpt><trkpt lat="49.18941612085929" lon="2.4962679709649143"><ele>60.4</ele><time>2026-04-17T13:41:30.997Z</time></trkpt><trkpt lat="49.1894090886305" lon="2.4964017593557877"><ele>60.599999999999994</ele><time>2026-04-17T13:41:32.997Z</time></trkpt><trkpt lat="49.189402101660036" lon="2.4965424666503706"><ele>60.8</ele><time>2026-04-17T13:41:34.997Z</time></trkpt><trkpt lat="49.18939342018602" lon="2.4966917499698793"><ele>61.0</ele><time>2026-04-17T13:41:36.997Z</time></trkpt><trkpt lat="49.18939011130282" lon="2.49683030452855"><ele>61.0</ele><time>2026-04-17T13:41:38.997Z</time></trkpt><trkpt lat="49.18937926609526" lon="2.496968480310542"><ele>60.99999999999999</ele><time>2026-04-17T13:41:40.997Z</time></trkpt><trkpt lat="49.18937480500949" lon="2.497110130878973"><ele>60.99999999999999</ele><time>2026-04-17T13:41:42.997Z</time></trkpt><trkpt lat="49.18936891433747" lon="2.497245108283247"><ele>61.0</ele><time>2026-04-17T13:41:44.997Z</time></trkpt><trkpt lat="49.18936275212647" lon="2.4973849563737067"><ele>61.0</ele><time>2026-04-17T13:41:46.997Z</time></trkpt><trkpt lat="49.18936056607428" lon="2.497524263247545"><ele>61.199999999999996</ele><time>2026-04-17T13:41:48.997Z</time></trkpt><trkpt lat="49.18936972162924" lon="2.4976730094320496"><ele>61.39999999999999</ele><time>2026-04-17T13:41:50.997Z</time></trkpt><trkpt lat="49.189406415758384" lon="2.497815396267147"><ele>61.6</ele><time>2026-04-17T13:41:52.997Z</time></trkpt><trkpt lat="49.189436511479734" lon="2.497947559973877"><ele>61.8</ele><time>2026-04-17T13:41:54.997Z</time></trkpt><trkpt lat="49.189465028422276" lon="2.4980805007120535"><ele>62.0</ele><time>2026-04-17T13:41:56.997Z</time></trkpt><trkpt lat="49.18949537437782" lon="2.4982135273156167"><ele>62.0</ele><time>2026-04-17T13:41:58.996Z</time></trkpt><trkpt lat="49.18952010954964" lon="2.4983481678835773"><ele>62.0</ele><time>2026-04-17T13:42:00.996Z</time></trkpt><trkpt lat="49.18955102946904" lon="2.4984854803285357"><ele>62.0</ele><time>2026-04-17T13:42:02.996Z</time></trkpt><trkpt lat="49.18957306427745" lon="2.498634612511045"><ele>62.0</ele><time>2026-04-17T13:42:04.996Z</time></trkpt><trkpt lat="49.1896013721811" lon="2.498777118135757"><ele>62.0</ele><time>2026-04-17T13:42:06.996Z</time></trkpt><trkpt lat="49.189630392063" lon="2.4989157407549527"><ele>61.8</ele><time>2026-04-17T13:42:08.996Z</time></trkpt><trkpt lat="49.18966194375841" lon="2.4990495508448958"><ele>61.6</ele><time>2026-04-17T13:42:10.996Z</time></trkpt><trkpt lat="49.18969027618218" lon="2.4991833247680977"><ele>61.39999999999999</ele><time>2026-04-17T13:42:12.999Z</time></trkpt><trkpt lat="49.18971927579146" lon="2.4993234625714513"><ele>61.199999999999996</ele><time>2026-04-17T13:42:14.999Z</time></trkpt><trkpt lat="49.18974897887396" lon="2.49945606385728"><ele>61.0</ele><time>2026-04-17T13:42:16.999Z</time></trkpt><trkpt lat="49.18977801486885" lon="2.4995937276679245"><ele>61.0</ele><time>2026-04-17T13:42:18.999Z</time></trkpt><trkpt lat="49.18980944687031" lon="2.4997283267221415"><ele>60.99999999999999</ele><time>2026-04-17T13:42:20.999Z</time></trkpt><trkpt lat="49.18983919884002" lon="2.4998607880977537"><ele>60.99999999999999</ele><time>2026-04-17T13:42:22.999Z</time></trkpt><trkpt lat="49.189867497393664" lon="2.499998322186825"><ele>61.0</ele><time>2026-04-17T13:42:24.999Z</time></trkpt><trkpt lat="49.189890631223534" lon="2.5001335974651884"><ele>61.0</ele><time>2026-04-17T13:42:26.999Z</time></trkpt><trkpt lat="49.18992351704757" lon="2.5002868149620463"><ele>61.599999999999994</ele><time>2026-04-17T13:42:28.999Z</time></trkpt><trkpt lat="49.18995437775577" lon="2.5004249373510152"><ele>62.199999999999996</ele><time>2026-04-17T13:42:30.999Z</time></trkpt><trkpt lat="49.18998096594393" lon="2.5005632454934728"><ele>62.800000000000004</ele><time>2026-04-17T13:42:32.999Z</time></trkpt><trkpt lat="49.19000585799038" lon="2.500701214600982"><ele>63.400000000000006</ele><time>2026-04-17T13:42:34.999Z</time></trkpt><trkpt lat="49.19002530159016" lon="2.5008362077124495"><ele>64.0</ele><time>2026-04-17T13:42:36.999Z</time></trkpt><trkpt lat="49.1900598009389" lon="2.500971103918818"><ele>64.0</ele><time>2026-04-17T13:42:38.999Z</time></trkpt><trkpt lat="49.19009204670157" lon="2.5010830205194927"><ele>64.0</ele><time>2026-04-17T13:42:40.999Z</time></trkpt><trkpt lat="49.190124087450855" lon="2.5012135709064633"><ele>64.0</ele><time>2026-04-17T13:42:42.999Z</time></trkpt><trkpt lat="49.19015919481191" lon="2.5013462079783535"><ele>64.0</ele><time>2026-04-17T13:42:44.999Z</time></trkpt><trkpt lat="49.19019526363164" lon="2.501476129816492"><ele>64.0</ele><time>2026-04-17T13:42:46.999Z</time></trkpt><trkpt lat="49.19021888767661" lon="2.5016208693437574"><ele>64.0</ele><time>2026-04-17T13:42:48.999Z</time></trkpt><trkpt lat="49.19025276214" lon="2.5017634720212234"><ele>64.0</ele><time>2026-04-17T13:42:50.999Z</time></trkpt><trkpt lat="49.19028337538204" lon="2.501918667378851"><ele>64.0</ele><time>2026-04-17T13:42:52.999Z</time></trkpt><trkpt lat="49.190318973397076" lon="2.502061820168652"><ele>64.0</ele><time>2026-04-17T13:42:54.999Z</time></trkpt><trkpt lat="49.1903468133853" lon="2.5022314024509282"><ele>64.0</ele><time>2026-04-17T13:42:56.999Z</time></trkpt><trkpt lat="49.19037846142652" lon="2.502388571791395"><ele>63.6</ele><time>2026-04-17T13:42:58.998Z</time></trkpt><trkpt lat="49.19041944219135" lon="2.502547769417418"><ele>63.2</ele><time>2026-04-17T13:43:00.998Z</time></trkpt><trkpt lat="49.19044468891225" lon="2.5026947782575673"><ele>62.800000000000004</ele><time>2026-04-17T13:43:02.998Z</time></trkpt><trkpt lat="49.19045865985355" lon="2.50286916196927"><ele>62.400000000000006</ele><time>2026-04-17T13:43:04.998Z</time></trkpt><trkpt lat="49.19050073514389" lon="2.5030457990270425"><ele>62.0</ele><time>2026-04-17T13:43:06.998Z</time></trkpt><trkpt lat="49.19054566802247" lon="2.5032169608103785"><ele>61.833333333333336</ele><time>2026-04-17T13:43:08.998Z</time></trkpt><trkpt lat="49.190590372523296" lon="2.5033709016580143"><ele>61.66666666666667</ele><time>2026-04-17T13:43:10.998Z</time></trkpt><trkpt lat="49.190637309959826" lon="2.503442076723751"><ele>61.5</ele><time>2026-04-17T13:43:11.998Z</time></trkpt><trkpt lat="49.19070651517143" lon="2.5035131790581935"><ele>61.33333333333333</ele><time>2026-04-17T13:43:12.998Z</time></trkpt><trkpt lat="49.19076743541263" lon="2.503588026280645"><ele>61.166666666666664</ele><time>2026-04-17T13:43:13.998Z</time></trkpt><trkpt lat="49.19084307811811" lon="2.5036565367850177"><ele>61.0</ele><time>2026-04-17T13:43:14.998Z</time></trkpt><trkpt lat="49.19077782953534" lon="2.503744405160803"><ele>60.8</ele><time>2026-04-17T13:43:15.998Z</time></trkpt><trkpt lat="49.19083333730233" lon="2.5039015955041855"><ele>60.599999999999994</ele><time>2026-04-17T13:43:17.998Z</time></trkpt><trkpt lat="49.19089675844739" lon="2.5040595685847054"><ele>60.4</ele><time>2026-04-17T13:43:19.998Z</time></trkpt><trkpt lat="49.19093326475445" lon="2.5041404699226564"><ele>60.2</ele><time>2026-04-17T13:43:20.998Z</time></trkpt><trkpt lat="49.190993421103194" lon="2.5042955266608"><ele>60.0</ele><time>2026-04-17T13:43:22.998Z</time></trkpt><trkpt lat="49.19102897487165" lon="2.5043783573677434"><ele>60.0</ele><time>2026-04-17T13:43:23.998Z</time></trkpt><trkpt lat="49.19110569055873" lon="2.5045339857433624"><ele>60.0</ele><time>2026-04-17T13:43:25.998Z</time></trkpt><trkpt lat="49.19116676603452" lon="2.504695464727035"><ele>60.0</ele><time>2026-04-17T13:43:27.998Z</time></trkpt><trkpt lat="49.191230359376085" lon="2.5048491675399265"><ele>60.0</ele><time>2026-04-17T13:43:29.998Z</time></trkpt><trkpt lat="49.19126871340847" lon="2.504926049241497"><ele>60.0</ele><time>2026-04-17T13:43:30.998Z</time></trkpt><trkpt lat="49.19130612236818" lon="2.50500706796949"><ele>60.2</ele><time>2026-04-17T13:43:31.998Z</time></trkpt><trkpt lat="49.19137428792119" lon="2.5051617009729523"><ele>60.4</ele><time>2026-04-17T13:43:33.998Z</time></trkpt><trkpt lat="49.191440569776766" lon="2.5053225803681802"><ele>60.599999999999994</ele><time>2026-04-17T13:43:35.997Z</time></trkpt><trkpt lat="49.19149329464961" lon="2.505455652638146"><ele>60.8</ele><time>2026-04-17T13:43:37.997Z</time></trkpt><trkpt lat="49.19153428543988" lon="2.505544009678248"><ele>61.0</ele><time>2026-04-17T13:43:38.997Z</time></trkpt><trkpt lat="49.191568787857534" lon="2.505627379917557"><ele>60.4</ele><time>2026-04-17T13:43:39.997Z</time></trkpt><trkpt lat="49.19160283371686" lon="2.5057104766521334"><ele>59.8</ele><time>2026-04-17T13:43:40.997Z</time></trkpt><trkpt lat="49.19167302431138" lon="2.5058662516071473"><ele>59.199999999999996</ele><time>2026-04-17T13:43:42.997Z</time></trkpt><trkpt lat="49.19172629257887" lon="2.506010142934236"><ele>58.599999999999994</ele><time>2026-04-17T13:43:44.997Z</time></trkpt><trkpt lat="49.19178311024108" lon="2.506152299835669"><ele>58.0</ele><time>2026-04-17T13:43:46.997Z</time></trkpt><trkpt lat="49.19184178770287" lon="2.506291107713645"><ele>57.599999999999994</ele><time>2026-04-17T13:43:48.997Z</time></trkpt><trkpt lat="49.19189885831806" lon="2.5064315135071533"><ele>57.199999999999996</ele><time>2026-04-17T13:43:50.997Z</time></trkpt><trkpt lat="49.191950490487876" lon="2.506564405256886"><ele>56.8</ele><time>2026-04-17T13:43:52.997Z</time></trkpt><trkpt lat="49.19201155426752" lon="2.506685163813218"><ele>56.4</ele><time>2026-04-17T13:43:54.997Z</time></trkpt><trkpt lat="49.192073099096525" lon="2.506783655579573"><ele>56.0</ele><time>2026-04-17T13:43:56.997Z</time></trkpt><trkpt lat="49.192108660739926" lon="2.506887922194108"><ele>56.0</ele><time>2026-04-17T13:43:58.997Z</time></trkpt><trkpt lat="49.1920962730487" lon="2.507044383421075"><ele>55.99999999999999</ele><time>2026-04-17T13:44:00.997Z</time></trkpt><trkpt lat="49.19204788200136" lon="2.5071666859291364"><ele>55.99999999999999</ele><time>2026-04-17T13:44:02.997Z</time></trkpt><trkpt lat="49.192035820854535" lon="2.50728454046426"><ele>56.0</ele><time>2026-04-17T13:44:04.997Z</time></trkpt><trkpt lat="49.19202524214749" lon="2.507387909618291"><ele>56.0</ele><time>2026-04-17T13:44:06.997Z</time></trkpt><trkpt lat="49.19222785575293" lon="2.507514871522388"><ele>55.199999999999996</ele><time>2026-04-17T13:44:08.997Z</time></trkpt><trkpt lat="49.19229094940983" lon="2.507603719606377"><ele>54.39999999999999</ele><time>2026-04-17T13:44:10.996Z</time></trkpt><trkpt lat="49.192358665153954" lon="2.507710783296768"><ele>53.6</ele><time>2026-04-17T13:44:12.996Z</time></trkpt><trkpt lat="49.192431143413934" lon="2.507792482845077"><ele>52.8</ele><time>2026-04-17T13:44:14.996Z</time></trkpt><trkpt lat="49.192506244667314" lon="2.5078729083963975"><ele>52.0</ele><time>2026-04-17T13:44:16.996Z</time></trkpt><trkpt lat="49.19257982182679" lon="2.5079572491089683"><ele>51.49999999999999</ele><time>2026-04-17T13:44:19Z</time></trkpt><trkpt lat="49.19263578791917" lon="2.508050367859961"><ele>51.0</ele><time>2026-04-17T13:44:21Z</time></trkpt><trkpt lat="49.19269442349923" lon="2.508134497856267"><ele>50.5</ele><time>2026-04-17T13:44:23Z</time></trkpt><trkpt lat="49.192748837455554" lon="2.508211187640726"><ele>50.0</ele><time>2026-04-17T13:44:25Z</time></trkpt><trkpt lat="49.19282469872908" lon="2.508237714040538"><ele>49.49999999999999</ele><time>2026-04-17T13:44:27Z</time></trkpt><trkpt lat="49.192876653188264" lon="2.508315879039294"><ele>49.0</ele><time>2026-04-17T13:44:29Z</time></trkpt><trkpt lat="49.19293434473232" lon="2.5083904514848685"><ele>49.0</ele><time>2026-04-17T13:44:31Z</time></trkpt><trkpt lat="49.19299615325583" lon="2.5084544183808646"><ele>49.0</ele><time>2026-04-17T13:44:33Z</time></trkpt><trkpt lat="49.193049428445974" lon="2.508534376271438"><ele>49.0</ele><time>2026-04-17T13:44:35Z</time></trkpt><trkpt lat="49.19310370252124" lon="2.5086116827193963"><ele>49.0</ele><time>2026-04-17T13:44:37Z</time></trkpt><trkpt lat="49.193155095405594" lon="2.508681145367695"><ele>49.0</ele><time>2026-04-17T13:44:39Z</time></trkpt><trkpt lat="49.19320695566057" lon="2.5087480124455097"><ele>49.0</ele><time>2026-04-17T13:44:40.999Z</time></trkpt><trkpt lat="49.19326980699684" lon="2.5088117447264624"><ele>49.0</ele><time>2026-04-17T13:44:42.999Z</time></trkpt><trkpt lat="49.193323332873156" lon="2.5088775110445867"><ele>49.166666666666664</ele><time>2026-04-17T13:44:44.999Z</time></trkpt><trkpt lat="49.19339167526067" lon="2.5089638278413084"><ele>49.33333333333333</ele><time>2026-04-17T13:44:46.999Z</time></trkpt><trkpt lat="49.19345126104262" lon="2.5090551905561425"><ele>49.5</ele><time>2026-04-17T13:44:48.999Z</time></trkpt><trkpt lat="49.1935058460913" lon="2.509157748272965"><ele>49.66666666666667</ele><time>2026-04-17T13:44:50.999Z</time></trkpt><trkpt lat="49.19356097903248" lon="2.509261694822981"><ele>49.833333333333336</ele><time>2026-04-17T13:44:52.999Z</time></trkpt><trkpt lat="49.193615377986994" lon="2.50936368153157"><ele>50.0</ele><time>2026-04-17T13:44:54.999Z</time></trkpt><trkpt lat="49.19365470271234" lon="2.5094794237342124"><ele>50.16666666666667</ele><time>2026-04-17T13:44:56.999Z</time></trkpt><trkpt lat="49.19369192847203" lon="2.5096046691449843"><ele>50.333333333333336</ele><time>2026-04-17T13:44:58.999Z</time></trkpt><trkpt lat="49.19372555590442" lon="2.5097281369378903"><ele>50.5</ele><time>2026-04-17T13:45:00.999Z</time></trkpt><trkpt lat="49.193751231670824" lon="2.509857149045028"><ele>50.66666666666667</ele><time>2026-04-17T13:45:02.999Z</time></trkpt><trkpt lat="49.193773998515006" lon="2.509991298594579"><ele>50.833333333333336</ele><time>2026-04-17T13:45:04.999Z</time></trkpt><trkpt lat="49.19379797687538" lon="2.5101163742472234"><ele>51.0</ele><time>2026-04-17T13:45:06.999Z</time></trkpt><trkpt lat="49.193790162506765" lon="2.5102532885480935"><ele>51.0</ele><time>2026-04-17T13:45:08.999Z</time></trkpt><trkpt lat="49.193799142501746" lon="2.510390280215093"><ele>51.0</ele><time>2026-04-17T13:45:10.999Z</time></trkpt><trkpt lat="49.193787821602136" lon="2.5105288838429143"><ele>51.0</ele><time>2026-04-17T13:45:12.999Z</time></trkpt><trkpt lat="49.193785965454495" lon="2.510663918239574"><ele>51.0</ele><time>2026-04-17T13:45:14.998Z</time></trkpt><trkpt lat="49.19378596545312" lon="2.510801497451907"><ele>51.0</ele><time>2026-04-17T13:45:16.998Z</time></trkpt><trkpt lat="49.193786645157594" lon="2.5109466538046408"><ele>51.0</ele><time>2026-04-17T13:45:18.998Z</time></trkpt><trkpt lat="49.193805047121494" lon="2.511084509931492"><ele>51.0</ele><time>2026-04-17T13:45:20.998Z</time></trkpt><trkpt lat="49.193792822537915" lon="2.5112180546320477"><ele>51.0</ele><time>2026-04-17T13:45:22.998Z</time></trkpt><trkpt lat="49.193799803311784" lon="2.511366742897389"><ele>51.0</ele><time>2026-04-17T13:45:24.998Z</time></trkpt><trkpt lat="49.19380978755036" lon="2.511501089861791"><ele>51.0</ele><time>2026-04-17T13:45:26.998Z</time></trkpt><trkpt lat="49.193829672995484" lon="2.511634789820714"><ele>51.0</ele><time>2026-04-17T13:45:28.998Z</time></trkpt><trkpt lat="49.19383214572864" lon="2.5117773526168747"><ele>51.0</ele><time>2026-04-17T13:45:30.998Z</time></trkpt><trkpt lat="49.19382216712234" lon="2.511903332325245"><ele>51.0</ele><time>2026-04-17T13:45:32.998Z</time></trkpt><trkpt lat="49.193830280800064" lon="2.5120116634135923"><ele>51.0</ele><time>2026-04-17T13:45:34.998Z</time></trkpt><trkpt lat="49.19383511176914" lon="2.512152576793439"><ele>51.0</ele><time>2026-04-17T13:45:36.998Z</time></trkpt><trkpt lat="49.193830587145214" lon="2.512271869281271"><ele>51.0</ele><time>2026-04-17T13:45:38.998Z</time></trkpt><trkpt lat="49.193832943966775" lon="2.5123855185844173"><ele>51.0</ele><time>2026-04-17T13:45:40.998Z</time></trkpt><trkpt lat="49.19383871219739" lon="2.5124914507560367"><ele>51.0</ele><time>2026-04-17T13:45:42.998Z</time></trkpt><trkpt lat="49.19383798700995" lon="2.5125917663852233"><ele>51.0</ele><time>2026-04-17T13:45:44.998Z</time></trkpt><trkpt lat="49.19384381496511" lon="2.5126988168692423"><ele>51.0</ele><time>2026-04-17T13:45:46.998Z</time></trkpt><trkpt lat="49.19384535459157" lon="2.512806959934382"><ele>51.0</ele><time>2026-04-17T13:45:48.998Z</time></trkpt><trkpt lat="49.19385121785502" lon="2.512911151487863"><ele>51.0</ele><time>2026-04-17T13:45:51.997Z</time></trkpt><trkpt lat="49.19395235565695" lon="2.512953683363681"><ele>51.0</ele><time>2026-04-17T13:45:56.997Z</time></trkpt><trkpt lat="49.194027752180254" lon="2.513015770563378"><ele>50.833333333333336</ele><time>2026-04-17T13:45:59.997Z</time></trkpt><trkpt lat="49.19409921608274" lon="2.513072111431305"><ele>50.66666666666667</ele><time>2026-04-17T13:46:02.997Z</time></trkpt><trkpt lat="49.19416073103529" lon="2.513119102473374"><ele>50.5</ele><time>2026-04-17T13:46:05.997Z</time></trkpt><trkpt lat="49.19418752754519" lon="2.5132564178871766"><ele>50.333333333333336</ele><time>2026-04-17T13:46:08.997Z</time></trkpt><trkpt lat="49.194193781951434" lon="2.513380954550274"><ele>50.16666666666667</ele><time>2026-04-17T13:46:11.997Z</time></trkpt><trkpt lat="49.19420174148679" lon="2.513516196857296"><ele>50.0</ele><time>2026-04-17T13:46:14.997Z</time></trkpt><trkpt lat="49.19419957404959" lon="2.513656960970142"><ele>49.833333333333336</ele><time>2026-04-17T13:46:17.997Z</time></trkpt><trkpt lat="49.19417370908377" lon="2.5137658878652935"><ele>49.66666666666667</ele><time>2026-04-17T13:46:19.997Z</time></trkpt><trkpt lat="49.194158919018136" lon="2.5138831477952865"><ele>49.5</ele><time>2026-04-17T13:46:21.997Z</time></trkpt><trkpt lat="49.194140480274655" lon="2.514015943828193"><ele>49.33333333333333</ele><time>2026-04-17T13:46:24Z</time></trkpt><trkpt lat="49.1941197774768" lon="2.514157559321188"><ele>49.166666666666664</ele><time>2026-04-17T13:46:26Z</time></trkpt><trkpt lat="49.19409737847479" lon="2.51430683962103"><ele>49.0</ele><time>2026-04-17T13:46:28Z</time></trkpt><trkpt lat="49.194074066988314" lon="2.5144579960356523"><ele>49.0</ele><time>2026-04-17T13:46:30Z</time></trkpt><trkpt lat="49.19404884893398" lon="2.514615812274799"><ele>49.0</ele><time>2026-04-17T13:46:32Z</time></trkpt><trkpt lat="49.194025227459775" lon="2.51477463491923"><ele>49.0</ele><time>2026-04-17T13:46:34Z</time></trkpt><trkpt lat="49.19400104735589" lon="2.514928681559202"><ele>49.0</ele><time>2026-04-17T13:46:36Z</time></trkpt><trkpt lat="49.19392415307272" lon="2.5150196635024273"><ele>49.0</ele><time>2026-04-17T13:46:38Z</time></trkpt><trkpt lat="49.193835193469305" lon="2.5150517015049147"><ele>49.142857142857146</ele><time>2026-04-17T13:46:40Z</time></trkpt><trkpt lat="49.1937580538026" lon="2.5150692112341666"><ele>49.285714285714285</ele><time>2026-04-17T13:46:42Z</time></trkpt><trkpt lat="49.19369308484494" lon="2.5151223068437965"><ele>49.42857142857143</ele><time>2026-04-17T13:46:44Z</time></trkpt><trkpt lat="49.19364513623811" lon="2.5151904552223003"><ele>49.57142857142857</ele><time>2026-04-17T13:46:46Z</time></trkpt><trkpt lat="49.19359681866325" lon="2.515265353985889"><ele>49.714285714285715</ele><time>2026-04-17T13:46:48Z</time></trkpt><trkpt lat="49.193572565292854" lon="2.515360156576375"><ele>49.85714285714286</ele><time>2026-04-17T13:46:49.999Z</time></trkpt><trkpt lat="49.19355225390748" lon="2.5154552585941934"><ele>50.0</ele><time>2026-04-17T13:46:51.999Z</time></trkpt><trkpt lat="49.19352558942401" lon="2.51556560501519"><ele>49.50000000000001</ele><time>2026-04-17T13:46:53.999Z</time></trkpt><trkpt lat="49.19350067157315" lon="2.5156704175187237"><ele>49.0</ele><time>2026-04-17T13:46:55.999Z</time></trkpt><trkpt lat="49.19346585580327" lon="2.515770217894776"><ele>48.5</ele><time>2026-04-17T13:46:57.999Z</time></trkpt><trkpt lat="49.19343053898592" lon="2.5158784521111035"><ele>48.0</ele><time>2026-04-17T13:46:59.999Z</time></trkpt><trkpt lat="49.19340096625407" lon="2.515996490033154"><ele>47.5</ele><time>2026-04-17T13:47:01.999Z</time></trkpt><trkpt lat="49.19336793820499" lon="2.5161066248790993"><ele>47.0</ele><time>2026-04-17T13:47:03.999Z</time></trkpt><trkpt lat="49.193336227050345" lon="2.516222037313885"><ele>47.166666666666664</ele><time>2026-04-17T13:47:05.999Z</time></trkpt><trkpt lat="49.19329998636011" lon="2.5163440330536955"><ele>47.33333333333333</ele><time>2026-04-17T13:47:07.999Z</time></trkpt><trkpt lat="49.193248248286416" lon="2.5164478657585954"><ele>47.5</ele><time>2026-04-17T13:47:09.999Z</time></trkpt><trkpt lat="49.19321092581737" lon="2.516562904889899"><ele>47.666666666666664</ele><time>2026-04-17T13:47:11.999Z</time></trkpt><trkpt lat="49.193173881081314" lon="2.516674909471856"><ele>47.833333333333336</ele><time>2026-04-17T13:47:13.999Z</time></trkpt><trkpt lat="49.19313678348174" lon="2.5167842212685527"><ele>48.0</ele><time>2026-04-17T13:47:15.999Z</time></trkpt><trkpt lat="49.19309880425396" lon="2.5168971284557373"><ele>48.333333333333336</ele><time>2026-04-17T13:47:17.999Z</time></trkpt><trkpt lat="49.19306221986535" lon="2.517015287373305"><ele>48.66666666666667</ele><time>2026-04-17T13:47:19.999Z</time></trkpt><trkpt lat="49.19302825876615" lon="2.5171351921752936"><ele>49.0</ele><time>2026-04-17T13:47:21.999Z</time></trkpt><trkpt lat="49.1929951665753" lon="2.517259949679369"><ele>49.333333333333336</ele><time>2026-04-17T13:47:23.998Z</time></trkpt><trkpt lat="49.19296256193193" lon="2.517387969500263"><ele>49.66666666666667</ele><time>2026-04-17T13:47:25.998Z</time></trkpt><trkpt lat="49.19293118694187" lon="2.517523217284741"><ele>50.0</ele><time>2026-04-17T13:47:27.998Z</time></trkpt><trkpt lat="49.19291583984307" lon="2.5176651118129127"><ele>50.0</ele><time>2026-04-17T13:47:29.998Z</time></trkpt><trkpt lat="49.19288547698727" lon="2.5178059059327293"><ele>50.0</ele><time>2026-04-17T13:47:31.998Z</time></trkpt><trkpt lat="49.19284755605375" lon="2.5179410504267294"><ele>50.0</ele><time>2026-04-17T13:47:33.998Z</time></trkpt><trkpt lat="49.192834817104135" lon="2.518082278239545"><ele>50.0</ele><time>2026-04-17T13:47:35.998Z</time></trkpt><trkpt lat="49.19279872942726" lon="2.5182134344561415"><ele>50.0</ele><time>2026-04-17T13:47:37.998Z</time></trkpt><trkpt lat="49.19277422285509" lon="2.5183501468868292"><ele>49.8</ele><time>2026-04-17T13:47:39.998Z</time></trkpt><trkpt lat="49.19274970577461" lon="2.518486917639338"><ele>49.6</ele><time>2026-04-17T13:47:41.998Z</time></trkpt><trkpt lat="49.192740283165634" lon="2.5186329799852594"><ele>49.400000000000006</ele><time>2026-04-17T13:47:43.998Z</time></trkpt><trkpt lat="49.192700117028934" lon="2.5187635533287014"><ele>49.2</ele><time>2026-04-17T13:47:45.998Z</time></trkpt><trkpt lat="49.192674759141596" lon="2.5189050148128436"><ele>49.0</ele><time>2026-04-17T13:47:47.998Z</time></trkpt><trkpt lat="49.192665507817054" lon="2.519052144025219"><ele>49.0</ele><time>2026-04-17T13:47:49.998Z</time></trkpt><trkpt lat="49.19262314061195" lon="2.519192973583223"><ele>49.0</ele><time>2026-04-17T13:47:51.998Z</time></trkpt><trkpt lat="49.192612028304474" lon="2.5193490159870247"><ele>49.0</ele><time>2026-04-17T13:47:53.998Z</time></trkpt><trkpt lat="49.19256645712505" lon="2.5194944449013836"><ele>49.0</ele><time>2026-04-17T13:47:55.998Z</time></trkpt><trkpt lat="49.192533362481115" lon="2.519650832544509"><ele>49.0</ele><time>2026-04-17T13:47:57.997Z</time></trkpt><trkpt lat="49.19250076083108" lon="2.519803640872215"><ele>48.800000000000004</ele><time>2026-04-17T13:47:59.997Z</time></trkpt><trkpt lat="49.1924744070585" lon="2.5199593202549493"><ele>48.6</ele><time>2026-04-17T13:48:01.997Z</time></trkpt><trkpt lat="49.192467404494614" lon="2.5201262406021945"><ele>48.4</ele><time>2026-04-17T13:48:03.997Z</time></trkpt><trkpt lat="49.19244962818267" lon="2.520288208790695"><ele>48.2</ele><time>2026-04-17T13:48:05.997Z</time></trkpt><trkpt lat="49.19243364630248" lon="2.5204457315894073"><ele>48.0</ele><time>2026-04-17T13:48:07.997Z</time></trkpt><trkpt lat="49.192418320523515" lon="2.520598773584412"><ele>48.0</ele><time>2026-04-17T13:48:09.997Z</time></trkpt><trkpt lat="49.192399669364015" lon="2.5207533409616514"><ele>48.0</ele><time>2026-04-17T13:48:11.997Z</time></trkpt><trkpt lat="49.19238397872481" lon="2.520904048253605"><ele>48.0</ele><time>2026-04-17T13:48:13.997Z</time></trkpt><trkpt lat="49.19236675931973" lon="2.521046324088823"><ele>48.0</ele><time>2026-04-17T13:48:15.997Z</time></trkpt><trkpt lat="49.19233447829934" lon="2.5211961481380207"><ele>48.0</ele><time>2026-04-17T13:48:17.997Z</time></trkpt><trkpt lat="49.19231586607686" lon="2.5213594977322398"><ele>48.0</ele><time>2026-04-17T13:48:19.997Z</time></trkpt><trkpt lat="49.19229857076036" lon="2.5215236860620154"><ele>48.0</ele><time>2026-04-17T13:48:21.997Z</time></trkpt><trkpt lat="49.19228358911656" lon="2.5216874281371413"><ele>48.0</ele><time>2026-04-17T13:48:23.997Z</time></trkpt><trkpt lat="49.192269657790334" lon="2.521854240604575"><ele>48.0</ele><time>2026-04-17T13:48:25.997Z</time></trkpt><trkpt lat="49.19226281303078" lon="2.522022628390468"><ele>48.0</ele><time>2026-04-17T13:48:27.997Z</time></trkpt><trkpt lat="49.19227874798459" lon="2.5221887049415117"><ele>48.2</ele><time>2026-04-17T13:48:30Z</time></trkpt><trkpt lat="49.1922868491747" lon="2.522353442956361"><ele>48.4</ele><time>2026-04-17T13:48:32Z</time></trkpt><trkpt lat="49.19230189266256" lon="2.5225197823103795"><ele>48.6</ele><time>2026-04-17T13:48:34Z</time></trkpt><trkpt lat="49.19232035814314" lon="2.522684244907974"><ele>48.800000000000004</ele><time>2026-04-17T13:48:36Z</time></trkpt><trkpt lat="49.1923405205747" lon="2.522839876931432"><ele>49.0</ele><time>2026-04-17T13:48:38Z</time></trkpt><trkpt lat="49.192360907253864" lon="2.5229793177262207"><ele>48.49999999999999</ele><time>2026-04-17T13:48:40Z</time></trkpt><trkpt lat="49.19237640775568" lon="2.5231128942996115"><ele>48.0</ele><time>2026-04-17T13:48:42Z</time></trkpt><trkpt lat="49.192394795772316" lon="2.523237591014691"><ele>47.5</ele><time>2026-04-17T13:48:44Z</time></trkpt><trkpt lat="49.192409093280695" lon="2.523357227004693"><ele>47.0</ele><time>2026-04-17T13:48:46Z</time></trkpt><trkpt lat="49.192422546048554" lon="2.523473948251961"><ele>46.5</ele><time>2026-04-17T13:48:48Z</time></trkpt><trkpt lat="49.19243398588854" lon="2.5235987600089027"><ele>46.0</ele><time>2026-04-17T13:48:50Z</time></trkpt><trkpt lat="49.19244837808125" lon="2.5237264170480884"><ele>46.0</ele><time>2026-04-17T13:48:52Z</time></trkpt><trkpt lat="49.19246569355493" lon="2.5238592959458632"><ele>46.0</ele><time>2026-04-17T13:48:53.999Z</time></trkpt><trkpt lat="49.192482335225655" lon="2.5239947946346213"><ele>46.0</ele><time>2026-04-17T13:48:55.999Z</time></trkpt><trkpt lat="49.19249874383266" lon="2.5241366519751267"><ele>46.0</ele><time>2026-04-17T13:48:57.999Z</time></trkpt><trkpt lat="49.19251884642861" lon="2.5242818151867903"><ele>46.0</ele><time>2026-04-17T13:48:59.999Z</time></trkpt><trkpt lat="49.19253670134098" lon="2.5244407824132558"><ele>46.199999999999996</ele><time>2026-04-17T13:49:01.999Z</time></trkpt><trkpt lat="49.19255033622763" lon="2.524597224582283"><ele>46.4</ele><time>2026-04-17T13:49:03.999Z</time></trkpt><trkpt lat="49.19256966403588" lon="2.5247651810321328"><ele>46.6</ele><time>2026-04-17T13:49:05.999Z</time></trkpt><trkpt lat="49.19258527596267" lon="2.5249496439912433"><ele>46.8</ele><time>2026-04-17T13:49:07.999Z</time></trkpt><trkpt lat="49.19260567699892" lon="2.52507492576422"><ele>47.0</ele><time>2026-04-17T13:49:09.999Z</time></trkpt><trkpt lat="49.19262521375638" lon="2.525219535266747"><ele>47.0</ele><time>2026-04-17T13:49:11.999Z</time></trkpt><trkpt lat="49.19264396085903" lon="2.5253626119335033"><ele>47.0</ele><time>2026-04-17T13:49:13.999Z</time></trkpt><trkpt lat="49.192660304867466" lon="2.525497933509952"><ele>47.0</ele><time>2026-04-17T13:49:15.999Z</time></trkpt><trkpt lat="49.192674674149494" lon="2.525629942826842"><ele>47.0</ele><time>2026-04-17T13:49:17.999Z</time></trkpt><trkpt lat="49.19269008892057" lon="2.525758570188092"><ele>47.0</ele><time>2026-04-17T13:49:19.999Z</time></trkpt><trkpt lat="49.19270091977304" lon="2.5258944644865484"><ele>47.0</ele><time>2026-04-17T13:49:21.999Z</time></trkpt><trkpt lat="49.19272183172919" lon="2.526004996570528"><ele>47.33333333333333</ele><time>2026-04-17T13:49:23.999Z</time></trkpt><trkpt lat="49.19274274733768" lon="2.526127548166539"><ele>47.666666666666664</ele><time>2026-04-17T13:49:25.999Z</time></trkpt><trkpt lat="49.192754803439406" lon="2.5262594678744774"><ele>48.0</ele><time>2026-04-17T13:49:27.998Z</time></trkpt><trkpt lat="49.19276319594781" lon="2.5263944424692006"><ele>48.33333333333333</ele><time>2026-04-17T13:49:29.998Z</time></trkpt><trkpt lat="49.19278361962732" lon="2.5265267660105217"><ele>48.666666666666664</ele><time>2026-04-17T13:49:31.998Z</time></trkpt><trkpt lat="49.1928017511967" lon="2.526658314739173"><ele>49.0</ele><time>2026-04-17T13:49:33.998Z</time></trkpt><trkpt lat="49.19281073777132" lon="2.526788669315457"><ele>49.33333333333333</ele><time>2026-04-17T13:49:35.998Z</time></trkpt><trkpt lat="49.19283966881504" lon="2.5269029899249467"><ele>49.666666666666664</ele><time>2026-04-17T13:49:37.998Z</time></trkpt><trkpt lat="49.19283985664763" lon="2.5270345343414644"><ele>50.0</ele><time>2026-04-17T13:49:39.998Z</time></trkpt><trkpt lat="49.19285411405342" lon="2.527154824701079"><ele>50.33333333333333</ele><time>2026-04-17T13:49:41.998Z</time></trkpt><trkpt lat="49.19288155623616" lon="2.527274193339323"><ele>50.666666666666664</ele><time>2026-04-17T13:49:43.998Z</time></trkpt><trkpt lat="49.19289634597965" lon="2.527402881359331"><ele>51.0</ele><time>2026-04-17T13:49:45.998Z</time></trkpt><trkpt lat="49.19289939386278" lon="2.527537705488838"><ele>51.199999999999996</ele><time>2026-04-17T13:49:47.998Z</time></trkpt><trkpt lat="49.192929934725385" lon="2.5276731329543543"><ele>51.4</ele><time>2026-04-17T13:49:49.998Z</time></trkpt><trkpt lat="49.19294016987787" lon="2.527814159626745"><ele>51.6</ele><time>2026-04-17T13:49:51.998Z</time></trkpt><trkpt lat="49.19296405273122" lon="2.527952549786554"><ele>51.8</ele><time>2026-04-17T13:49:53.998Z</time></trkpt><trkpt lat="49.19297488941003" lon="2.528091730825913"><ele>52.0</ele><time>2026-04-17T13:49:55.998Z</time></trkpt><trkpt lat="49.192995459091655" lon="2.528230311144087"><ele>52.0</ele><time>2026-04-17T13:49:57.998Z</time></trkpt><trkpt lat="49.19301608387282" lon="2.5283711650252445"><ele>52.0</ele><time>2026-04-17T13:49:59.998Z</time></trkpt><trkpt lat="49.19303036188633" lon="2.5285073640151983"><ele>52.0</ele><time>2026-04-17T13:50:01.997Z</time></trkpt><trkpt lat="49.19304714618536" lon="2.5286476373192275"><ele>52.0</ele><time>2026-04-17T13:50:03.997Z</time></trkpt><trkpt lat="49.193065980532616" lon="2.5287884370086644"><ele>52.0</ele><time>2026-04-17T13:50:05.997Z</time></trkpt><trkpt lat="49.193086428141925" lon="2.5289201816981604"><ele>51.99999999999999</ele><time>2026-04-17T13:50:07.997Z</time></trkpt><trkpt lat="49.193101570442046" lon="2.5290577027080454"><ele>52.0</ele><time>2026-04-17T13:50:09.997Z</time></trkpt><trkpt lat="49.19312626422623" lon="2.5291933534707702"><ele>52.0</ele><time>2026-04-17T13:50:11.997Z</time></trkpt><trkpt lat="49.19314598427178" lon="2.529320823613946"><ele>52.0</ele><time>2026-04-17T13:50:13.997Z</time></trkpt><trkpt lat="49.193173022020346" lon="2.529459730039936"><ele>51.99999999999999</ele><time>2026-04-17T13:50:15.997Z</time></trkpt><trkpt lat="49.19319451558454" lon="2.5295793860373665"><ele>52.0</ele><time>2026-04-17T13:50:17.997Z</time></trkpt><trkpt lat="49.19321697499609" lon="2.5297042934757155"><ele>51.99999999999999</ele><time>2026-04-17T13:50:19.997Z</time></trkpt><trkpt lat="49.193243812522184" lon="2.5298255050520333"><ele>52.0</ele><time>2026-04-17T13:50:21.997Z</time></trkpt><trkpt lat="49.19326757525133" lon="2.529940376572484"><ele>52.0</ele><time>2026-04-17T13:50:23.997Z</time></trkpt><trkpt lat="49.19329243330979" lon="2.530056676055014"><ele>52.0</ele><time>2026-04-17T13:50:25.997Z</time></trkpt><trkpt lat="49.19331652888337" lon="2.5301732445123384"><ele>51.99999999999999</ele><time>2026-04-17T13:50:27.997Z</time></trkpt><trkpt lat="49.19334094061505" lon="2.5302906298090257"><ele>52.0</ele><time>2026-04-17T13:50:29.997Z</time></trkpt><trkpt lat="49.19336430838368" lon="2.530410184472424"><ele>51.99999999999999</ele><time>2026-04-17T13:50:31.997Z</time></trkpt><trkpt lat="49.19339249132112" lon="2.5305279098293374"><ele>52.0</ele><time>2026-04-17T13:50:33.997Z</time></trkpt><trkpt lat="49.193414129171074" lon="2.5306433719498322"><ele>52.0</ele><time>2026-04-17T13:50:36Z</time></trkpt><trkpt lat="49.193439648355174" lon="2.53075597672355"><ele>52.0</ele><time>2026-04-17T13:50:38Z</time></trkpt><trkpt lat="49.19346503454591" lon="2.530870070098828"><ele>51.99999999999999</ele><time>2026-04-17T13:50:40Z</time></trkpt><trkpt lat="49.19349328223479" lon="2.5309851941197854"><ele>52.0</ele><time>2026-04-17T13:50:42Z</time></trkpt><trkpt lat="49.19351766845344" lon="2.531102267722004"><ele>51.99999999999999</ele><time>2026-04-17T13:50:44Z</time></trkpt><trkpt lat="49.1935459433228" lon="2.5312156196294335"><ele>52.0</ele><time>2026-04-17T13:50:46Z</time></trkpt><trkpt lat="49.19357490768646" lon="2.5313288288094293"><ele>52.0</ele><time>2026-04-17T13:50:48Z</time></trkpt><trkpt lat="49.19360172779366" lon="2.5314446591446833"><ele>52.0</ele><time>2026-04-17T13:50:50Z</time></trkpt><trkpt lat="49.19363645251974" lon="2.531561151565797"><ele>51.99999999999999</ele><time>2026-04-17T13:50:52Z</time></trkpt><trkpt lat="49.193673501378015" lon="2.531678933068681"><ele>52.0</ele><time>2026-04-17T13:50:53.999Z</time></trkpt><trkpt lat="49.19371198086454" lon="2.531793975686917"><ele>52.33333333333333</ele><time>2026-04-17T13:50:55.999Z</time></trkpt><trkpt lat="49.1937490128495" lon="2.5319138380812847"><ele>52.666666666666664</ele><time>2026-04-17T13:50:57.999Z</time></trkpt><trkpt lat="49.193788335993275" lon="2.532024191408668"><ele>53.0</ele><time>2026-04-17T13:50:59.999Z</time></trkpt><trkpt lat="49.1938265305056" lon="2.532139071868239"><ele>53.33333333333333</ele><time>2026-04-17T13:51:01.999Z</time></trkpt><trkpt lat="49.1938707754625" lon="2.532258452317849"><ele>53.666666666666664</ele><time>2026-04-17T13:51:03.999Z</time></trkpt><trkpt lat="49.193920524436976" lon="2.5323867721683824"><ele>54.0</ele><time>2026-04-17T13:51:05.999Z</time></trkpt><trkpt lat="49.193965723871855" lon="2.532520402046036"><ele>53.800000000000004</ele><time>2026-04-17T13:51:07.999Z</time></trkpt><trkpt lat="49.194013122437674" lon="2.532659123388113"><ele>53.60000000000001</ele><time>2026-04-17T13:51:09.999Z</time></trkpt><trkpt lat="49.19405665066244" lon="2.5328025829406764"><ele>53.4</ele><time>2026-04-17T13:51:11.999Z</time></trkpt><trkpt lat="49.19411198135643" lon="2.5329325231590403"><ele>53.2</ele><time>2026-04-17T13:51:13.999Z</time></trkpt><trkpt lat="49.19416307051992" lon="2.533084177039709"><ele>53.0</ele><time>2026-04-17T13:51:15.999Z</time></trkpt><trkpt lat="49.194203507556715" lon="2.533245894323134"><ele>53.0</ele><time>2026-04-17T13:51:17.999Z</time></trkpt><trkpt lat="49.19423669568635" lon="2.5334139529276363"><ele>53.0</ele><time>2026-04-17T13:51:19.999Z</time></trkpt><trkpt lat="49.19425543421876" lon="2.533583338929919"><ele>53.0</ele><time>2026-04-17T13:51:21.999Z</time></trkpt><trkpt lat="49.19425455672156" lon="2.533752246047238"><ele>53.0</ele><time>2026-04-17T13:51:23.999Z</time></trkpt><trkpt lat="49.19425054344378" lon="2.533889965792553"><ele>53.0</ele><time>2026-04-17T13:51:25.999Z</time></trkpt><trkpt lat="49.19423554405704" lon="2.53405387501377"><ele>53.0</ele><time>2026-04-17T13:51:27.998Z</time></trkpt><trkpt lat="49.194233686890506" lon="2.534204345964361"><ele>53.0</ele><time>2026-04-17T13:51:29.998Z</time></trkpt><trkpt lat="49.19422626109982" lon="2.534355397397613"><ele>53.0</ele><time>2026-04-17T13:51:31.998Z</time></trkpt><trkpt lat="49.19421469036103" lon="2.5345048193611968"><ele>53.0</ele><time>2026-04-17T13:51:33.998Z</time></trkpt><trkpt lat="49.194196104837076" lon="2.534646657446611"><ele>53.0</ele><time>2026-04-17T13:51:35.998Z</time></trkpt><trkpt lat="49.19419760752349" lon="2.5347922116036297"><ele>53.333333333333336</ele><time>2026-04-17T13:51:37.998Z</time></trkpt><trkpt lat="49.19418697488167" lon="2.534933669027986"><ele>53.66666666666667</ele><time>2026-04-17T13:51:39.998Z</time></trkpt><trkpt lat="49.19417179732638" lon="2.5350721578238855"><ele>54.0</ele><time>2026-04-17T13:51:41.998Z</time></trkpt><trkpt lat="49.19416395800651" lon="2.5352039322170032"><ele>54.33333333333333</ele><time>2026-04-17T13:51:43.998Z</time></trkpt><trkpt lat="49.194158886843695" lon="2.5353373365622036"><ele>54.666666666666664</ele><time>2026-04-17T13:51:45.998Z</time></trkpt><trkpt lat="49.19416374579928" lon="2.5354686747786435"><ele>55.0</ele><time>2026-04-17T13:51:47.998Z</time></trkpt><trkpt lat="49.194157560512444" lon="2.5355920854316327"><ele>54.99999999999999</ele><time>2026-04-17T13:51:49.998Z</time></trkpt><trkpt lat="49.19415865408195" lon="2.535719133671464"><ele>55.0</ele><time>2026-04-17T13:51:51.998Z</time></trkpt><trkpt lat="49.19416241380812" lon="2.5358488612963854"><ele>55.0</ele><time>2026-04-17T13:51:53.998Z</time></trkpt><trkpt lat="49.194171112335674" lon="2.5359709714390575"><ele>55.0</ele><time>2026-04-17T13:51:55.998Z</time></trkpt><trkpt lat="49.194162419187194" lon="2.5361006673658575"><ele>54.99999999999999</ele><time>2026-04-17T13:51:57.998Z</time></trkpt><trkpt lat="49.19416607381498" lon="2.5362354668235367"><ele>55.0</ele><time>2026-04-17T13:51:59.998Z</time></trkpt><trkpt lat="49.19415583141023" lon="2.5363681509725686"><ele>55.0</ele><time>2026-04-17T13:52:01.997Z</time></trkpt><trkpt lat="49.194116091992605" lon="2.536485762603743"><ele>55.0</ele><time>2026-04-17T13:52:03.997Z</time></trkpt><trkpt lat="49.19406561520322" lon="2.5366022750067514"><ele>55.0</ele><time>2026-04-17T13:52:05.997Z</time></trkpt><trkpt lat="49.19400418920495" lon="2.53671245873391"><ele>55.0</ele><time>2026-04-17T13:52:07.997Z</time></trkpt><trkpt lat="49.19394211810695" lon="2.5368267382895255"><ele>55.0</ele><time>2026-04-17T13:52:09.997Z</time></trkpt><trkpt lat="49.193872807574614" lon="2.5369195854543003"><ele>55.166666666666664</ele><time>2026-04-17T13:52:11.997Z</time></trkpt><trkpt lat="49.193801949190494" lon="2.5369834567289233"><ele>55.33333333333333</ele><time>2026-04-17T13:52:13.997Z</time></trkpt><trkpt lat="49.193749594008146" lon="2.537058345173963"><ele>55.5</ele><time>2026-04-17T13:52:15.997Z</time></trkpt><trkpt lat="49.193721759222726" lon="2.5371869220297327"><ele>55.66666666666667</ele><time>2026-04-17T13:52:17.997Z</time></trkpt><trkpt lat="49.193715479693005" lon="2.537321270690194"><ele>55.833333333333336</ele><time>2026-04-17T13:52:19.997Z</time></trkpt><trkpt lat="49.19374118856586" lon="2.5374622765168073"><ele>56.0</ele><time>2026-04-17T13:52:21.997Z</time></trkpt><trkpt lat="49.193767890210914" lon="2.5376161990519"><ele>56.0</ele><time>2026-04-17T13:52:23.997Z</time></trkpt><trkpt lat="49.193764065475925" lon="2.5377450912246946"><ele>55.99999999999999</ele><time>2026-04-17T13:52:25.997Z</time></trkpt><trkpt lat="49.19376071258732" lon="2.537896822606855"><ele>55.99999999999999</ele><time>2026-04-17T13:52:27.997Z</time></trkpt><trkpt lat="49.19373174504018" lon="2.5380469017127436"><ele>56.0</ele><time>2026-04-17T13:52:29.997Z</time></trkpt><trkpt lat="49.19371850867082" lon="2.5382109037910063"><ele>56.0</ele><time>2026-04-17T13:52:31.997Z</time></trkpt><trkpt lat="49.1937384618732" lon="2.5383947269855747"><ele>55.8</ele><time>2026-04-17T13:52:33.997Z</time></trkpt><trkpt lat="49.193755555871086" lon="2.538573779594831"><ele>55.599999999999994</ele><time>2026-04-17T13:52:35.996Z</time></trkpt><trkpt lat="49.19377057336082" lon="2.5386834360766577"><ele>55.4</ele><time>2026-04-17T13:52:36.996Z</time></trkpt><trkpt lat="49.19379521139292" lon="2.5388675896095436"><ele>55.2</ele><time>2026-04-17T13:52:38.996Z</time></trkpt><trkpt lat="49.19380916158504" lon="2.538964551212014"><ele>55.0</ele><time>2026-04-17T13:52:39.996Z</time></trkpt><trkpt lat="49.19383202622983" lon="2.539074390890815"><ele>54.6</ele><time>2026-04-17T13:52:41Z</time></trkpt><trkpt lat="49.193859971385116" lon="2.539177305542092"><ele>54.2</ele><time>2026-04-17T13:52:42Z</time></trkpt><trkpt lat="49.193888430854706" lon="2.53927474389623"><ele>53.8</ele><time>2026-04-17T13:52:43Z</time></trkpt><trkpt lat="49.19393513563677" lon="2.5394538084653218"><ele>53.4</ele><time>2026-04-17T13:52:45Z</time></trkpt><trkpt lat="49.19396801619516" lon="2.5396004200491147"><ele>53.0</ele><time>2026-04-17T13:52:46Z</time></trkpt><trkpt lat="49.193995043199266" lon="2.539726633856078"><ele>52.50000000000001</ele><time>2026-04-17T13:52:47Z</time></trkpt><trkpt lat="49.194029134973455" lon="2.5398474718244994"><ele>52.0</ele><time>2026-04-17T13:52:48Z</time></trkpt><trkpt lat="49.19404130316265" lon="2.5399587129241747"><ele>51.5</ele><time>2026-04-17T13:52:49Z</time></trkpt><trkpt lat="49.19406443649829" lon="2.5400718088193424"><ele>51.0</ele><time>2026-04-17T13:52:50Z</time></trkpt><trkpt lat="49.194104623825964" lon="2.540211611530499"><ele>50.50000000000001</ele><time>2026-04-17T13:52:51Z</time></trkpt><trkpt lat="49.194136445538454" lon="2.5403490654336216"><ele>50.0</ele><time>2026-04-17T13:52:52Z</time></trkpt><trkpt lat="49.19414997863603" lon="2.540497319721923"><ele>49.833333333333336</ele><time>2026-04-17T13:52:53Z</time></trkpt><trkpt lat="49.194171770863406" lon="2.5406041634372523"><ele>49.66666666666667</ele><time>2026-04-17T13:52:54Z</time></trkpt><trkpt lat="49.19420497406782" lon="2.5407124491219606"><ele>49.5</ele><time>2026-04-17T13:52:55Z</time></trkpt><trkpt lat="49.19423190530232" lon="2.540834991860287"><ele>49.33333333333333</ele><time>2026-04-17T13:52:56Z</time></trkpt><trkpt lat="49.194244414391775" lon="2.540960321707904"><ele>49.166666666666664</ele><time>2026-04-17T13:52:57Z</time></trkpt><trkpt lat="49.19427543035518" lon="2.54107362135504"><ele>49.0</ele><time>2026-04-17T13:52:58Z</time></trkpt><trkpt lat="49.19430646488527" lon="2.541185660378758"><ele>49.2</ele><time>2026-04-17T13:52:59Z</time></trkpt><trkpt lat="49.19432172255644" lon="2.5412932382632794"><ele>49.400000000000006</ele><time>2026-04-17T13:52:59.999Z</time></trkpt><trkpt lat="49.19434161201771" lon="2.5413914179001393"><ele>49.6</ele><time>2026-04-17T13:53:00.999Z</time></trkpt><trkpt lat="49.19438476840297" lon="2.5415516678829677"><ele>49.8</ele><time>2026-04-17T13:53:02.999Z</time></trkpt><trkpt lat="49.19443466792184" lon="2.5417014869658012"><ele>50.0</ele><time>2026-04-17T13:53:04.999Z</time></trkpt><trkpt lat="49.19450079430871" lon="2.5418013225960308"><ele>50.00000000000001</ele><time>2026-04-17T13:53:06.999Z</time></trkpt><trkpt lat="49.194568602685976" lon="2.5419022603544823"><ele>50.0</ele><time>2026-04-17T13:53:08.999Z</time></trkpt><trkpt lat="49.194633397741946" lon="2.5419893839799275"><ele>50.0</ele><time>2026-04-17T13:53:10.999Z</time></trkpt><trkpt lat="49.19471269208678" lon="2.5420585324353855"><ele>50.0</ele><time>2026-04-17T13:53:12.999Z</time></trkpt><trkpt lat="49.194778160105194" lon="2.542125037162143"><ele>50.00000000000001</ele><time>2026-04-17T13:53:14.999Z</time></trkpt><trkpt lat="49.194836209749745" lon="2.5421956526844864"><ele>50.0</ele><time>2026-04-17T13:53:16.999Z</time></trkpt><trkpt lat="49.19490291811798" lon="2.542251162709949"><ele>50.833333333333336</ele><time>2026-04-17T13:53:18.999Z</time></trkpt><trkpt lat="49.194958447982145" lon="2.542327665403249"><ele>51.66666666666667</ele><time>2026-04-17T13:53:20.999Z</time></trkpt><trkpt lat="49.19501401510358" lon="2.5423979834726143"><ele>52.5</ele><time>2026-04-17T13:53:22.999Z</time></trkpt><trkpt lat="49.195077693765185" lon="2.5424689864430214"><ele>53.33333333333333</ele><time>2026-04-17T13:53:24.999Z</time></trkpt><trkpt lat="49.19513299776267" lon="2.5425550676516373"><ele>54.166666666666664</ele><time>2026-04-17T13:53:26.999Z</time></trkpt><trkpt lat="49.19517275967252" lon="2.542656675893984"><ele>55.0</ele><time>2026-04-17T13:53:28.999Z</time></trkpt><trkpt lat="49.1951988123201" lon="2.54276890545417"><ele>55.14285714285714</ele><time>2026-04-17T13:53:30.999Z</time></trkpt><trkpt lat="49.19520554325566" lon="2.5428858340491547"><ele>55.285714285714285</ele><time>2026-04-17T13:53:32.998Z</time></trkpt><trkpt lat="49.19520945049311" lon="2.542995621418178"><ele>55.42857142857143</ele><time>2026-04-17T13:53:34.998Z</time></trkpt><trkpt lat="49.19521870740085" lon="2.543103594374166"><ele>55.57142857142857</ele><time>2026-04-17T13:53:36.998Z</time></trkpt><trkpt lat="49.1952239803556" lon="2.5432148130198815"><ele>55.714285714285715</ele><time>2026-04-17T13:53:38.998Z</time></trkpt><trkpt lat="49.1952212007956" lon="2.543326169773735"><ele>55.857142857142854</ele><time>2026-04-17T13:53:40.998Z</time></trkpt><trkpt lat="49.195226619391924" lon="2.543440466930673"><ele>56.0</ele><time>2026-04-17T13:53:42.998Z</time></trkpt><trkpt lat="49.19523485553717" lon="2.543564021666123"><ele>56.00000000000001</ele><time>2026-04-17T13:53:44.998Z</time></trkpt><trkpt lat="49.195234086411105" lon="2.5436815201779286"><ele>56.0</ele><time>2026-04-17T13:53:46.998Z</time></trkpt><trkpt lat="49.195239576297865" lon="2.54379694462434"><ele>56.0</ele><time>2026-04-17T13:53:48.998Z</time></trkpt><trkpt lat="49.195243119943314" lon="2.543918283007507"><ele>56.0</ele><time>2026-04-17T13:53:50.998Z</time></trkpt><trkpt lat="49.195246341167945" lon="2.5440400558214287"><ele>56.00000000000001</ele><time>2026-04-17T13:53:52.998Z</time></trkpt><trkpt lat="49.19525454723769" lon="2.5441660627114557"><ele>56.0</ele><time>2026-04-17T13:53:54.998Z</time></trkpt><trkpt lat="49.19525903733665" lon="2.5442928108773044"><ele>56.0</ele><time>2026-04-17T13:53:56.998Z</time></trkpt><trkpt lat="49.195263313596385" lon="2.5444259802759888"><ele>55.99999999999999</ele><time>2026-04-17T13:53:58.998Z</time></trkpt><trkpt lat="49.19526965441155" lon="2.544568333315322"><ele>55.99999999999999</ele><time>2026-04-17T13:54:00.998Z</time></trkpt><trkpt lat="49.19527383179965" lon="2.5447166718921417"><ele>56.0</ele><time>2026-04-17T13:54:02.998Z</time></trkpt><trkpt lat="49.195277604694866" lon="2.544861534858297"><ele>56.0</ele><time>2026-04-17T13:54:04.998Z</time></trkpt><trkpt lat="49.195281729990874" lon="2.5449999919091724"><ele>55.8</ele><time>2026-04-17T13:54:06.997Z</time></trkpt><trkpt lat="49.19527496560241" lon="2.545154142172422"><ele>55.599999999999994</ele><time>2026-04-17T13:54:08.997Z</time></trkpt><trkpt lat="49.195294010338394" lon="2.545298309403107"><ele>55.4</ele><time>2026-04-17T13:54:10.997Z</time></trkpt><trkpt lat="49.195296518612324" lon="2.545441903581418"><ele>55.2</ele><time>2026-04-17T13:54:12.997Z</time></trkpt><trkpt lat="49.19530303367422" lon="2.5455894495220974"><ele>55.0</ele><time>2026-04-17T13:54:14.997Z</time></trkpt><trkpt lat="49.19530384937674" lon="2.545734380082405"><ele>55.0</ele><time>2026-04-17T13:54:16.997Z</time></trkpt><trkpt lat="49.19529885492566" lon="2.5458741550351873"><ele>55.0</ele><time>2026-04-17T13:54:18.997Z</time></trkpt><trkpt lat="49.195300958233055" lon="2.546016509991171"><ele>55.0</ele><time>2026-04-17T13:54:20.997Z</time></trkpt><trkpt lat="49.19530699470554" lon="2.546154263025803"><ele>55.0</ele><time>2026-04-17T13:54:22.997Z</time></trkpt><trkpt lat="49.19531316701946" lon="2.546295792931243"><ele>55.0</ele><time>2026-04-17T13:54:24.997Z</time></trkpt><trkpt lat="49.19531469757194" lon="2.5464375966752235"><ele>55.4</ele><time>2026-04-17T13:54:26.997Z</time></trkpt><trkpt lat="49.19532121897516" lon="2.54658056589579"><ele>55.8</ele><time>2026-04-17T13:54:28.997Z</time></trkpt><trkpt lat="49.195336050944036" lon="2.5467220287425145"><ele>56.2</ele><time>2026-04-17T13:54:30.997Z</time></trkpt><trkpt lat="49.19533371907441" lon="2.5468603812799215"><ele>56.6</ele><time>2026-04-17T13:54:32.997Z</time></trkpt><trkpt lat="49.19533065006348" lon="2.5470068339931307"><ele>57.0</ele><time>2026-04-17T13:54:34.997Z</time></trkpt><trkpt lat="49.195329452957914" lon="2.5471503801788082"><ele>57.0</ele><time>2026-04-17T13:54:36.997Z</time></trkpt><trkpt lat="49.19534243516478" lon="2.547281036363937"><ele>57.0</ele><time>2026-04-17T13:54:38.997Z</time></trkpt><trkpt lat="49.195347260005164" lon="2.547419185841212"><ele>57.0</ele><time>2026-04-17T13:54:40.996Z</time></trkpt><trkpt lat="49.19535408881687" lon="2.547569035386077"><ele>57.0</ele><time>2026-04-17T13:54:42.996Z</time></trkpt><trkpt lat="49.195355616360175" lon="2.547722969407672"><ele>57.0</ele><time>2026-04-17T13:54:44.996Z</time></trkpt><trkpt lat="49.19536097670168" lon="2.547866276629925"><ele>56.6</ele><time>2026-04-17T13:54:47Z</time></trkpt><trkpt lat="49.19536998677001" lon="2.548005273695388"><ele>56.2</ele><time>2026-04-17T13:54:49Z</time></trkpt><trkpt lat="49.19537923174959" lon="2.5481359880321643"><ele>55.8</ele><time>2026-04-17T13:54:51Z</time></trkpt><trkpt lat="49.19538681216058" lon="2.5483069158808576"><ele>55.4</ele><time>2026-04-17T13:54:53Z</time></trkpt><trkpt lat="49.195397741489465" lon="2.5484521668672357"><ele>55.0</ele><time>2026-04-17T13:54:55Z</time></trkpt><trkpt lat="49.195400596669174" lon="2.548606080399947"><ele>55.2</ele><time>2026-04-17T13:54:57Z</time></trkpt><trkpt lat="49.195398602983545" lon="2.548748441657813"><ele>55.4</ele><time>2026-04-17T13:54:59Z</time></trkpt><trkpt lat="49.19540110771365" lon="2.548886004060639"><ele>55.599999999999994</ele><time>2026-04-17T13:55:01Z</time></trkpt><trkpt lat="49.19540713226601" lon="2.5490367914818246"><ele>55.8</ele><time>2026-04-17T13:55:03Z</time></trkpt><trkpt lat="49.19541965082288" lon="2.5491855545760695"><ele>56.0</ele><time>2026-04-17T13:55:04.999Z</time></trkpt><trkpt lat="49.19543276517536" lon="2.549337909951736"><ele>56.0</ele><time>2026-04-17T13:55:06.999Z</time></trkpt><trkpt lat="49.19543761117556" lon="2.5494898017568715"><ele>55.99999999999999</ele><time>2026-04-17T13:55:08.999Z</time></trkpt><trkpt lat="49.19544384252006" lon="2.549634622175441"><ele>55.99999999999999</ele><time>2026-04-17T13:55:10.999Z</time></trkpt><trkpt lat="49.195450665810874" lon="2.54978796876499"><ele>56.0</ele><time>2026-04-17T13:55:12.999Z</time></trkpt><trkpt lat="49.19546392663833" lon="2.5499304913194343"><ele>56.0</ele><time>2026-04-17T13:55:14.999Z</time></trkpt><trkpt lat="49.19547362730762" lon="2.550080869776946"><ele>56.0</ele><time>2026-04-17T13:55:16.999Z</time></trkpt><trkpt lat="49.19547861804645" lon="2.550220208240607"><ele>55.99999999999999</ele><time>2026-04-17T13:55:18.999Z</time></trkpt><trkpt lat="49.195486936028395" lon="2.550366825875154"><ele>55.99999999999999</ele><time>2026-04-17T13:55:20.999Z</time></trkpt><trkpt lat="49.195505189618345" lon="2.550518426319753"><ele>56.0</ele><time>2026-04-17T13:55:22.999Z</time></trkpt><trkpt lat="49.19551360426341" lon="2.5506667085255694"><ele>56.0</ele><time>2026-04-17T13:55:24.999Z</time></trkpt><trkpt lat="49.19553003219755" lon="2.550819229960531"><ele>56.0</ele><time>2026-04-17T13:55:26.999Z</time></trkpt><trkpt lat="49.19554716685247" lon="2.5509711800312713"><ele>55.99999999999999</ele><time>2026-04-17T13:55:28.999Z</time></trkpt><trkpt lat="49.195558319660556" lon="2.551123225693887"><ele>55.99999999999999</ele><time>2026-04-17T13:55:30.999Z</time></trkpt><trkpt lat="49.19558627349854" lon="2.5512773044164967"><ele>56.0</ele><time>2026-04-17T13:55:32.999Z</time></trkpt><trkpt lat="49.19560725376955" lon="2.551442569976329"><ele>56.0</ele><time>2026-04-17T13:55:34.999Z</time></trkpt><trkpt lat="49.195632935343745" lon="2.551614850774032"><ele>56.0</ele><time>2026-04-17T13:55:36.999Z</time></trkpt><trkpt lat="49.19566234979882" lon="2.5517845354461115"><ele>55.99999999999999</ele><time>2026-04-17T13:55:38.998Z</time></trkpt><trkpt lat="49.19568987108754" lon="2.55195690775461"><ele>55.99999999999999</ele><time>2026-04-17T13:55:40.998Z</time></trkpt><trkpt lat="49.195711509959644" lon="2.552049126943681"><ele>56.0</ele><time>2026-04-17T13:55:41.998Z</time></trkpt><trkpt lat="49.19575998723173" lon="2.5522331565330134"><ele>56.0</ele><time>2026-04-17T13:55:43.998Z</time></trkpt><trkpt lat="49.19578482070735" lon="2.552331420391707"><ele>55.50000000000001</ele><time>2026-04-17T13:55:44.998Z</time></trkpt><trkpt lat="49.195828374341865" lon="2.5524340561803727"><ele>55.0</ele><time>2026-04-17T13:55:45.998Z</time></trkpt><trkpt lat="49.19586045307508" lon="2.5525228586291684"><ele>54.5</ele><time>2026-04-17T13:55:46.998Z</time></trkpt><trkpt lat="49.195886605121125" lon="2.55262518801225"><ele>54.0</ele><time>2026-04-17T13:55:47.998Z</time></trkpt><trkpt lat="49.195914248825815" lon="2.5527349674723507"><ele>53.50000000000001</ele><time>2026-04-17T13:55:48.998Z</time></trkpt><trkpt lat="49.195937394272434" lon="2.5528515184260576"><ele>53.0</ele><time>2026-04-17T13:55:49.998Z</time></trkpt><trkpt lat="49.195969062242035" lon="2.5529577815378834"><ele>52.833333333333336</ele><time>2026-04-17T13:55:50.998Z</time></trkpt><trkpt lat="49.19599925860012" lon="2.553073298121735"><ele>52.66666666666667</ele><time>2026-04-17T13:55:51.998Z</time></trkpt><trkpt lat="49.1960299405247" lon="2.5531898719325943"><ele>52.5</ele><time>2026-04-17T13:55:52.998Z</time></trkpt><trkpt lat="49.19604955806037" lon="2.5533158710627424"><ele>52.33333333333333</ele><time>2026-04-17T13:55:53.998Z</time></trkpt><trkpt lat="49.196062641599724" lon="2.553428179846072"><ele>52.166666666666664</ele><time>2026-04-17T13:55:54.998Z</time></trkpt><trkpt lat="49.196061571465464" lon="2.5535636380217515"><ele>52.0</ele><time>2026-04-17T13:55:55.998Z</time></trkpt><trkpt lat="49.19606071658962" lon="2.5536952232587566"><ele>51.666666666666664</ele><time>2026-04-17T13:55:56.998Z</time></trkpt><trkpt lat="49.19604849256577" lon="2.553823104723947"><ele>51.33333333333333</ele><time>2026-04-17T13:55:57.998Z</time></trkpt><trkpt lat="49.196038789246366" lon="2.5539422364171807"><ele>51.0</ele><time>2026-04-17T13:55:58.998Z</time></trkpt><trkpt lat="49.19603180086654" lon="2.554057037376002"><ele>50.66666666666667</ele><time>2026-04-17T13:55:59.998Z</time></trkpt><trkpt lat="49.19602109281362" lon="2.5541759156561605"><ele>50.333333333333336</ele><time>2026-04-17T13:56:00.998Z</time></trkpt><trkpt lat="49.19600383565514" lon="2.5542910028964383"><ele>50.0</ele><time>2026-04-17T13:56:01.998Z</time></trkpt><trkpt lat="49.19599012980515" lon="2.5543969910304094"><ele>50.00000000000001</ele><time>2026-04-17T13:56:02.998Z</time></trkpt><trkpt lat="49.1959736922716" lon="2.5545067306795657"><ele>50.0</ele><time>2026-04-17T13:56:03.998Z</time></trkpt><trkpt lat="49.195963579100166" lon="2.554620189156563"><ele>50.0</ele><time>2026-04-17T13:56:04.998Z</time></trkpt><trkpt lat="49.19595391033542" lon="2.5547272351962524"><ele>50.0</ele><time>2026-04-17T13:56:05.998Z</time></trkpt><trkpt lat="49.19593733448838" lon="2.554833539398433"><ele>50.00000000000001</ele><time>2026-04-17T13:56:06.998Z</time></trkpt><trkpt lat="49.19591902445392" lon="2.554936405183713"><ele>50.0</ele><time>2026-04-17T13:56:07.998Z</time></trkpt><trkpt lat="49.19589569471122" lon="2.5551283819154924"><ele>50.2</ele><time>2026-04-17T13:56:09.998Z</time></trkpt><trkpt lat="49.19588346971227" lon="2.555228566647556"><ele>50.4</ele><time>2026-04-17T13:56:10.998Z</time></trkpt><trkpt lat="49.19587153993151" lon="2.555323836002218"><ele>50.599999999999994</ele><time>2026-04-17T13:56:11.998Z</time></trkpt><trkpt lat="49.19585201177588" lon="2.5555087385694986"><ele>50.8</ele><time>2026-04-17T13:56:13.997Z</time></trkpt><trkpt lat="49.19582815765381" lon="2.555687663095603"><ele>51.0</ele><time>2026-04-17T13:56:15.997Z</time></trkpt><trkpt lat="49.195800648050394" lon="2.5558630830550704"><ele>50.25</ele><time>2026-04-17T13:56:17.997Z</time></trkpt><trkpt lat="49.195784228621086" lon="2.55604087841557"><ele>49.5</ele><time>2026-04-17T13:56:19.997Z</time></trkpt><trkpt lat="49.1957612243785" lon="2.5562104886321118"><ele>48.75</ele><time>2026-04-17T13:56:21.997Z</time></trkpt><trkpt lat="49.19574408787215" lon="2.5563823979297275"><ele>48.0</ele><time>2026-04-17T13:56:23.997Z</time></trkpt><trkpt lat="49.19572725568305" lon="2.5565494768993164"><ele>47.8</ele><time>2026-04-17T13:56:25.997Z</time></trkpt><trkpt lat="49.19569879550543" lon="2.5567131740776783"><ele>47.599999999999994</ele><time>2026-04-17T13:56:27.997Z</time></trkpt><trkpt lat="49.195676310521044" lon="2.5568818909793833"><ele>47.400000000000006</ele><time>2026-04-17T13:56:29.997Z</time></trkpt><trkpt lat="49.19565438935953" lon="2.5570435430582648"><ele>47.2</ele><time>2026-04-17T13:56:31.997Z</time></trkpt><trkpt lat="49.195629200809634" lon="2.557214639596705"><ele>47.0</ele><time>2026-04-17T13:56:33.997Z</time></trkpt><trkpt lat="49.19560692588077" lon="2.557381883954626"><ele>48.2</ele><time>2026-04-17T13:56:35.997Z</time></trkpt><trkpt lat="49.19559677199745" lon="2.557542615602241"><ele>49.400000000000006</ele><time>2026-04-17T13:56:37.997Z</time></trkpt><trkpt lat="49.19558831694438" lon="2.557703435666392"><ele>50.599999999999994</ele><time>2026-04-17T13:56:39.997Z</time></trkpt><trkpt lat="49.19559437792792" lon="2.5578660967852653"><ele>51.8</ele><time>2026-04-17T13:56:41.997Z</time></trkpt><trkpt lat="49.195602600229385" lon="2.558025718182843"><ele>53.0</ele><time>2026-04-17T13:56:43.997Z</time></trkpt><trkpt lat="49.1956053092339" lon="2.558187310209504"><ele>53.0</ele><time>2026-04-17T13:56:45.997Z</time></trkpt><trkpt lat="49.19561212881793" lon="2.5583473832717782"><ele>53.0</ele><time>2026-04-17T13:56:47.996Z</time></trkpt><trkpt lat="49.195612561231094" lon="2.55851039280658"><ele>53.0</ele><time>2026-04-17T13:56:49.996Z</time></trkpt><trkpt lat="49.195620961698154" lon="2.5586683568628903"><ele>53.0</ele><time>2026-04-17T13:56:51.996Z</time></trkpt><trkpt lat="49.195627044071315" lon="2.5588286527579314"><ele>53.0</ele><time>2026-04-17T13:56:54Z</time></trkpt><trkpt lat="49.19563060322768" lon="2.5589927696898362"><ele>53.0</ele><time>2026-04-17T13:56:56Z</time></trkpt><trkpt lat="49.19564040873951" lon="2.559156938625778"><ele>53.0</ele><time>2026-04-17T13:56:58Z</time></trkpt><trkpt lat="49.19564454296483" lon="2.5593128879809752"><ele>53.0</ele><time>2026-04-17T13:57:00Z</time></trkpt><trkpt lat="49.195643476841475" lon="2.559463941323482"><ele>53.0</ele><time>2026-04-17T13:57:02Z</time></trkpt><trkpt lat="49.19564871958796" lon="2.559633136826286"><ele>53.0</ele><time>2026-04-17T13:57:04Z</time></trkpt><trkpt lat="49.195651844335174" lon="2.5597955209493377"><ele>53.0</ele><time>2026-04-17T13:57:06Z</time></trkpt><trkpt lat="49.19565704881893" lon="2.5599504234607755"><ele>53.0</ele><time>2026-04-17T13:57:08Z</time></trkpt><trkpt lat="49.195660505834084" lon="2.5601108919475144"><ele>53.0</ele><time>2026-04-17T13:57:10Z</time></trkpt><trkpt lat="49.19566828572432" lon="2.5602675138033253"><ele>53.0</ele><time>2026-04-17T13:57:12Z</time></trkpt><trkpt lat="49.195671045017406" lon="2.5604246757337243"><ele>53.0</ele><time>2026-04-17T13:57:13.999Z</time></trkpt><trkpt lat="49.19567425435249" lon="2.560594911710797"><ele>53.2</ele><time>2026-04-17T13:57:15.999Z</time></trkpt><trkpt lat="49.19567456116602" lon="2.560772193887974"><ele>53.4</ele><time>2026-04-17T13:57:17.999Z</time></trkpt><trkpt lat="49.19568483651552" lon="2.560955319924023"><ele>53.60000000000001</ele><time>2026-04-17T13:57:19.999Z</time></trkpt><trkpt lat="49.195688601333" lon="2.5611304595276914"><ele>53.800000000000004</ele><time>2026-04-17T13:57:21.999Z</time></trkpt><trkpt lat="49.195696701188666" lon="2.561229762783575"><ele>54.0</ele><time>2026-04-17T13:57:22.999Z</time></trkpt><trkpt lat="49.1957316316211" lon="2.561401874869057"><ele>54.0</ele><time>2026-04-17T13:57:24.999Z</time></trkpt><trkpt lat="49.1957826254921" lon="2.5615653457961987"><ele>54.00000000000001</ele><time>2026-04-17T13:57:26.999Z</time></trkpt><trkpt lat="49.195813847515446" lon="2.5616615579063473"><ele>54.00000000000001</ele><time>2026-04-17T13:57:27.999Z</time></trkpt><trkpt lat="49.19585732301686" lon="2.5617402936899567"><ele>54.0</ele><time>2026-04-17T13:57:28.999Z</time></trkpt><trkpt lat="49.19589701396423" lon="2.561900247800535"><ele>54.0</ele><time>2026-04-17T13:57:30.999Z</time></trkpt><trkpt lat="49.19593376515585" lon="2.562073327232187"><ele>54.0</ele><time>2026-04-17T13:57:32.999Z</time></trkpt><trkpt lat="49.19599759927276" lon="2.5622312519913177"><ele>54.00000000000001</ele><time>2026-04-17T13:57:34.999Z</time></trkpt><trkpt lat="49.196048012393625" lon="2.562381564232825"><ele>54.00000000000001</ele><time>2026-04-17T13:57:36.999Z</time></trkpt><trkpt lat="49.19609635789628" lon="2.562527832828116"><ele>54.0</ele><time>2026-04-17T13:57:38.999Z</time></trkpt><trkpt lat="49.19613470995316" lon="2.5626309306162507"><ele>54.0</ele><time>2026-04-17T13:57:40.999Z</time></trkpt><trkpt lat="49.19615751286066" lon="2.562728588168249"><ele>54.0</ele><time>2026-04-17T13:57:41.999Z</time></trkpt><trkpt lat="49.19620711112246" lon="2.562859405988677"><ele>54.00000000000001</ele><time>2026-04-17T13:57:43.999Z</time></trkpt><trkpt lat="49.196228492043076" lon="2.562996305096118"><ele>54.00000000000001</ele><time>2026-04-17T13:57:45.998Z</time></trkpt><trkpt lat="49.196256445893425" lon="2.5631247450792642"><ele>54.0</ele><time>2026-04-17T13:57:47.998Z</time></trkpt><trkpt lat="49.19629942009127" lon="2.5632824595570427"><ele>54.0</ele><time>2026-04-17T13:57:49.998Z</time></trkpt><trkpt lat="49.196335880962906" lon="2.5634371616018363"><ele>54.400000000000006</ele><time>2026-04-17T13:57:51.998Z</time></trkpt><trkpt lat="49.19636007496757" lon="2.5635782521389845"><ele>54.800000000000004</ele><time>2026-04-17T13:57:53.998Z</time></trkpt><trkpt lat="49.19639808495453" lon="2.563724085061405"><ele>55.199999999999996</ele><time>2026-04-17T13:57:55.998Z</time></trkpt><trkpt lat="49.19643309960224" lon="2.5638658675215553"><ele>55.599999999999994</ele><time>2026-04-17T13:57:57.998Z</time></trkpt><trkpt lat="49.19647417287006" lon="2.5640121567712972"><ele>56.0</ele><time>2026-04-17T13:57:59.998Z</time></trkpt><trkpt lat="49.19649524837763" lon="2.5641642944644802"><ele>54.8</ele><time>2026-04-17T13:58:01.998Z</time></trkpt><trkpt lat="49.196524086934204" lon="2.5643167737058583"><ele>53.599999999999994</ele><time>2026-04-17T13:58:03.998Z</time></trkpt><trkpt lat="49.19654502592412" lon="2.564475956890147"><ele>52.4</ele><time>2026-04-17T13:58:05.998Z</time></trkpt><trkpt lat="49.19656148049498" lon="2.564636146686604"><ele>51.2</ele><time>2026-04-17T13:58:07.998Z</time></trkpt><trkpt lat="49.196573529187816" lon="2.5648049736155794"><ele>50.0</ele><time>2026-04-17T13:58:09.998Z</time></trkpt><trkpt lat="49.196565677145685" lon="2.5649760247189812"><ele>50.0</ele><time>2026-04-17T13:58:11.998Z</time></trkpt><trkpt lat="49.19653813971894" lon="2.5651489695594525"><ele>50.0</ele><time>2026-04-17T13:58:13.998Z</time></trkpt><trkpt lat="49.19648911963647" lon="2.5653062582120563"><ele>50.0</ele><time>2026-04-17T13:58:15.998Z</time></trkpt><trkpt lat="49.1964452687386" lon="2.5654653777816017"><ele>50.0</ele><time>2026-04-17T13:58:17.998Z</time></trkpt><trkpt lat="49.19640345371202" lon="2.5656281066101885"><ele>50.4</ele><time>2026-04-17T13:58:19.997Z</time></trkpt><trkpt lat="49.19635957348332" lon="2.565784087520673"><ele>50.8</ele><time>2026-04-17T13:58:21.997Z</time></trkpt><trkpt lat="49.19631201936434" lon="2.56593712944613"><ele>51.2</ele><time>2026-04-17T13:58:23.997Z</time></trkpt><trkpt lat="49.19626229715119" lon="2.5660989538985657"><ele>51.6</ele><time>2026-04-17T13:58:25.997Z</time></trkpt><trkpt lat="49.19623444473407" lon="2.5661926764927747"><ele>52.0</ele><time>2026-04-17T13:58:26.997Z</time></trkpt><trkpt lat="49.19618787850422" lon="2.566372211658175"><ele>52.0</ele><time>2026-04-17T13:58:28.997Z</time></trkpt><trkpt lat="49.19616089630839" lon="2.5664624313468476"><ele>52.0</ele><time>2026-04-17T13:58:29.997Z</time></trkpt><trkpt lat="49.19613427441891" lon="2.5665547719085855"><ele>52.0</ele><time>2026-04-17T13:58:30.997Z</time></trkpt><trkpt lat="49.19611085873173" lon="2.5666542051818637"><ele>52.0</ele><time>2026-04-17T13:58:31.997Z</time></trkpt><trkpt lat="49.19608482636327" lon="2.566755835071989"><ele>52.0</ele><time>2026-04-17T13:58:32.997Z</time></trkpt><trkpt lat="49.1960612024477" lon="2.5668524978376466"><ele>52.0</ele><time>2026-04-17T13:58:33.997Z</time></trkpt><trkpt lat="49.19602819506705" lon="2.5669411096696404"><ele>52.0</ele><time>2026-04-17T13:58:34.997Z</time></trkpt><trkpt lat="49.19600633461431" lon="2.567037692802474"><ele>52.0</ele><time>2026-04-17T13:58:35.997Z</time></trkpt><trkpt lat="49.1959887779831" lon="2.567131115473658"><ele>52.0</ele><time>2026-04-17T13:58:36.997Z</time></trkpt><trkpt lat="49.195950345509395" lon="2.5673211535357177"><ele>52.0</ele><time>2026-04-17T13:58:38.997Z</time></trkpt><trkpt lat="49.19596733605527" lon="2.5674155662600464"><ele>52.0</ele><time>2026-04-17T13:58:39.997Z</time></trkpt><trkpt lat="49.196005180933454" lon="2.5675972293329306"><ele>52.0</ele><time>2026-04-17T13:58:41.997Z</time></trkpt><trkpt lat="49.19604734232583" lon="2.5677790287403828"><ele>52.400000000000006</ele><time>2026-04-17T13:58:43.997Z</time></trkpt><trkpt lat="49.196090961500396" lon="2.567958343166302"><ele>52.800000000000004</ele><time>2026-04-17T13:58:45.997Z</time></trkpt><trkpt lat="49.1961370754268" lon="2.5681340706845686"><ele>53.2</ele><time>2026-04-17T13:58:47.997Z</time></trkpt><trkpt lat="49.19617727079036" lon="2.568315486417129"><ele>53.6</ele><time>2026-04-17T13:58:49.997Z</time></trkpt><trkpt lat="49.196205638699034" lon="2.568407000085136"><ele>54.0</ele><time>2026-04-17T13:58:50.997Z</time></trkpt><trkpt lat="49.19623174675423" lon="2.568507985636705"><ele>54.0</ele><time>2026-04-17T13:58:51.997Z</time></trkpt><trkpt lat="49.196267849753134" lon="2.5686608185839868"><ele>54.00000000000001</ele><time>2026-04-17T13:58:53.996Z</time></trkpt><trkpt lat="49.19631252495759" lon="2.568833022543323"><ele>54.00000000000001</ele><time>2026-04-17T13:58:55.996Z</time></trkpt><trkpt lat="49.19635568076744" lon="2.569000015369104"><ele>54.0</ele><time>2026-04-17T13:58:57.996Z</time></trkpt><trkpt lat="49.19638256885528" lon="2.569094734238057"><ele>54.0</ele><time>2026-04-17T13:58:59Z</time></trkpt><trkpt lat="49.19641952637046" lon="2.5692708131460646"><ele>54.0</ele><time>2026-04-17T13:59:01Z</time></trkpt><trkpt lat="49.196456927742226" lon="2.5694572594353695"><ele>54.0</ele><time>2026-04-17T13:59:03Z</time></trkpt><trkpt lat="49.196512050066765" lon="2.5696306391869985"><ele>54.0</ele><time>2026-04-17T13:59:05Z</time></trkpt><trkpt lat="49.19650960473855" lon="2.5697508344828877"><ele>54.0</ele><time>2026-04-17T13:59:06Z</time></trkpt><trkpt lat="49.1964474626719" lon="2.5699280301801584"><ele>53.5</ele><time>2026-04-17T13:59:08Z</time></trkpt><trkpt lat="49.19643762933988" lon="2.570115895110118"><ele>53.0</ele><time>2026-04-17T13:59:10Z</time></trkpt><trkpt lat="49.1964263676881" lon="2.5703025278637237"><ele>52.5</ele><time>2026-04-17T13:59:12Z</time></trkpt><trkpt lat="49.19641298299555" lon="2.5704763870772855"><ele>52.0</ele><time>2026-04-17T13:59:14Z</time></trkpt><trkpt lat="49.19641811585177" lon="2.5706545058398644"><ele>52.0</ele><time>2026-04-17T13:59:16Z</time></trkpt><trkpt lat="49.19642164749765" lon="2.570753469100123"><ele>52.0</ele><time>2026-04-17T13:59:17Z</time></trkpt><trkpt lat="49.19642567471563" lon="2.570935311997278"><ele>52.0</ele><time>2026-04-17T13:59:19Z</time></trkpt><trkpt lat="49.19642733080739" lon="2.571121675052089"><ele>52.0</ele><time>2026-04-17T13:59:20.999Z</time></trkpt><trkpt lat="49.19641014430357" lon="2.5713056526987526"><ele>52.0</ele><time>2026-04-17T13:59:22.999Z</time></trkpt><trkpt lat="49.196397568655975" lon="2.5714007617633032"><ele>52.0</ele><time>2026-04-17T13:59:23.999Z</time></trkpt><trkpt lat="49.196370615245755" lon="2.5715797588924327"><ele>52.0</ele><time>2026-04-17T13:59:25.999Z</time></trkpt><trkpt lat="49.196352069223394" lon="2.5717617500378127"><ele>52.0</ele><time>2026-04-17T13:59:27.999Z</time></trkpt><trkpt lat="49.196336133408145" lon="2.5719355775066393"><ele>52.0</ele><time>2026-04-17T13:59:29.999Z</time></trkpt><trkpt lat="49.19631263089871" lon="2.5721161533005983"><ele>52.25</ele><time>2026-04-17T13:59:31.999Z</time></trkpt><trkpt lat="49.19629233366568" lon="2.572288562189356"><ele>52.5</ele><time>2026-04-17T13:59:33.999Z</time></trkpt><trkpt lat="49.196272050336404" lon="2.5724601827390225"><ele>52.75</ele><time>2026-04-17T13:59:35.999Z</time></trkpt><trkpt lat="49.1962539938716" lon="2.572630677987482"><ele>53.0</ele><time>2026-04-17T13:59:37.999Z</time></trkpt><trkpt lat="49.19623462855351" lon="2.572799885544658"><ele>53.0</ele><time>2026-04-17T13:59:39.999Z</time></trkpt><trkpt lat="49.196214305417556" lon="2.572967064260323"><ele>53.0</ele><time>2026-04-17T13:59:41.999Z</time></trkpt><trkpt lat="49.196194889241646" lon="2.5731331548445175"><ele>53.0</ele><time>2026-04-17T13:59:43.999Z</time></trkpt><trkpt lat="49.1961758622855" lon="2.573298785708238"><ele>53.0</ele><time>2026-04-17T13:59:45.999Z</time></trkpt><trkpt lat="49.19615180425544" lon="2.5734652238155875"><ele>53.0</ele><time>2026-04-17T13:59:47.999Z</time></trkpt><trkpt lat="49.196132854426644" lon="2.5736309031938305"><ele>53.0</ele><time>2026-04-17T13:59:49.999Z</time></trkpt><trkpt lat="49.19611675799162" lon="2.5737919374918135"><ele>53.0</ele><time>2026-04-17T13:59:51.999Z</time></trkpt><trkpt lat="49.19609792919622" lon="2.5739510109545125"><ele>53.0</ele><time>2026-04-17T13:59:53.998Z</time></trkpt><trkpt lat="49.19607804482613" lon="2.5741074180689183"><ele>53.0</ele><time>2026-04-17T13:59:55.998Z</time></trkpt><trkpt lat="49.19605927169372" lon="2.574261371428562"><ele>53.0</ele><time>2026-04-17T13:59:57.998Z</time></trkpt><trkpt lat="49.19603739257756" lon="2.5744177943839235"><ele>52.8</ele><time>2026-04-17T13:59:59.998Z</time></trkpt><trkpt lat="49.196018524067114" lon="2.574580100720273"><ele>52.599999999999994</ele><time>2026-04-17T14:00:01.998Z</time></trkpt><trkpt lat="49.195994643425614" lon="2.574747433631412"><ele>52.400000000000006</ele><time>2026-04-17T14:00:03.998Z</time></trkpt><trkpt lat="49.195974304371525" lon="2.574906133357797"><ele>52.2</ele><time>2026-04-17T14:00:05.998Z</time></trkpt><trkpt lat="49.195950172497476" lon="2.5750663912821747"><ele>52.0</ele><time>2026-04-17T14:00:07.998Z</time></trkpt><trkpt lat="49.1959184067581" lon="2.575222945562842"><ele>52.400000000000006</ele><time>2026-04-17T14:00:09.998Z</time></trkpt><trkpt lat="49.19587720831161" lon="2.5753758852412534"><ele>52.800000000000004</ele><time>2026-04-17T14:00:11.998Z</time></trkpt><trkpt lat="49.195842499746284" lon="2.575535527649133"><ele>53.2</ele><time>2026-04-17T14:00:13.998Z</time></trkpt><trkpt lat="49.19581037440583" lon="2.5756933479384"><ele>53.6</ele><time>2026-04-17T14:00:15.998Z</time></trkpt><trkpt lat="49.19577858271026" lon="2.5758525269862322"><ele>54.0</ele><time>2026-04-17T14:00:17.998Z</time></trkpt><trkpt lat="49.19575094923147" lon="2.5760170830787605"><ele>54.0</ele><time>2026-04-17T14:00:19.998Z</time></trkpt><trkpt lat="49.195729268422006" lon="2.5761857912425694"><ele>54.00000000000001</ele><time>2026-04-17T14:00:21.998Z</time></trkpt><trkpt lat="49.19569883583815" lon="2.5763462465617617"><ele>54.00000000000001</ele><time>2026-04-17T14:00:23.998Z</time></trkpt><trkpt lat="49.19566667833508" lon="2.5765009255706484"><ele>54.0</ele><time>2026-04-17T14:00:25.997Z</time></trkpt><trkpt lat="49.19565846500839" lon="2.576654809619747"><ele>54.0</ele><time>2026-04-17T14:00:27.997Z</time></trkpt><trkpt lat="49.19563955392286" lon="2.5767992936664474"><ele>54.166666666666664</ele><time>2026-04-17T14:00:29.997Z</time></trkpt><trkpt lat="49.19560759824397" lon="2.576920744018499"><ele>54.33333333333333</ele><time>2026-04-17T14:00:31.997Z</time></trkpt><trkpt lat="49.195617516895716" lon="2.5770346779800883"><ele>54.5</ele><time>2026-04-17T14:00:34.997Z</time></trkpt><trkpt lat="49.19570418354642" lon="2.577101136155643"><ele>54.666666666666664</ele><time>2026-04-17T14:00:37.997Z</time></trkpt><trkpt lat="49.19577626569663" lon="2.5771457353789122"><ele>54.83333333333333</ele><time>2026-04-17T14:00:39.997Z</time></trkpt><trkpt lat="49.19585105085918" lon="2.577190346141117"><ele>55.0</ele><time>2026-04-17T14:00:41.997Z</time></trkpt><trkpt lat="49.195927432143975" lon="2.577238494012357"><ele>54.99999999999999</ele><time>2026-04-17T14:00:43.997Z</time></trkpt><trkpt lat="49.19600460283929" lon="2.5772957521571573"><ele>55.0</ele><time>2026-04-17T14:00:45.997Z</time></trkpt><trkpt lat="49.19608495067991" lon="2.577353833420781"><ele>55.0</ele><time>2026-04-17T14:00:47.997Z</time></trkpt><trkpt lat="49.196164888246955" lon="2.577411310732889"><ele>55.0</ele><time>2026-04-17T14:00:49.997Z</time></trkpt><trkpt lat="49.19624891501216" lon="2.5774593692709766"><ele>54.99999999999999</ele><time>2026-04-17T14:00:51.997Z</time></trkpt><trkpt lat="49.19632712739582" lon="2.5775041842638395"><ele>55.0</ele><time>2026-04-17T14:00:53.997Z</time></trkpt><trkpt lat="49.19640138737539" lon="2.5775533764893126"><ele>54.99999999999999</ele><time>2026-04-17T14:00:55.997Z</time></trkpt><trkpt lat="49.19647377715577" lon="2.57760468407064"><ele>55.0</ele><time>2026-04-17T14:00:57.997Z</time></trkpt><trkpt lat="49.19655388738954" lon="2.5776660467604673"><ele>55.0</ele><time>2026-04-17T14:00:59.996Z</time></trkpt><trkpt lat="49.19663482451" lon="2.577710029758116"><ele>55.0</ele><time>2026-04-17T14:01:01.996Z</time></trkpt><trkpt lat="49.19668257935026" lon="2.5778395711456104"><ele>54.99999999999999</ele><time>2026-04-17T14:01:03.996Z</time></trkpt><trkpt lat="49.19675978702017" lon="2.5778906307920155"><ele>55.0</ele><time>2026-04-17T14:01:06Z</time></trkpt><trkpt lat="49.19683233842423" lon="2.5779386109989773"><ele>54.99999999999999</ele><time>2026-04-17T14:01:08Z</time></trkpt><trkpt lat="49.19690136403112" lon="2.577984259606343"><ele>55.0</ele><time>2026-04-17T14:01:10Z</time></trkpt><trkpt lat="49.196977043224315" lon="2.578034308349461"><ele>55.0</ele><time>2026-04-17T14:01:12Z</time></trkpt><trkpt lat="49.19705431759053" lon="2.5780854120285546"><ele>55.0</ele><time>2026-04-17T14:01:14Z</time></trkpt><trkpt lat="49.19712620441021" lon="2.578132952892306"><ele>54.99999999999999</ele><time>2026-04-17T14:01:16Z</time></trkpt><trkpt lat="49.1972014738364" lon="2.578182730622695"><ele>55.0</ele><time>2026-04-17T14:01:18Z</time></trkpt><trkpt lat="49.1972667943176" lon="2.5782258448265694"><ele>55.2</ele><time>2026-04-17T14:01:20Z</time></trkpt><trkpt lat="49.197338101507846" lon="2.5782728820381164"><ele>55.4</ele><time>2026-04-17T14:01:22Z</time></trkpt><trkpt lat="49.19743973732247" lon="2.578355897959619"><ele>55.599999999999994</ele><time>2026-04-17T14:01:24Z</time></trkpt><trkpt lat="49.19759812120984" lon="2.578503760266083"><ele>55.8</ele><time>2026-04-17T14:01:26.999Z</time></trkpt><trkpt lat="49.1976607834231" lon="2.5785236606854225"><ele>56.0</ele><time>2026-04-17T14:01:29.999Z</time></trkpt><trkpt lat="49.197741701525445" lon="2.578539048352287"><ele>56.00000000000001</ele><time>2026-04-17T14:01:32.999Z</time></trkpt><trkpt lat="49.19780911219834" lon="2.5785839747635486"><ele>56.0</ele><time>2026-04-17T14:01:34.999Z</time></trkpt><trkpt lat="49.19787929658523" lon="2.5786307496975387"><ele>56.0</ele><time>2026-04-17T14:01:36.999Z</time></trkpt><trkpt lat="49.197944471652626" lon="2.5786741861387457"><ele>56.0</ele><time>2026-04-17T14:01:38.999Z</time></trkpt><trkpt lat="49.198002280936656" lon="2.578712898787547"><ele>56.00000000000001</ele><time>2026-04-17T14:01:40.999Z</time></trkpt><trkpt lat="49.19808661100426" lon="2.57876967355601"><ele>56.0</ele><time>2026-04-17T14:01:43.999Z</time></trkpt><trkpt lat="49.19817506186135" lon="2.5788292227459615"><ele>56.285714285714285</ele><time>2026-04-17T14:01:46.999Z</time></trkpt><trkpt lat="49.198234906102876" lon="2.5788695127284944"><ele>56.57142857142857</ele><time>2026-04-17T14:01:48.999Z</time></trkpt><trkpt lat="49.198297106307095" lon="2.5789113887079718"><ele>56.85714285714286</ele><time>2026-04-17T14:01:50.999Z</time></trkpt><trkpt lat="49.19836788942077" lon="2.57893150046544"><ele>57.142857142857146</ele><time>2026-04-17T14:01:52.999Z</time></trkpt><trkpt lat="49.19841969680477" lon="2.5789939222387863"><ele>57.42857142857143</ele><time>2026-04-17T14:01:54.999Z</time></trkpt><trkpt lat="49.19848474954888" lon="2.57902415358194"><ele>57.71428571428572</ele><time>2026-04-17T14:01:56.998Z</time></trkpt><trkpt lat="49.198545373552186" lon="2.579088464757447"><ele>58.00000000000001</ele><time>2026-04-17T14:01:58.998Z</time></trkpt><trkpt lat="49.19860747546262" lon="2.579146043145895"><ele>57.99999999999999</ele><time>2026-04-17T14:02:00.998Z</time></trkpt><trkpt lat="49.19866973515678" lon="2.5791671577555007"><ele>58.0</ele><time>2026-04-17T14:02:02.998Z</time></trkpt><trkpt lat="49.19873064799327" lon="2.579208265372216"><ele>58.0</ele><time>2026-04-17T14:02:04.998Z</time></trkpt><trkpt lat="49.198821938937776" lon="2.5792712068236634"><ele>58.0</ele><time>2026-04-17T14:02:07.998Z</time></trkpt><trkpt lat="49.19890326845293" lon="2.5793454950287646"><ele>57.99999999999999</ele><time>2026-04-17T14:02:10.998Z</time></trkpt><trkpt lat="49.1989507279246" lon="2.5794299287026248"><ele>58.0</ele><time>2026-04-17T14:02:12.998Z</time></trkpt><trkpt lat="49.199030532016394" lon="2.5794884195911068"><ele>58.599999999999994</ele><time>2026-04-17T14:02:14.998Z</time></trkpt><trkpt lat="49.19911953900377" lon="2.579533453280031"><ele>59.199999999999996</ele><time>2026-04-17T14:02:16.998Z</time></trkpt><trkpt lat="49.19920837991651" lon="2.579585971947694"><ele>59.8</ele><time>2026-04-17T14:02:18.998Z</time></trkpt><trkpt lat="49.19929549742034" lon="2.5796369100970438"><ele>60.4</ele><time>2026-04-17T14:02:20.998Z</time></trkpt><trkpt lat="49.199380884677275" lon="2.5796975148217407"><ele>61.0</ele><time>2026-04-17T14:02:22.998Z</time></trkpt><trkpt lat="49.19947299510274" lon="2.5797580685483696"><ele>60.99999999999999</ele><time>2026-04-17T14:02:24.998Z</time></trkpt><trkpt lat="49.199563190372075" lon="2.5798191970830153"><ele>61.0</ele><time>2026-04-17T14:02:26.998Z</time></trkpt><trkpt lat="49.19965231419077" lon="2.5798854244297544"><ele>61.0</ele><time>2026-04-17T14:02:28.998Z</time></trkpt><trkpt lat="49.19971699072835" lon="2.5799516372203857"><ele>61.0</ele><time>2026-04-17T14:02:30.997Z</time></trkpt><trkpt lat="49.19971044223375" lon="2.5800883655192717"><ele>60.99999999999999</ele><time>2026-04-17T14:02:32.997Z</time></trkpt><trkpt lat="49.19963572441334" lon="2.58013777359053"><ele>61.0</ele><time>2026-04-17T14:02:34.997Z</time></trkpt><trkpt lat="49.19958327842024" lon="2.580069205025848"><ele>60.99999999999999</ele><time>2026-04-17T14:02:36.997Z</time></trkpt><trkpt lat="49.19952126193703" lon="2.5800269645637126"><ele>61.0</ele><time>2026-04-17T14:02:38.997Z</time></trkpt><trkpt lat="49.19944837216243" lon="2.5801750307803966"><ele>61.0</ele><time>2026-04-17T14:02:42.997Z</time></trkpt><trkpt lat="49.199411954337776" lon="2.580299923567096"><ele>61.0</ele><time>2026-04-17T14:02:45.997Z</time></trkpt><trkpt lat="49.19938392849245" lon="2.5803909302549655"><ele>60.99999999999999</ele><time>2026-04-17T14:02:47.997Z</time></trkpt><trkpt lat="49.19935471409394" lon="2.5804853317730876"><ele>61.0</ele><time>2026-04-17T14:02:49.997Z</time></trkpt><trkpt lat="49.19933499926943" lon="2.58059131854266"><ele>60.83333333333333</ele><time>2026-04-17T14:02:51.997Z</time></trkpt><trkpt lat="49.199301142882646" lon="2.58068324422648"><ele>60.666666666666664</ele><time>2026-04-17T14:02:53.997Z</time></trkpt><trkpt lat="49.19925935426101" lon="2.580775420135701"><ele>60.5</ele><time>2026-04-17T14:02:55.997Z</time></trkpt><trkpt lat="49.19923809651018" lon="2.5808820051146144"><ele>60.33333333333333</ele><time>2026-04-17T14:02:57.997Z</time></trkpt><trkpt lat="49.199187436975095" lon="2.580990820403047"><ele>60.166666666666664</ele><time>2026-04-17T14:03:00.997Z</time></trkpt><trkpt lat="49.199297396531364" lon="2.5811390810549097"><ele>60.0</ele><time>2026-04-17T14:03:04.996Z</time></trkpt><trkpt lat="49.19938440423779" lon="2.581178103158724"><ele>59.666666666666664</ele><time>2026-04-17T14:03:07.996Z</time></trkpt><trkpt lat="49.19944500084698" lon="2.581226542532285"><ele>59.33333333333333</ele><time>2026-04-17T14:03:53.999Z</time></trkpt><trkpt lat="49.19950617318417" lon="2.5813001830459563"><ele>59.0</ele><time>2026-04-17T14:06:55.997Z</time></trkpt><trkpt lat="49.19957455002091" lon="2.581337509054542"><ele>58.666666666666664</ele><time>2026-04-17T14:06:58.997Z</time></trkpt><trkpt lat="49.19965313563722" lon="2.5813969327098127"><ele>58.33333333333333</ele><time>2026-04-17T14:07:01.997Z</time></trkpt><trkpt lat="49.19973961021917" lon="2.5814584005726884"><ele>58.0</ele><time>2026-04-17T14:07:04.997Z</time></trkpt><trkpt lat="49.199791615369264" lon="2.5815135987861675"><ele>58.166666666666664</ele><time>2026-04-17T14:07:06.997Z</time></trkpt><trkpt lat="49.19987080468734" lon="2.5815893236095313"><ele>58.33333333333333</ele><time>2026-04-17T14:07:09.996Z</time></trkpt><trkpt lat="49.19992952610325" lon="2.581644171703025"><ele>58.5</ele><time>2026-04-17T14:07:11.996Z</time></trkpt><trkpt lat="49.19999437061433" lon="2.581695927511799"><ele>58.66666666666667</ele><time>2026-04-17T14:07:13.996Z</time></trkpt><trkpt lat="49.20006672342488" lon="2.5817345418651714"><ele>58.833333333333336</ele><time>2026-04-17T14:07:15.996Z</time></trkpt><trkpt lat="49.20015012059034" lon="2.581767711383955"><ele>59.0</ele><time>2026-04-17T14:07:17.996Z</time></trkpt><trkpt lat="49.20022129914044" lon="2.5818288826082116"><ele>59.0</ele><time>2026-04-17T14:07:20.999Z</time></trkpt><trkpt lat="49.20027686068055" lon="2.5818880330984797"><ele>59.0</ele><time>2026-04-17T14:07:22.999Z</time></trkpt><trkpt lat="49.20033022876374" lon="2.581951872189196"><ele>59.0</ele><time>2026-04-17T14:07:24.999Z</time></trkpt><trkpt lat="49.200390799176525" lon="2.582005236309206"><ele>59.0</ele><time>2026-04-17T14:07:26.999Z</time></trkpt><trkpt lat="49.20045996476664" lon="2.582055077754754"><ele>59.0</ele><time>2026-04-17T14:07:28.999Z</time></trkpt><trkpt lat="49.200527400787394" lon="2.5821114685153503"><ele>59.0</ele><time>2026-04-17T14:07:30.999Z</time></trkpt><trkpt lat="49.20059851131793" lon="2.5821604134469385"><ele>59.0</ele><time>2026-04-17T14:07:32.999Z</time></trkpt><trkpt lat="49.20068508491208" lon="2.582225878099842"><ele>58.400000000000006</ele><time>2026-04-17T14:07:34.999Z</time></trkpt><trkpt lat="49.200773993656846" lon="2.5822763756484437"><ele>57.800000000000004</ele><time>2026-04-17T14:07:36.999Z</time></trkpt><trkpt lat="49.20079944001952" lon="2.5824372192618"><ele>57.199999999999996</ele><time>2026-04-17T14:07:38.999Z</time></trkpt><trkpt lat="49.200849456021864" lon="2.582588210232392"><ele>56.599999999999994</ele><time>2026-04-17T14:07:40.999Z</time></trkpt><trkpt lat="49.200912750609305" lon="2.5826161717003444"><ele>56.0</ele><time>2026-04-17T14:07:41.999Z</time></trkpt><trkpt lat="49.20102361357909" lon="2.5826721676464337"><ele>56.0</ele><time>2026-04-17T14:07:43.999Z</time></trkpt><trkpt lat="49.201076953523035" lon="2.5827274012039623"><ele>55.99999999999999</ele><time>2026-04-17T14:07:44.999Z</time></trkpt><trkpt lat="49.201171679068096" lon="2.582793593664952"><ele>55.99999999999999</ele><time>2026-04-17T14:07:46.999Z</time></trkpt><trkpt lat="49.20111359405681" lon="2.5829907230439484"><ele>56.0</ele><time>2026-04-17T14:07:49.999Z</time></trkpt><trkpt lat="49.20107509393042" lon="2.583111366201908"><ele>56.0</ele><time>2026-04-17T14:07:51.999Z</time></trkpt><trkpt lat="49.20101194705217" lon="2.5831862216937127"><ele>55.599999999999994</ele><time>2026-04-17T14:07:53.999Z</time></trkpt><trkpt lat="49.20097386883117" lon="2.583288555230319"><ele>55.199999999999996</ele><time>2026-04-17T14:07:55.999Z</time></trkpt><trkpt lat="49.200936006469114" lon="2.583367055041753"><ele>54.800000000000004</ele><time>2026-04-17T14:07:57.999Z</time></trkpt><trkpt lat="49.20086043432546" lon="2.583364854424816"><ele>54.400000000000006</ele><time>2026-04-17T14:07:59.999Z</time></trkpt><trkpt lat="49.20091767534638" lon="2.583651975564251"><ele>54.0</ele><time>2026-04-17T14:08:01.999Z</time></trkpt><trkpt lat="49.20090706385149" lon="2.583769951964961"><ele>55.0</ele><time>2026-04-17T14:08:03.999Z</time></trkpt><trkpt lat="49.20057949396505" lon="2.5835435230787946"><ele>56.0</ele><time>2026-04-17T14:08:05.999Z</time></trkpt><trkpt lat="49.20053770353925" lon="2.583651449836465"><ele>57.0</ele><time>2026-04-17T14:08:07.998Z</time></trkpt><trkpt lat="49.20049538973519" lon="2.583760728106515"><ele>55.0</ele><time>2026-04-17T14:08:09.998Z</time></trkpt><trkpt lat="49.20076912459617" lon="2.584156862294294"><ele>53.0</ele><time>2026-04-17T14:08:11.998Z</time></trkpt><trkpt lat="49.20072384695747" lon="2.584266673406936"><ele>53.00000000000001</ele><time>2026-04-17T14:08:13.998Z</time></trkpt><trkpt lat="49.20068110774883" lon="2.584374636378966"><ele>53.0</ele><time>2026-04-17T14:08:15.998Z</time></trkpt><trkpt lat="49.200640261943306" lon="2.584484936936131"><ele>53.0</ele><time>2026-04-17T14:08:17.998Z</time></trkpt><trkpt lat="49.20058912850546" lon="2.5845870350182656"><ele>53.0</ele><time>2026-04-17T14:08:19.998Z</time></trkpt><trkpt lat="49.20054091251446" lon="2.584684754853317"><ele>53.00000000000001</ele><time>2026-04-17T14:08:21.998Z</time></trkpt><trkpt lat="49.200495984243155" lon="2.584791387067269"><ele>53.0</ele><time>2026-04-17T14:08:23.998Z</time></trkpt><trkpt lat="49.200452127077035" lon="2.5849037320859534"><ele>53.00000000000001</ele><time>2026-04-17T14:08:25.998Z</time></trkpt><trkpt lat="49.20041018001974" lon="2.5850195018053093"><ele>53.0</ele><time>2026-04-17T14:08:27.998Z</time></trkpt><trkpt lat="49.200360808624716" lon="2.5851298508972587"><ele>53.0</ele><time>2026-04-17T14:08:29.998Z</time></trkpt><trkpt lat="49.20031839877983" lon="2.585240092805695"><ele>53.0</ele><time>2026-04-17T14:08:31.998Z</time></trkpt><trkpt lat="49.20026496619225" lon="2.5853317573269"><ele>53.00000000000001</ele><time>2026-04-17T14:08:33.998Z</time></trkpt><trkpt lat="49.200227759113815" lon="2.585441860273133"><ele>53.0</ele><time>2026-04-17T14:08:35.998Z</time></trkpt><trkpt lat="49.20018118986548" lon="2.5855493605659925"><ele>53.00000000000001</ele><time>2026-04-17T14:08:37.998Z</time></trkpt><trkpt lat="49.20013727618282" lon="2.585648565049642"><ele>53.0</ele><time>2026-04-17T14:08:39.998Z</time></trkpt><trkpt lat="49.20008029856356" lon="2.585748531213693"><ele>53.0</ele><time>2026-04-17T14:08:41.997Z</time></trkpt><trkpt lat="49.200037534340034" lon="2.5858571350355013"><ele>53.0</ele><time>2026-04-17T14:08:43.997Z</time></trkpt><trkpt lat="49.19999283723074" lon="2.5859650777141763"><ele>53.00000000000001</ele><time>2026-04-17T14:08:45.997Z</time></trkpt><trkpt lat="49.199936184150864" lon="2.5860570542320795"><ele>53.0</ele><time>2026-04-17T14:08:47.997Z</time></trkpt><trkpt lat="49.19988953858885" lon="2.5861617681562845"><ele>52.66666666666667</ele><time>2026-04-17T14:08:49.997Z</time></trkpt><trkpt lat="49.19984299472551" lon="2.586267352202373"><ele>52.333333333333336</ele><time>2026-04-17T14:08:51.997Z</time></trkpt><trkpt lat="49.199810079829255" lon="2.5863844132406477"><ele>52.0</ele><time>2026-04-17T14:08:53.997Z</time></trkpt><trkpt lat="49.19976132021049" lon="2.5864895155683536"><ele>51.66666666666667</ele><time>2026-04-17T14:08:55.997Z</time></trkpt><trkpt lat="49.199703180692595" lon="2.58658615430337"><ele>51.333333333333336</ele><time>2026-04-17T14:08:57.997Z</time></trkpt><trkpt lat="49.19965195246585" lon="2.5867029643860353"><ele>51.0</ele><time>2026-04-17T14:08:59.997Z</time></trkpt><trkpt lat="49.199602725210724" lon="2.5868140187290445"><ele>51.599999999999994</ele><time>2026-04-17T14:09:01.997Z</time></trkpt><trkpt lat="49.19954814859555" lon="2.5869280493311293"><ele>52.2</ele><time>2026-04-17T14:09:03.997Z</time></trkpt><trkpt lat="49.1994887661258" lon="2.58701924842229"><ele>52.800000000000004</ele><time>2026-04-17T14:09:05.997Z</time></trkpt><trkpt lat="49.19943156975682" lon="2.5871047360484942"><ele>53.400000000000006</ele><time>2026-04-17T14:09:07.997Z</time></trkpt><trkpt lat="49.19953435831696" lon="2.587316382634479"><ele>54.0</ele><time>2026-04-17T14:09:09.997Z</time></trkpt><trkpt lat="49.19956187171208" lon="2.587467210207628"><ele>54.0</ele><time>2026-04-17T14:09:11.997Z</time></trkpt><trkpt lat="49.199601357266985" lon="2.5876197858789856"><ele>54.00000000000001</ele><time>2026-04-17T14:09:13.996Z</time></trkpt><trkpt lat="49.199628568839884" lon="2.5877734936746197"><ele>54.00000000000001</ele><time>2026-04-17T14:09:15.996Z</time></trkpt><trkpt lat="49.19966263417205" lon="2.587922742201695"><ele>54.0</ele><time>2026-04-17T14:09:17.996Z</time></trkpt><trkpt lat="49.199691832216516" lon="2.5880746148192286"><ele>54.0</ele><time>2026-04-17T14:09:19.996Z</time></trkpt><trkpt lat="49.19972456786659" lon="2.588229621877519"><ele>54.0</ele><time>2026-04-17T14:09:21.996Z</time></trkpt><trkpt lat="49.199748053596274" lon="2.5883785326020643"><ele>54.00000000000001</ele><time>2026-04-17T14:09:23.996Z</time></trkpt><trkpt lat="49.19977343996074" lon="2.588521152887304"><ele>54.00000000000001</ele><time>2026-04-17T14:09:25.996Z</time></trkpt><trkpt lat="49.19979585557811" lon="2.588664291765029"><ele>54.0</ele><time>2026-04-17T14:09:27.999Z</time></trkpt><trkpt lat="49.199821690694506" lon="2.5888022193423392"><ele>54.0</ele><time>2026-04-17T14:09:29.999Z</time></trkpt><trkpt lat="49.19985660662333" lon="2.588932627931749"><ele>53.800000000000004</ele><time>2026-04-17T14:09:31.999Z</time></trkpt><trkpt lat="49.19987853146481" lon="2.5890703944729143"><ele>53.60000000000001</ele><time>2026-04-17T14:09:33.999Z</time></trkpt><trkpt lat="49.19988307481106" lon="2.589212548694064"><ele>53.4</ele><time>2026-04-17T14:09:35.999Z</time></trkpt><trkpt lat="49.19986333315437" lon="2.589355203239958"><ele>53.2</ele><time>2026-04-17T14:09:37.999Z</time></trkpt><trkpt lat="49.19986943896894" lon="2.5895056854865444"><ele>53.0</ele><time>2026-04-17T14:09:39.999Z</time></trkpt><trkpt lat="49.19984963658798" lon="2.589653304529905"><ele>53.0</ele><time>2026-04-17T14:09:41.999Z</time></trkpt><trkpt lat="49.199842555020155" lon="2.5898074332004537"><ele>53.0</ele><time>2026-04-17T14:09:43.999Z</time></trkpt><trkpt lat="49.19983581067953" lon="2.5899565341451756"><ele>53.0</ele><time>2026-04-17T14:09:45.999Z</time></trkpt><trkpt lat="49.19982561551046" lon="2.5901178507036273"><ele>53.0</ele><time>2026-04-17T14:09:47.999Z</time></trkpt><trkpt lat="49.199815768315794" lon="2.5902736611243173"><ele>53.0</ele><time>2026-04-17T14:09:49.999Z</time></trkpt><trkpt lat="49.199805900391056" lon="2.5904297994790686"><ele>53.8</ele><time>2026-04-17T14:09:51.999Z</time></trkpt><trkpt lat="49.19979598195707" lon="2.5905867369584663"><ele>54.599999999999994</ele><time>2026-04-17T14:09:53.999Z</time></trkpt><trkpt lat="49.199787176308185" lon="2.590736533011241"><ele>55.400000000000006</ele><time>2026-04-17T14:09:55.999Z</time></trkpt><trkpt lat="49.19977863984293" lon="2.590883699920554"><ele>56.2</ele><time>2026-04-17T14:09:57.999Z</time></trkpt><trkpt lat="49.199770052960694" lon="2.5910303738863676"><ele>57.0</ele><time>2026-04-17T14:09:59.999Z</time></trkpt><trkpt lat="49.19976220860673" lon="2.591172654955951"><ele>57.2</ele><time>2026-04-17T14:10:01.999Z</time></trkpt><trkpt lat="49.199754141522796" lon="2.591315708915626"><ele>57.400000000000006</ele><time>2026-04-17T14:10:03.999Z</time></trkpt><trkpt lat="49.19974537513278" lon="2.591452688102618"><ele>57.599999999999994</ele><time>2026-04-17T14:10:05.999Z</time></trkpt><trkpt lat="49.19973596416155" lon="2.5915904218715133"><ele>57.8</ele><time>2026-04-17T14:10:07.999Z</time></trkpt><trkpt lat="49.19972683721094" lon="2.5917239988434444"><ele>58.0</ele><time>2026-04-17T14:10:09.998Z</time></trkpt><trkpt lat="49.19971772410507" lon="2.5918573731469627"><ele>58.0</ele><time>2026-04-17T14:10:11.998Z</time></trkpt><trkpt lat="49.19970966494056" lon="2.591986034395508"><ele>58.0</ele><time>2026-04-17T14:10:13.998Z</time></trkpt><trkpt lat="49.19970328272257" lon="2.5921120845588206"><ele>58.0</ele><time>2026-04-17T14:10:15.998Z</time></trkpt><trkpt lat="49.1998270333401" lon="2.5922090825101756"><ele>58.0</ele><time>2026-04-17T14:10:18.998Z</time></trkpt><trkpt lat="49.199914533096184" lon="2.5921449155269336"><ele>58.0</ele><time>2026-04-17T14:10:20.998Z</time></trkpt><trkpt lat="49.20000430498453" lon="2.5921229717126186"><ele>57.2</ele><time>2026-04-17T14:10:22.998Z</time></trkpt><trkpt lat="49.20009051009499" lon="2.5920747402871624"><ele>56.4</ele><time>2026-04-17T14:10:24.998Z</time></trkpt><trkpt lat="49.20018836916764" lon="2.592030563328043"><ele>55.60000000000001</ele><time>2026-04-17T14:10:26.998Z</time></trkpt><trkpt lat="49.20028061895837" lon="2.5919805549273467"><ele>54.800000000000004</ele><time>2026-04-17T14:10:28.998Z</time></trkpt><trkpt lat="49.20037375614096" lon="2.5919237525697754"><ele>54.0</ele><time>2026-04-17T14:10:30.998Z</time></trkpt><trkpt lat="49.20047128684174" lon="2.5918823019350214"><ele>54.0</ele><time>2026-04-17T14:10:32.998Z</time></trkpt><trkpt lat="49.20057150468632" lon="2.591830948862537"><ele>54.00000000000001</ele><time>2026-04-17T14:10:34.998Z</time></trkpt><trkpt lat="49.20066290229877" lon="2.591782934843949"><ele>54.00000000000001</ele><time>2026-04-17T14:10:36.998Z</time></trkpt><trkpt lat="49.20076963474218" lon="2.5917229968580653"><ele>54.0</ele><time>2026-04-17T14:10:38.998Z</time></trkpt><trkpt lat="49.200856169529054" lon="2.59165461325324"><ele>54.0</ele><time>2026-04-17T14:10:40.998Z</time></trkpt><trkpt lat="49.20095838948485" lon="2.5915999440914543"><ele>53.6</ele><time>2026-04-17T14:10:42.997Z</time></trkpt><trkpt lat="49.20104977556296" lon="2.5915594581471346"><ele>53.2</ele><time>2026-04-17T14:10:44.997Z</time></trkpt><trkpt lat="49.20113763997012" lon="2.591477714058257"><ele>52.800000000000004</ele><time>2026-04-17T14:10:46.997Z</time></trkpt><trkpt lat="49.20121680404628" lon="2.591376344455008"><ele>52.400000000000006</ele><time>2026-04-17T14:10:48.997Z</time></trkpt><trkpt lat="49.201326941558676" lon="2.5914276500093028"><ele>52.0</ele><time>2026-04-17T14:10:50.997Z</time></trkpt><trkpt lat="49.2014009128451" lon="2.5915503908125883"><ele>52.0</ele><time>2026-04-17T14:10:52.997Z</time></trkpt><trkpt lat="49.20142816434163" lon="2.591729859930357"><ele>52.0</ele><time>2026-04-17T14:10:54.997Z</time></trkpt><trkpt lat="49.20145335021433" lon="2.5919011062630632"><ele>52.0</ele><time>2026-04-17T14:10:56.997Z</time></trkpt><trkpt lat="49.20151297561747" lon="2.592059595384325"><ele>52.0</ele><time>2026-04-17T14:10:58.997Z</time></trkpt><trkpt lat="49.20161356533971" lon="2.592176259236235"><ele>52.166666666666664</ele><time>2026-04-17T14:11:00.997Z</time></trkpt><trkpt lat="49.201675594974894" lon="2.592208621537198"><ele>52.33333333333333</ele><time>2026-04-17T14:11:01.997Z</time></trkpt><trkpt lat="49.201793351402905" lon="2.5922392574359256"><ele>52.5</ele><time>2026-04-17T14:11:03.998Z</time></trkpt><trkpt lat="49.201860281711014" lon="2.5922474110439064"><ele>52.66666666666667</ele><time>2026-04-17T14:11:04.998Z</time></trkpt><trkpt lat="49.20192522488808" lon="2.592255366502415"><ele>52.833333333333336</ele><time>2026-04-17T14:11:05.998Z</time></trkpt><trkpt lat="49.20199284763534" lon="2.592261226540867"><ele>53.0</ele><time>2026-04-17T14:11:06.998Z</time></trkpt><trkpt lat="49.20210099872631" lon="2.5922704956606104"><ele>53.00000000000001</ele><time>2026-04-17T14:11:08.998Z</time></trkpt><trkpt lat="49.20220178206755" lon="2.5922901527797637"><ele>53.0</ele><time>2026-04-17T14:11:10.998Z</time></trkpt><trkpt lat="49.20226511814131" lon="2.592290887595214"><ele>53.0</ele><time>2026-04-17T14:11:15.997Z</time></trkpt><trkpt lat="49.20233319807126" lon="2.592294673719745"><ele>53.0</ele><time>2026-04-17T14:11:56Z</time></trkpt><trkpt lat="49.20242674387337" lon="2.5922945983468972"><ele>53.00000000000001</ele><time>2026-04-17T14:11:59Z</time></trkpt><trkpt lat="49.20250872329042" lon="2.592289636284973"><ele>53.0</ele><time>2026-04-17T14:12:02Z</time></trkpt><trkpt lat="49.20257208893418" lon="2.592270935923663"><ele>53.66666666666667</ele><time>2026-04-17T14:12:09Z</time></trkpt><trkpt lat="49.202639315510886" lon="2.592275198093162"><ele>54.333333333333336</ele><time>2026-04-17T14:12:12Z</time></trkpt><trkpt lat="49.20270599485044" lon="2.592204747511464"><ele>55.0</ele><time>2026-04-17T14:12:14.999Z</time></trkpt><trkpt lat="49.202768894550246" lon="2.592127260945178"><ele>55.66666666666667</ele><time>2026-04-17T14:12:17.999Z</time></trkpt><trkpt lat="49.202845020710924" lon="2.592070092283196"><ele>56.333333333333336</ele><time>2026-04-17T14:12:20.999Z</time></trkpt><trkpt lat="49.2029128017817" lon="2.592033885934343"><ele>57.0</ele><time>2026-04-17T14:12:22.999Z</time></trkpt><trkpt lat="49.202987243714695" lon="2.591945044333756"><ele>57.166666666666664</ele><time>2026-04-17T14:12:25.999Z</time></trkpt><trkpt lat="49.20308658727156" lon="2.591891963274126"><ele>57.33333333333333</ele><time>2026-04-17T14:12:28.999Z</time></trkpt><trkpt lat="49.203152105272686" lon="2.5918480916662467"><ele>57.5</ele><time>2026-04-17T14:12:30.999Z</time></trkpt><trkpt lat="49.20322218961852" lon="2.5918038991232"><ele>57.666666666666664</ele><time>2026-04-17T14:12:32.999Z</time></trkpt><trkpt lat="49.20328330010848" lon="2.591767222809756"><ele>57.83333333333333</ele><time>2026-04-17T14:12:34.999Z</time></trkpt><trkpt lat="49.20335515763323" lon="2.5917269411145787"><ele>58.0</ele><time>2026-04-17T14:12:36.999Z</time></trkpt><trkpt lat="49.20341732526565" lon="2.591694847218988"><ele>58.166666666666664</ele><time>2026-04-17T14:12:38.999Z</time></trkpt><trkpt lat="49.20351482512559" lon="2.5916487060770317"><ele>58.33333333333333</ele><time>2026-04-17T14:12:41.999Z</time></trkpt><trkpt lat="49.203589821849796" lon="2.591617391393161"><ele>58.5</ele><time>2026-04-17T14:12:43.999Z</time></trkpt><trkpt lat="49.20365489895518" lon="2.5915937136414677"><ele>58.66666666666667</ele><time>2026-04-17T14:12:45.999Z</time></trkpt><trkpt lat="49.20371757565834" lon="2.5915739109561216"><ele>58.833333333333336</ele><time>2026-04-17T14:12:47.998Z</time></trkpt><trkpt lat="49.20380996463196" lon="2.591544704555755"><ele>59.0</ele><time>2026-04-17T14:12:50.998Z</time></trkpt><trkpt lat="49.20387898105093" lon="2.59152288680329"><ele>59.00000000000001</ele><time>2026-04-17T14:12:52.998Z</time></trkpt><trkpt lat="49.20394681959177" lon="2.591501441058986"><ele>59.0</ele><time>2026-04-17T14:12:54.998Z</time></trkpt><trkpt lat="49.20401249693109" lon="2.5915005491206955"><ele>59.0</ele><time>2026-04-17T14:12:56.998Z</time></trkpt><trkpt lat="49.20408004854091" lon="2.5914824616872587"><ele>59.0</ele><time>2026-04-17T14:12:58.998Z</time></trkpt><trkpt lat="49.20415108239539" lon="2.591494113885238"><ele>59.00000000000001</ele><time>2026-04-17T14:13:00.998Z</time></trkpt><trkpt lat="49.204244868338115" lon="2.5915028488101344"><ele>59.0</ele><time>2026-04-17T14:13:03.998Z</time></trkpt><trkpt lat="49.204336652363594" lon="2.5915067637028093"><ele>59.50000000000001</ele><time>2026-04-17T14:13:06.998Z</time></trkpt><trkpt lat="49.20439887819758" lon="2.5915234691818725"><ele>60.0</ele><time>2026-04-17T14:13:08.998Z</time></trkpt><trkpt lat="49.20449950951063" lon="2.5915036621151057"><ele>60.5</ele><time>2026-04-17T14:13:11.998Z</time></trkpt><trkpt lat="49.20456723908681" lon="2.5915093295971516"><ele>61.0</ele><time>2026-04-17T14:13:13.998Z</time></trkpt><trkpt lat="49.204638168272204" lon="2.5915082605375996"><ele>61.50000000000001</ele><time>2026-04-17T14:13:15.998Z</time></trkpt><trkpt lat="49.20470214957182" lon="2.591513460785636"><ele>62.0</ele><time>2026-04-17T14:13:17.998Z</time></trkpt><trkpt lat="49.204794631707436" lon="2.591529820820306"><ele>63.2</ele><time>2026-04-17T14:13:20.997Z</time></trkpt><trkpt lat="49.20488918455346" lon="2.5915403086843183"><ele>64.4</ele><time>2026-04-17T14:13:22.997Z</time></trkpt><trkpt lat="49.20493954139586" lon="2.5914655089387835"><ele>65.6</ele><time>2026-04-17T14:13:24.997Z</time></trkpt><trkpt lat="49.204989920025476" lon="2.591390676314505"><ele>66.8</ele><time>2026-04-17T14:13:27.997Z</time></trkpt><trkpt lat="49.20492267628568" lon="2.5912313170314842"><ele>68.0</ele><time>2026-04-17T14:13:29.997Z</time></trkpt><trkpt lat="49.20504121687932" lon="2.59133941082267"><ele>68.0</ele><time>2026-04-17T14:13:33.997Z</time></trkpt><trkpt lat="49.2051068477003" lon="2.5912586986826915"><ele>68.0</ele><time>2026-04-17T14:13:38Z</time></trkpt><trkpt lat="49.20517787530839" lon="2.5911713495637843"><ele>68.0</ele><time>2026-04-17T14:13:42Z</time></trkpt><trkpt lat="49.205239220253794" lon="2.5910959081731413"><ele>68.0</ele><time>2026-04-17T14:13:45Z</time></trkpt><trkpt lat="49.20529778747657" lon="2.591031702739821"><ele>68.0</ele><time>2026-04-17T14:13:49Z</time></trkpt><trkpt lat="49.20538810605809" lon="2.5909783981554657"><ele>68.0</ele><time>2026-04-17T14:13:52Z</time></trkpt><trkpt lat="49.20543448545042" lon="2.5909131001075876"><ele>68.14285714285714</ele><time>2026-04-17T14:13:54Z</time></trkpt><trkpt lat="49.20550184396282" lon="2.59083911771481"><ele>68.28571428571428</ele><time>2026-04-17T14:13:57Z</time></trkpt><trkpt lat="49.20556169750623" lon="2.5907868512970946"><ele>68.42857142857143</ele><time>2026-04-17T14:13:59Z</time></trkpt><trkpt lat="49.20561891515077" lon="2.5907272367092484"><ele>68.57142857142857</ele><time>2026-04-17T14:14:01Z</time></trkpt><trkpt lat="49.20567149357101" lon="2.590653855653726"><ele>68.71428571428572</ele><time>2026-04-17T14:14:03Z</time></trkpt><trkpt lat="49.205718794450846" lon="2.5905872802422967"><ele>68.85714285714286</ele><time>2026-04-17T14:14:05Z</time></trkpt><trkpt lat="49.20576911038589" lon="2.590524479955203"><ele>69.0</ele><time>2026-04-17T14:14:07Z</time></trkpt><trkpt lat="49.20584376745842" lon="2.5904498059264593"><ele>69.16666666666667</ele><time>2026-04-17T14:14:10Z</time></trkpt><trkpt lat="49.20589566754389" lon="2.5903836114317507"><ele>69.33333333333333</ele><time>2026-04-17T14:14:12Z</time></trkpt><trkpt lat="49.20594793322075" lon="2.5903071172890244"><ele>69.5</ele><time>2026-04-17T14:14:14Z</time></trkpt><trkpt lat="49.20601112925282" lon="2.5902621212602135"><ele>69.66666666666666</ele><time>2026-04-17T14:14:16Z</time></trkpt><trkpt lat="49.20607635388489" lon="2.59016851416664"><ele>69.83333333333333</ele><time>2026-04-17T14:14:20Z</time></trkpt><trkpt lat="49.20615575163319" lon="2.5900679931027097"><ele>70.0</ele><time>2026-04-17T14:14:23Z</time></trkpt><trkpt lat="49.20620843142836" lon="2.589997898256286"><ele>70.0</ele><time>2026-04-17T14:14:24.999Z</time></trkpt><trkpt lat="49.20626247767596" lon="2.589943266202127"><ele>70.0</ele><time>2026-04-17T14:14:26.999Z</time></trkpt><trkpt lat="49.20630006932401" lon="2.5898483840845214"><ele>70.0</ele><time>2026-04-17T14:14:28.999Z</time></trkpt><trkpt lat="49.2063620246009" lon="2.5897833023494536"><ele>70.0</ele><time>2026-04-17T14:14:30.999Z</time></trkpt><trkpt lat="49.20642330114011" lon="2.589732012127437"><ele>70.0</ele><time>2026-04-17T14:14:32.999Z</time></trkpt><trkpt lat="49.20647839274009" lon="2.589672515582667"><ele>70.0</ele><time>2026-04-17T14:14:34.999Z</time></trkpt><trkpt lat="49.20657998723963" lon="2.589731477821203"><ele>70.42857142857143</ele><time>2026-04-17T14:14:37.999Z</time></trkpt><trkpt lat="49.206638822849634" lon="2.5897740566509055"><ele>70.85714285714286</ele><time>2026-04-17T14:14:39.999Z</time></trkpt><trkpt lat="49.2067007779491" lon="2.589827311907317"><ele>71.28571428571428</ele><time>2026-04-17T14:14:41.999Z</time></trkpt><trkpt lat="49.20676146170979" lon="2.5898675245783456"><ele>71.71428571428572</ele><time>2026-04-17T14:14:43.999Z</time></trkpt><trkpt lat="49.206843146978585" lon="2.589920808893977"><ele>72.14285714285714</ele><time>2026-04-17T14:14:46.999Z</time></trkpt><trkpt lat="49.2069140930129" lon="2.5899130548606397"><ele>72.57142857142857</ele><time>2026-04-17T14:14:48.999Z</time></trkpt><trkpt lat="49.20698943080457" lon="2.589940037285158"><ele>73.0</ele><time>2026-04-17T14:14:50.999Z</time></trkpt><trkpt lat="49.207055487909464" lon="2.589950793790508"><ele>73.0</ele><time>2026-04-17T14:14:52.999Z</time></trkpt><trkpt lat="49.20712616153495" lon="2.5900095482714804"><ele>73.0</ele><time>2026-04-17T14:14:55.999Z</time></trkpt><trkpt lat="49.20718533548021" lon="2.5900604289766513"><ele>73.0</ele><time>2026-04-17T14:15:02.998Z</time></trkpt><trkpt lat="49.20713197924208" lon="2.5901231495087687"><ele>73.0</ele><time>2026-04-17T14:15:29.998Z</time></trkpt><trkpt lat="49.20718975873116" lon="2.59003735372473"><ele>73.0</ele><time>2026-04-17T14:16:01Z</time></trkpt><trkpt lat="49.207108762688186" lon="2.589942548488103"><ele>73.0</ele><time>2026-04-17T14:16:06Z</time></trkpt><trkpt lat="49.20704424918883" lon="2.589815793301885"><ele>73.0</ele><time>2026-04-17T14:16:08Z</time></trkpt><trkpt lat="49.20693256614227" lon="2.589771637945639"><ele>73.0</ele><time>2026-04-17T14:16:10Z</time></trkpt><trkpt lat="49.20685341981797" lon="2.5896933067353722"><ele>73.0</ele><time>2026-04-17T14:16:12Z</time></trkpt><trkpt lat="49.206770454766506" lon="2.5896365067740668"><ele>73.0</ele><time>2026-04-17T14:16:14Z</time></trkpt><trkpt lat="49.20670175582712" lon="2.58958051414557"><ele>73.0</ele><time>2026-04-17T14:16:16.038Z</time></trkpt><trkpt lat="49.20724502891577" lon="2.590036934675901"><ele>73.0</ele><time>2026-04-17T14:16:30.871Z</time></trkpt><trkpt lat="49.206939630153514" lon="2.5898633216114213"><ele>73.0</ele><time>2026-04-17T14:16:34.047Z</time></trkpt><trkpt lat="49.20709920810837" lon="2.589956812170067"><ele>73.0</ele><time>2026-04-17T14:16:35.047Z</time></trkpt><trkpt lat="49.207132294564744" lon="2.5900582068665496"><ele>73.0</ele><time>2026-04-17T14:16:37.047Z</time></trkpt><trkpt lat="49.20719735662981" lon="2.5899222784476272"><ele>73.0</ele><time>2026-04-17T14:16:44.999Z</time></trkpt><trkpt lat="49.207106341612075" lon="2.589895729800502"><ele>73.0</ele><time>2026-04-17T14:18:52.999Z</time></trkpt><trkpt lat="49.20706109352232" lon="2.5898067613163276"><ele>73.0</ele><time>2026-04-17T14:18:55.999Z</time></trkpt><trkpt lat="49.20700117987146" lon="2.5897313381406817"><ele>73.0</ele><time>2026-04-17T14:18:58.999Z</time></trkpt><trkpt lat="49.20693572748586" lon="2.5896858535361034"><ele>73.0</ele><time>2026-04-17T14:19:01.999Z</time></trkpt><trkpt lat="49.206880839946386" lon="2.5896310763250674"><ele>73.0</ele><time>2026-04-17T14:19:04.999Z</time></trkpt><trkpt lat="49.20682973084795" lon="2.58955539650605"><ele>73.0</ele><time>2026-04-17T14:19:06.999Z</time></trkpt><trkpt lat="49.20673469153652" lon="2.589501628969458"><ele>73.0</ele><time>2026-04-17T14:19:09.999Z</time></trkpt><trkpt lat="49.206664363012216" lon="2.589447670601376"><ele>73.0</ele><time>2026-04-17T14:19:11.998Z</time></trkpt><trkpt lat="49.20659218893565" lon="2.589434158791146"><ele>73.0</ele><time>2026-04-17T14:19:13.998Z</time></trkpt><trkpt lat="49.206529583645306" lon="2.5893270315704626"><ele>72.66666666666666</ele><time>2026-04-17T14:19:16.998Z</time></trkpt><trkpt lat="49.20645847201735" lon="2.5892563664597477"><ele>72.33333333333333</ele><time>2026-04-17T14:19:18.998Z</time></trkpt><trkpt lat="49.20640029024139" lon="2.589140265953449"><ele>72.0</ele><time>2026-04-17T14:19:20.998Z</time></trkpt><trkpt lat="49.20637995934199" lon="2.5889933604315982"><ele>71.66666666666667</ele><time>2026-04-17T14:19:22.998Z</time></trkpt><trkpt lat="49.20633488133402" lon="2.5888773289792066"><ele>71.33333333333334</ele><time>2026-04-17T14:19:24.998Z</time></trkpt><trkpt lat="49.20629298536038" lon="2.588769487759052"><ele>71.0</ele><time>2026-04-17T14:19:26.998Z</time></trkpt><trkpt lat="49.20624961414625" lon="2.5886578513425724"><ele>71.0</ele><time>2026-04-17T14:19:28.998Z</time></trkpt><trkpt lat="49.20620895114478" lon="2.5885511425469776"><ele>71.0</ele><time>2026-04-17T14:19:30.998Z</time></trkpt><trkpt lat="49.20618199019127" lon="2.5884378642163726"><ele>71.0</ele><time>2026-04-17T14:19:32.998Z</time></trkpt><trkpt lat="49.206179334449814" lon="2.5883089041058893"><ele>71.0</ele><time>2026-04-17T14:19:34.998Z</time></trkpt><trkpt lat="49.2061855498832" lon="2.5881812545967593"><ele>71.0</ele><time>2026-04-17T14:19:36.998Z</time></trkpt><trkpt lat="49.20619300460522" lon="2.588045244003215"><ele>71.0</ele><time>2026-04-17T14:19:38.998Z</time></trkpt><trkpt lat="49.20617785721769" lon="2.587913163094818"><ele>71.2</ele><time>2026-04-17T14:19:40.998Z</time></trkpt><trkpt lat="49.20620668462989" lon="2.5877996590813535"><ele>71.39999999999999</ele><time>2026-04-17T14:19:42.998Z</time></trkpt><trkpt lat="49.20622622225418" lon="2.5876826605453878"><ele>71.6</ele><time>2026-04-17T14:19:44.997Z</time></trkpt><trkpt lat="49.20616221122387" lon="2.587513978455986"><ele>71.8</ele><time>2026-04-17T14:19:46.997Z</time></trkpt><trkpt lat="49.206100494735374" lon="2.587419393992582"><ele>72.0</ele><time>2026-04-17T14:19:48.997Z</time></trkpt><trkpt lat="49.20604291705354" lon="2.5873184390397768"><ele>72.0</ele><time>2026-04-17T14:19:50.997Z</time></trkpt><trkpt lat="49.2059883093602" lon="2.5872189299030777"><ele>72.0</ele><time>2026-04-17T14:19:52.997Z</time></trkpt><trkpt lat="49.20601528727161" lon="2.587120416406804"><ele>72.0</ele><time>2026-04-17T14:19:55.001Z</time></trkpt><trkpt lat="49.20605643073182" lon="2.5870061456819027"><ele>72.0</ele><time>2026-04-17T14:19:58.001Z</time></trkpt><trkpt lat="49.20605132774137" lon="2.5868912068736765"><ele>72.0</ele><time>2026-04-17T14:20:01.001Z</time></trkpt><trkpt lat="49.20595897916799" lon="2.5868309127500675"><ele>72.0</ele><time>2026-04-17T14:20:04.001Z</time></trkpt><trkpt lat="49.20590114733143" lon="2.586770497039522"><ele>72.5</ele><time>2026-04-17T14:20:06.001Z</time></trkpt><trkpt lat="49.2058362787494" lon="2.5867212076579373"><ele>73.0</ele><time>2026-04-17T14:20:08.001Z</time></trkpt><trkpt lat="49.20575743187355" lon="2.5866527753305384"><ele>73.5</ele><time>2026-04-17T14:20:10Z</time></trkpt><trkpt lat="49.20568407393019" lon="2.586595276159119"><ele>74.0</ele><time>2026-04-17T14:20:12Z</time></trkpt><trkpt lat="49.20562470182076" lon="2.5865410079737834"><ele>74.5</ele><time>2026-04-17T14:20:14Z</time></trkpt><trkpt lat="49.20555641904935" lon="2.5865049554064847"><ele>75.0</ele><time>2026-04-17T14:20:16Z</time></trkpt><trkpt lat="49.205488308136104" lon="2.5864361433270306"><ele>74.16666666666667</ele><time>2026-04-17T14:20:18Z</time></trkpt><trkpt lat="49.20541693744603" lon="2.5863719520892525"><ele>73.33333333333333</ele><time>2026-04-17T14:20:20Z</time></trkpt><trkpt lat="49.20533445349821" lon="2.5862946877817685"><ele>72.5</ele><time>2026-04-17T14:20:23Z</time></trkpt><trkpt lat="49.20523494306839" lon="2.5862477676382016"><ele>71.66666666666666</ele><time>2026-04-17T14:20:26Z</time></trkpt><trkpt lat="49.20519831625795" lon="2.586108945901568"><ele>70.83333333333333</ele><time>2026-04-17T14:20:29Z</time></trkpt><trkpt lat="49.20515084105746" lon="2.5860384850774345"><ele>70.0</ele><time>2026-04-17T14:20:31Z</time></trkpt><trkpt lat="49.205126879299165" lon="2.5859406917308148"><ele>70.0</ele><time>2026-04-17T14:20:49.999Z</time></trkpt><trkpt lat="49.20509083948838" lon="2.5858169517690883"><ele>70.0</ele><time>2026-04-17T14:20:52.999Z</time></trkpt><trkpt lat="49.20506185048157" lon="2.585674674480275"><ele>70.0</ele><time>2026-04-17T14:20:55.999Z</time></trkpt><trkpt lat="49.2050591441831" lon="2.5855707371544323"><ele>70.0</ele><time>2026-04-17T14:20:57.999Z</time></trkpt><trkpt lat="49.20505759387633" lon="2.5854363772097777"><ele>70.0</ele><time>2026-04-17T14:20:59.999Z</time></trkpt><trkpt lat="49.205048120441845" lon="2.58533184953681"><ele>70.0</ele><time>2026-04-17T14:21:01.999Z</time></trkpt><trkpt lat="49.20503609587894" lon="2.585226675037739"><ele>70.33333333333333</ele><time>2026-04-17T14:21:03.999Z</time></trkpt><trkpt lat="49.20503989360766" lon="2.585099051752534"><ele>70.66666666666666</ele><time>2026-04-17T14:21:06.999Z</time></trkpt><trkpt lat="49.20504681252046" lon="2.584997425198881"><ele>71.0</ele><time>2026-04-17T14:21:09.999Z</time></trkpt><trkpt lat="49.205043445821346" lon="2.5848726872426178"><ele>71.33333333333333</ele><time>2026-04-17T14:21:13.998Z</time></trkpt><trkpt lat="49.20504613583313" lon="2.584771531093979"><ele>71.66666666666667</ele><time>2026-04-17T14:21:16.998Z</time></trkpt><trkpt lat="49.20505851498949" lon="2.5846319056828033"><ele>72.0</ele><time>2026-04-17T14:21:19.998Z</time></trkpt><trkpt lat="49.20505335444836" lon="2.584484534752246"><ele>72.14285714285715</ele><time>2026-04-17T14:21:22.998Z</time></trkpt><trkpt lat="49.20506902961699" lon="2.5843892861649373"><ele>72.28571428571429</ele><time>2026-04-17T14:21:24.998Z</time></trkpt><trkpt lat="49.205093326231044" lon="2.584294598595306"><ele>72.42857142857143</ele><time>2026-04-17T14:21:26.998Z</time></trkpt><trkpt lat="49.20512094226148" lon="2.584200998801667"><ele>72.57142857142858</ele><time>2026-04-17T14:21:28.998Z</time></trkpt><trkpt lat="49.20514082212532" lon="2.5840973628214132"><ele>72.71428571428572</ele><time>2026-04-17T14:21:30.998Z</time></trkpt><trkpt lat="49.20516178333231" lon="2.584001243681827"><ele>72.85714285714286</ele><time>2026-04-17T14:21:32.998Z</time></trkpt><trkpt lat="49.20518725951934" lon="2.5839027673342945"><ele>73.0</ele><time>2026-04-17T14:21:34.998Z</time></trkpt><trkpt lat="49.20522198800382" lon="2.5838105490505736"><ele>73.0</ele><time>2026-04-17T14:21:36.998Z</time></trkpt><trkpt lat="49.20521636509775" lon="2.583704451637293"><ele>73.0</ele><time>2026-04-17T14:21:39.998Z</time></trkpt><trkpt lat="49.20514016629529" lon="2.5836946259545153"><ele>73.0</ele><time>2026-04-17T14:21:41.998Z</time></trkpt><trkpt lat="49.20504298888021" lon="2.5836486063766033"><ele>73.0</ele><time>2026-04-17T14:21:43.998Z</time></trkpt><trkpt lat="49.20494196821817" lon="2.583598989173705"><ele>73.0</ele><time>2026-04-17T14:21:45.997Z</time></trkpt><trkpt lat="49.20482754680471" lon="2.583522704881844"><ele>71.42857142857143</ele><time>2026-04-17T14:21:47.997Z</time></trkpt><trkpt lat="49.20476582542842" lon="2.5834759161240446"><ele>69.85714285714286</ele><time>2026-04-17T14:21:48.997Z</time></trkpt><trkpt lat="49.20469507695403" lon="2.5834338924516107"><ele>68.28571428571429</ele><time>2026-04-17T14:21:49.997Z</time></trkpt><trkpt lat="49.20461992388974" lon="2.58337246768884"><ele>66.71428571428572</ele><time>2026-04-17T14:21:50.997Z</time></trkpt><trkpt lat="49.20456288846065" lon="2.5833244161967777"><ele>65.14285714285715</ele><time>2026-04-17T14:21:51.997Z</time></trkpt><trkpt lat="49.20450282361508" lon="2.5832865578567583"><ele>63.57142857142858</ele><time>2026-04-17T14:21:52.997Z</time></trkpt><trkpt lat="49.204438749686105" lon="2.583255789677502"><ele>62.0</ele><time>2026-04-17T14:21:53.997Z</time></trkpt><trkpt lat="49.20434577628797" lon="2.5832141319758004"><ele>62.0</ele><time>2026-04-17T14:21:55.997Z</time></trkpt><trkpt lat="49.204301378078796" lon="2.5830758141631547"><ele>62.0</ele><time>2026-04-17T14:21:57.997Z</time></trkpt><trkpt lat="49.20415629321254" lon="2.5829988223615916"><ele>62.0</ele><time>2026-04-17T14:21:59.997Z</time></trkpt><trkpt lat="49.20406296707315" lon="2.582941752071223"><ele>62.0</ele><time>2026-04-17T14:22:02Z</time></trkpt><trkpt lat="49.20397951279062" lon="2.5828846070114078"><ele>62.0</ele><time>2026-04-17T14:22:05Z</time></trkpt><trkpt lat="49.203904077310824" lon="2.582817682265052"><ele>60.8</ele><time>2026-04-17T14:22:08Z</time></trkpt><trkpt lat="49.203820844712716" lon="2.58273606544309"><ele>59.6</ele><time>2026-04-17T14:22:11Z</time></trkpt><trkpt lat="49.203729655693756" lon="2.5826653343857675"><ele>58.39999999999999</ele><time>2026-04-17T14:22:13Z</time></trkpt><trkpt lat="49.203631415959585" lon="2.582583182843411"><ele>57.199999999999996</ele><time>2026-04-17T14:22:15Z</time></trkpt><trkpt lat="49.203535523552944" lon="2.58250417582019"><ele>56.0</ele><time>2026-04-17T14:22:17Z</time></trkpt><trkpt lat="49.20342740467079" lon="2.582443971659913"><ele>56.0</ele><time>2026-04-17T14:22:19Z</time></trkpt><trkpt lat="49.203326841810394" lon="2.582379541217008"><ele>55.99999999999999</ele><time>2026-04-17T14:22:21Z</time></trkpt><trkpt lat="49.20325536970353" lon="2.582336366152484"><ele>55.99999999999999</ele><time>2026-04-17T14:22:23Z</time></trkpt><trkpt lat="49.20316230228435" lon="2.582265508887024"><ele>56.0</ele><time>2026-04-17T14:22:24.999Z</time></trkpt><trkpt lat="49.203070530294866" lon="2.5821882034676644"><ele>56.0</ele><time>2026-04-17T14:22:26.999Z</time></trkpt><trkpt lat="49.20296977563612" lon="2.5821195230645744"><ele>55.4</ele><time>2026-04-17T14:22:28.999Z</time></trkpt><trkpt lat="49.20287644406218" lon="2.5820508505547513"><ele>54.8</ele><time>2026-04-17T14:22:30.999Z</time></trkpt><trkpt lat="49.2027814891938" lon="2.581997429704974"><ele>54.199999999999996</ele><time>2026-04-17T14:22:32.999Z</time></trkpt><trkpt lat="49.20271428770575" lon="2.581957308540948"><ele>53.599999999999994</ele><time>2026-04-17T14:22:33.999Z</time></trkpt><trkpt lat="49.20261304025119" lon="2.581853971856907"><ele>53.0</ele><time>2026-04-17T14:22:35.999Z</time></trkpt><trkpt lat="49.20250342414675" lon="2.5817682581922936"><ele>53.0</ele><time>2026-04-17T14:22:37.999Z</time></trkpt><trkpt lat="49.20239841641977" lon="2.5816902882292436"><ele>53.0</ele><time>2026-04-17T14:22:39.999Z</time></trkpt><trkpt lat="49.20229615700052" lon="2.58160982648991"><ele>53.0</ele><time>2026-04-17T14:22:41.999Z</time></trkpt><trkpt lat="49.20218751219604" lon="2.5815297953077008"><ele>53.0</ele><time>2026-04-17T14:22:43.999Z</time></trkpt><trkpt lat="49.202081079419244" lon="2.5814551207927723"><ele>53.4</ele><time>2026-04-17T14:22:45.999Z</time></trkpt><trkpt lat="49.20196957369525" lon="2.581393969328065"><ele>53.8</ele><time>2026-04-17T14:22:47.999Z</time></trkpt><trkpt lat="49.20186425875397" lon="2.5813388389891814"><ele>54.2</ele><time>2026-04-17T14:22:49.999Z</time></trkpt><trkpt lat="49.20176735039242" lon="2.581273122924584"><ele>54.6</ele><time>2026-04-17T14:22:51.999Z</time></trkpt><trkpt lat="49.201669866370544" lon="2.581216669329392"><ele>55.0</ele><time>2026-04-17T14:22:53.999Z</time></trkpt><trkpt lat="49.201574776044005" lon="2.581167211575229"><ele>56.0</ele><time>2026-04-17T14:22:55.999Z</time></trkpt><trkpt lat="49.20148214442297" lon="2.5811064205762864"><ele>57.0</ele><time>2026-04-17T14:22:57.999Z</time></trkpt><trkpt lat="49.20139303069082" lon="2.581056834508356"><ele>58.0</ele><time>2026-04-17T14:22:59.999Z</time></trkpt><trkpt lat="49.201307693447156" lon="2.581005274559956"><ele>59.0</ele><time>2026-04-17T14:23:01.999Z</time></trkpt><trkpt lat="49.20122378863931" lon="2.580952753367609"><ele>60.0</ele><time>2026-04-17T14:23:03.998Z</time></trkpt><trkpt lat="49.20113794253507" lon="2.5808952450554385"><ele>60.0</ele><time>2026-04-17T14:23:05.998Z</time></trkpt><trkpt lat="49.201056573105" lon="2.5808403422167068"><ele>60.0</ele><time>2026-04-17T14:23:07.998Z</time></trkpt><trkpt lat="49.200970606695186" lon="2.5807894887273575"><ele>60.0</ele><time>2026-04-17T14:23:09.998Z</time></trkpt><trkpt lat="49.20088591299807" lon="2.5807367676095447"><ele>60.0</ele><time>2026-04-17T14:23:11.998Z</time></trkpt><trkpt lat="49.2008003550923" lon="2.580675375527947"><ele>60.0</ele><time>2026-04-17T14:23:13.998Z</time></trkpt><trkpt lat="49.20071995573775" lon="2.5806148971528806"><ele>60.0</ele><time>2026-04-17T14:23:15.998Z</time></trkpt><trkpt lat="49.20063357493816" lon="2.580546934026237"><ele>60.0</ele><time>2026-04-17T14:23:17.998Z</time></trkpt><trkpt lat="49.20055926529409" lon="2.5804778277529272"><ele>60.0</ele><time>2026-04-17T14:23:19.998Z</time></trkpt><trkpt lat="49.20047730573173" lon="2.5804060002184652"><ele>60.0</ele><time>2026-04-17T14:23:21.998Z</time></trkpt><trkpt lat="49.20038423647884" lon="2.5803747017240095"><ele>60.0</ele><time>2026-04-17T14:23:23.998Z</time></trkpt><trkpt lat="49.20030035463799" lon="2.580307595856061"><ele>60.0</ele><time>2026-04-17T14:23:25.998Z</time></trkpt><trkpt lat="49.20021578336499" lon="2.580240784825732"><ele>60.0</ele><time>2026-04-17T14:23:27.998Z</time></trkpt><trkpt lat="49.20012955632682" lon="2.5801770102892227"><ele>60.0</ele><time>2026-04-17T14:23:29.998Z</time></trkpt><trkpt lat="49.2000396978747" lon="2.580112463084473"><ele>60.0</ele><time>2026-04-17T14:23:31.998Z</time></trkpt><trkpt lat="49.19994818120497" lon="2.58004568575942"><ele>60.0</ele><time>2026-04-17T14:23:33.998Z</time></trkpt><trkpt lat="49.19985769984617" lon="2.5799795380138844"><ele>60.2</ele><time>2026-04-17T14:23:35.998Z</time></trkpt><trkpt lat="49.19976550176164" lon="2.57991138810164"><ele>60.4</ele><time>2026-04-17T14:23:37.998Z</time></trkpt><trkpt lat="49.19967549862708" lon="2.5798434878735055"><ele>60.599999999999994</ele><time>2026-04-17T14:23:39.997Z</time></trkpt><trkpt lat="49.1995822890846" lon="2.5797783689415965"><ele>60.8</ele><time>2026-04-17T14:23:41.997Z</time></trkpt><trkpt lat="49.199495577294456" lon="2.579713215709651"><ele>61.0</ele><time>2026-04-17T14:23:43.997Z</time></trkpt><trkpt lat="49.19940300830471" lon="2.5796503815233978"><ele>61.0</ele><time>2026-04-17T14:23:45.997Z</time></trkpt><trkpt lat="49.19931441249951" lon="2.579580552873392"><ele>60.99999999999999</ele><time>2026-04-17T14:23:47.997Z</time></trkpt><trkpt lat="49.19922434510288" lon="2.579513220666255"><ele>60.99999999999999</ele><time>2026-04-17T14:23:49.997Z</time></trkpt><trkpt lat="49.19913277101536" lon="2.579452975399361"><ele>61.0</ele><time>2026-04-17T14:23:51.997Z</time></trkpt><trkpt lat="49.199040868373714" lon="2.5793852694264805"><ele>61.0</ele><time>2026-04-17T14:23:53.997Z</time></trkpt><trkpt lat="49.19894747470854" lon="2.5793133256587666"><ele>60.4</ele><time>2026-04-17T14:23:55.997Z</time></trkpt><trkpt lat="49.19885254204856" lon="2.579249747315112"><ele>59.8</ele><time>2026-04-17T14:23:57.997Z</time></trkpt><trkpt lat="49.19875021590116" lon="2.5791859562509534"><ele>59.199999999999996</ele><time>2026-04-17T14:23:59.997Z</time></trkpt><trkpt lat="49.19865151310829" lon="2.579115872670726"><ele>58.599999999999994</ele><time>2026-04-17T14:24:01.997Z</time></trkpt><trkpt lat="49.19855206342904" lon="2.5790440416326588"><ele>58.0</ele><time>2026-04-17T14:24:03.997Z</time></trkpt><trkpt lat="49.19845030272522" lon="2.5789766759186548"><ele>58.0</ele><time>2026-04-17T14:24:05.997Z</time></trkpt><trkpt lat="49.198347482006916" lon="2.5789131240871366"><ele>58.0</ele><time>2026-04-17T14:24:08Z</time></trkpt><trkpt lat="49.19824426411608" lon="2.5788486235900283"><ele>58.0</ele><time>2026-04-17T14:24:10Z</time></trkpt><trkpt lat="49.198139825719814" lon="2.5787820099226813"><ele>58.0</ele><time>2026-04-17T14:24:12Z</time></trkpt><trkpt lat="49.198034834269215" lon="2.57871699736405"><ele>58.0</ele><time>2026-04-17T14:24:14Z</time></trkpt><trkpt lat="49.197928316630154" lon="2.57864177192671"><ele>57.599999999999994</ele><time>2026-04-17T14:24:16Z</time></trkpt><trkpt lat="49.19788056206442" lon="2.5785761961812255"><ele>57.199999999999996</ele><time>2026-04-17T14:24:17Z</time></trkpt><trkpt lat="49.19776772056505" lon="2.578500992062472"><ele>56.8</ele><time>2026-04-17T14:24:19Z</time></trkpt><trkpt lat="49.19765572957469" lon="2.5784267651124546"><ele>56.4</ele><time>2026-04-17T14:24:21Z</time></trkpt><trkpt lat="49.19753321365084" lon="2.57837201588932"><ele>56.0</ele><time>2026-04-17T14:24:23Z</time></trkpt><trkpt lat="49.1974283666421" lon="2.5782771181180126"><ele>55.8</ele><time>2026-04-17T14:24:25Z</time></trkpt><trkpt lat="49.19731507603255" lon="2.578202386922415"><ele>55.599999999999994</ele><time>2026-04-17T14:24:27Z</time></trkpt><trkpt lat="49.1972564804315" lon="2.5781637348525934"><ele>55.4</ele><time>2026-04-17T14:24:28Z</time></trkpt><trkpt lat="49.1971489558645" lon="2.5780926700292763"><ele>55.2</ele><time>2026-04-17T14:24:30Z</time></trkpt><trkpt lat="49.19703966991928" lon="2.5780203962118726"><ele>55.0</ele><time>2026-04-17T14:24:32Z</time></trkpt><trkpt lat="49.19692830349615" lon="2.5779467464844683"><ele>55.0</ele><time>2026-04-17T14:24:34Z</time></trkpt><trkpt lat="49.19681500165407" lon="2.5778718167594494"><ele>55.0</ele><time>2026-04-17T14:24:36Z</time></trkpt><trkpt lat="49.19669817512675" lon="2.577794556179492"><ele>55.0</ele><time>2026-04-17T14:24:38Z</time></trkpt><trkpt lat="49.19663705403439" lon="2.5777549558917947"><ele>55.0</ele><time>2026-04-17T14:24:39Z</time></trkpt><trkpt lat="49.196575320171725" lon="2.577715485304674"><ele>55.0</ele><time>2026-04-17T14:24:40Z</time></trkpt><trkpt lat="49.196511226173854" lon="2.5776745059478845"><ele>54.99999999999999</ele><time>2026-04-17T14:24:41Z</time></trkpt><trkpt lat="49.196449643937875" lon="2.577635132453359"><ele>55.0</ele><time>2026-04-17T14:24:42Z</time></trkpt><trkpt lat="49.19638300499813" lon="2.577593371281664"><ele>55.0</ele><time>2026-04-17T14:24:43Z</time></trkpt><trkpt lat="49.19631571527004" lon="2.577551589318402"><ele>55.0</ele><time>2026-04-17T14:24:43.999Z</time></trkpt><trkpt lat="49.196239274595435" lon="2.577504125325916"><ele>54.99999999999999</ele><time>2026-04-17T14:24:44.999Z</time></trkpt><trkpt lat="49.1961604898006" lon="2.5774570136519173"><ele>55.0</ele><time>2026-04-17T14:24:45.999Z</time></trkpt><trkpt lat="49.19607687367318" lon="2.5774070328982024"><ele>55.0</ele><time>2026-04-17T14:24:46.999Z</time></trkpt><trkpt lat="49.195996392705986" lon="2.5773586264874697"><ele>55.0</ele><time>2026-04-17T14:24:47.999Z</time></trkpt><trkpt lat="49.19592107670598" lon="2.5773133008813978"><ele>55.0</ele><time>2026-04-17T14:24:48.999Z</time></trkpt><trkpt lat="49.195828715616216" lon="2.5772577175672975"><ele>55.0</ele><time>2026-04-17T14:24:49.999Z</time></trkpt><trkpt lat="49.19589999330326" lon="2.5773037559417116"><ele>55.0</ele><time>2026-04-17T14:24:50.999Z</time></trkpt><trkpt lat="49.19579000173778" lon="2.577248227605345"><ele>55.0</ele><time>2026-04-17T14:24:52.999Z</time></trkpt><trkpt lat="49.19569546189677" lon="2.5771775246837345"><ele>55.0</ele><time>2026-04-17T14:24:54.999Z</time></trkpt><trkpt lat="49.195594060186444" lon="2.577118765693589"><ele>55.0</ele><time>2026-04-17T14:24:56.999Z</time></trkpt><trkpt lat="49.19554286745631" lon="2.5769750779187492"><ele>55.0</ele><time>2026-04-17T14:24:58.999Z</time></trkpt><trkpt lat="49.19545213642618" lon="2.576915429034515"><ele>55.0</ele><time>2026-04-17T14:25:00.999Z</time></trkpt><trkpt lat="49.19536130887475" lon="2.5768289670406834"><ele>55.0</ele><time>2026-04-17T14:25:02.999Z</time></trkpt><trkpt lat="49.19529760163151" lon="2.576840484141768"><ele>55.0</ele><time>2026-04-17T14:25:03.999Z</time></trkpt><trkpt lat="49.19518482455053" lon="2.5767716004534416"><ele>55.0</ele><time>2026-04-17T14:25:05.999Z</time></trkpt><trkpt lat="49.19506964553092" lon="2.5766982391035333"><ele>55.0</ele><time>2026-04-17T14:25:07.999Z</time></trkpt><trkpt lat="49.19495722579062" lon="2.5766199715092712"><ele>55.0</ele><time>2026-04-17T14:25:09.999Z</time></trkpt><trkpt lat="49.19484223067408" lon="2.576545758712968"><ele>54.99999999999999</ele><time>2026-04-17T14:25:11.999Z</time></trkpt><trkpt lat="49.19478542204266" lon="2.576504193481697"><ele>55.0</ele><time>2026-04-17T14:25:12.999Z</time></trkpt><trkpt lat="49.19472835217533" lon="2.576457649690089"><ele>55.0</ele><time>2026-04-17T14:25:13.999Z</time></trkpt><trkpt lat="49.19467032727787" lon="2.5764172412754123"><ele>55.0</ele><time>2026-04-17T14:25:14.999Z</time></trkpt><trkpt lat="49.1946074085178" lon="2.576382784667283"><ele>55.0</ele><time>2026-04-17T14:25:15.999Z</time></trkpt><trkpt lat="49.194546930569004" lon="2.576343343316829"><ele>54.99999999999999</ele><time>2026-04-17T14:25:16.999Z</time></trkpt><trkpt lat="49.19448644701077" lon="2.5763028335951255"><ele>55.0</ele><time>2026-04-17T14:25:17.999Z</time></trkpt><trkpt lat="49.19442581008576" lon="2.5762633491766587"><ele>54.99999999999999</ele><time>2026-04-17T14:25:18.999Z</time></trkpt><trkpt lat="49.19436510983615" lon="2.5762160320266863"><ele>55.0</ele><time>2026-04-17T14:25:19.999Z</time></trkpt><trkpt lat="49.1943033803588" lon="2.576170954128865"><ele>55.0</ele><time>2026-04-17T14:25:20.998Z</time></trkpt><trkpt lat="49.19424291857311" lon="2.576127723937219"><ele>55.0</ele><time>2026-04-17T14:25:21.998Z</time></trkpt><trkpt lat="49.19418045953248" lon="2.5760865951010934"><ele>54.99999999999999</ele><time>2026-04-17T14:25:22.998Z</time></trkpt><trkpt lat="49.1940684843987" lon="2.5760046690109135"><ele>55.0</ele><time>2026-04-17T14:25:24.998Z</time></trkpt><trkpt lat="49.193957241657635" lon="2.575926167801413"><ele>55.5</ele><time>2026-04-17T14:25:26.998Z</time></trkpt><trkpt lat="49.193846093454965" lon="2.5758457185228036"><ele>56.0</ele><time>2026-04-17T14:25:28.998Z</time></trkpt><trkpt lat="49.19375120056471" lon="2.575772362828189"><ele>56.5</ele><time>2026-04-17T14:25:30.998Z</time></trkpt><trkpt lat="49.193643673648346" lon="2.575704901313625"><ele>57.0</ele><time>2026-04-17T14:25:32.998Z</time></trkpt><trkpt lat="49.1935416424771" lon="2.575633069493946"><ele>57.0</ele><time>2026-04-17T14:25:34.998Z</time></trkpt><trkpt lat="49.19343846673592" lon="2.5755619403368444"><ele>57.0</ele><time>2026-04-17T14:25:36.998Z</time></trkpt><trkpt lat="49.19334078744195" lon="2.5754919998651746"><ele>57.0</ele><time>2026-04-17T14:25:38.998Z</time></trkpt><trkpt lat="49.19324347116711" lon="2.575420328970462"><ele>57.0</ele><time>2026-04-17T14:25:40.998Z</time></trkpt><trkpt lat="49.1931507899391" lon="2.5753616986755694"><ele>57.0</ele><time>2026-04-17T14:25:42.998Z</time></trkpt><trkpt lat="49.19306224119502" lon="2.5753009923636156"><ele>57.400000000000006</ele><time>2026-04-17T14:25:44.998Z</time></trkpt><trkpt lat="49.19297696099049" lon="2.5752411887458395"><ele>57.800000000000004</ele><time>2026-04-17T14:25:46.998Z</time></trkpt><trkpt lat="49.192888010003905" lon="2.5751814206511114"><ele>58.2</ele><time>2026-04-17T14:25:48.998Z</time></trkpt><trkpt lat="49.1928033355953" lon="2.5751173576310196"><ele>58.6</ele><time>2026-04-17T14:25:50.998Z</time></trkpt><trkpt lat="49.192717993160656" lon="2.5750554901390066"><ele>59.0</ele><time>2026-04-17T14:25:52.998Z</time></trkpt><trkpt lat="49.19263567588661" lon="2.574999645022898"><ele>59.00000000000001</ele><time>2026-04-17T14:25:54.998Z</time></trkpt><trkpt lat="49.19255283588889" lon="2.574948109322129"><ele>59.0</ele><time>2026-04-17T14:25:56.997Z</time></trkpt><trkpt lat="49.19247245456842" lon="2.5748865468125928"><ele>59.0</ele><time>2026-04-17T14:25:58.997Z</time></trkpt><trkpt lat="49.192389637807516" lon="2.5748291953958256"><ele>59.0</ele><time>2026-04-17T14:26:00.997Z</time></trkpt><trkpt lat="49.19230791843835" lon="2.5747703856058384"><ele>59.00000000000001</ele><time>2026-04-17T14:26:02.997Z</time></trkpt><trkpt lat="49.192229773764815" lon="2.574706374187423"><ele>59.0</ele><time>2026-04-17T14:26:04.997Z</time></trkpt><trkpt lat="49.19214629073677" lon="2.5746490213174025"><ele>59.16666666666667</ele><time>2026-04-17T14:26:06.997Z</time></trkpt><trkpt lat="49.19206512987225" lon="2.574588721725076"><ele>59.333333333333336</ele><time>2026-04-17T14:26:08.997Z</time></trkpt><trkpt lat="49.19198779011436" lon="2.5745333725001633"><ele>59.5</ele><time>2026-04-17T14:26:10.997Z</time></trkpt><trkpt lat="49.191913403410815" lon="2.574463329372906"><ele>59.66666666666667</ele><time>2026-04-17T14:26:13Z</time></trkpt><trkpt lat="49.19183326186234" lon="2.57440624214919"><ele>59.833333333333336</ele><time>2026-04-17T14:26:15Z</time></trkpt><trkpt lat="49.19175226354179" lon="2.5743422320830613"><ele>60.0</ele><time>2026-04-17T14:26:17Z</time></trkpt><trkpt lat="49.19168069398034" lon="2.57427303626374"><ele>60.2</ele><time>2026-04-17T14:26:19Z</time></trkpt><trkpt lat="49.19162336537471" lon="2.574170309634711"><ele>60.4</ele><time>2026-04-17T14:26:21Z</time></trkpt><trkpt lat="49.19157696078025" lon="2.574070477471908"><ele>60.599999999999994</ele><time>2026-04-17T14:26:23Z</time></trkpt><trkpt lat="49.191518048691094" lon="2.5739461616189954"><ele>60.8</ele><time>2026-04-17T14:26:25Z</time></trkpt><trkpt lat="49.1914187802135" lon="2.5738769172018667"><ele>61.0</ele><time>2026-04-17T14:26:27Z</time></trkpt><trkpt lat="49.191313203248534" lon="2.573841150255775"><ele>61.5</ele><time>2026-04-17T14:26:29Z</time></trkpt><trkpt lat="49.1912006049353" lon="2.5738845137431494"><ele>62.0</ele><time>2026-04-17T14:26:31Z</time></trkpt><trkpt lat="49.19112028187315" lon="2.574016942367634"><ele>62.5</ele><time>2026-04-17T14:26:33Z</time></trkpt><trkpt lat="49.19107016894264" lon="2.574170980779739"><ele>63.0</ele><time>2026-04-17T14:26:35Z</time></trkpt><trkpt lat="49.191068217900465" lon="2.574344275166011"><ele>63.0</ele><time>2026-04-17T14:26:37Z</time></trkpt><trkpt lat="49.19105423539955" lon="2.574484974531522"><ele>63.0</ele><time>2026-04-17T14:26:39Z</time></trkpt><trkpt lat="49.19089333039276" lon="2.5744968408942173"><ele>63.0</ele><time>2026-04-17T14:26:46Z</time></trkpt><trkpt lat="49.19081066111035" lon="2.574481766445951"><ele>63.0</ele><time>2026-04-17T14:26:49Z</time></trkpt><trkpt lat="49.19074323395955" lon="2.574493177822043"><ele>63.0</ele><time>2026-04-17T14:26:52Z</time></trkpt><trkpt lat="49.190655008347996" lon="2.5744842844245994"><ele>63.57142857142857</ele><time>2026-04-17T14:26:55Z</time></trkpt><trkpt lat="49.19059135824176" lon="2.5744940151113362"><ele>64.14285714285714</ele><time>2026-04-17T14:26:57Z</time></trkpt><trkpt lat="49.190518782535925" lon="2.5744806508285274"><ele>64.71428571428572</ele><time>2026-04-17T14:26:59Z</time></trkpt><trkpt lat="49.19044757291568" lon="2.574471998975879"><ele>65.28571428571428</ele><time>2026-04-17T14:27:00.999Z</time></trkpt><trkpt lat="49.19037504111812" lon="2.574474463934246"><ele>65.85714285714286</ele><time>2026-04-17T14:27:02.999Z</time></trkpt><trkpt lat="49.190301199233105" lon="2.5744752200499996"><ele>66.42857142857143</ele><time>2026-04-17T14:27:04.999Z</time></trkpt><trkpt lat="49.19020919361487" lon="2.5744688967202825"><ele>67.0</ele><time>2026-04-17T14:27:07.999Z</time></trkpt><trkpt lat="49.190131165309715" lon="2.574476295487003"><ele>67.0</ele><time>2026-04-17T14:27:09.999Z</time></trkpt><trkpt lat="49.190054861127514" lon="2.574466352647075"><ele>67.0</ele><time>2026-04-17T14:27:11.999Z</time></trkpt><trkpt lat="49.189968151137" lon="2.5744779010557752"><ele>67.0</ele><time>2026-04-17T14:27:13.999Z</time></trkpt><trkpt lat="49.1898823958684" lon="2.574482936139405"><ele>67.0</ele><time>2026-04-17T14:27:15.999Z</time></trkpt><trkpt lat="49.18979470167358" lon="2.5744691219362386"><ele>67.0</ele><time>2026-04-17T14:27:17.999Z</time></trkpt><trkpt lat="49.18970897061485" lon="2.5744561057315742"><ele>67.0</ele><time>2026-04-17T14:27:19.999Z</time></trkpt><trkpt lat="49.189612680952166" lon="2.5744591436599613"><ele>67.8</ele><time>2026-04-17T14:27:21.999Z</time></trkpt><trkpt lat="49.189522393656716" lon="2.5744552567184398"><ele>68.6</ele><time>2026-04-17T14:27:23.999Z</time></trkpt><trkpt lat="49.189424272144265" lon="2.574467608320666"><ele>69.39999999999999</ele><time>2026-04-17T14:27:25.999Z</time></trkpt><trkpt lat="49.189326842820265" lon="2.57448715758078"><ele>70.2</ele><time>2026-04-17T14:27:27.999Z</time></trkpt><trkpt lat="49.18923524245082" lon="2.5744787327472216"><ele>71.0</ele><time>2026-04-17T14:27:29.999Z</time></trkpt><trkpt lat="49.18915283834942" lon="2.574476072108365"><ele>71.0</ele><time>2026-04-17T14:27:31.999Z</time></trkpt><trkpt lat="49.18907184224022" lon="2.5744659619888144"><ele>71.0</ele><time>2026-04-17T14:27:33.999Z</time></trkpt><trkpt lat="49.188997218726556" lon="2.5744547948415004"><ele>71.0</ele><time>2026-04-17T14:27:35.998Z</time></trkpt><trkpt lat="49.188922467064444" lon="2.574464228917792"><ele>71.0</ele><time>2026-04-17T14:27:37.998Z</time></trkpt><trkpt lat="49.18883393826275" lon="2.5744656374027572"><ele>71.0</ele><time>2026-04-17T14:27:39.998Z</time></trkpt><trkpt lat="49.18874515781965" lon="2.5744682099026153"><ele>71.0</ele><time>2026-04-17T14:27:41.998Z</time></trkpt><trkpt lat="49.18866625039824" lon="2.57448294741402"><ele>71.2</ele><time>2026-04-17T14:27:43.998Z</time></trkpt><trkpt lat="49.188572671138665" lon="2.5744970188610745"><ele>71.39999999999999</ele><time>2026-04-17T14:27:45.998Z</time></trkpt><trkpt lat="49.18847536899603" lon="2.5744900880411072"><ele>71.6</ele><time>2026-04-17T14:27:47.998Z</time></trkpt><trkpt lat="49.18837555528674" lon="2.574449263689263"><ele>71.8</ele><time>2026-04-17T14:27:49.998Z</time></trkpt><trkpt lat="49.18828822563552" lon="2.5744622616219557"><ele>72.0</ele><time>2026-04-17T14:27:51.998Z</time></trkpt><trkpt lat="49.18819755507129" lon="2.5744549786688466"><ele>71.2</ele><time>2026-04-17T14:27:53.998Z</time></trkpt><trkpt lat="49.188105039728605" lon="2.5744571547897546"><ele>70.4</ele><time>2026-04-17T14:27:55.998Z</time></trkpt><trkpt lat="49.187995608049945" lon="2.5744430548577326"><ele>69.6</ele><time>2026-04-17T14:27:57.998Z</time></trkpt><trkpt lat="49.18789969448553" lon="2.5744372295729216"><ele>68.8</ele><time>2026-04-17T14:27:59.998Z</time></trkpt><trkpt lat="49.18779298299677" lon="2.5744150138773754"><ele>68.0</ele><time>2026-04-17T14:28:01.998Z</time></trkpt><trkpt lat="49.18769829153836" lon="2.574428599787235"><ele>68.0</ele><time>2026-04-17T14:28:03.998Z</time></trkpt><trkpt lat="49.18759660635327" lon="2.5744243138129206"><ele>68.0</ele><time>2026-04-17T14:28:05.998Z</time></trkpt><trkpt lat="49.18750157973676" lon="2.574447715874008"><ele>68.0</ele><time>2026-04-17T14:28:07.998Z</time></trkpt><trkpt lat="49.187410594702555" lon="2.5744590552703914"><ele>68.0</ele><time>2026-04-17T14:28:09.998Z</time></trkpt><trkpt lat="49.18729805174914" lon="2.5744415341984035"><ele>68.0</ele><time>2026-04-17T14:28:11.997Z</time></trkpt><trkpt lat="49.187197271746676" lon="2.5744291737498335"><ele>67.66666666666667</ele><time>2026-04-17T14:28:13.997Z</time></trkpt><trkpt lat="49.187113735621736" lon="2.5744506144955213"><ele>67.33333333333334</ele><time>2026-04-17T14:28:15.997Z</time></trkpt><trkpt lat="49.18702184343473" lon="2.574470974984623"><ele>67.0</ele><time>2026-04-17T14:28:17.997Z</time></trkpt><trkpt lat="49.18694620983419" lon="2.574427829358118"><ele>66.66666666666667</ele><time>2026-04-17T14:28:19.001Z</time></trkpt><trkpt lat="49.18685047613791" lon="2.5744092221184"><ele>66.33333333333333</ele><time>2026-04-17T14:28:21.001Z</time></trkpt><trkpt lat="49.18676254038556" lon="2.5743905474089854"><ele>66.0</ele><time>2026-04-17T14:28:23.001Z</time></trkpt><trkpt lat="49.18668685130508" lon="2.574359566787035"><ele>66.0</ele><time>2026-04-17T14:28:25.001Z</time></trkpt><trkpt lat="49.186594127004305" lon="2.5743072746693167"><ele>66.0</ele><time>2026-04-17T14:28:28.001Z</time></trkpt><trkpt lat="49.186537655179755" lon="2.5742046305175337"><ele>66.0</ele><time>2026-04-17T14:28:31.001Z</time></trkpt><trkpt lat="49.18648553940524" lon="2.5741241949412403"><ele>66.0</ele><time>2026-04-17T14:28:34.001Z</time></trkpt><trkpt lat="49.18641941228695" lon="2.574078892401727"><ele>66.0</ele><time>2026-04-17T14:28:38Z</time></trkpt><trkpt lat="49.186355481517644" lon="2.574087451479625"><ele>66.0</ele><time>2026-04-17T14:28:55Z</time></trkpt><trkpt lat="49.186286525925965" lon="2.5740149525583713"><ele>65.83333333333333</ele><time>2026-04-17T14:28:58Z</time></trkpt><trkpt lat="49.18620894513876" lon="2.5739743898469194"><ele>65.66666666666667</ele><time>2026-04-17T14:29:01Z</time></trkpt><trkpt lat="49.18611375292578" lon="2.5739258437903154"><ele>65.5</ele><time>2026-04-17T14:29:04Z</time></trkpt><trkpt lat="49.186026752802704" lon="2.5739249737415673"><ele>65.33333333333334</ele><time>2026-04-17T14:29:07Z</time></trkpt><trkpt lat="49.18594450966553" lon="2.5738975199563785"><ele>65.16666666666667</ele><time>2026-04-17T14:29:09.999Z</time></trkpt><trkpt lat="49.18587803394904" lon="2.5738751274605662"><ele>65.0</ele><time>2026-04-17T14:29:11.999Z</time></trkpt><trkpt lat="49.18580469975164" lon="2.5738317982848837"><ele>65.0</ele><time>2026-04-17T14:29:13.999Z</time></trkpt><trkpt lat="49.18573428887226" lon="2.573796286296876"><ele>65.0</ele><time>2026-04-17T14:29:15.999Z</time></trkpt><trkpt lat="49.18566147644246" lon="2.573767867996483"><ele>65.0</ele><time>2026-04-17T14:29:16.999Z</time></trkpt><trkpt lat="49.18559226856601" lon="2.5737704117715543"><ele>65.0</ele><time>2026-04-17T14:29:19.999Z</time></trkpt><trkpt lat="49.185513341324466" lon="2.5737731629594283"><ele>65.0</ele><time>2026-04-17T14:29:21.999Z</time></trkpt><trkpt lat="49.18542930477361" lon="2.5738025047821975"><ele>65.0</ele><time>2026-04-17T14:29:23.999Z</time></trkpt><trkpt lat="49.1853501298963" lon="2.5738235582652655"><ele>64.66666666666667</ele><time>2026-04-17T14:29:25.999Z</time></trkpt><trkpt lat="49.18527215609192" lon="2.573820637415284"><ele>64.33333333333334</ele><time>2026-04-17T14:29:27.999Z</time></trkpt><trkpt lat="49.185196639208854" lon="2.573847512478488"><ele>64.0</ele><time>2026-04-17T14:29:29.999Z</time></trkpt><trkpt lat="49.18511860882865" lon="2.573896997363696"><ele>63.66666666666667</ele><time>2026-04-17T14:29:31.999Z</time></trkpt><trkpt lat="49.185032715826594" lon="2.573952511545415"><ele>63.333333333333336</ele><time>2026-04-17T14:29:33.999Z</time></trkpt><trkpt lat="49.18495473057465" lon="2.574003108782022"><ele>63.0</ele><time>2026-04-17T14:29:35.999Z</time></trkpt><trkpt lat="49.18488671919803" lon="2.574046104556134"><ele>62.4</ele><time>2026-04-17T14:29:37.999Z</time></trkpt><trkpt lat="49.18481079808282" lon="2.5741118238387584"><ele>61.8</ele><time>2026-04-17T14:29:39.999Z</time></trkpt><trkpt lat="49.184731452899626" lon="2.5741607806678664"><ele>61.2</ele><time>2026-04-17T14:29:41.999Z</time></trkpt><trkpt lat="49.18465034310189" lon="2.574264586321596"><ele>60.6</ele><time>2026-04-17T14:29:43.998Z</time></trkpt><trkpt lat="49.18456170342118" lon="2.574286091080624"><ele>60.0</ele><time>2026-04-17T14:29:45.998Z</time></trkpt><trkpt lat="49.18442416055348" lon="2.5744284818044503"><ele>60.0</ele><time>2026-04-17T14:29:48.998Z</time></trkpt><trkpt lat="49.18434156756988" lon="2.5744825537446623"><ele>60.0</ele><time>2026-04-17T14:29:50.998Z</time></trkpt><trkpt lat="49.18426501419304" lon="2.574525517890297"><ele>60.0</ele><time>2026-04-17T14:29:52.998Z</time></trkpt><trkpt lat="49.18416474245108" lon="2.574545213491331"><ele>60.0</ele><time>2026-04-17T14:29:54.998Z</time></trkpt><trkpt lat="49.1840820708735" lon="2.5745739820881632"><ele>60.0</ele><time>2026-04-17T14:29:56.998Z</time></trkpt><trkpt lat="49.18400982318179" lon="2.574604224196649"><ele>60.0</ele><time>2026-04-17T14:29:58.998Z</time></trkpt><trkpt lat="49.18392942187908" lon="2.574646450141661"><ele>60.8</ele><time>2026-04-17T14:30:00.998Z</time></trkpt><trkpt lat="49.18384102486481" lon="2.5746700853254247"><ele>61.6</ele><time>2026-04-17T14:30:02.998Z</time></trkpt><trkpt lat="49.183749554040546" lon="2.5747103676832297"><ele>62.400000000000006</ele><time>2026-04-17T14:30:04.998Z</time></trkpt><trkpt lat="49.18365894617097" lon="2.574744080919938"><ele>63.2</ele><time>2026-04-17T14:30:06.998Z</time></trkpt><trkpt lat="49.18358323011943" lon="2.5747810772351376"><ele>64.0</ele><time>2026-04-17T14:30:08.998Z</time></trkpt><trkpt lat="49.18348396001716" lon="2.5748377627933383"><ele>64.0</ele><time>2026-04-17T14:30:11.998Z</time></trkpt><trkpt lat="49.1833970170156" lon="2.5748801666643817"><ele>64.0</ele><time>2026-04-17T14:30:13.998Z</time></trkpt><trkpt lat="49.18331240608273" lon="2.57490084678358"><ele>64.0</ele><time>2026-04-17T14:30:15.998Z</time></trkpt><trkpt lat="49.183220953535034" lon="2.5748742525480894"><ele>64.0</ele><time>2026-04-17T14:30:17.997Z</time></trkpt><trkpt lat="49.18313259322115" lon="2.5748254699852033"><ele>64.0</ele><time>2026-04-17T14:30:19.997Z</time></trkpt><trkpt lat="49.18303854896734" lon="2.574763360357916"><ele>64.2</ele><time>2026-04-17T14:30:21.997Z</time></trkpt><trkpt lat="49.18295503679556" lon="2.574734704881059"><ele>64.4</ele><time>2026-04-17T14:30:23.997Z</time></trkpt><trkpt lat="49.18285290723718" lon="2.5747073487629324"><ele>64.6</ele><time>2026-04-17T14:30:26.001Z</time></trkpt><trkpt lat="49.18275238177631" lon="2.574681890944043"><ele>64.8</ele><time>2026-04-17T14:30:28.001Z</time></trkpt><trkpt lat="49.182654491504074" lon="2.574671356575768"><ele>65.0</ele><time>2026-04-17T14:30:30.001Z</time></trkpt><trkpt lat="49.18255181869935" lon="2.574700696639472"><ele>65.0</ele><time>2026-04-17T14:30:32.001Z</time></trkpt><trkpt lat="49.18245202838323" lon="2.574708928899318"><ele>65.0</ele><time>2026-04-17T14:30:34.001Z</time></trkpt><trkpt lat="49.18235095458639" lon="2.574717574763836"><ele>65.0</ele><time>2026-04-17T14:30:36.001Z</time></trkpt><trkpt lat="49.18227750284423" lon="2.574655564593245"><ele>65.0</ele><time>2026-04-17T14:30:38.001Z</time></trkpt><trkpt lat="49.18219764801812" lon="2.5745927271442604"><ele>65.0</ele><time>2026-04-17T14:30:40.001Z</time></trkpt><trkpt lat="49.18211238747451" lon="2.5745420608597884"><ele>64.6</ele><time>2026-04-17T14:30:42.001Z</time></trkpt><trkpt lat="49.182025188142816" lon="2.5744802238633304"><ele>64.2</ele><time>2026-04-17T14:30:44Z</time></trkpt><trkpt lat="49.18193303375615" lon="2.5744239960049073"><ele>63.8</ele><time>2026-04-17T14:30:46Z</time></trkpt><trkpt lat="49.181849970194726" lon="2.574362962530286"><ele>63.4</ele><time>2026-04-17T14:30:48Z</time></trkpt><trkpt lat="49.18176085895694" lon="2.574303254853234"><ele>63.0</ele><time>2026-04-17T14:30:50Z</time></trkpt><trkpt lat="49.181675957321566" lon="2.5742484374736163"><ele>63.0</ele><time>2026-04-17T14:30:52Z</time></trkpt><trkpt lat="49.18158979431971" lon="2.574198653785023"><ele>63.0</ele><time>2026-04-17T14:30:54Z</time></trkpt><trkpt lat="49.18150099792097" lon="2.57414007598439"><ele>63.0</ele><time>2026-04-17T14:30:56Z</time></trkpt><trkpt lat="49.18141556972428" lon="2.5740719363370967"><ele>63.0</ele><time>2026-04-17T14:30:58Z</time></trkpt><trkpt lat="49.181330192563536" lon="2.574018260860419"><ele>63.0</ele><time>2026-04-17T14:31:00Z</time></trkpt><trkpt lat="49.181241027126276" lon="2.5739559300024797"><ele>63.0</ele><time>2026-04-17T14:31:02Z</time></trkpt><trkpt lat="49.18114967906394" lon="2.5738945991996753"><ele>63.0</ele><time>2026-04-17T14:31:04Z</time></trkpt><trkpt lat="49.181051978136324" lon="2.573833294039393"><ele>63.0</ele><time>2026-04-17T14:31:06Z</time></trkpt><trkpt lat="49.18095793574504" lon="2.5737732002791938"><ele>63.0</ele><time>2026-04-17T14:31:08Z</time></trkpt><trkpt lat="49.180868683008754" lon="2.5737082163266063"><ele>63.0</ele><time>2026-04-17T14:31:10Z</time></trkpt><trkpt lat="49.180764965341865" lon="2.573633007141246"><ele>63.0</ele><time>2026-04-17T14:31:12Z</time></trkpt><trkpt lat="49.18068966023366" lon="2.573587306972177"><ele>63.0</ele><time>2026-04-17T14:31:14Z</time></trkpt><trkpt lat="49.18060198308301" lon="2.5735402628077946"><ele>63.0</ele><time>2026-04-17T14:31:15.999Z</time></trkpt><trkpt lat="49.18052021174398" lon="2.5735059880222493"><ele>63.0</ele><time>2026-04-17T14:31:17.999Z</time></trkpt><trkpt lat="49.180443564501026" lon="2.573461208429501"><ele>63.0</ele><time>2026-04-17T14:31:19.999Z</time></trkpt><trkpt lat="49.18037903057491" lon="2.573398660324318"><ele>63.0</ele><time>2026-04-17T14:31:21.999Z</time></trkpt><trkpt lat="49.18031738947535" lon="2.57333718984997"><ele>63.0</ele><time>2026-04-17T14:31:23.999Z</time></trkpt><trkpt lat="49.18023022008559" lon="2.5732904587840366"><ele>63.0</ele><time>2026-04-17T14:31:26.999Z</time></trkpt><trkpt lat="49.18017460666914" lon="2.573195251068716"><ele>63.0</ele><time>2026-04-17T14:31:28.999Z</time></trkpt><trkpt lat="49.1800824800501" lon="2.573138626216536"><ele>63.0</ele><time>2026-04-17T14:31:30.999Z</time></trkpt><trkpt lat="49.18001273624533" lon="2.5730896979256164"><ele>63.0</ele><time>2026-04-17T14:31:32.999Z</time></trkpt><trkpt lat="49.17993701053572" lon="2.5730579060808734"><ele>63.0</ele><time>2026-04-17T14:31:34.999Z</time></trkpt><trkpt lat="49.1798556636381" lon="2.5729929999449226"><ele>63.0</ele><time>2026-04-17T14:31:36.999Z</time></trkpt><trkpt lat="49.17978394066437" lon="2.5729306621887864"><ele>63.0</ele><time>2026-04-17T14:31:38.999Z</time></trkpt><trkpt lat="49.17969328229215" lon="2.5728686310349205"><ele>63.0</ele><time>2026-04-17T14:31:40.999Z</time></trkpt><trkpt lat="49.179601141637235" lon="2.5727932452866566"><ele>63.0</ele><time>2026-04-17T14:31:42.999Z</time></trkpt><trkpt lat="49.17951150694992" lon="2.572729407471269"><ele>63.0</ele><time>2026-04-17T14:31:44.999Z</time></trkpt><trkpt lat="49.179436784912525" lon="2.572678209211476"><ele>63.0</ele><time>2026-04-17T14:31:46.999Z</time></trkpt><trkpt lat="49.179358228741556" lon="2.572629389483057"><ele>63.0</ele><time>2026-04-17T14:31:48.998Z</time></trkpt><trkpt lat="49.1792904298852" lon="2.5725763525394925"><ele>63.0</ele><time>2026-04-17T14:31:50.998Z</time></trkpt><trkpt lat="49.179211383944306" lon="2.572527548592596"><ele>63.0</ele><time>2026-04-17T14:31:52.998Z</time></trkpt><trkpt lat="49.17913047001046" lon="2.572473472037993"><ele>63.0</ele><time>2026-04-17T14:31:54.998Z</time></trkpt><trkpt lat="49.179044721640764" lon="2.5724293320909477"><ele>63.0</ele><time>2026-04-17T14:31:57.998Z</time></trkpt><trkpt lat="49.178979828068606" lon="2.5723698618266777"><ele>63.0</ele><time>2026-04-17T14:31:59.998Z</time></trkpt><trkpt lat="49.17889840278251" lon="2.5723160934007447"><ele>63.0</ele><time>2026-04-17T14:32:01.998Z</time></trkpt><trkpt lat="49.17882252254701" lon="2.5722606818002878"><ele>63.0</ele><time>2026-04-17T14:32:03.998Z</time></trkpt><trkpt lat="49.17873890062674" lon="2.5722046202550324"><ele>63.0</ele><time>2026-04-17T14:32:05.998Z</time></trkpt><trkpt lat="49.17865560484566" lon="2.5721442863202824"><ele>63.0</ele><time>2026-04-17T14:32:07.998Z</time></trkpt><trkpt lat="49.178571424253995" lon="2.5720899631889367"><ele>63.0</ele><time>2026-04-17T14:32:09.998Z</time></trkpt><trkpt lat="49.178503913660684" lon="2.5720495781878063"><ele>63.2</ele><time>2026-04-17T14:32:11.998Z</time></trkpt><trkpt lat="49.178417003114994" lon="2.57199252513424"><ele>63.4</ele><time>2026-04-17T14:32:14.998Z</time></trkpt><trkpt lat="49.17833466639904" lon="2.571930590424411"><ele>63.60000000000001</ele><time>2026-04-17T14:32:16.998Z</time></trkpt><trkpt lat="49.178248832221094" lon="2.5718703507754004"><ele>63.800000000000004</ele><time>2026-04-17T14:32:19.998Z</time></trkpt><trkpt lat="49.17815040444806" lon="2.5718039357251765"><ele>64.0</ele><time>2026-04-17T14:32:22.997Z</time></trkpt><trkpt lat="49.17807123665227" lon="2.571749368629135"><ele>63.2</ele><time>2026-04-17T14:32:24.997Z</time></trkpt><trkpt lat="49.17798412458245" lon="2.571687668645444"><ele>62.400000000000006</ele><time>2026-04-17T14:32:26.997Z</time></trkpt><trkpt lat="49.17789240012784" lon="2.5716252774043533"><ele>61.6</ele><time>2026-04-17T14:32:28.997Z</time></trkpt><trkpt lat="49.177801027951496" lon="2.571561653946385"><ele>60.8</ele><time>2026-04-17T14:32:31.001Z</time></trkpt><trkpt lat="49.17770065056956" lon="2.5714833217138637"><ele>60.0</ele><time>2026-04-17T14:32:33.001Z</time></trkpt><trkpt lat="49.17759628714631" lon="2.5714090222254455"><ele>60.0</ele><time>2026-04-17T14:32:35.001Z</time></trkpt><trkpt lat="49.177498440938535" lon="2.5713397346386366"><ele>60.0</ele><time>2026-04-17T14:32:37.001Z</time></trkpt><trkpt lat="49.17740082647372" lon="2.5712767258827087"><ele>60.0</ele><time>2026-04-17T14:32:39.001Z</time></trkpt><trkpt lat="49.17730682320864" lon="2.5711887730807295"><ele>60.0</ele><time>2026-04-17T14:32:41.001Z</time></trkpt><trkpt lat="49.17721929172831" lon="2.571133547820268"><ele>60.0</ele><time>2026-04-17T14:32:43Z</time></trkpt><trkpt lat="49.17713198899359" lon="2.57107920913817"><ele>60.0</ele><time>2026-04-17T14:32:45Z</time></trkpt><trkpt lat="49.17703660372399" lon="2.5710099084656997"><ele>60.0</ele><time>2026-04-17T14:32:47Z</time></trkpt><trkpt lat="49.17694851322206" lon="2.570946919514399"><ele>60.0</ele><time>2026-04-17T14:32:49Z</time></trkpt><trkpt lat="49.17685441173313" lon="2.5708758536862435"><ele>60.0</ele><time>2026-04-17T14:32:51Z</time></trkpt><trkpt lat="49.17677675273102" lon="2.5708289634225445"><ele>60.0</ele><time>2026-04-17T14:32:53Z</time></trkpt><trkpt lat="49.176713762322414" lon="2.5707876098524336"><ele>60.0</ele><time>2026-04-17T14:32:54Z</time></trkpt><trkpt lat="49.17662269459086" lon="2.5707193791234713"><ele>60.0</ele><time>2026-04-17T14:32:56Z</time></trkpt><trkpt lat="49.17654887277919" lon="2.570651489232558"><ele>60.0</ele><time>2026-04-17T14:32:58Z</time></trkpt><trkpt lat="49.17644813917747" lon="2.570601694607599"><ele>60.0</ele><time>2026-04-17T14:33:00Z</time></trkpt><trkpt lat="49.176367463954534" lon="2.570527417203286"><ele>60.0</ele><time>2026-04-17T14:33:02Z</time></trkpt><trkpt lat="49.176290086758186" lon="2.5704897391959425"><ele>60.6</ele><time>2026-04-17T14:33:04Z</time></trkpt><trkpt lat="49.17618669266354" lon="2.5704105824017494"><ele>61.2</ele><time>2026-04-17T14:33:06Z</time></trkpt><trkpt lat="49.176105439863406" lon="2.5703552109593546"><ele>61.8</ele><time>2026-04-17T14:33:08Z</time></trkpt><trkpt lat="49.176018547491594" lon="2.570279751813612"><ele>62.4</ele><time>2026-04-17T14:33:10Z</time></trkpt><trkpt lat="49.17593740641595" lon="2.5702209728311316"><ele>63.0</ele><time>2026-04-17T14:33:12Z</time></trkpt><trkpt lat="49.17585982439485" lon="2.5701630916427667"><ele>63.0</ele><time>2026-04-17T14:33:14Z</time></trkpt><trkpt lat="49.17576324106679" lon="2.570101536042143"><ele>63.0</ele><time>2026-04-17T14:33:15.999Z</time></trkpt><trkpt lat="49.175675264373716" lon="2.5700447237148407"><ele>63.0</ele><time>2026-04-17T14:33:17.999Z</time></trkpt><trkpt lat="49.175607912914636" lon="2.569992008613919"><ele>63.0</ele><time>2026-04-17T14:33:19.999Z</time></trkpt><trkpt lat="49.175520523974626" lon="2.56993265714163"><ele>63.0</ele><time>2026-04-17T14:33:21.999Z</time></trkpt><trkpt lat="49.175430696197836" lon="2.56987506583307"><ele>63.8</ele><time>2026-04-17T14:33:23.999Z</time></trkpt><trkpt lat="49.17533489847759" lon="2.5698017001954656"><ele>64.6</ele><time>2026-04-17T14:33:25.999Z</time></trkpt><trkpt lat="49.17524258303866" lon="2.569741622006138"><ele>65.4</ele><time>2026-04-17T14:33:27.999Z</time></trkpt><trkpt lat="49.175139393037455" lon="2.5696636994502002"><ele>66.2</ele><time>2026-04-17T14:33:29.999Z</time></trkpt><trkpt lat="49.17505682187056" lon="2.5695984468244637"><ele>67.0</ele><time>2026-04-17T14:33:31.999Z</time></trkpt><trkpt lat="49.17495917617442" lon="2.5695517131142434"><ele>67.2</ele><time>2026-04-17T14:33:33.999Z</time></trkpt><trkpt lat="49.17484925952326" lon="2.5694765210801"><ele>67.4</ele><time>2026-04-17T14:33:35.999Z</time></trkpt><trkpt lat="49.174739954829214" lon="2.5693879943824163"><ele>67.6</ele><time>2026-04-17T14:33:37.999Z</time></trkpt><trkpt lat="49.174643411529054" lon="2.569312917079397"><ele>67.8</ele><time>2026-04-17T14:33:39.999Z</time></trkpt><trkpt lat="49.1745684384774" lon="2.569274672380962"><ele>68.0</ele><time>2026-04-17T14:33:41.999Z</time></trkpt><trkpt lat="49.17447483911678" lon="2.5692166310622713"><ele>68.0</ele><time>2026-04-17T14:33:43.999Z</time></trkpt><trkpt lat="49.174419130072515" lon="2.5691687921820234"><ele>68.0</ele><time>2026-04-17T14:33:44.999Z</time></trkpt><trkpt lat="49.1743299122673" lon="2.569100036480592"><ele>68.0</ele><time>2026-04-17T14:33:46.999Z</time></trkpt><trkpt lat="49.174240601572784" lon="2.56903908983123"><ele>68.0</ele><time>2026-04-17T14:33:48.999Z</time></trkpt><trkpt lat="49.17416249732947" lon="2.5689837637087005"><ele>68.0</ele><time>2026-04-17T14:33:50.998Z</time></trkpt><trkpt lat="49.17408252034636" lon="2.568929901657943"><ele>68.0</ele><time>2026-04-17T14:33:52.998Z</time></trkpt><trkpt lat="49.17401262956002" lon="2.568889118814726"><ele>67.99999999999999</ele><time>2026-04-17T14:33:54.998Z</time></trkpt><trkpt lat="49.17395459207813" lon="2.5688435243454113"><ele>68.0</ele><time>2026-04-17T14:33:56.998Z</time></trkpt><trkpt lat="49.17388181474103" lon="2.5688130872579444"><ele>68.0</ele><time>2026-04-17T14:33:58.998Z</time></trkpt><trkpt lat="49.17381986183162" lon="2.568752229642429"><ele>68.0</ele><time>2026-04-17T14:34:01.998Z</time></trkpt><trkpt lat="49.17375079546957" lon="2.5686945569797563"><ele>68.0</ele><time>2026-04-17T14:34:04.998Z</time></trkpt><trkpt lat="49.173680109867625" lon="2.568629285944548"><ele>67.99999999999999</ele><time>2026-04-17T14:34:06.998Z</time></trkpt><trkpt lat="49.17361518624689" lon="2.5685822522929196"><ele>68.0</ele><time>2026-04-17T14:34:08.998Z</time></trkpt><trkpt lat="49.17354812830333" lon="2.5685226731405097"><ele>68.0</ele><time>2026-04-17T14:34:10.998Z</time></trkpt><trkpt lat="49.1734781015046" lon="2.5684732309788005"><ele>68.0</ele><time>2026-04-17T14:34:12.998Z</time></trkpt><trkpt lat="49.17339745932955" lon="2.56841168651093"><ele>68.0</ele><time>2026-04-17T14:34:15.998Z</time></trkpt><trkpt lat="49.17331279346912" lon="2.5683674445821763"><ele>68.0</ele><time>2026-04-17T14:34:17.998Z</time></trkpt><trkpt lat="49.173226021279554" lon="2.5683012516003876"><ele>68.0</ele><time>2026-04-17T14:34:19.998Z</time></trkpt><trkpt lat="49.173145600819716" lon="2.568245290300476"><ele>68.0</ele><time>2026-04-17T14:34:21.998Z</time></trkpt><trkpt lat="49.17307983521914" lon="2.568192555055355"><ele>68.0</ele><time>2026-04-17T14:34:23.997Z</time></trkpt><trkpt lat="49.17300544574258" lon="2.5681306360515395"><ele>68.0</ele><time>2026-04-17T14:34:25.997Z</time></trkpt><trkpt lat="49.17287142595528" lon="2.568093563387098"><ele>68.0</ele><time>2026-04-17T14:34:27.997Z</time></trkpt><trkpt lat="49.172781169886505" lon="2.568032867869963"><ele>68.0</ele><time>2026-04-17T14:34:29.997Z</time></trkpt><trkpt lat="49.172704081436926" lon="2.5679702854736774"><ele>68.0</ele><time>2026-04-17T14:34:31.997Z</time></trkpt><trkpt lat="49.172631769447875" lon="2.5679093555381796"><ele>68.0</ele><time>2026-04-17T14:34:33.997Z</time></trkpt><trkpt lat="49.17256038179627" lon="2.5678598563993016"><ele>68.0</ele><time>2026-04-17T14:34:35.997Z</time></trkpt><trkpt lat="49.172489294742626" lon="2.5678074554959003"><ele>68.0</ele><time>2026-04-17T14:34:38Z</time></trkpt><trkpt lat="49.17242413237513" lon="2.5677582106683694"><ele>68.0</ele><time>2026-04-17T14:34:40Z</time></trkpt><trkpt lat="49.172352975443054" lon="2.567703053862368"><ele>68.0</ele><time>2026-04-17T14:34:42Z</time></trkpt><trkpt lat="49.17228019554662" lon="2.5676526945547815"><ele>68.0</ele><time>2026-04-17T14:34:44Z</time></trkpt><trkpt lat="49.17221572380682" lon="2.5676050634504635"><ele>68.28571428571428</ele><time>2026-04-17T14:34:46Z</time></trkpt><trkpt lat="49.1721577925857" lon="2.567562352745708"><ele>68.57142857142857</ele><time>2026-04-17T14:34:48Z</time></trkpt><trkpt lat="49.172089725010494" lon="2.567509935325087"><ele>68.85714285714286</ele><time>2026-04-17T14:34:51Z</time></trkpt><trkpt lat="49.172028142176835" lon="2.5674673898564677"><ele>69.14285714285714</ele><time>2026-04-17T14:34:53Z</time></trkpt><trkpt lat="49.17194353960835" lon="2.567404109538536"><ele>69.42857142857143</ele><time>2026-04-17T14:34:56Z</time></trkpt><trkpt lat="49.17187466222419" lon="2.567367320833447"><ele>69.71428571428571</ele><time>2026-04-17T14:34:58Z</time></trkpt><trkpt lat="49.171811055489314" lon="2.5673199202717307"><ele>70.0</ele><time>2026-04-17T14:35:00Z</time></trkpt><trkpt lat="49.17175148493096" lon="2.567279723927892"><ele>70.0</ele><time>2026-04-17T14:35:02Z</time></trkpt><trkpt lat="49.17169097881923" lon="2.567244463474694"><ele>70.0</ele><time>2026-04-17T14:35:04Z</time></trkpt><trkpt lat="49.17163677725306" lon="2.56718917752678"><ele>70.0</ele><time>2026-04-17T14:35:06Z</time></trkpt><trkpt lat="49.17157521259331" lon="2.5671466877788265"><ele>70.0</ele><time>2026-04-17T14:35:08Z</time></trkpt><trkpt lat="49.17151522156475" lon="2.567102694911201"><ele>70.0</ele><time>2026-04-17T14:35:10Z</time></trkpt><trkpt lat="49.17145283362707" lon="2.567059580673971"><ele>70.0</ele><time>2026-04-17T14:35:12Z</time></trkpt><trkpt lat="49.17136701330252" lon="2.5669948927044306"><ele>70.0</ele><time>2026-04-17T14:35:14.999Z</time></trkpt><trkpt lat="49.17128697412671" lon="2.5669220786427083"><ele>70.33333333333333</ele><time>2026-04-17T14:35:17.999Z</time></trkpt><trkpt lat="49.17122320186847" lon="2.566886067966007"><ele>70.66666666666666</ele><time>2026-04-17T14:35:19.999Z</time></trkpt><trkpt lat="49.17116035110983" lon="2.566837130608882"><ele>71.0</ele><time>2026-04-17T14:35:21.999Z</time></trkpt><trkpt lat="49.17106737478381" lon="2.5667926681963666"><ele>71.33333333333333</ele><time>2026-04-17T14:35:24.999Z</time></trkpt><trkpt lat="49.17100969433451" lon="2.566731382718954"><ele>71.66666666666667</ele><time>2026-04-17T14:35:26.999Z</time></trkpt><trkpt lat="49.17094468269603" lon="2.566658498729235"><ele>72.0</ele><time>2026-04-17T14:35:29.999Z</time></trkpt><trkpt lat="49.17086344732904" lon="2.5666145104919265"><ele>72.0</ele><time>2026-04-17T14:35:31.999Z</time></trkpt><trkpt lat="49.17079041679401" lon="2.5665725511592026"><ele>72.0</ele><time>2026-04-17T14:35:33.999Z</time></trkpt><trkpt lat="49.17072054940376" lon="2.566522593476214"><ele>72.0</ele><time>2026-04-17T14:35:35.999Z</time></trkpt><trkpt lat="49.17065179813536" lon="2.5664762108216657"><ele>72.0</ele><time>2026-04-17T14:35:37.999Z</time></trkpt><trkpt lat="49.17058313531544" lon="2.5664222746677905"><ele>72.0</ele><time>2026-04-17T14:35:39.999Z</time></trkpt><trkpt lat="49.17051301775431" lon="2.5663679155888053"><ele>72.0</ele><time>2026-04-17T14:35:41.999Z</time></trkpt><trkpt lat="49.17044072195217" lon="2.5663214652172153"><ele>72.0</ele><time>2026-04-17T14:35:43.999Z</time></trkpt><trkpt lat="49.17037023358738" lon="2.566275600997882"><ele>72.0</ele><time>2026-04-17T14:35:45.999Z</time></trkpt><trkpt lat="49.17027276297702" lon="2.5662229597272774"><ele>72.0</ele><time>2026-04-17T14:35:48.999Z</time></trkpt><trkpt lat="49.170171089626585" lon="2.5661549706259144"><ele>72.0</ele><time>2026-04-17T14:35:50.998Z</time></trkpt><trkpt lat="49.17011781464209" lon="2.566102669490086"><ele>72.0</ele><time>2026-04-17T14:35:52.998Z</time></trkpt><trkpt lat="49.17003305256105" lon="2.566036837776734"><ele>72.0</ele><time>2026-04-17T14:35:55.998Z</time></trkpt><trkpt lat="49.16996309771307" lon="2.5659896910257394"><ele>72.0</ele><time>2026-04-17T14:35:57.998Z</time></trkpt><trkpt lat="49.16990690198242" lon="2.565944314030794"><ele>72.0</ele><time>2026-04-17T14:35:59.998Z</time></trkpt><trkpt lat="49.16981726344185" lon="2.565875304288345"><ele>72.0</ele><time>2026-04-17T14:36:01.998Z</time></trkpt><trkpt lat="49.16973767094395" lon="2.5658054776013386"><ele>72.0</ele><time>2026-04-17T14:36:04.998Z</time></trkpt><trkpt lat="49.16965886613147" lon="2.565748991518115"><ele>72.0</ele><time>2026-04-17T14:36:07.998Z</time></trkpt><trkpt lat="49.1695873645242" lon="2.565695617176513"><ele>72.0</ele><time>2026-04-17T14:36:09.998Z</time></trkpt><trkpt lat="49.169522902052826" lon="2.5656469521923637"><ele>72.16666666666667</ele><time>2026-04-17T14:36:11.998Z</time></trkpt><trkpt lat="49.169456659907254" lon="2.565598232270884"><ele>72.33333333333333</ele><time>2026-04-17T14:36:13.998Z</time></trkpt><trkpt lat="49.16938972145378" lon="2.5655495404926696"><ele>72.5</ele><time>2026-04-17T14:36:15.998Z</time></trkpt><trkpt lat="49.169315553994444" lon="2.5654938137140237"><ele>72.66666666666666</ele><time>2026-04-17T14:36:17.998Z</time></trkpt><trkpt lat="49.16924726533454" lon="2.5654553609052355"><ele>72.83333333333333</ele><time>2026-04-17T14:36:19.998Z</time></trkpt><trkpt lat="49.169178936115756" lon="2.565403699171221"><ele>73.0</ele><time>2026-04-17T14:36:21.998Z</time></trkpt><trkpt lat="49.169106303642096" lon="2.565351519616715"><ele>73.0</ele><time>2026-04-17T14:36:23.997Z</time></trkpt><trkpt lat="49.16903728663135" lon="2.5653098918846005"><ele>73.0</ele><time>2026-04-17T14:36:25.997Z</time></trkpt><trkpt lat="49.16896369980634" lon="2.565255794356335"><ele>73.0</ele><time>2026-04-17T14:36:27.997Z</time></trkpt><trkpt lat="49.168892397387566" lon="2.565208550763343"><ele>73.0</ele><time>2026-04-17T14:36:29.997Z</time></trkpt><trkpt lat="49.168822754036746" lon="2.56515286908689"><ele>73.0</ele><time>2026-04-17T14:36:31.997Z</time></trkpt><trkpt lat="49.1687525538033" lon="2.5651030987036636"><ele>73.0</ele><time>2026-04-17T14:36:33.997Z</time></trkpt><trkpt lat="49.168682262739935" lon="2.565040425630844"><ele>73.0</ele><time>2026-04-17T14:36:35.997Z</time></trkpt><trkpt lat="49.16861234167974" lon="2.5649901522108545"><ele>73.0</ele><time>2026-04-17T14:36:37.997Z</time></trkpt><trkpt lat="49.16853936221389" lon="2.5649347710463353"><ele>73.0</ele><time>2026-04-17T14:36:39.997Z</time></trkpt><trkpt lat="49.16847275570719" lon="2.5648840469805947"><ele>73.0</ele><time>2026-04-17T14:36:42Z</time></trkpt><trkpt lat="49.16839908054494" lon="2.564836556946403"><ele>73.0</ele><time>2026-04-17T14:36:44Z</time></trkpt><trkpt lat="49.16832957088911" lon="2.564786845629342"><ele>73.0</ele><time>2026-04-17T14:36:46Z</time></trkpt><trkpt lat="49.168254931912244" lon="2.564733977803701"><ele>72.66666666666666</ele><time>2026-04-17T14:36:48Z</time></trkpt><trkpt lat="49.16818638033309" lon="2.5646962344660538"><ele>72.33333333333333</ele><time>2026-04-17T14:36:50Z</time></trkpt><trkpt lat="49.168112343229026" lon="2.564630652623597"><ele>72.0</ele><time>2026-04-17T14:36:52Z</time></trkpt><trkpt lat="49.16803381748726" lon="2.5645859108466027"><ele>71.66666666666667</ele><time>2026-04-17T14:36:54Z</time></trkpt><trkpt lat="49.1679475440267" lon="2.5645276788756033"><ele>71.33333333333334</ele><time>2026-04-17T14:36:56Z</time></trkpt><trkpt lat="49.16787353205117" lon="2.564463989636256"><ele>71.0</ele><time>2026-04-17T14:36:58Z</time></trkpt><trkpt lat="49.16778609658461" lon="2.5644017683398417"><ele>71.0</ele><time>2026-04-17T14:37:00Z</time></trkpt><trkpt lat="49.16770259602205" lon="2.5643435711191414"><ele>71.0</ele><time>2026-04-17T14:37:02Z</time></trkpt><trkpt lat="49.16762776891862" lon="2.5642976787644103"><ele>71.0</ele><time>2026-04-17T14:37:04Z</time></trkpt><trkpt lat="49.16755068051159" lon="2.5642292266154216"><ele>71.0</ele><time>2026-04-17T14:37:06Z</time></trkpt><trkpt lat="49.16747122815638" lon="2.5641774924894656"><ele>71.0</ele><time>2026-04-17T14:37:08Z</time></trkpt><trkpt lat="49.16738721140921" lon="2.5641161110957884"><ele>71.0</ele><time>2026-04-17T14:37:10Z</time></trkpt><trkpt lat="49.16730604255769" lon="2.5640521114908794"><ele>71.0</ele><time>2026-04-17T14:37:12Z</time></trkpt><trkpt lat="49.167229385217446" lon="2.5639958622402634"><ele>71.0</ele><time>2026-04-17T14:37:14Z</time></trkpt><trkpt lat="49.16714504178532" lon="2.5639498773276306"><ele>71.0</ele><time>2026-04-17T14:37:16Z</time></trkpt><trkpt lat="49.167064805299475" lon="2.5638887738537237"><ele>71.0</ele><time>2026-04-17T14:37:18Z</time></trkpt><trkpt lat="49.16698292075129" lon="2.563834718761706"><ele>71.0</ele><time>2026-04-17T14:37:20Z</time></trkpt><trkpt lat="49.1669022909483" lon="2.5637700830154637"><ele>71.0</ele><time>2026-04-17T14:37:22Z</time></trkpt><trkpt lat="49.166828186049734" lon="2.5637264700691955"><ele>71.16666666666667</ele><time>2026-04-17T14:37:24Z</time></trkpt><trkpt lat="49.16674466937372" lon="2.563669685007732"><ele>71.33333333333334</ele><time>2026-04-17T14:37:25.999Z</time></trkpt><trkpt lat="49.166661348542746" lon="2.56360998283996"><ele>71.5</ele><time>2026-04-17T14:37:27.999Z</time></trkpt><trkpt lat="49.16658273234842" lon="2.5635545840471448"><ele>71.66666666666667</ele><time>2026-04-17T14:37:29.999Z</time></trkpt><trkpt lat="49.16651346149544" lon="2.563491403614568"><ele>71.83333333333333</ele><time>2026-04-17T14:37:31.999Z</time></trkpt><trkpt lat="49.16643792722517" lon="2.5634441124372827"><ele>72.0</ele><time>2026-04-17T14:37:33.999Z</time></trkpt><trkpt lat="49.16635971927862" lon="2.5633808553918658"><ele>72.0</ele><time>2026-04-17T14:37:35.999Z</time></trkpt><trkpt lat="49.166283740530965" lon="2.5633265223822645"><ele>72.0</ele><time>2026-04-17T14:37:37.999Z</time></trkpt><trkpt lat="49.16619730399283" lon="2.5632734121921663"><ele>72.0</ele><time>2026-04-17T14:37:39.999Z</time></trkpt><trkpt lat="49.16611664130814" lon="2.5632121721485044"><ele>72.0</ele><time>2026-04-17T14:37:41.999Z</time></trkpt><trkpt lat="49.16603037650666" lon="2.5631578891559297"><ele>72.0</ele><time>2026-04-17T14:37:43.999Z</time></trkpt><trkpt lat="49.165956144676954" lon="2.563097025741566"><ele>72.0</ele><time>2026-04-17T14:37:45.999Z</time></trkpt><trkpt lat="49.16588377193232" lon="2.563035287520743"><ele>72.0</ele><time>2026-04-17T14:37:47.999Z</time></trkpt><trkpt lat="49.165812084618075" lon="2.562979097998057"><ele>72.0</ele><time>2026-04-17T14:37:49.999Z</time></trkpt><trkpt lat="49.16573623059797" lon="2.562923274108905"><ele>72.0</ele><time>2026-04-17T14:37:51.999Z</time></trkpt><trkpt lat="49.16566452528035" lon="2.562874552425937"><ele>72.0</ele><time>2026-04-17T14:37:53.999Z</time></trkpt><trkpt lat="49.16559102963488" lon="2.562833318376357"><ele>72.0</ele><time>2026-04-17T14:37:55.999Z</time></trkpt><trkpt lat="49.16551596114291" lon="2.562777026182082"><ele>72.0</ele><time>2026-04-17T14:37:57.999Z</time></trkpt><trkpt lat="49.16544653130072" lon="2.562718938618043"><ele>71.83333333333333</ele><time>2026-04-17T14:37:59.999Z</time></trkpt><trkpt lat="49.16537413670617" lon="2.5626704082521377"><ele>71.66666666666667</ele><time>2026-04-17T14:38:01.998Z</time></trkpt><trkpt lat="49.16531048985533" lon="2.562619021871136"><ele>71.5</ele><time>2026-04-17T14:38:03.998Z</time></trkpt><trkpt lat="49.165242982820885" lon="2.562564249411583"><ele>71.33333333333334</ele><time>2026-04-17T14:38:05.998Z</time></trkpt><trkpt lat="49.1651730081352" lon="2.56250667245696"><ele>71.16666666666667</ele><time>2026-04-17T14:38:07.998Z</time></trkpt><trkpt lat="49.16509849739297" lon="2.5624592794842838"><ele>71.0</ele><time>2026-04-17T14:38:09.998Z</time></trkpt><trkpt lat="49.16501688844569" lon="2.562402515993275"><ele>71.0</ele><time>2026-04-17T14:38:11.998Z</time></trkpt><trkpt lat="49.16493082855514" lon="2.562337407714491"><ele>71.0</ele><time>2026-04-17T14:38:13.998Z</time></trkpt><trkpt lat="49.164841985187515" lon="2.5622786765380705"><ele>71.0</ele><time>2026-04-17T14:38:15.998Z</time></trkpt><trkpt lat="49.164751767685104" lon="2.5622178510384277"><ele>71.0</ele><time>2026-04-17T14:38:17.998Z</time></trkpt><trkpt lat="49.16466906113402" lon="2.5621570202756927"><ele>71.0</ele><time>2026-04-17T14:38:19.998Z</time></trkpt><trkpt lat="49.16458440558633" lon="2.5621077102064356"><ele>70.83333333333334</ele><time>2026-04-17T14:38:21.998Z</time></trkpt><trkpt lat="49.16450464376065" lon="2.5620304680414745"><ele>70.66666666666667</ele><time>2026-04-17T14:38:23.998Z</time></trkpt><trkpt lat="49.16443102475124" lon="2.5619712186692842"><ele>70.5</ele><time>2026-04-17T14:38:25.998Z</time></trkpt><trkpt lat="49.16435267783239" lon="2.561900199628587"><ele>70.33333333333333</ele><time>2026-04-17T14:38:27.998Z</time></trkpt><trkpt lat="49.164274598547586" lon="2.5618673383863166"><ele>70.16666666666666</ele><time>2026-04-17T14:38:29.998Z</time></trkpt><trkpt lat="49.16419367705254" lon="2.561802466386123"><ele>70.0</ele><time>2026-04-17T14:38:31.998Z</time></trkpt><trkpt lat="49.164117516869844" lon="2.5617397323715876"><ele>70.0</ele><time>2026-04-17T14:38:33.998Z</time></trkpt><trkpt lat="49.1640648149646" lon="2.561636971813416"><ele>70.0</ele><time>2026-04-17T14:38:35.997Z</time></trkpt><trkpt lat="49.164024020803474" lon="2.5614824961745595"><ele>70.0</ele><time>2026-04-17T14:38:37.997Z</time></trkpt><trkpt lat="49.1640160531225" lon="2.561358628115082"><ele>70.0</ele><time>2026-04-17T14:38:39.997Z</time></trkpt><trkpt lat="49.16399870961429" lon="2.561242180082763"><ele>70.0</ele><time>2026-04-17T14:38:41.997Z</time></trkpt><trkpt lat="49.16396715404476" lon="2.561127268657314"><ele>70.0</ele><time>2026-04-17T14:38:43.997Z</time></trkpt><trkpt lat="49.163896777365984" lon="2.5610302762703525"><ele>70.0</ele><time>2026-04-17T14:38:45.997Z</time></trkpt><trkpt lat="49.163785289131646" lon="2.5610122726054856"><ele>70.0</ele><time>2026-04-17T14:38:48.001Z</time></trkpt><trkpt lat="49.16367338108602" lon="2.5610118601334824"><ele>70.0</ele><time>2026-04-17T14:38:50.001Z</time></trkpt><trkpt lat="49.16355676890894" lon="2.5610210310808195"><ele>70.0</ele><time>2026-04-17T14:38:52.001Z</time></trkpt><trkpt lat="49.16346285495941" lon="2.5610635412347733"><ele>70.0</ele><time>2026-04-17T14:38:54.001Z</time></trkpt><trkpt lat="49.163392397373535" lon="2.5610373391982915"><ele>70.0</ele><time>2026-04-17T14:38:56.001Z</time></trkpt><trkpt lat="49.1632916447707" lon="2.5610760424473367"><ele>70.0</ele><time>2026-04-17T14:38:58.001Z</time></trkpt><trkpt lat="49.16321881869947" lon="2.561069511899643"><ele>70.0</ele><time>2026-04-17T14:39:00.001Z</time></trkpt><trkpt lat="49.163143531877296" lon="2.5610560349717746"><ele>70.0</ele><time>2026-04-17T14:39:02Z</time></trkpt><trkpt lat="49.163055754181485" lon="2.5610129668182067"><ele>70.0</ele><time>2026-04-17T14:39:04Z</time></trkpt><trkpt lat="49.162983816213" lon="2.5609481313087183"><ele>70.0</ele><time>2026-04-17T14:39:06Z</time></trkpt><trkpt lat="49.162904275721154" lon="2.560896670994742"><ele>69.5</ele><time>2026-04-17T14:39:08Z</time></trkpt><trkpt lat="49.16282867003567" lon="2.5608362454249938"><ele>69.0</ele><time>2026-04-17T14:39:10Z</time></trkpt><trkpt lat="49.162752761513715" lon="2.5607814459922156"><ele>68.5</ele><time>2026-04-17T14:39:12Z</time></trkpt><trkpt lat="49.16266057463622" lon="2.560729720300078"><ele>68.0</ele><time>2026-04-17T14:39:14Z</time></trkpt><trkpt lat="49.16258155707522" lon="2.560668150066809"><ele>67.5</ele><time>2026-04-17T14:39:16Z</time></trkpt><trkpt lat="49.16250012196196" lon="2.5606054770923077"><ele>67.0</ele><time>2026-04-17T14:39:18Z</time></trkpt><trkpt lat="49.16244144278587" lon="2.5605260812563695"><ele>66.83333333333333</ele><time>2026-04-17T14:39:20Z</time></trkpt><trkpt lat="49.16236008788946" lon="2.5604595332928874"><ele>66.66666666666666</ele><time>2026-04-17T14:39:22Z</time></trkpt><trkpt lat="49.16228332650219" lon="2.560398258974016"><ele>66.5</ele><time>2026-04-17T14:39:24Z</time></trkpt><trkpt lat="49.16219232905159" lon="2.560349943300996"><ele>66.33333333333333</ele><time>2026-04-17T14:39:26Z</time></trkpt><trkpt lat="49.1621173979483" lon="2.560293418957"><ele>66.16666666666667</ele><time>2026-04-17T14:39:28Z</time></trkpt><trkpt lat="49.16204709089662" lon="2.5602454908559915"><ele>66.0</ele><time>2026-04-17T14:39:30Z</time></trkpt><trkpt lat="49.161960341463924" lon="2.5602009952722367"><ele>66.0</ele><time>2026-04-17T14:39:32Z</time></trkpt><trkpt lat="49.161875861713106" lon="2.5601342981994564"><ele>66.0</ele><time>2026-04-17T14:39:33.999Z</time></trkpt><trkpt lat="49.16178452927711" lon="2.5600660623914013"><ele>66.0</ele><time>2026-04-17T14:39:35.999Z</time></trkpt><trkpt lat="49.16169709158264" lon="2.5600051030432365"><ele>66.0</ele><time>2026-04-17T14:39:37.999Z</time></trkpt><trkpt lat="49.16160915309895" lon="2.5599495891271187"><ele>66.0</ele><time>2026-04-17T14:39:39.999Z</time></trkpt><trkpt lat="49.16152378740795" lon="2.559892306770065"><ele>65.8</ele><time>2026-04-17T14:39:41.999Z</time></trkpt><trkpt lat="49.1614403231059" lon="2.5598301856561454"><ele>65.6</ele><time>2026-04-17T14:39:43.999Z</time></trkpt><trkpt lat="49.16136220940058" lon="2.5597627633235067"><ele>65.4</ele><time>2026-04-17T14:39:45.999Z</time></trkpt><trkpt lat="49.16127127201514" lon="2.559706548272063"><ele>65.2</ele><time>2026-04-17T14:39:47.999Z</time></trkpt><trkpt lat="49.16118670522711" lon="2.5596520045651814"><ele>65.0</ele><time>2026-04-17T14:39:49.999Z</time></trkpt><trkpt lat="49.16110011121579" lon="2.559589773951808"><ele>65.5</ele><time>2026-04-17T14:39:51.999Z</time></trkpt><trkpt lat="49.16101285231703" lon="2.5595266187685666"><ele>66.0</ele><time>2026-04-17T14:39:53.999Z</time></trkpt><trkpt lat="49.16093353219908" lon="2.5594693180441155"><ele>66.5</ele><time>2026-04-17T14:39:55.999Z</time></trkpt><trkpt lat="49.16085236682913" lon="2.5594154695720754"><ele>67.0</ele><time>2026-04-17T14:39:57.999Z</time></trkpt><trkpt lat="49.16077289748697" lon="2.559364943414735"><ele>67.5</ele><time>2026-04-17T14:39:59.999Z</time></trkpt><trkpt lat="49.16070133884794" lon="2.559300267560188"><ele>68.0</ele><time>2026-04-17T14:40:01.999Z</time></trkpt><trkpt lat="49.16062378567586" lon="2.5592521146396603"><ele>68.33333333333334</ele><time>2026-04-17T14:40:03.999Z</time></trkpt><trkpt lat="49.16054990373364" lon="2.559196394134098"><ele>68.66666666666667</ele><time>2026-04-17T14:40:05.998Z</time></trkpt><trkpt lat="49.16047163802825" lon="2.5591373202231984"><ele>69.0</ele><time>2026-04-17T14:40:07.998Z</time></trkpt><trkpt lat="49.16040247460543" lon="2.5590672555247056"><ele>69.33333333333333</ele><time>2026-04-17T14:40:09.998Z</time></trkpt><trkpt lat="49.16033712050657" lon="2.5590107793692334"><ele>69.66666666666666</ele><time>2026-04-17T14:40:11.998Z</time></trkpt><trkpt lat="49.16025420684674" lon="2.5589673862669127"><ele>70.0</ele><time>2026-04-17T14:40:13.998Z</time></trkpt><trkpt lat="49.160181961974104" lon="2.5589230633581557"><ele>70.0</ele><time>2026-04-17T14:40:15.998Z</time></trkpt><trkpt lat="49.160118036803716" lon="2.5588594008375773"><ele>70.0</ele><time>2026-04-17T14:40:17.998Z</time></trkpt><trkpt lat="49.16006563188346" lon="2.558762427829922"><ele>70.0</ele><time>2026-04-17T14:40:19.998Z</time></trkpt><trkpt lat="49.16003623729573" lon="2.5586344735529507"><ele>70.0</ele><time>2026-04-17T14:40:21.998Z</time></trkpt><trkpt lat="49.16001856080794" lon="2.5585139228358846"><ele>70.0</ele><time>2026-04-17T14:40:23.998Z</time></trkpt><trkpt lat="49.159979210661945" lon="2.5583851090905436"><ele>70.0</ele><time>2026-04-17T14:40:26.998Z</time></trkpt><trkpt lat="49.15994358222678" lon="2.558278251965449"><ele>70.2</ele><time>2026-04-17T14:40:28.998Z</time></trkpt><trkpt lat="49.15988167579793" lon="2.5581455488472757"><ele>70.4</ele><time>2026-04-17T14:40:30.998Z</time></trkpt><trkpt lat="49.1598478507813" lon="2.558043751705928"><ele>70.6</ele><time>2026-04-17T14:40:32.998Z</time></trkpt><trkpt lat="49.159811851832366" lon="2.5579000877142417"><ele>70.8</ele><time>2026-04-17T14:40:34.998Z</time></trkpt><trkpt lat="49.159771480559996" lon="2.557756771263752"><ele>71.0</ele><time>2026-04-17T14:40:36.998Z</time></trkpt><trkpt lat="49.15975989874873" lon="2.5576245429313755"><ele>71.0</ele><time>2026-04-17T14:40:38.998Z</time></trkpt><trkpt lat="49.15974547843235" lon="2.557488909513377"><ele>71.0</ele><time>2026-04-17T14:40:40.997Z</time></trkpt><trkpt lat="49.15972518952159" lon="2.5573740786385986"><ele>71.0</ele><time>2026-04-17T14:40:42.997Z</time></trkpt><trkpt lat="49.15970810028361" lon="2.5572667217414495"><ele>71.0</ele><time>2026-04-17T14:40:44.997Z</time></trkpt><trkpt lat="49.1596860196383" lon="2.557139224044385"><ele>71.0</ele><time>2026-04-17T14:40:46.997Z</time></trkpt><trkpt lat="49.15966190124913" lon="2.5570406972205126"><ele>71.0</ele><time>2026-04-17T14:40:48.997Z</time></trkpt><trkpt lat="49.15961964016132" lon="2.556923385166727"><ele>70.66666666666667</ele><time>2026-04-17T14:40:50.997Z</time></trkpt><trkpt lat="49.15958778701996" lon="2.5568199280689736"><ele>70.33333333333334</ele><time>2026-04-17T14:40:52.997Z</time></trkpt><trkpt lat="49.159575898089855" lon="2.556722356705291"><ele>70.0</ele><time>2026-04-17T14:40:55.001Z</time></trkpt><trkpt lat="49.159557585949024" lon="2.5566089881115035"><ele>69.66666666666667</ele><time>2026-04-17T14:40:57.001Z</time></trkpt><trkpt lat="49.15954022942357" lon="2.5564949528738565"><ele>69.33333333333333</ele><time>2026-04-17T14:40:59.001Z</time></trkpt><trkpt lat="49.15953491605848" lon="2.556374918996576"><ele>69.0</ele><time>2026-04-17T14:41:01.001Z</time></trkpt><trkpt lat="49.15953588322935" lon="2.5562465937569017"><ele>69.0</ele><time>2026-04-17T14:41:03.001Z</time></trkpt><trkpt lat="49.1595272325632" lon="2.556139437649554"><ele>69.0</ele><time>2026-04-17T14:41:05.001Z</time></trkpt><trkpt lat="49.15951349365006" lon="2.556023565752185"><ele>69.0</ele><time>2026-04-17T14:41:07.001Z</time></trkpt><trkpt lat="49.15951207762108" lon="2.555916976067168"><ele>69.0</ele><time>2026-04-17T14:41:09Z</time></trkpt><trkpt lat="49.15949806399796" lon="2.5557944432969912"><ele>69.0</ele><time>2026-04-17T14:41:11Z</time></trkpt><trkpt lat="49.15946564356037" lon="2.5556872147699017"><ele>69.0</ele><time>2026-04-17T14:41:13Z</time></trkpt><trkpt lat="49.15943175097561" lon="2.5555675517549212"><ele>69.0</ele><time>2026-04-17T14:41:16Z</time></trkpt><trkpt lat="49.15938631310351" lon="2.555443068458916"><ele>69.0</ele><time>2026-04-17T14:41:18Z</time></trkpt><trkpt lat="49.159346979629234" lon="2.555311202365992"><ele>69.0</ele><time>2026-04-17T14:41:20Z</time></trkpt><trkpt lat="49.15931527062012" lon="2.555209997473451"><ele>69.0</ele><time>2026-04-17T14:41:22Z</time></trkpt><trkpt lat="49.15928649049138" lon="2.555061435072868"><ele>69.0</ele><time>2026-04-17T14:41:24Z</time></trkpt><trkpt lat="49.159256247882944" lon="2.5549548251050402"><ele>69.0</ele><time>2026-04-17T14:41:26Z</time></trkpt><trkpt lat="49.159223539140655" lon="2.554833722013939"><ele>69.14285714285714</ele><time>2026-04-17T14:41:28Z</time></trkpt><trkpt lat="49.15914850309503" lon="2.5547589166597575"><ele>69.28571428571429</ele><time>2026-04-17T14:41:30Z</time></trkpt><trkpt lat="49.15911853291533" lon="2.5546626934665797"><ele>69.42857142857143</ele><time>2026-04-17T14:41:39.999Z</time></trkpt><trkpt lat="49.15907189681092" lon="2.5545936804589453"><ele>69.57142857142857</ele><time>2026-04-17T14:41:42.999Z</time></trkpt><trkpt lat="49.15901152538467" lon="2.554506666940366"><ele>69.71428571428572</ele><time>2026-04-17T14:41:46.999Z</time></trkpt><trkpt lat="49.15897051851347" lon="2.5544282633608337"><ele>69.85714285714286</ele><time>2026-04-17T14:41:50.999Z</time></trkpt><trkpt lat="49.15892454074267" lon="2.5543503954956086"><ele>70.0</ele><time>2026-04-17T14:52:11.999Z</time></trkpt><trkpt lat="49.158985112838145" lon="2.554312936564553"><ele>69.5</ele><time>2026-04-17T14:52:34.998Z</time></trkpt><trkpt lat="49.158907766468026" lon="2.5543345963426836"><ele>69.0</ele><time>2026-04-17T14:52:42.998Z</time></trkpt><trkpt lat="49.15883853314467" lon="2.554267721180084"><ele>68.5</ele><time>2026-04-17T14:53:48Z</time></trkpt><trkpt lat="49.158792678789055" lon="2.5541858906504036"><ele>68.0</ele><time>2026-04-17T14:53:52Z</time></trkpt><trkpt lat="49.15874766186743" lon="2.5540850781567297"><ele>67.5</ele><time>2026-04-17T14:53:56Z</time></trkpt><trkpt lat="49.158696899834766" lon="2.554002492359469"><ele>67.0</ele><time>2026-04-17T14:53:59Z</time></trkpt><trkpt lat="49.15864600498943" lon="2.5539077093036613"><ele>67.0</ele><time>2026-04-17T14:54:02.999Z</time></trkpt><trkpt lat="49.15858911027007" lon="2.5538428079819115"><ele>67.0</ele><time>2026-04-17T14:54:05.999Z</time></trkpt><trkpt lat="49.15855267984849" lon="2.553721536580337"><ele>67.0</ele><time>2026-04-17T14:54:09.999Z</time></trkpt><trkpt lat="49.15851223661966" lon="2.553635663249608"><ele>67.0</ele><time>2026-04-17T14:54:12.999Z</time></trkpt><trkpt lat="49.158458185387296" lon="2.5535584516007646"><ele>67.0</ele><time>2026-04-17T14:54:15.999Z</time></trkpt><trkpt lat="49.158421148134025" lon="2.5534611608769935"><ele>67.0</ele><time>2026-04-17T14:54:19.999Z</time></trkpt><trkpt lat="49.15838168907619" lon="2.553377148024566"><ele>67.0</ele><time>2026-04-17T14:54:22.999Z</time></trkpt><trkpt lat="49.15834820921347" lon="2.553269498741563"><ele>67.16666666666666</ele><time>2026-04-17T14:54:25.999Z</time></trkpt><trkpt lat="49.15830940426693" lon="2.553142605723421"><ele>67.33333333333333</ele><time>2026-04-17T14:54:28.999Z</time></trkpt><trkpt lat="49.15827126972877" lon="2.5530266333668927"><ele>67.5</ele><time>2026-04-17T14:54:31.999Z</time></trkpt><trkpt lat="49.15822934317795" lon="2.552923757746072"><ele>67.66666666666667</ele><time>2026-04-17T14:54:34.998Z</time></trkpt><trkpt lat="49.15819637460443" lon="2.5528405485595367"><ele>67.83333333333334</ele><time>2026-04-17T14:54:37.998Z</time></trkpt><trkpt lat="49.15815486046296" lon="2.5527555277468816"><ele>68.0</ele><time>2026-04-17T14:54:40.998Z</time></trkpt><trkpt lat="49.15810014050019" lon="2.552664554214956"><ele>67.33333333333334</ele><time>2026-04-17T14:54:43.998Z</time></trkpt><trkpt lat="49.15802340837238" lon="2.5525967174251"><ele>66.66666666666667</ele><time>2026-04-17T14:54:46.998Z</time></trkpt><trkpt lat="49.157965315416064" lon="2.5525474352741844"><ele>66.0</ele><time>2026-04-17T14:54:48.998Z</time></trkpt><trkpt lat="49.15789794151093" lon="2.5524927065624516"><ele>65.33333333333333</ele><time>2026-04-17T14:54:50.998Z</time></trkpt><trkpt lat="49.15784369149229" lon="2.552434304307595"><ele>64.66666666666666</ele><time>2026-04-17T14:54:52.998Z</time></trkpt><trkpt lat="49.15777878782311" lon="2.552369186230982"><ele>64.0</ele><time>2026-04-17T14:54:54.998Z</time></trkpt><trkpt lat="49.15770091702222" lon="2.5522922361133036"><ele>63.99999999999999</ele><time>2026-04-17T14:54:57.998Z</time></trkpt><trkpt lat="49.1576195615416" lon="2.552209523734915"><ele>64.0</ele><time>2026-04-17T14:54:59.998Z</time></trkpt><trkpt lat="49.157568031151534" lon="2.552143998042001"><ele>64.0</ele><time>2026-04-17T14:55:01.998Z</time></trkpt><trkpt lat="49.15749940902923" lon="2.552074410518594"><ele>64.0</ele><time>2026-04-17T14:55:03.998Z</time></trkpt><trkpt lat="49.1574321971053" lon="2.552013130297787"><ele>63.99999999999999</ele><time>2026-04-17T14:55:05.998Z</time></trkpt><trkpt lat="49.157361084595195" lon="2.551962025866585"><ele>64.0</ele><time>2026-04-17T14:55:07.997Z</time></trkpt><trkpt lat="49.15726787346996" lon="2.551911765787017"><ele>62.83333333333333</ele><time>2026-04-17T14:55:09.997Z</time></trkpt><trkpt lat="49.15719009376789" lon="2.5518372399261966"><ele>61.666666666666664</ele><time>2026-04-17T14:55:11.997Z</time></trkpt><trkpt lat="49.15715025347666" lon="2.551761390478165"><ele>60.5</ele><time>2026-04-17T14:55:13.997Z</time></trkpt><trkpt lat="49.15718194996365" lon="2.5516474906289486"><ele>59.33333333333333</ele><time>2026-04-17T14:55:16.997Z</time></trkpt><trkpt lat="49.15718375395496" lon="2.551548516805317"><ele>58.166666666666664</ele><time>2026-04-17T14:55:18.997Z</time></trkpt><trkpt lat="49.15713340387868" lon="2.5514555267164942"><ele>57.0</ele><time>2026-04-17T14:55:20.997Z</time></trkpt><trkpt lat="49.15708303663586" lon="2.5513810901015623"><ele>57.0</ele><time>2026-04-17T14:55:22.997Z</time></trkpt><trkpt lat="49.157031655419544" lon="2.551289748188225"><ele>57.0</ele><time>2026-04-17T14:55:24.997Z</time></trkpt><trkpt lat="49.15693931524196" lon="2.5512461786567804"><ele>57.0</ele><time>2026-04-17T14:55:26.997Z</time></trkpt><trkpt lat="49.156838134426295" lon="2.551209372338497"><ele>57.0</ele><time>2026-04-17T14:55:28.997Z</time></trkpt><trkpt lat="49.15673440622407" lon="2.5511705405213543"><ele>57.0</ele><time>2026-04-17T14:55:30.997Z</time></trkpt><trkpt lat="49.15662888802114" lon="2.5511260992459155"><ele>56.6</ele><time>2026-04-17T14:55:33Z</time></trkpt><trkpt lat="49.15657154060542" lon="2.5510848256867495"><ele>56.2</ele><time>2026-04-17T14:55:34Z</time></trkpt><trkpt lat="49.156506102224206" lon="2.550947499561908"><ele>55.8</ele><time>2026-04-17T14:55:36Z</time></trkpt><trkpt lat="49.156515815173535" lon="2.550757232259572"><ele>55.4</ele><time>2026-04-17T14:55:38Z</time></trkpt><trkpt lat="49.1564865438643" lon="2.5505920229605072"><ele>55.0</ele><time>2026-04-17T14:55:40Z</time></trkpt><trkpt lat="49.156453836336276" lon="2.550423497699062"><ele>55.75</ele><time>2026-04-17T14:55:42Z</time></trkpt><trkpt lat="49.15642177234086" lon="2.5502531534293986"><ele>56.5</ele><time>2026-04-17T14:55:44Z</time></trkpt><trkpt lat="49.156391956165464" lon="2.550084868049729"><ele>57.25</ele><time>2026-04-17T14:55:46Z</time></trkpt><trkpt lat="49.156364627393664" lon="2.5499110507165708"><ele>58.0</ele><time>2026-04-17T14:55:48Z</time></trkpt><trkpt lat="49.156336261006466" lon="2.549738039830038"><ele>58.0</ele><time>2026-04-17T14:55:50Z</time></trkpt><trkpt lat="49.15630675081608" lon="2.549568847771556"><ele>58.0</ele><time>2026-04-17T14:55:52Z</time></trkpt><trkpt lat="49.15626050278563" lon="2.549395965918247"><ele>58.0</ele><time>2026-04-17T14:55:54Z</time></trkpt><trkpt lat="49.15622889332779" lon="2.5492268849856226"><ele>58.0</ele><time>2026-04-17T14:55:56Z</time></trkpt><trkpt lat="49.156213865736554" lon="2.5490591722286493"><ele>57.8</ele><time>2026-04-17T14:55:58Z</time></trkpt><trkpt lat="49.15618495722063" lon="2.5489054709552783"><ele>57.599999999999994</ele><time>2026-04-17T14:56:00Z</time></trkpt><trkpt lat="49.15614447297445" lon="2.548760844205446"><ele>57.400000000000006</ele><time>2026-04-17T14:56:02Z</time></trkpt><trkpt lat="49.15612679283442" lon="2.5486031616565517"><ele>57.2</ele><time>2026-04-17T14:56:04Z</time></trkpt><trkpt lat="49.15608143445396" lon="2.548465189359548"><ele>57.0</ele><time>2026-04-17T14:56:06Z</time></trkpt><trkpt lat="49.156056381647616" lon="2.548316627374486"><ele>56.6</ele><time>2026-04-17T14:56:07.999Z</time></trkpt><trkpt lat="49.15600866655148" lon="2.54815829085532"><ele>56.2</ele><time>2026-04-17T14:56:09.999Z</time></trkpt><trkpt lat="49.15595361581709" lon="2.5480198540296715"><ele>55.8</ele><time>2026-04-17T14:56:11.999Z</time></trkpt><trkpt lat="49.15589929292959" lon="2.5478985317952993"><ele>55.4</ele><time>2026-04-17T14:56:13.999Z</time></trkpt><trkpt lat="49.15583460531297" lon="2.547781118586031"><ele>55.0</ele><time>2026-04-17T14:56:15.999Z</time></trkpt><trkpt lat="49.15575805817965" lon="2.5477019281826703"><ele>54.666666666666664</ele><time>2026-04-17T14:56:17.999Z</time></trkpt><trkpt lat="49.15568356871366" lon="2.5476442365472645"><ele>54.33333333333333</ele><time>2026-04-17T14:56:19.999Z</time></trkpt><trkpt lat="49.15565011698575" lon="2.5475094721354967"><ele>54.0</ele><time>2026-04-17T14:56:21.999Z</time></trkpt><trkpt lat="49.15559666359381" lon="2.547404107732836"><ele>53.66666666666667</ele><time>2026-04-17T14:56:23.999Z</time></trkpt><trkpt lat="49.15555885779244" lon="2.5473022200129516"><ele>53.333333333333336</ele><time>2026-04-17T14:56:25.999Z</time></trkpt><trkpt lat="49.15551913021223" lon="2.547194833446271"><ele>53.0</ele><time>2026-04-17T14:56:27.999Z</time></trkpt><trkpt lat="49.155471054151754" lon="2.547100731385306"><ele>53.285714285714285</ele><time>2026-04-17T14:56:29.999Z</time></trkpt><trkpt lat="49.15544342309176" lon="2.5470022386203843"><ele>53.57142857142857</ele><time>2026-04-17T14:56:31.999Z</time></trkpt><trkpt lat="49.15541552872985" lon="2.546893868735599"><ele>53.857142857142854</ele><time>2026-04-17T14:56:33.999Z</time></trkpt><trkpt lat="49.155384045521835" lon="2.546790507291083"><ele>54.14285714285714</ele><time>2026-04-17T14:56:35.999Z</time></trkpt><trkpt lat="49.1553712357765" lon="2.5466723157386855"><ele>54.42857142857143</ele><time>2026-04-17T14:56:37.999Z</time></trkpt><trkpt lat="49.155346015550975" lon="2.5465739246112733"><ele>54.71428571428571</ele><time>2026-04-17T14:56:39.998Z</time></trkpt><trkpt lat="49.15531827574705" lon="2.5464662177359036"><ele>55.0</ele><time>2026-04-17T14:56:41.998Z</time></trkpt><trkpt lat="49.15530163029806" lon="2.546356137547302"><ele>54.99999999999999</ele><time>2026-04-17T14:56:43.998Z</time></trkpt><trkpt lat="49.15528382617615" lon="2.5462320988479767"><ele>55.0</ele><time>2026-04-17T14:56:45.998Z</time></trkpt><trkpt lat="49.1552673605187" lon="2.546117385078302"><ele>55.0</ele><time>2026-04-17T14:56:47.998Z</time></trkpt><trkpt lat="49.15525766374306" lon="2.545968952624723"><ele>55.0</ele><time>2026-04-17T14:56:50.998Z</time></trkpt><trkpt lat="49.15525256712712" lon="2.5458502350182552"><ele>54.99999999999999</ele><time>2026-04-17T14:56:52.998Z</time></trkpt><trkpt lat="49.15524797473416" lon="2.545743262475962"><ele>55.0</ele><time>2026-04-17T14:56:54.998Z</time></trkpt><trkpt lat="49.1552325379063" lon="2.545624627938212"><ele>55.49999999999999</ele><time>2026-04-17T14:56:56.998Z</time></trkpt><trkpt lat="49.155240169730824" lon="2.545508265266889"><ele>56.0</ele><time>2026-04-17T14:56:58.998Z</time></trkpt><trkpt lat="49.155229597188765" lon="2.545384861988225"><ele>56.5</ele><time>2026-04-17T14:57:01.998Z</time></trkpt><trkpt lat="49.15521923530033" lon="2.5452570746022203"><ele>57.0</ele><time>2026-04-17T14:57:03.998Z</time></trkpt><trkpt lat="49.15523015081493" lon="2.5451381782955145"><ele>57.49999999999999</ele><time>2026-04-17T14:57:05.998Z</time></trkpt><trkpt lat="49.15522879370548" lon="2.545031028455177"><ele>58.0</ele><time>2026-04-17T14:57:07.998Z</time></trkpt><trkpt lat="49.155211079158484" lon="2.5449184609449436"><ele>58.166666666666664</ele><time>2026-04-17T14:57:09.998Z</time></trkpt><trkpt lat="49.15522599177647" lon="2.544809803272392"><ele>58.33333333333333</ele><time>2026-04-17T14:57:11.998Z</time></trkpt><trkpt lat="49.155224402538906" lon="2.5446843258026557"><ele>58.5</ele><time>2026-04-17T14:57:13.997Z</time></trkpt><trkpt lat="49.155222944617876" lon="2.544569216238154"><ele>58.66666666666667</ele><time>2026-04-17T14:57:15.997Z</time></trkpt><trkpt lat="49.155224186398854" lon="2.544453275040178"><ele>58.833333333333336</ele><time>2026-04-17T14:57:17.997Z</time></trkpt><trkpt lat="49.155227460267945" lon="2.5443320857372402"><ele>59.0</ele><time>2026-04-17T14:57:19.997Z</time></trkpt><trkpt lat="49.15522035460776" lon="2.544215051820135"><ele>58.833333333333336</ele><time>2026-04-17T14:57:21.997Z</time></trkpt><trkpt lat="49.15522521737441" lon="2.5440846787086087"><ele>58.66666666666667</ele><time>2026-04-17T14:57:23.997Z</time></trkpt><trkpt lat="49.15522547062111" lon="2.5439639342316225"><ele>58.5</ele><time>2026-04-17T14:57:25.997Z</time></trkpt><trkpt lat="49.15522614734667" lon="2.5438395250015726"><ele>58.33333333333333</ele><time>2026-04-17T14:57:27.997Z</time></trkpt><trkpt lat="49.15522911306273" lon="2.543705136368013"><ele>58.166666666666664</ele><time>2026-04-17T14:57:29.997Z</time></trkpt><trkpt lat="49.15521899805268" lon="2.5435874988941594"><ele>58.0</ele><time>2026-04-17T14:57:31.997Z</time></trkpt><trkpt lat="49.155200804813994" lon="2.5434413377787775"><ele>57.99999999999999</ele><time>2026-04-17T14:57:33.997Z</time></trkpt><trkpt lat="49.155183777667986" lon="2.5433091789369935"><ele>58.0</ele><time>2026-04-17T14:57:35.997Z</time></trkpt><trkpt lat="49.15518197165362" lon="2.5431758147404593"><ele>58.0</ele><time>2026-04-17T14:57:37.997Z</time></trkpt><trkpt lat="49.15515130797142" lon="2.543037429584089"><ele>58.0</ele><time>2026-04-17T14:57:40Z</time></trkpt><trkpt lat="49.155137986969464" lon="2.542902737732882"><ele>57.99999999999999</ele><time>2026-04-17T14:57:42Z</time></trkpt><trkpt lat="49.15512684858782" lon="2.542779859061847"><ele>58.0</ele><time>2026-04-17T14:57:44Z</time></trkpt><trkpt lat="49.155115537202704" lon="2.5426171714365844"><ele>58.166666666666664</ele><time>2026-04-17T14:57:46Z</time></trkpt><trkpt lat="49.15510331819173" lon="2.542475527364176"><ele>58.33333333333333</ele><time>2026-04-17T14:57:48Z</time></trkpt><trkpt lat="49.15508849699217" lon="2.542347353360482"><ele>58.5</ele><time>2026-04-17T14:57:50Z</time></trkpt><trkpt lat="49.15507106026566" lon="2.54221280935278"><ele>58.66666666666667</ele><time>2026-04-17T14:57:52Z</time></trkpt><trkpt lat="49.15507477515263" lon="2.5420899418406298"><ele>58.833333333333336</ele><time>2026-04-17T14:57:54Z</time></trkpt><trkpt lat="49.155070561153465" lon="2.541964307866191"><ele>59.0</ele><time>2026-04-17T14:57:56Z</time></trkpt><trkpt lat="49.155064959020535" lon="2.5418219534271227"><ele>59.0</ele><time>2026-04-17T14:57:58Z</time></trkpt><trkpt lat="49.15505945201102" lon="2.5416909373027186"><ele>59.00000000000001</ele><time>2026-04-17T14:58:00Z</time></trkpt><trkpt lat="49.155083695077685" lon="2.5415904228668733"><ele>59.00000000000001</ele><time>2026-04-17T14:58:02Z</time></trkpt><trkpt lat="49.15505904476328" lon="2.5414138505788326"><ele>59.0</ele><time>2026-04-17T14:58:04Z</time></trkpt><trkpt lat="49.15506322962543" lon="2.5412684253814573"><ele>59.0</ele><time>2026-04-17T14:58:05.999Z</time></trkpt><trkpt lat="49.15507322021275" lon="2.5411167542990096"><ele>59.0</ele><time>2026-04-17T14:58:07.999Z</time></trkpt><trkpt lat="49.15506641763231" lon="2.5409643182127057"><ele>59.00000000000001</ele><time>2026-04-17T14:58:09.999Z</time></trkpt><trkpt lat="49.15506862047684" lon="2.5408199074149316"><ele>59.00000000000001</ele><time>2026-04-17T14:58:11.999Z</time></trkpt><trkpt lat="49.15507419928396" lon="2.54068905280946"><ele>59.0</ele><time>2026-04-17T14:58:13.999Z</time></trkpt><trkpt lat="49.15509547649983" lon="2.54055450397897"><ele>59.0</ele><time>2026-04-17T14:58:15.999Z</time></trkpt><trkpt lat="49.155093888902144" lon="2.54042617804766"><ele>58.66666666666667</ele><time>2026-04-17T14:58:17.999Z</time></trkpt><trkpt lat="49.155098924468895" lon="2.5403006662731333"><ele>58.333333333333336</ele><time>2026-04-17T14:58:19.999Z</time></trkpt><trkpt lat="49.155112240266234" lon="2.540173597089218"><ele>58.0</ele><time>2026-04-17T14:58:21.999Z</time></trkpt><trkpt lat="49.15512263847806" lon="2.5400449169885686"><ele>57.66666666666667</ele><time>2026-04-17T14:58:23.999Z</time></trkpt><trkpt lat="49.15513080083123" lon="2.5399247349559846"><ele>57.333333333333336</ele><time>2026-04-17T14:58:25.999Z</time></trkpt><trkpt lat="49.15515002620052" lon="2.5398099763814477"><ele>57.0</ele><time>2026-04-17T14:58:27.999Z</time></trkpt><trkpt lat="49.15514255729321" lon="2.539703163741087"><ele>57.0</ele><time>2026-04-17T14:58:29.999Z</time></trkpt><trkpt lat="49.15515017053951" lon="2.539540297090118"><ele>57.0</ele><time>2026-04-17T14:58:32.999Z</time></trkpt><trkpt lat="49.155168668191656" lon="2.539436622965491"><ele>57.0</ele><time>2026-04-17T14:58:34.999Z</time></trkpt><trkpt lat="49.15515545509637" lon="2.5392986493803447"><ele>57.0</ele><time>2026-04-17T14:58:37.999Z</time></trkpt><trkpt lat="49.15515838459369" lon="2.5391640173435164"><ele>57.0</ele><time>2026-04-17T14:58:39.999Z</time></trkpt><trkpt lat="49.15516955237849" lon="2.5390115574760035"><ele>57.0</ele><time>2026-04-17T14:58:42.998Z</time></trkpt><trkpt lat="49.155173883521115" lon="2.5388861163595764"><ele>57.0</ele><time>2026-04-17T14:58:44.998Z</time></trkpt><trkpt lat="49.1551591378796" lon="2.5387756772532355"><ele>57.0</ele><time>2026-04-17T14:58:46.998Z</time></trkpt><trkpt lat="49.1551450964156" lon="2.5386127722968324"><ele>57.0</ele><time>2026-04-17T14:58:49.998Z</time></trkpt><trkpt lat="49.155160955164504" lon="2.538505801583652"><ele>57.0</ele><time>2026-04-17T14:58:51.998Z</time></trkpt><trkpt lat="49.15514831786382" lon="2.5383819144290776"><ele>57.0</ele><time>2026-04-17T14:58:53.998Z</time></trkpt><trkpt lat="49.155161579863076" lon="2.538260922997512"><ele>57.666666666666664</ele><time>2026-04-17T14:58:55.998Z</time></trkpt><trkpt lat="49.155162170585804" lon="2.538133130483796"><ele>58.33333333333333</ele><time>2026-04-17T14:58:57.998Z</time></trkpt><trkpt lat="49.15516390410112" lon="2.5380004982525626"><ele>59.0</ele><time>2026-04-17T14:58:59.998Z</time></trkpt><trkpt lat="49.15516664955301" lon="2.5378616568211267"><ele>59.666666666666664</ele><time>2026-04-17T14:59:01.998Z</time></trkpt><trkpt lat="49.15517110975696" lon="2.5377360015495882"><ele>60.33333333333333</ele><time>2026-04-17T14:59:03.998Z</time></trkpt><trkpt lat="49.15517969686069" lon="2.5375935613507696"><ele>61.0</ele><time>2026-04-17T14:59:05.998Z</time></trkpt><trkpt lat="49.15517630351857" lon="2.5374609090144062"><ele>61.49999999999999</ele><time>2026-04-17T14:59:07.998Z</time></trkpt><trkpt lat="49.15520285717056" lon="2.5373377919267264"><ele>62.0</ele><time>2026-04-17T14:59:09.998Z</time></trkpt><trkpt lat="49.15524183282363" lon="2.5372303329495605"><ele>62.5</ele><time>2026-04-17T14:59:11.998Z</time></trkpt><trkpt lat="49.15527920519605" lon="2.53714230474798"><ele>63.0</ele><time>2026-04-17T14:59:13.998Z</time></trkpt><trkpt lat="49.155319163956065" lon="2.537055194959668"><ele>63.49999999999999</ele><time>2026-04-17T14:59:15.997Z</time></trkpt><trkpt lat="49.155376852317126" lon="2.5369610644938736"><ele>64.0</ele><time>2026-04-17T14:59:18.997Z</time></trkpt><trkpt lat="49.155416026802236" lon="2.5368377568931626"><ele>64.16666666666666</ele><time>2026-04-17T14:59:21.997Z</time></trkpt><trkpt lat="49.15544630963033" lon="2.5367216210910604"><ele>64.33333333333333</ele><time>2026-04-17T14:59:24.997Z</time></trkpt><trkpt lat="49.155477136844645" lon="2.536593003399803"><ele>64.5</ele><time>2026-04-17T14:59:27.997Z</time></trkpt><trkpt lat="49.155507226412304" lon="2.536466705919141"><ele>64.66666666666667</ele><time>2026-04-17T14:59:30.997Z</time></trkpt><trkpt lat="49.15553609430272" lon="2.536336326760726"><ele>64.83333333333334</ele><time>2026-04-17T14:59:33.997Z</time></trkpt><trkpt lat="49.15555647691925" lon="2.536244270546659"><ele>65.0</ele><time>2026-04-17T14:59:35.997Z</time></trkpt><trkpt lat="49.15557931528926" lon="2.5361380263633557"><ele>65.14285714285715</ele><time>2026-04-17T14:59:37.997Z</time></trkpt><trkpt lat="49.15560062565784" lon="2.536037326589926"><ele>65.28571428571429</ele><time>2026-04-17T14:59:39.997Z</time></trkpt><trkpt lat="49.15562452050278" lon="2.5359238020843846"><ele>65.42857142857143</ele><time>2026-04-17T14:59:42.997Z</time></trkpt><trkpt lat="49.155642130832284" lon="2.535817657343858"><ele>65.57142857142858</ele><time>2026-04-17T14:59:46Z</time></trkpt><trkpt lat="49.15565258032774" lon="2.535719215744823"><ele>65.71428571428572</ele><time>2026-04-17T14:59:47Z</time></trkpt><trkpt lat="49.15568605570025" lon="2.535609948109149"><ele>65.85714285714286</ele><time>2026-04-17T14:59:49Z</time></trkpt><trkpt lat="49.15569290406364" lon="2.5354918994987394"><ele>66.0</ele><time>2026-04-17T14:59:51Z</time></trkpt><trkpt lat="49.155725536030204" lon="2.5353528969263115"><ele>66.0</ele><time>2026-04-17T14:59:54Z</time></trkpt><trkpt lat="49.15575573722161" lon="2.535232290090975"><ele>66.0</ele><time>2026-04-17T14:59:57Z</time></trkpt><trkpt lat="49.15577103989612" lon="2.5351324394254764"><ele>66.0</ele><time>2026-04-17T14:59:59Z</time></trkpt><trkpt lat="49.155776455253545" lon="2.535036412491127"><ele>66.0</ele><time>2026-04-17T15:00:01Z</time></trkpt><trkpt lat="49.15578152451155" lon="2.534935743756454"><ele>66.0</ele><time>2026-04-17T15:00:03Z</time></trkpt><trkpt lat="49.15580409663538" lon="2.5348439364179955"><ele>66.0</ele><time>2026-04-17T15:00:05Z</time></trkpt><trkpt lat="49.15581384167515" lon="2.534728207484474"><ele>66.0</ele><time>2026-04-17T15:00:07Z</time></trkpt><trkpt lat="49.15582093943491" lon="2.534625152352803"><ele>65.83333333333333</ele><time>2026-04-17T15:00:09Z</time></trkpt><trkpt lat="49.155824373061115" lon="2.534518514088012"><ele>65.66666666666667</ele><time>2026-04-17T15:00:11Z</time></trkpt><trkpt lat="49.15582753186184" lon="2.5343879590412537"><ele>65.5</ele><time>2026-04-17T15:00:13Z</time></trkpt><trkpt lat="49.15582913199436" lon="2.534266214087198"><ele>65.33333333333334</ele><time>2026-04-17T15:00:15Z</time></trkpt><trkpt lat="49.15582981806373" lon="2.53410906697619"><ele>65.16666666666667</ele><time>2026-04-17T15:00:17.999Z</time></trkpt><trkpt lat="49.15582861703617" lon="2.5340052446472976"><ele>65.0</ele><time>2026-04-17T15:00:19.999Z</time></trkpt><trkpt lat="49.1558256583803" lon="2.53388178118288"><ele>65.0</ele><time>2026-04-17T15:00:21.999Z</time></trkpt><trkpt lat="49.15580943466734" lon="2.5337553215282744"><ele>65.0</ele><time>2026-04-17T15:00:23.999Z</time></trkpt><trkpt lat="49.15581363500674" lon="2.533640865154712"><ele>65.0</ele><time>2026-04-17T15:00:25.999Z</time></trkpt><trkpt lat="49.15581828510093" lon="2.5335193976118746"><ele>65.0</ele><time>2026-04-17T15:00:27.999Z</time></trkpt><trkpt lat="49.15581302858727" lon="2.533380870721514"><ele>65.0</ele><time>2026-04-17T15:00:29.999Z</time></trkpt><trkpt lat="49.15579134865012" lon="2.533272917344505"><ele>65.0</ele><time>2026-04-17T15:00:31.999Z</time></trkpt><trkpt lat="49.15578344859594" lon="2.533132166780236"><ele>64.4</ele><time>2026-04-17T15:00:33.999Z</time></trkpt><trkpt lat="49.15574639642364" lon="2.5329907256598414"><ele>63.8</ele><time>2026-04-17T15:00:35.999Z</time></trkpt><trkpt lat="49.15573641109804" lon="2.532867405965133"><ele>63.2</ele><time>2026-04-17T15:00:37.999Z</time></trkpt><trkpt lat="49.15569833729672" lon="2.532734309285052"><ele>62.6</ele><time>2026-04-17T15:00:39.999Z</time></trkpt><trkpt lat="49.155675502539026" lon="2.5325625381943406"><ele>62.0</ele><time>2026-04-17T15:00:41.999Z</time></trkpt><trkpt lat="49.155645949017426" lon="2.5324205699704616"><ele>61.6</ele><time>2026-04-17T15:00:43.999Z</time></trkpt><trkpt lat="49.155601705015236" lon="2.5322747117819056"><ele>61.2</ele><time>2026-04-17T15:00:45.999Z</time></trkpt><trkpt lat="49.15558369946935" lon="2.532127935673931"><ele>60.8</ele><time>2026-04-17T15:00:47.999Z</time></trkpt><trkpt lat="49.15557423006647" lon="2.531983543227494"><ele>60.4</ele><time>2026-04-17T15:00:49.999Z</time></trkpt><trkpt lat="49.15554848326246" lon="2.531856791157466"><ele>60.0</ele><time>2026-04-17T15:00:51.998Z</time></trkpt><trkpt lat="49.155556307265584" lon="2.5317430320011827"><ele>59.666666666666664</ele><time>2026-04-17T15:00:53.998Z</time></trkpt><trkpt lat="49.15555465324259" lon="2.531620343421182"><ele>59.33333333333333</ele><time>2026-04-17T15:00:54.998Z</time></trkpt><trkpt lat="49.15554236547969" lon="2.531493798998809"><ele>59.0</ele><time>2026-04-17T15:00:56.998Z</time></trkpt><trkpt lat="49.155547210395994" lon="2.5313659939674475"><ele>58.666666666666664</ele><time>2026-04-17T15:00:58.998Z</time></trkpt><trkpt lat="49.15554918045884" lon="2.531223409930281"><ele>58.33333333333333</ele><time>2026-04-17T15:01:00.998Z</time></trkpt><trkpt lat="49.155549934584414" lon="2.5310724281379526"><ele>58.0</ele><time>2026-04-17T15:01:02.998Z</time></trkpt><trkpt lat="49.15556984575138" lon="2.5309386804463405"><ele>58.0</ele><time>2026-04-17T15:01:04.998Z</time></trkpt><trkpt lat="49.15556038881866" lon="2.530797390828559"><ele>58.0</ele><time>2026-04-17T15:01:06.998Z</time></trkpt><trkpt lat="49.15556363891917" lon="2.5306453494331063"><ele>58.0</ele><time>2026-04-17T15:01:08.998Z</time></trkpt><trkpt lat="49.1555584499422" lon="2.530473896275501"><ele>58.0</ele><time>2026-04-17T15:01:10.998Z</time></trkpt><trkpt lat="49.1555695451528" lon="2.530304153170279"><ele>58.0</ele><time>2026-04-17T15:01:12.998Z</time></trkpt><trkpt lat="49.15553979127036" lon="2.5301303603209773"><ele>57.8</ele><time>2026-04-17T15:01:14.998Z</time></trkpt><trkpt lat="49.1555185635745" lon="2.5299683598517393"><ele>57.599999999999994</ele><time>2026-04-17T15:01:16.998Z</time></trkpt><trkpt lat="49.15549428293915" lon="2.5298525855280314"><ele>57.400000000000006</ele><time>2026-04-17T15:01:19.998Z</time></trkpt><trkpt lat="49.155465030893936" lon="2.5297131047161843"><ele>57.2</ele><time>2026-04-17T15:01:20.998Z</time></trkpt><trkpt lat="49.155428647696404" lon="2.5295395983108464"><ele>57.0</ele><time>2026-04-17T15:01:22.998Z</time></trkpt><trkpt lat="49.15539869851292" lon="2.529396774824686"><ele>56.6</ele><time>2026-04-17T15:01:24.997Z</time></trkpt><trkpt lat="49.155371140898666" lon="2.5292653563963032"><ele>56.2</ele><time>2026-04-17T15:01:26.997Z</time></trkpt><trkpt lat="49.155339266205615" lon="2.529113803264744"><ele>55.8</ele><time>2026-04-17T15:01:28.997Z</time></trkpt><trkpt lat="49.155293354226814" lon="2.528972277347901"><ele>55.4</ele><time>2026-04-17T15:01:30.997Z</time></trkpt><trkpt lat="49.155267767513344" lon="2.5288395820878984"><ele>55.0</ele><time>2026-04-17T15:01:32.997Z</time></trkpt><trkpt lat="49.155251835541634" lon="2.528695743437854"><ele>54.2</ele><time>2026-04-17T15:01:34.997Z</time></trkpt><trkpt lat="49.155240220671615" lon="2.52851528181824"><ele>53.4</ele><time>2026-04-17T15:01:36.997Z</time></trkpt><trkpt lat="49.15522729118075" lon="2.528355134130997"><ele>52.599999999999994</ele><time>2026-04-17T15:01:38.997Z</time></trkpt><trkpt lat="49.15520135248916" lon="2.528195232907664"><ele>51.8</ele><time>2026-04-17T15:01:40.997Z</time></trkpt><trkpt lat="49.15518747800059" lon="2.528047703394532"><ele>51.0</ele><time>2026-04-17T15:01:42.997Z</time></trkpt><trkpt lat="49.155176320373464" lon="2.527910104520482"><ele>51.0</ele><time>2026-04-17T15:01:44.997Z</time></trkpt><trkpt lat="49.155171425827945" lon="2.5277607552816117"><ele>51.0</ele><time>2026-04-17T15:01:46.997Z</time></trkpt><trkpt lat="49.15515779298533" lon="2.5276438183296537"><ele>51.0</ele><time>2026-04-17T15:01:48.997Z</time></trkpt><trkpt lat="49.155159744517384" lon="2.52754023933318"><ele>51.0</ele><time>2026-04-17T15:01:51Z</time></trkpt><trkpt lat="49.15514862373549" lon="2.527424423704594"><ele>51.0</ele><time>2026-04-17T15:01:53Z</time></trkpt><trkpt lat="49.1551485247032" lon="2.527275316347063"><ele>51.0</ele><time>2026-04-17T15:01:55Z</time></trkpt><trkpt lat="49.15513917810139" lon="2.5271516078241625"><ele>51.0</ele><time>2026-04-17T15:01:57Z</time></trkpt><trkpt lat="49.15514886074277" lon="2.527006383647957"><ele>51.0</ele><time>2026-04-17T15:01:59Z</time></trkpt><trkpt lat="49.15513412600773" lon="2.526865279814925"><ele>51.0</ele><time>2026-04-17T15:02:01Z</time></trkpt><trkpt lat="49.155131099063944" lon="2.526726822231755"><ele>51.0</ele><time>2026-04-17T15:02:03Z</time></trkpt><trkpt lat="49.15513083248781" lon="2.5265841521781596"><ele>51.0</ele><time>2026-04-17T15:02:05Z</time></trkpt><trkpt lat="49.155129767311415" lon="2.5264675594868247"><ele>51.0</ele><time>2026-04-17T15:02:07Z</time></trkpt><trkpt lat="49.15512994235321" lon="2.5263403999401812"><ele>51.166666666666664</ele><time>2026-04-17T15:02:09Z</time></trkpt><trkpt lat="49.15512983572428" lon="2.5262073036475927"><ele>51.33333333333333</ele><time>2026-04-17T15:02:11Z</time></trkpt><trkpt lat="49.15512842513248" lon="2.5260774780230473"><ele>51.5</ele><time>2026-04-17T15:02:13Z</time></trkpt><trkpt lat="49.15513013576081" lon="2.525963494442818"><ele>51.666666666666664</ele><time>2026-04-17T15:02:15Z</time></trkpt><trkpt lat="49.15512313551698" lon="2.525818136823021"><ele>51.83333333333333</ele><time>2026-04-17T15:02:17Z</time></trkpt><trkpt lat="49.15512462204474" lon="2.5256894923662356"><ele>52.0</ele><time>2026-04-17T15:02:19Z</time></trkpt><trkpt lat="49.15512351654957" lon="2.525560718901533"><ele>51.99999999999999</ele><time>2026-04-17T15:02:21Z</time></trkpt><trkpt lat="49.1551251140735" lon="2.5254372898379427"><ele>52.0</ele><time>2026-04-17T15:02:23Z</time></trkpt><trkpt lat="49.15512335988529" lon="2.5253120275921166"><ele>52.0</ele><time>2026-04-17T15:02:25Z</time></trkpt><trkpt lat="49.155126142613284" lon="2.5251931051220917"><ele>52.0</ele><time>2026-04-17T15:02:26.999Z</time></trkpt><trkpt lat="49.155147096707886" lon="2.5250996960697822"><ele>51.99999999999999</ele><time>2026-04-17T15:02:28.999Z</time></trkpt><trkpt lat="49.15515547030377" lon="2.5249691070912577"><ele>52.0</ele><time>2026-04-17T15:02:31.999Z</time></trkpt><trkpt lat="49.155163401360994" lon="2.5248347972847136"><ele>52.33333333333333</ele><time>2026-04-17T15:02:33.999Z</time></trkpt><trkpt lat="49.1551690512982" lon="2.5247092821191"><ele>52.666666666666664</ele><time>2026-04-17T15:02:36.999Z</time></trkpt><trkpt lat="49.15516294171793" lon="2.5245799741527963"><ele>53.0</ele><time>2026-04-17T15:02:38.999Z</time></trkpt><trkpt lat="49.155176394753724" lon="2.524460572952594"><ele>53.33333333333333</ele><time>2026-04-17T15:02:40.999Z</time></trkpt><trkpt lat="49.15516388674392" lon="2.5243387747809187"><ele>53.666666666666664</ele><time>2026-04-17T15:02:42.999Z</time></trkpt><trkpt lat="49.15515782694151" lon="2.524228158554207"><ele>54.0</ele><time>2026-04-17T15:02:45.999Z</time></trkpt><trkpt lat="49.155150326499786" lon="2.5240781642167027"><ele>54.14285714285714</ele><time>2026-04-17T15:02:48.999Z</time></trkpt><trkpt lat="49.155145684295746" lon="2.5239820488423153"><ele>54.285714285714285</ele><time>2026-04-17T15:02:50.999Z</time></trkpt><trkpt lat="49.1551399101955" lon="2.5238624979070265"><ele>54.42857142857143</ele><time>2026-04-17T15:02:53.999Z</time></trkpt><trkpt lat="49.15512975960955" lon="2.5237372518995915"><ele>54.57142857142857</ele><time>2026-04-17T15:02:55.999Z</time></trkpt><trkpt lat="49.15512081693713" lon="2.5236334612617473"><ele>54.714285714285715</ele><time>2026-04-17T15:02:57.999Z</time></trkpt><trkpt lat="49.155112215406426" lon="2.52352934962122"><ele>54.857142857142854</ele><time>2026-04-17T15:02:59.999Z</time></trkpt><trkpt lat="49.15510565931602" lon="2.5234238515598197"><ele>55.0</ele><time>2026-04-17T15:03:02.998Z</time></trkpt><trkpt lat="49.155100886844274" lon="2.523315357283518"><ele>55.0</ele><time>2026-04-17T15:03:03.998Z</time></trkpt><trkpt lat="49.15509565557302" lon="2.5231964333119032"><ele>55.0</ele><time>2026-04-17T15:03:05.998Z</time></trkpt><trkpt lat="49.15508394611066" lon="2.5230719071882133"><ele>55.0</ele><time>2026-04-17T15:03:08.998Z</time></trkpt><trkpt lat="49.155084008518614" lon="2.5229198985558874"><ele>55.0</ele><time>2026-04-17T15:03:11.998Z</time></trkpt><trkpt lat="49.15509346848674" lon="2.5227608991397967"><ele>55.0</ele><time>2026-04-17T15:03:14.998Z</time></trkpt><trkpt lat="49.15510209350926" lon="2.522603716508804"><ele>55.33333333333333</ele><time>2026-04-17T15:03:17.998Z</time></trkpt><trkpt lat="49.15512995783833" lon="2.522448550660309"><ele>55.666666666666664</ele><time>2026-04-17T15:03:20.998Z</time></trkpt><trkpt lat="49.15512873200978" lon="2.5223139204102014"><ele>56.0</ele><time>2026-04-17T15:03:23.998Z</time></trkpt><trkpt lat="49.1551359723331" lon="2.5221734947362693"><ele>56.33333333333333</ele><time>2026-04-17T15:03:26.998Z</time></trkpt><trkpt lat="49.155143112467485" lon="2.522048639512364"><ele>56.666666666666664</ele><time>2026-04-17T15:03:29.998Z</time></trkpt><trkpt lat="49.155144378718646" lon="2.521950130362378"><ele>57.0</ele><time>2026-04-17T15:03:31.998Z</time></trkpt><trkpt lat="49.1551552598214" lon="2.521850201861631"><ele>57.333333333333336</ele><time>2026-04-17T15:03:33.998Z</time></trkpt><trkpt lat="49.155163405989185" lon="2.5217414273467877"><ele>57.66666666666667</ele><time>2026-04-17T15:03:35.997Z</time></trkpt><trkpt lat="49.15516656749765" lon="2.521615767753616"><ele>58.0</ele><time>2026-04-17T15:03:37.997Z</time></trkpt><trkpt lat="49.15516746022375" lon="2.5215060784991468"><ele>58.333333333333336</ele><time>2026-04-17T15:03:39.997Z</time></trkpt><trkpt lat="49.155160524435146" lon="2.5213678434751134"><ele>58.66666666666667</ele><time>2026-04-17T15:03:41.997Z</time></trkpt><trkpt lat="49.15515634988631" lon="2.521236302936727"><ele>59.0</ele><time>2026-04-17T15:03:43.997Z</time></trkpt><trkpt lat="49.15512677925852" lon="2.5210749501922707"><ele>59.0</ele><time>2026-04-17T15:03:45.997Z</time></trkpt><trkpt lat="49.15510086408954" lon="2.520971883461901"><ele>59.0</ele><time>2026-04-17T15:03:47.997Z</time></trkpt><trkpt lat="49.15506856366901" lon="2.5208745198332667"><ele>59.0</ele><time>2026-04-17T15:03:50.997Z</time></trkpt><trkpt lat="49.15505053307075" lon="2.5207435448276168"><ele>59.0</ele><time>2026-04-17T15:03:53.997Z</time></trkpt><trkpt lat="49.155096398686794" lon="2.520664035894084"><ele>59.0</ele><time>2026-04-17T15:03:54.997Z</time></trkpt><trkpt lat="49.15508735079047" lon="2.5205556396608912"><ele>59.0</ele><time>2026-04-17T15:03:57Z</time></trkpt><trkpt lat="49.15509228309428" lon="2.5204439249658344"><ele>59.0</ele><time>2026-04-17T15:03:59Z</time></trkpt><trkpt lat="49.15509194191207" lon="2.520337833198328"><ele>58.857142857142854</ele><time>2026-04-17T15:04:01Z</time></trkpt><trkpt lat="49.15509352409295" lon="2.5202333714687173"><ele>58.71428571428572</ele><time>2026-04-17T15:04:03Z</time></trkpt><trkpt lat="49.155089016176035" lon="2.520128319848467"><ele>58.57142857142858</ele><time>2026-04-17T15:04:05Z</time></trkpt><trkpt lat="49.15509634766022" lon="2.5200203007804514"><ele>58.42857142857143</ele><time>2026-04-17T15:04:07Z</time></trkpt><trkpt lat="49.15509679143182" lon="2.519909655797192"><ele>58.28571428571429</ele><time>2026-04-17T15:04:09Z</time></trkpt><trkpt lat="49.15509706045266" lon="2.519805662808836"><ele>58.14285714285715</ele><time>2026-04-17T15:04:11Z</time></trkpt><trkpt lat="49.155100697303" lon="2.5196844770299824"><ele>58.00000000000001</ele><time>2026-04-17T15:04:13Z</time></trkpt><trkpt lat="49.15510445660637" lon="2.519566084510816"><ele>57.99999999999999</ele><time>2026-04-17T15:04:15Z</time></trkpt><trkpt lat="49.15510739099364" lon="2.5194416214526725"><ele>58.0</ele><time>2026-04-17T15:04:17Z</time></trkpt><trkpt lat="49.15511038434106" lon="2.5193171412813196"><ele>58.0</ele><time>2026-04-17T15:04:19Z</time></trkpt><trkpt lat="49.15512675036474" lon="2.519193459897402"><ele>58.0</ele><time>2026-04-17T15:04:21Z</time></trkpt><trkpt lat="49.155114508481766" lon="2.5190648938144147"><ele>57.99999999999999</ele><time>2026-04-17T15:04:23Z</time></trkpt><trkpt lat="49.1551287908854" lon="2.5189407720576478"><ele>58.0</ele><time>2026-04-17T15:04:25Z</time></trkpt><trkpt lat="49.15512543957754" lon="2.518811303100482"><ele>58.2</ele><time>2026-04-17T15:04:27Z</time></trkpt><trkpt lat="49.15511997606739" lon="2.5186845610996516"><ele>58.4</ele><time>2026-04-17T15:04:29Z</time></trkpt><trkpt lat="49.15511541353924" lon="2.5185787201876937"><ele>58.60000000000001</ele><time>2026-04-17T15:04:31Z</time></trkpt><trkpt lat="49.15499519399924" lon="2.5184822448835256"><ele>58.800000000000004</ele><time>2026-04-17T15:04:33Z</time></trkpt><trkpt lat="49.15492365176632" lon="2.5184092435058085"><ele>59.0</ele><time>2026-04-17T15:04:34.999Z</time></trkpt><trkpt lat="49.154842395081026" lon="2.518330347986559"><ele>58.0</ele><time>2026-04-17T15:04:36.999Z</time></trkpt><trkpt lat="49.15476203482769" lon="2.51826402810277"><ele>57.00000000000001</ele><time>2026-04-17T15:04:38.999Z</time></trkpt><trkpt lat="49.15467306044714" lon="2.518204449973937"><ele>56.00000000000001</ele><time>2026-04-17T15:04:40.999Z</time></trkpt><trkpt lat="49.15458739967968" lon="2.518149697737978"><ele>55.0</ele><time>2026-04-17T15:04:42.999Z</time></trkpt><trkpt lat="49.15450085112639" lon="2.518094193572766"><ele>54.0</ele><time>2026-04-17T15:04:44.999Z</time></trkpt><trkpt lat="49.154411863220574" lon="2.518034698109388"><ele>54.0</ele><time>2026-04-17T15:04:46.999Z</time></trkpt><trkpt lat="49.15432351407167" lon="2.5179790565596734"><ele>54.00000000000001</ele><time>2026-04-17T15:04:48.999Z</time></trkpt><trkpt lat="49.15422014613031" lon="2.5179167526098043"><ele>54.00000000000001</ele><time>2026-04-17T15:04:50.999Z</time></trkpt><trkpt lat="49.15412145321281" lon="2.5178556331569157"><ele>54.0</ele><time>2026-04-17T15:04:52.999Z</time></trkpt><trkpt lat="49.15402134807954" lon="2.517791262267434"><ele>54.0</ele><time>2026-04-17T15:04:54.999Z</time></trkpt><trkpt lat="49.153921934268645" lon="2.5177217738420477"><ele>54.400000000000006</ele><time>2026-04-17T15:04:56.999Z</time></trkpt><trkpt lat="49.15382834870552" lon="2.5176555607652573"><ele>54.800000000000004</ele><time>2026-04-17T15:04:58.999Z</time></trkpt><trkpt lat="49.153733808481846" lon="2.5175861534652304"><ele>55.199999999999996</ele><time>2026-04-17T15:05:00.999Z</time></trkpt><trkpt lat="49.15362210647839" lon="2.517529573820935"><ele>55.599999999999994</ele><time>2026-04-17T15:05:02.999Z</time></trkpt><trkpt lat="49.15352814265917" lon="2.5174610435821565"><ele>56.0</ele><time>2026-04-17T15:05:04.999Z</time></trkpt><trkpt lat="49.15342168256025" lon="2.517388794925697"><ele>56.0</ele><time>2026-04-17T15:05:06.999Z</time></trkpt><trkpt lat="49.153317047741545" lon="2.5173299424362603"><ele>56.0</ele><time>2026-04-17T15:05:08.998Z</time></trkpt><trkpt lat="49.15320671292029" lon="2.5172794974733934"><ele>56.0</ele><time>2026-04-17T15:05:10.998Z</time></trkpt><trkpt lat="49.15309891011364" lon="2.5172482246654964"><ele>56.0</ele><time>2026-04-17T15:05:12.998Z</time></trkpt><trkpt lat="49.152983966707644" lon="2.51721960129679"><ele>56.00000000000001</ele><time>2026-04-17T15:05:14.998Z</time></trkpt><trkpt lat="49.15287383678336" lon="2.517210604549142"><ele>56.0</ele><time>2026-04-17T15:05:16.998Z</time></trkpt><trkpt lat="49.15280437787294" lon="2.517200044178194"><ele>56.0</ele><time>2026-04-17T15:05:17.998Z</time></trkpt><trkpt lat="49.152678122849416" lon="2.517194089568017"><ele>56.0</ele><time>2026-04-17T15:05:19.998Z</time></trkpt><trkpt lat="49.15261377101562" lon="2.5171890051550467"><ele>56.00000000000001</ele><time>2026-04-17T15:05:20.998Z</time></trkpt><trkpt lat="49.15254698223734" lon="2.517190062805183"><ele>56.0</ele><time>2026-04-17T15:05:21.998Z</time></trkpt><trkpt lat="49.152475747542006" lon="2.5171839005843153"><ele>56.00000000000001</ele><time>2026-04-17T15:05:22.998Z</time></trkpt><trkpt lat="49.152405539957904" lon="2.517191796580362"><ele>56.0</ele><time>2026-04-17T15:05:23.998Z</time></trkpt><trkpt lat="49.15233064650762" lon="2.5171928676837827"><ele>56.0</ele><time>2026-04-17T15:05:24.998Z</time></trkpt><trkpt lat="49.1522576735395" lon="2.5171956123609562"><ele>56.0</ele><time>2026-04-17T15:05:25.998Z</time></trkpt><trkpt lat="49.15217619208511" lon="2.517198487430734"><ele>56.00000000000001</ele><time>2026-04-17T15:05:26.998Z</time></trkpt><trkpt lat="49.15210136787523" lon="2.5171938567817884"><ele>56.0</ele><time>2026-04-17T15:05:27.998Z</time></trkpt><trkpt lat="49.152024257400434" lon="2.517204274988971"><ele>55.42857142857143</ele><time>2026-04-17T15:05:28.998Z</time></trkpt><trkpt lat="49.15195073246019" lon="2.517201325158145"><ele>54.85714285714286</ele><time>2026-04-17T15:05:29.998Z</time></trkpt><trkpt lat="49.15188141726655" lon="2.51718618487518"><ele>54.285714285714285</ele><time>2026-04-17T15:05:30.998Z</time></trkpt><trkpt lat="49.15181172429939" lon="2.517165409968333"><ele>53.714285714285715</ele><time>2026-04-17T15:05:31.998Z</time></trkpt><trkpt lat="49.15174804313497" lon="2.5171326001419865"><ele>53.142857142857146</ele><time>2026-04-17T15:05:32.998Z</time></trkpt><trkpt lat="49.15169191424887" lon="2.517086414008983"><ele>52.57142857142857</ele><time>2026-04-17T15:05:33.998Z</time></trkpt><trkpt lat="49.151639807732124" lon="2.5170195629967456"><ele>52.0</ele><time>2026-04-17T15:05:34.998Z</time></trkpt><trkpt lat="49.15159718980514" lon="2.5169231009617903"><ele>51.99999999999999</ele><time>2026-04-17T15:05:35.998Z</time></trkpt><trkpt lat="49.151565427509254" lon="2.516815315332332"><ele>52.0</ele><time>2026-04-17T15:05:36.998Z</time></trkpt><trkpt lat="49.151540140120204" lon="2.516720021180009"><ele>52.0</ele><time>2026-04-17T15:05:37.998Z</time></trkpt><trkpt lat="49.15151388276431" lon="2.5166284973179103"><ele>52.0</ele><time>2026-04-17T15:05:38.998Z</time></trkpt><trkpt lat="49.15142170449645" lon="2.5164756087023976"><ele>51.99999999999999</ele><time>2026-04-17T15:05:40.998Z</time></trkpt><trkpt lat="49.15136607938265" lon="2.5164025661008607"><ele>52.0</ele><time>2026-04-17T15:05:41.998Z</time></trkpt><trkpt lat="49.15131557501797" lon="2.516340237144409"><ele>51.400000000000006</ele><time>2026-04-17T15:05:42.997Z</time></trkpt><trkpt lat="49.15127153311567" lon="2.516265133785795"><ele>50.800000000000004</ele><time>2026-04-17T15:05:43.997Z</time></trkpt><trkpt lat="49.15117217937205" lon="2.5161491969229486"><ele>50.2</ele><time>2026-04-17T15:05:45.997Z</time></trkpt><trkpt lat="49.151070396610656" lon="2.516035245117876"><ele>49.6</ele><time>2026-04-17T15:05:47.997Z</time></trkpt><trkpt lat="49.151013278264166" lon="2.515976848262763"><ele>49.0</ele><time>2026-04-17T15:05:48.997Z</time></trkpt><trkpt lat="49.15095432680613" lon="2.515929217754268"><ele>48.99999999999999</ele><time>2026-04-17T15:05:49.997Z</time></trkpt><trkpt lat="49.150877514984096" lon="2.5158407473337534"><ele>49.0</ele><time>2026-04-17T15:05:51.997Z</time></trkpt><trkpt lat="49.15081046212068" lon="2.515780484191866"><ele>49.0</ele><time>2026-04-17T15:05:52.997Z</time></trkpt><trkpt lat="49.150718677255554" lon="2.5157573923432173"><ele>49.0</ele><time>2026-04-17T15:05:53.997Z</time></trkpt><trkpt lat="49.150637457659755" lon="2.515759052626363"><ele>48.99999999999999</ele><time>2026-04-17T15:05:54.997Z</time></trkpt><trkpt lat="49.150567389855624" lon="2.5157391398393645"><ele>49.0</ele><time>2026-04-17T15:05:55.997Z</time></trkpt><trkpt lat="49.1505025188427" lon="2.515739597694902"><ele>49.2</ele><time>2026-04-17T15:05:56.997Z</time></trkpt><trkpt lat="49.150376695301254" lon="2.515747590703956"><ele>49.400000000000006</ele><time>2026-04-17T15:05:58.997Z</time></trkpt><trkpt lat="49.15031284737046" lon="2.5157561401404256"><ele>49.6</ele><time>2026-04-17T15:05:59.997Z</time></trkpt><trkpt lat="49.1501980152813" lon="2.5157792762314037"><ele>49.8</ele><time>2026-04-17T15:06:02Z</time></trkpt><trkpt lat="49.15008209199526" lon="2.5158109511505553"><ele>50.0</ele><time>2026-04-17T15:06:04Z</time></trkpt><trkpt lat="49.149978552773604" lon="2.515857254284533"><ele>50.0</ele><time>2026-04-17T15:06:06Z</time></trkpt><trkpt lat="49.14987311811103" lon="2.5158913268979672"><ele>50.0</ele><time>2026-04-17T15:06:08Z</time></trkpt><trkpt lat="49.14976670708285" lon="2.515920788399328"><ele>50.0</ele><time>2026-04-17T15:06:10Z</time></trkpt><trkpt lat="49.149662102116096" lon="2.5159432050955566"><ele>50.0</ele><time>2026-04-17T15:06:12Z</time></trkpt><trkpt lat="49.14955921497216" lon="2.5159698702944198"><ele>50.0</ele><time>2026-04-17T15:06:14Z</time></trkpt><trkpt lat="49.149458529032145" lon="2.5159937987430268"><ele>50.0</ele><time>2026-04-17T15:06:16Z</time></trkpt><trkpt lat="49.14935788422864" lon="2.516016051054797"><ele>50.0</ele><time>2026-04-17T15:06:18Z</time></trkpt><trkpt lat="49.14925084519211" lon="2.5160433427511486"><ele>50.0</ele><time>2026-04-17T15:06:20Z</time></trkpt><trkpt lat="49.149151143439305" lon="2.5160758604747673"><ele>50.0</ele><time>2026-04-17T15:06:22Z</time></trkpt><trkpt lat="49.149068604278156" lon="2.516099382544113"><ele>50.0</ele><time>2026-04-17T15:06:24Z</time></trkpt><trkpt lat="49.1490029172445" lon="2.5160875672605103"><ele>49.75</ele><time>2026-04-17T15:06:26Z</time></trkpt><trkpt lat="49.148820604105566" lon="2.516106236330163"><ele>49.5</ele><time>2026-04-17T15:06:28Z</time></trkpt><trkpt lat="49.14871188172755" lon="2.516107301025731"><ele>49.25</ele><time>2026-04-17T15:06:30Z</time></trkpt><trkpt lat="49.14860718567647" lon="2.5161014047043606"><ele>49.0</ele><time>2026-04-17T15:06:32Z</time></trkpt><trkpt lat="49.14849784841212" lon="2.5160902502140012"><ele>49.0</ele><time>2026-04-17T15:06:34Z</time></trkpt><trkpt lat="49.14838576037263" lon="2.5160907766918434"><ele>49.0</ele><time>2026-04-17T15:06:36Z</time></trkpt><trkpt lat="49.14828004377389" lon="2.516082631726056"><ele>49.0</ele><time>2026-04-17T15:06:38Z</time></trkpt><trkpt lat="49.14817207031616" lon="2.5160631595748524"><ele>49.0</ele><time>2026-04-17T15:06:40Z</time></trkpt><trkpt lat="49.148059858928704" lon="2.5160451410256424"><ele>49.0</ele><time>2026-04-17T15:06:41.999Z</time></trkpt><trkpt lat="49.147952670288134" lon="2.516030412650724"><ele>49.2</ele><time>2026-04-17T15:06:43.999Z</time></trkpt><trkpt lat="49.14785043877005" lon="2.5160185747735913"><ele>49.400000000000006</ele><time>2026-04-17T15:06:45.999Z</time></trkpt><trkpt lat="49.147747075126155" lon="2.5160067600009706"><ele>49.6</ele><time>2026-04-17T15:06:47.999Z</time></trkpt><trkpt lat="49.14764300065703" lon="2.516000607247199"><ele>49.8</ele><time>2026-04-17T15:06:49.999Z</time></trkpt><trkpt lat="49.14754237165649" lon="2.5159865010836167"><ele>50.0</ele><time>2026-04-17T15:06:51.999Z</time></trkpt><trkpt lat="49.14744782853667" lon="2.5159645882291968"><ele>50.00000000000001</ele><time>2026-04-17T15:06:53.999Z</time></trkpt><trkpt lat="49.14736198173262" lon="2.5159567797615274"><ele>50.0</ele><time>2026-04-17T15:06:55.999Z</time></trkpt><trkpt lat="49.14727866635976" lon="2.5159361793495854"><ele>50.0</ele><time>2026-04-17T15:06:57.999Z</time></trkpt><trkpt lat="49.14720405460593" lon="2.5159188645816433"><ele>50.0</ele><time>2026-04-17T15:06:59.999Z</time></trkpt><trkpt lat="49.14713120144721" lon="2.5159015091643577"><ele>50.00000000000001</ele><time>2026-04-17T15:07:01.999Z</time></trkpt><trkpt lat="49.14705557142138" lon="2.515892234465339"><ele>50.0</ele><time>2026-04-17T15:07:03.999Z</time></trkpt><trkpt lat="49.14697690806456" lon="2.515869527627689"><ele>50.00000000000001</ele><time>2026-04-17T15:07:05.999Z</time></trkpt><trkpt lat="49.14689161330974" lon="2.5158420361395475"><ele>50.0</ele><time>2026-04-17T15:07:07.999Z</time></trkpt><trkpt lat="49.146806786910744" lon="2.515818178920854"><ele>50.0</ele><time>2026-04-17T15:07:09.999Z</time></trkpt><trkpt lat="49.146718383847954" lon="2.515817373292204"><ele>50.0</ele><time>2026-04-17T15:07:11.999Z</time></trkpt><trkpt lat="49.14662474880348" lon="2.5158154896902714"><ele>50.00000000000001</ele><time>2026-04-17T15:07:13.998Z</time></trkpt><trkpt lat="49.14653805531336" lon="2.5158234051979056"><ele>50.0</ele><time>2026-04-17T15:07:15.998Z</time></trkpt><trkpt lat="49.14644441230036" lon="2.51583240557538"><ele>50.0</ele><time>2026-04-17T15:07:17.998Z</time></trkpt><trkpt lat="49.14635471547724" lon="2.5158443929867707"><ele>50.0</ele><time>2026-04-17T15:07:19.998Z</time></trkpt><trkpt lat="49.1462621165693" lon="2.5158679856640234"><ele>50.0</ele><time>2026-04-17T15:07:21.998Z</time></trkpt><trkpt lat="49.146173439464455" lon="2.515897596730734"><ele>50.0</ele><time>2026-04-17T15:07:23.998Z</time></trkpt><trkpt lat="49.14608406681348" lon="2.515933233509818"><ele>50.0</ele><time>2026-04-17T15:07:25.998Z</time></trkpt><trkpt lat="49.14600122400706" lon="2.5159650173959194"><ele>50.00000000000001</ele><time>2026-04-17T15:07:27.998Z</time></trkpt><trkpt lat="49.14591552721396" lon="2.51599714087891"><ele>50.0</ele><time>2026-04-17T15:07:29.998Z</time></trkpt><trkpt lat="49.14583201023145" lon="2.516022793557808"><ele>50.0</ele><time>2026-04-17T15:07:31.998Z</time></trkpt><trkpt lat="49.145747866314174" lon="2.5160602141208446"><ele>50.0</ele><time>2026-04-17T15:07:33.998Z</time></trkpt><trkpt lat="49.14566673550398" lon="2.5160975294807026"><ele>50.00000000000001</ele><time>2026-04-17T15:07:35.998Z</time></trkpt><trkpt lat="49.14558809236352" lon="2.516130743885174"><ele>50.0</ele><time>2026-04-17T15:07:37.998Z</time></trkpt><trkpt lat="49.14551400509923" lon="2.5161605699481373"><ele>50.57142857142858</ele><time>2026-04-17T15:07:39.998Z</time></trkpt><trkpt lat="49.14544166401229" lon="2.5161880932936076"><ele>51.142857142857146</ele><time>2026-04-17T15:07:41.998Z</time></trkpt><trkpt lat="49.145372379369334" lon="2.5162234013931783"><ele>51.714285714285715</ele><time>2026-04-17T15:07:43.998Z</time></trkpt><trkpt lat="49.145299566761494" lon="2.51624324394283"><ele>52.28571428571429</ele><time>2026-04-17T15:07:45.997Z</time></trkpt><trkpt lat="49.14522972398192" lon="2.5162587443615796"><ele>52.857142857142854</ele><time>2026-04-17T15:07:47.997Z</time></trkpt><trkpt lat="49.14516168873377" lon="2.5162870190784177"><ele>53.42857142857143</ele><time>2026-04-17T15:07:49.997Z</time></trkpt><trkpt lat="49.14508687684749" lon="2.5162983653059645"><ele>54.0</ele><time>2026-04-17T15:07:51.997Z</time></trkpt><trkpt lat="49.145015147318716" lon="2.516321046874306"><ele>54.0</ele><time>2026-04-17T15:07:53.997Z</time></trkpt><trkpt lat="49.144942634911665" lon="2.5163248424479088"><ele>54.0</ele><time>2026-04-17T15:07:55.997Z</time></trkpt><trkpt lat="49.14486652212804" lon="2.51632591052841"><ele>54.0</ele><time>2026-04-17T15:07:57.997Z</time></trkpt><trkpt lat="49.1447964153036" lon="2.5163247889971383"><ele>54.0</ele><time>2026-04-17T15:07:59.997Z</time></trkpt><trkpt lat="49.144742089368904" lon="2.5162293756798273"><ele>54.0</ele><time>2026-04-17T15:08:01.997Z</time></trkpt><trkpt lat="49.14466809705592" lon="2.516113648186621"><ele>54.0</ele><time>2026-04-17T15:08:04.997Z</time></trkpt><trkpt lat="49.14460937050003" lon="2.516047568063282"><ele>54.333333333333336</ele><time>2026-04-17T15:08:06.997Z</time></trkpt><trkpt lat="49.14458030794037" lon="2.515952903930729"><ele>54.66666666666667</ele><time>2026-04-17T15:08:09Z</time></trkpt><trkpt lat="49.14456644412053" lon="2.515844941043922"><ele>55.0</ele><time>2026-04-17T15:08:11Z</time></trkpt><trkpt lat="49.144502801692795" lon="2.515734204373999"><ele>55.333333333333336</ele><time>2026-04-17T15:08:14Z</time></trkpt><trkpt lat="49.144436641632744" lon="2.5156317883126698"><ele>55.66666666666667</ele><time>2026-04-17T15:08:17Z</time></trkpt><trkpt lat="49.14438623523423" lon="2.515563388881514"><ele>56.0</ele><time>2026-04-17T15:08:19Z</time></trkpt><trkpt lat="49.14432001544323" lon="2.5154692910041936"><ele>55.833333333333336</ele><time>2026-04-17T15:08:22Z</time></trkpt><trkpt lat="49.144264122477566" lon="2.5153816636031907"><ele>55.66666666666667</ele><time>2026-04-17T15:08:26Z</time></trkpt><trkpt lat="49.14439893344098" lon="2.51532124273886"><ele>55.5</ele><time>2026-04-17T15:08:56.999Z</time></trkpt><trkpt lat="49.144466418062" lon="2.5152759116494723"><ele>55.33333333333333</ele><time>2026-04-17T15:09:18.998Z</time></trkpt><trkpt lat="49.14442358677762" lon="2.5153489093554673"><ele>55.166666666666664</ele><time>2026-04-17T15:09:30.998Z</time></trkpt><trkpt lat="49.144372269585126" lon="2.51526761636267"><ele>55.0</ele><time>2026-04-17T15:09:42.998Z</time></trkpt><trkpt lat="49.14430196054257" lon="2.5153066708069125"><ele>54.99999999999999</ele><time>2026-04-17T15:09:48.998Z</time></trkpt><trkpt lat="49.14421106276046" lon="2.5153381474981127"><ele>55.0</ele><time>2026-04-17T15:14:30Z</time></trkpt><trkpt lat="49.144152483946186" lon="2.515252625242166"><ele>55.0</ele><time>2026-04-17T15:14:39Z</time></trkpt><trkpt lat="49.144097679937644" lon="2.5151748954840856"><ele>55.0</ele><time>2026-04-17T15:14:42Z</time></trkpt><trkpt lat="49.14403922756908" lon="2.515089567877498"><ele>54.99999999999999</ele><time>2026-04-17T15:14:45Z</time></trkpt><trkpt lat="49.143985520090226" lon="2.515005917418759"><ele>55.0</ele><time>2026-04-17T15:14:48Z</time></trkpt><trkpt lat="49.14392671493329" lon="2.514914198804305"><ele>55.33333333333333</ele><time>2026-04-17T15:14:51Z</time></trkpt><trkpt lat="49.14386190037846" lon="2.514822613524836"><ele>55.666666666666664</ele><time>2026-04-17T15:14:54Z</time></trkpt><trkpt lat="49.143797457876325" lon="2.5147266702890074"><ele>56.0</ele><time>2026-04-17T15:14:56.999Z</time></trkpt><trkpt lat="49.14373005646897" lon="2.5146231170070927"><ele>56.33333333333333</ele><time>2026-04-17T15:14:59.999Z</time></trkpt><trkpt lat="49.14368347250812" lon="2.51454653418069"><ele>56.666666666666664</ele><time>2026-04-17T15:15:01.999Z</time></trkpt><trkpt lat="49.14363413570173" lon="2.5144710317944914"><ele>57.0</ele><time>2026-04-17T15:15:03.999Z</time></trkpt><trkpt lat="49.14358285440547" lon="2.5143985262808064"><ele>57.0</ele><time>2026-04-17T15:15:05.999Z</time></trkpt><trkpt lat="49.14353432412722" lon="2.514324626649537"><ele>57.0</ele><time>2026-04-17T15:15:07.999Z</time></trkpt><trkpt lat="49.14348329343044" lon="2.514250122693929"><ele>57.0</ele><time>2026-04-17T15:15:09.999Z</time></trkpt><trkpt lat="49.14343044832659" lon="2.5141812548498748"><ele>57.0</ele><time>2026-04-17T15:15:11.999Z</time></trkpt><trkpt lat="49.1433656017314" lon="2.5140490696093583"><ele>57.0</ele><time>2026-04-17T15:15:13.999Z</time></trkpt><trkpt lat="49.143297365526855" lon="2.513979332271716"><ele>57.0</ele><time>2026-04-17T15:15:16.999Z</time></trkpt><trkpt lat="49.14324320059533" lon="2.513896072816296"><ele>57.166666666666664</ele><time>2026-04-17T15:15:18.999Z</time></trkpt><trkpt lat="49.14318502025827" lon="2.513818263547006"><ele>57.33333333333333</ele><time>2026-04-17T15:15:20.999Z</time></trkpt><trkpt lat="49.143123945370306" lon="2.5137350899034363"><ele>57.5</ele><time>2026-04-17T15:15:22.999Z</time></trkpt><trkpt lat="49.14307210606651" lon="2.5136507241089037"><ele>57.666666666666664</ele><time>2026-04-17T15:15:24.999Z</time></trkpt><trkpt lat="49.143019219547114" lon="2.513566375314945"><ele>57.83333333333333</ele><time>2026-04-17T15:15:26.999Z</time></trkpt><trkpt lat="49.14296491390168" lon="2.5134815987893258"><ele>58.0</ele><time>2026-04-17T15:15:28.999Z</time></trkpt><trkpt lat="49.142903753812234" lon="2.5133999786774637"><ele>57.99999999999999</ele><time>2026-04-17T15:15:30.999Z</time></trkpt><trkpt lat="49.142851303522384" lon="2.5133213662658256"><ele>58.0</ele><time>2026-04-17T15:15:32.998Z</time></trkpt><trkpt lat="49.14279458892263" lon="2.5132375885416463"><ele>58.0</ele><time>2026-04-17T15:15:34.998Z</time></trkpt><trkpt lat="49.14274044058667" lon="2.5131547009592876"><ele>58.0</ele><time>2026-04-17T15:15:36.998Z</time></trkpt><trkpt lat="49.142689718297625" lon="2.513071741938383"><ele>57.99999999999999</ele><time>2026-04-17T15:15:38.998Z</time></trkpt><trkpt lat="49.142637959583915" lon="2.5129986504580923"><ele>58.0</ele><time>2026-04-17T15:15:40.998Z</time></trkpt><trkpt lat="49.14258320442915" lon="2.512905630649387"><ele>57.99999999999999</ele><time>2026-04-17T15:15:43.998Z</time></trkpt><trkpt lat="49.14253246455602" lon="2.512847799155596"><ele>58.0</ele><time>2026-04-17T15:15:45.998Z</time></trkpt><trkpt lat="49.142480738551875" lon="2.5127617636268074"><ele>58.0</ele><time>2026-04-17T15:15:47.998Z</time></trkpt><trkpt lat="49.14241759991213" lon="2.5126743260811835"><ele>58.0</ele><time>2026-04-17T15:15:50.998Z</time></trkpt><trkpt lat="49.142353266815995" lon="2.512575661727598"><ele>57.99999999999999</ele><time>2026-04-17T15:15:53.998Z</time></trkpt><trkpt lat="49.14228251370446" lon="2.5124809517598687"><ele>58.0</ele><time>2026-04-17T15:15:56.998Z</time></trkpt><trkpt lat="49.14223210223708" lon="2.512407566447402"><ele>57.99999999999999</ele><time>2026-04-17T15:15:58.998Z</time></trkpt><trkpt lat="49.14217697052765" lon="2.5123400151196793"><ele>58.0</ele><time>2026-04-17T15:16:00.998Z</time></trkpt><trkpt lat="49.142117154853885" lon="2.512263139798379"><ele>58.0</ele><time>2026-04-17T15:16:02.998Z</time></trkpt><trkpt lat="49.14206187468117" lon="2.5121873948812947"><ele>58.0</ele><time>2026-04-17T15:16:04.998Z</time></trkpt><trkpt lat="49.14200282979312" lon="2.5121078702022195"><ele>57.99999999999999</ele><time>2026-04-17T15:16:06.997Z</time></trkpt><trkpt lat="49.14194410318561" lon="2.5120225802151763"><ele>58.0</ele><time>2026-04-17T15:16:08.997Z</time></trkpt><trkpt lat="49.1418842686764" lon="2.511951169627878"><ele>58.00000000000001</ele><time>2026-04-17T15:16:10.997Z</time></trkpt><trkpt lat="49.14182810933077" lon="2.5118802431818703"><ele>58.0</ele><time>2026-04-17T15:16:12.997Z</time></trkpt><trkpt lat="49.141768070147606" lon="2.51180134043822"><ele>58.00000000000001</ele><time>2026-04-17T15:16:14.997Z</time></trkpt><trkpt lat="49.14170997746793" lon="2.5117301626776145"><ele>58.00000000000001</ele><time>2026-04-17T15:16:16.997Z</time></trkpt><trkpt lat="49.14165493057538" lon="2.511665405295679"><ele>58.0</ele><time>2026-04-17T15:16:18.997Z</time></trkpt><trkpt lat="49.141595453239646" lon="2.511604894056315"><ele>58.00000000000001</ele><time>2026-04-17T15:16:20.997Z</time></trkpt><trkpt lat="49.14153907608739" lon="2.5115426151147195"><ele>58.00000000000001</ele><time>2026-04-17T15:16:22.997Z</time></trkpt><trkpt lat="49.14147699353462" lon="2.5114745332437676"><ele>58.571428571428584</ele><time>2026-04-17T15:16:24.997Z</time></trkpt><trkpt lat="49.14141897403182" lon="2.5114121553439013"><ele>59.142857142857146</ele><time>2026-04-17T15:16:26.997Z</time></trkpt><trkpt lat="49.14136122850244" lon="2.5113564488523483"><ele>59.71428571428572</ele><time>2026-04-17T15:16:28.997Z</time></trkpt><trkpt lat="49.141303547032294" lon="2.511287042101242"><ele>60.28571428571429</ele><time>2026-04-17T15:16:31Z</time></trkpt><trkpt lat="49.14124784934869" lon="2.511241221914531"><ele>60.85714285714286</ele><time>2026-04-17T15:16:33Z</time></trkpt><trkpt lat="49.14118382652147" lon="2.5111760578881688"><ele>61.42857142857143</ele><time>2026-04-17T15:16:35Z</time></trkpt><trkpt lat="49.141123121279385" lon="2.511108508744755"><ele>62.0</ele><time>2026-04-17T15:16:37Z</time></trkpt><trkpt lat="49.1410650521844" lon="2.5110585802143994"><ele>62.0</ele><time>2026-04-17T15:16:39Z</time></trkpt><trkpt lat="49.14100512629451" lon="2.5109879351396054"><ele>62.00000000000001</ele><time>2026-04-17T15:16:41Z</time></trkpt><trkpt lat="49.1409504218681" lon="2.510928199028921"><ele>62.0</ele><time>2026-04-17T15:16:43Z</time></trkpt><trkpt lat="49.14089116661254" lon="2.5108680805537142"><ele>62.0</ele><time>2026-04-17T15:16:45Z</time></trkpt><trkpt lat="49.14083561919524" lon="2.510810502886096"><ele>62.00000000000001</ele><time>2026-04-17T15:16:47Z</time></trkpt><trkpt lat="49.140774126369806" lon="2.510741375444864"><ele>62.0</ele><time>2026-04-17T15:16:49Z</time></trkpt><trkpt lat="49.14071211439855" lon="2.5106877773793688"><ele>62.0</ele><time>2026-04-17T15:16:51Z</time></trkpt><trkpt lat="49.140650694147205" lon="2.5106301300846448"><ele>62.0</ele><time>2026-04-17T15:16:53Z</time></trkpt><trkpt lat="49.140588980563535" lon="2.5105697852881037"><ele>62.00000000000001</ele><time>2026-04-17T15:16:55Z</time></trkpt><trkpt lat="49.14052768336488" lon="2.51050974907623"><ele>62.0</ele><time>2026-04-17T15:16:57Z</time></trkpt><trkpt lat="49.14046889928171" lon="2.51045243071918"><ele>62.0</ele><time>2026-04-17T15:16:59Z</time></trkpt><trkpt lat="49.14041079808103" lon="2.510395127555031"><ele>62.00000000000001</ele><time>2026-04-17T15:17:00.999Z</time></trkpt><trkpt lat="49.14034953887868" lon="2.510334010420767"><ele>62.0</ele><time>2026-04-17T15:17:02.999Z</time></trkpt><trkpt lat="49.140294622077256" lon="2.510283567536076"><ele>62.0</ele><time>2026-04-17T15:17:04.999Z</time></trkpt><trkpt lat="49.140236223861905" lon="2.510233244402902"><ele>62.0</ele><time>2026-04-17T15:17:06.999Z</time></trkpt><trkpt lat="49.14018059019664" lon="2.5101805783569695"><ele>62.00000000000001</ele><time>2026-04-17T15:17:08.999Z</time></trkpt><trkpt lat="49.14012534957795" lon="2.5101275014307816"><ele>62.0</ele><time>2026-04-17T15:17:10.999Z</time></trkpt><trkpt lat="49.140067769318804" lon="2.510069297846074"><ele>62.0</ele><time>2026-04-17T15:17:12.999Z</time></trkpt><trkpt lat="49.140008894649505" lon="2.5100217042108004"><ele>62.00000000000001</ele><time>2026-04-17T15:17:14.999Z</time></trkpt><trkpt lat="49.13994707137325" lon="2.5099645237130677"><ele>62.0</ele><time>2026-04-17T15:17:16.999Z</time></trkpt><trkpt lat="49.13988751417859" lon="2.5099103312497912"><ele>62.0</ele><time>2026-04-17T15:17:18.999Z</time></trkpt><trkpt lat="49.139827473882654" lon="2.5098540502223643"><ele>62.142857142857146</ele><time>2026-04-17T15:17:20.999Z</time></trkpt><trkpt lat="49.139771757030424" lon="2.50980158517445"><ele>62.28571428571429</ele><time>2026-04-17T15:17:22.999Z</time></trkpt><trkpt lat="49.13971686638544" lon="2.5097468441396042"><ele>62.42857142857143</ele><time>2026-04-17T15:17:24.999Z</time></trkpt><trkpt lat="49.13963354835686" lon="2.5096703786911547"><ele>62.57142857142857</ele><time>2026-04-17T15:17:27.999Z</time></trkpt><trkpt lat="49.13958029873382" lon="2.5096180463358304"><ele>62.714285714285715</ele><time>2026-04-17T15:17:29.999Z</time></trkpt><trkpt lat="49.1395288464792" lon="2.5095603988591613"><ele>62.85714285714286</ele><time>2026-04-17T15:17:31.999Z</time></trkpt><trkpt lat="49.13946959002239" lon="2.5095118986337255"><ele>63.0</ele><time>2026-04-17T15:17:33.999Z</time></trkpt><trkpt lat="49.13938940392842" lon="2.509439456721261"><ele>63.285714285714285</ele><time>2026-04-17T15:17:36.998Z</time></trkpt><trkpt lat="49.13933116344477" lon="2.5093932123719984"><ele>63.57142857142857</ele><time>2026-04-17T15:17:38.998Z</time></trkpt><trkpt lat="49.139274065491854" lon="2.509344219236191"><ele>63.85714285714286</ele><time>2026-04-17T15:17:40.998Z</time></trkpt><trkpt lat="49.13921457946226" lon="2.5092936776141213"><ele>64.14285714285714</ele><time>2026-04-17T15:17:42.998Z</time></trkpt><trkpt lat="49.13915215785398" lon="2.5092519351433804"><ele>64.42857142857143</ele><time>2026-04-17T15:17:44.998Z</time></trkpt><trkpt lat="49.139088127511776" lon="2.509201921504339"><ele>64.71428571428572</ele><time>2026-04-17T15:17:46.998Z</time></trkpt><trkpt lat="49.139027476441164" lon="2.509157631009681"><ele>65.0</ele><time>2026-04-17T15:17:48.998Z</time></trkpt><trkpt lat="49.13896363655464" lon="2.5091109267804126"><ele>65.42857142857143</ele><time>2026-04-17T15:17:50.998Z</time></trkpt><trkpt lat="49.13889895153191" lon="2.5090723202725207"><ele>65.85714285714286</ele><time>2026-04-17T15:17:52.998Z</time></trkpt><trkpt lat="49.13883504779139" lon="2.5090184770575346"><ele>66.28571428571428</ele><time>2026-04-17T15:17:54.998Z</time></trkpt><trkpt lat="49.13876302308196" lon="2.508987672102798"><ele>66.71428571428572</ele><time>2026-04-17T15:17:56.998Z</time></trkpt><trkpt lat="49.13869322784102" lon="2.5089346978503397"><ele>67.14285714285714</ele><time>2026-04-17T15:17:58.998Z</time></trkpt><trkpt lat="49.138672831910625" lon="2.508825988022389"><ele>67.57142857142857</ele><time>2026-04-17T15:17:59.998Z</time></trkpt><trkpt lat="49.138596823238466" lon="2.508795257659977"><ele>68.0</ele><time>2026-04-17T15:18:01.998Z</time></trkpt><trkpt lat="49.13852918622237" lon="2.5087699804534958"><ele>68.83333333333334</ele><time>2026-04-17T15:18:03.998Z</time></trkpt><trkpt lat="49.138455936585366" lon="2.5087293212308963"><ele>69.66666666666667</ele><time>2026-04-17T15:18:05.998Z</time></trkpt><trkpt lat="49.13837731169905" lon="2.508704455681012"><ele>70.5</ele><time>2026-04-17T15:18:07.998Z</time></trkpt><trkpt lat="49.13830776049161" lon="2.508637864888874"><ele>71.33333333333333</ele><time>2026-04-17T15:18:09.997Z</time></trkpt><trkpt lat="49.13822902108558" lon="2.508591431855956"><ele>72.16666666666666</ele><time>2026-04-17T15:18:11.997Z</time></trkpt><trkpt lat="49.138141941986014" lon="2.5085630733566457"><ele>73.0</ele><time>2026-04-17T15:18:13.997Z</time></trkpt><trkpt lat="49.13806038203345" lon="2.5085178175600067"><ele>73.0</ele><time>2026-04-17T15:18:15.997Z</time></trkpt><trkpt lat="49.13798863171531" lon="2.508446793824556"><ele>73.0</ele><time>2026-04-17T15:18:17.997Z</time></trkpt><trkpt lat="49.13790733987352" lon="2.508394949123512"><ele>73.0</ele><time>2026-04-17T15:18:19.997Z</time></trkpt><trkpt lat="49.13782755061668" lon="2.5083440627181743"><ele>73.0</ele><time>2026-04-17T15:18:21.997Z</time></trkpt><trkpt lat="49.137744898494915" lon="2.508292295098945"><ele>73.0</ele><time>2026-04-17T15:18:23.997Z</time></trkpt><trkpt lat="49.13765443953459" lon="2.508236631408238"><ele>73.0</ele><time>2026-04-17T15:18:25.997Z</time></trkpt><trkpt lat="49.13756512285104" lon="2.5081823464855764"><ele>73.0</ele><time>2026-04-17T15:18:27.997Z</time></trkpt><trkpt lat="49.13748017257495" lon="2.508130665964377"><ele>73.0</ele><time>2026-04-17T15:18:29.997Z</time></trkpt><trkpt lat="49.13739637706898" lon="2.5080813944340523"><ele>73.0</ele><time>2026-04-17T15:18:31.997Z</time></trkpt><trkpt lat="49.1373019634677" lon="2.5080264235428813"><ele>73.0</ele><time>2026-04-17T15:18:33.997Z</time></trkpt><trkpt lat="49.13722006010625" lon="2.507979900698926"><ele>73.0</ele><time>2026-04-17T15:18:35.997Z</time></trkpt><trkpt lat="49.13713625536274" lon="2.5079331790393278"><ele>73.66666666666666</ele><time>2026-04-17T15:18:38Z</time></trkpt><trkpt lat="49.13704798913339" lon="2.5079047915366903"><ele>74.33333333333333</ele><time>2026-04-17T15:18:40Z</time></trkpt><trkpt lat="49.13696671370194" lon="2.507855560230466"><ele>75.0</ele><time>2026-04-17T15:18:42Z</time></trkpt><trkpt lat="49.13688327573462" lon="2.507813711500848"><ele>75.66666666666667</ele><time>2026-04-17T15:18:44Z</time></trkpt><trkpt lat="49.136811186175876" lon="2.5077733863075715"><ele>76.33333333333334</ele><time>2026-04-17T15:18:46Z</time></trkpt><trkpt lat="49.13674688534348" lon="2.5077345837464353"><ele>77.0</ele><time>2026-04-17T15:18:48Z</time></trkpt><trkpt lat="49.136665919700995" lon="2.507689920089984"><ele>77.0</ele><time>2026-04-17T15:18:50Z</time></trkpt><trkpt lat="49.1365936397241" lon="2.5076462183885977"><ele>77.0</ele><time>2026-04-17T15:18:52Z</time></trkpt><trkpt lat="49.13652253215377" lon="2.5075932224351707"><ele>77.0</ele><time>2026-04-17T15:18:54Z</time></trkpt><trkpt lat="49.13645606393369" lon="2.507532075040605"><ele>77.0</ele><time>2026-04-17T15:18:56Z</time></trkpt><trkpt lat="49.13638407574909" lon="2.5075148319074705"><ele>77.0</ele><time>2026-04-17T15:18:58Z</time></trkpt><trkpt lat="49.13631432640821" lon="2.5074493292572875"><ele>77.0</ele><time>2026-04-17T15:19:00Z</time></trkpt><trkpt lat="49.136238750674224" lon="2.507429345913476"><ele>76.66666666666667</ele><time>2026-04-17T15:19:02Z</time></trkpt><trkpt lat="49.136169100711335" lon="2.5073703183271934"><ele>76.33333333333334</ele><time>2026-04-17T15:19:04Z</time></trkpt><trkpt lat="49.136095467515624" lon="2.507329309549745"><ele>76.0</ele><time>2026-04-17T15:19:06Z</time></trkpt><trkpt lat="49.136034918856176" lon="2.507282416922241"><ele>75.66666666666667</ele><time>2026-04-17T15:19:08Z</time></trkpt><trkpt lat="49.13596911821968" lon="2.50724501546372"><ele>75.33333333333333</ele><time>2026-04-17T15:19:10Z</time></trkpt><trkpt lat="49.135896036488504" lon="2.5072136389578024"><ele>75.0</ele><time>2026-04-17T15:19:12Z</time></trkpt><trkpt lat="49.13580963123195" lon="2.507209839190424"><ele>75.0</ele><time>2026-04-17T15:19:14Z</time></trkpt><trkpt lat="49.13572449480753" lon="2.5071851129049136"><ele>75.0</ele><time>2026-04-17T15:19:15.999Z</time></trkpt><trkpt lat="49.13563742492051" lon="2.507181910637795"><ele>75.0</ele><time>2026-04-17T15:19:17.999Z</time></trkpt><trkpt lat="49.13555255396579" lon="2.507166933468162"><ele>75.0</ele><time>2026-04-17T15:19:19.999Z</time></trkpt><trkpt lat="49.13546986995469" lon="2.5071507110681197"><ele>75.0</ele><time>2026-04-17T15:19:21.999Z</time></trkpt><trkpt lat="49.1353856930904" lon="2.5071264900216015"><ele>75.0</ele><time>2026-04-17T15:19:23.999Z</time></trkpt><trkpt lat="49.13530186115273" lon="2.5071133057849844"><ele>75.0</ele><time>2026-04-17T15:19:25.999Z</time></trkpt><trkpt lat="49.13521740611507" lon="2.5070936363296323"><ele>75.0</ele><time>2026-04-17T15:19:27.999Z</time></trkpt><trkpt lat="49.13513013932923" lon="2.507075707800458"><ele>75.0</ele><time>2026-04-17T15:19:29.999Z</time></trkpt><trkpt lat="49.1350464376686" lon="2.507051921579334"><ele>75.0</ele><time>2026-04-17T15:19:31.999Z</time></trkpt><trkpt lat="49.13496241268963" lon="2.5070383172845814"><ele>75.0</ele><time>2026-04-17T15:19:33.999Z</time></trkpt><trkpt lat="49.13487600834323" lon="2.5070114059911672"><ele>75.0</ele><time>2026-04-17T15:19:35.999Z</time></trkpt><trkpt lat="49.1347872873203" lon="2.5069833674278983"><ele>75.83333333333333</ele><time>2026-04-17T15:19:37.999Z</time></trkpt><trkpt lat="49.134702707403044" lon="2.506956594629323"><ele>76.66666666666667</ele><time>2026-04-17T15:19:39.999Z</time></trkpt><trkpt lat="49.13462368858217" lon="2.506923188336412"><ele>77.5</ele><time>2026-04-17T15:19:41.999Z</time></trkpt><trkpt lat="49.13454652856724" lon="2.506861874384806"><ele>78.33333333333334</ele><time>2026-04-17T15:19:43.999Z</time></trkpt><trkpt lat="49.1344688974146" lon="2.5068201285539224"><ele>79.16666666666667</ele><time>2026-04-17T15:19:45.999Z</time></trkpt><trkpt lat="49.13439362311909" lon="2.5068041383240955"><ele>80.0</ele><time>2026-04-17T15:19:47.999Z</time></trkpt><trkpt lat="49.134328146674235" lon="2.506736773090351"><ele>80.0</ele><time>2026-04-17T15:19:49.998Z</time></trkpt><trkpt lat="49.134258163899744" lon="2.506693399931919"><ele>80.0</ele><time>2026-04-17T15:19:51.998Z</time></trkpt><trkpt lat="49.134169510688196" lon="2.50687021388052"><ele>80.0</ele><time>2026-04-17T15:19:54.998Z</time></trkpt><trkpt lat="49.134113647412235" lon="2.507002453127417"><ele>80.0</ele><time>2026-04-17T15:19:56.998Z</time></trkpt><trkpt lat="49.13406139124487" lon="2.50713399140087"><ele>80.0</ele><time>2026-04-17T15:19:58.998Z</time></trkpt><trkpt lat="49.13401267544355" lon="2.5072771251866337"><ele>79.6</ele><time>2026-04-17T15:20:00.998Z</time></trkpt><trkpt lat="49.133947616596274" lon="2.507415346538149"><ele>79.2</ele><time>2026-04-17T15:20:02.998Z</time></trkpt><trkpt lat="49.13389336406209" lon="2.5075500628839538"><ele>78.8</ele><time>2026-04-17T15:20:04.998Z</time></trkpt><trkpt lat="49.13383697624276" lon="2.507691878374157"><ele>78.4</ele><time>2026-04-17T15:20:06.998Z</time></trkpt><trkpt lat="49.13378744845281" lon="2.507816842044025"><ele>78.0</ele><time>2026-04-17T15:20:08.998Z</time></trkpt><trkpt lat="49.133740354257725" lon="2.5079351511989416"><ele>78.0</ele><time>2026-04-17T15:20:10.998Z</time></trkpt><trkpt lat="49.13370061857191" lon="2.508035731334158"><ele>78.0</ele><time>2026-04-17T15:20:12.998Z</time></trkpt><trkpt lat="49.13360642779562" lon="2.507988636056577"><ele>78.0</ele><time>2026-04-17T15:30:18.998Z</time></trkpt><trkpt lat="49.133554135349534" lon="2.5080542379937816"><ele>78.0</ele><time>2026-04-17T15:30:21.998Z</time></trkpt><trkpt lat="49.13363889434157" lon="2.5079719547210266"><ele>78.0</ele><time>2026-04-17T15:51:21.005Z</time></trkpt><trkpt lat="49.13355050151951" lon="2.5080494757391882"><ele>78.0</ele><time>2026-04-17T16:04:50.999Z</time></trkpt><trkpt lat="49.133552464109385" lon="2.5079448456310667"><ele>78.0</ele><time>2026-04-17T16:46:21.997Z</time></trkpt><trkpt lat="49.13348804250159" lon="2.5078952975077"><ele>78.0</ele><time>2026-04-17T16:46:56Z</time></trkpt><trkpt lat="49.13352892344853" lon="2.5077660931013126"><ele>78.0</ele><time>2026-04-17T16:46:59Z</time></trkpt><trkpt lat="49.1335686325296" lon="2.507670380930595"><ele>78.0</ele><time>2026-04-17T16:47:04Z</time></trkpt><trkpt lat="49.133500967583494" lon="2.5077223266641684"><ele>78.0</ele><time>2026-04-17T16:47:08Z</time></trkpt><trkpt lat="49.133499030420566" lon="2.5078623697281337"><ele>78.0</ele><time>2026-04-17T16:47:12Z</time></trkpt><trkpt lat="49.13359440362459" lon="2.507921718513236"><ele>78.0</ele><time>2026-04-17T16:47:37.999Z</time></trkpt><trkpt lat="49.13361932881516" lon="2.5077834067881124"><ele>78.0</ele><time>2026-04-17T16:55:38.033Z</time></trkpt><trkpt lat="49.13357195852668" lon="2.5080314328264763"><ele>78.0</ele><time>2026-04-17T16:56:29.998Z</time></trkpt><trkpt lat="49.133621591522235" lon="2.507966224964251"><ele>78.0</ele><time>2026-04-17T17:10:04Z</time></trkpt><trkpt lat="49.133673382963046" lon="2.5079019029146967"><ele>78.0</ele><time>2026-04-17T17:10:25.999Z</time></trkpt><trkpt lat="49.13360246597774" lon="2.5079202948151575"><ele>78.0</ele><time>2026-04-17T17:10:31.999Z</time></trkpt><trkpt lat="49.1335144200209" lon="2.5078522107629877"><ele>78.0</ele><time>2026-04-17T17:10:37.999Z</time></trkpt><trkpt lat="49.13355698189449" lon="2.507936466687629"><ele>78.0</ele><time>2026-04-17T17:10:39.999Z</time></trkpt><trkpt lat="49.13361007674418" lon="2.508001537839614"><ele>78.0</ele><time>2026-04-17T17:10:41.999Z</time></trkpt><trkpt lat="49.13368616673141" lon="2.508023962978141"><ele>78.0</ele><time>2026-04-17T17:10:52.998Z</time></trkpt><trkpt lat="49.13362432884318" lon="2.5079567524212227"><ele>78.0</ele><time>2026-04-17T17:16:14Z</time></trkpt><trkpt lat="49.13356000509809" lon="2.507937102854372"><ele>78.0</ele><time>2026-04-17T17:19:55.997Z</time></trkpt><trkpt lat="49.133491143063104" lon="2.5078484179225256"><ele>78.0</ele><time>2026-04-17T17:29:16.999Z</time></trkpt><trkpt lat="49.133535476783294" lon="2.5079187907252365"><ele>78.0</ele><time>2026-04-17T17:29:40.998Z</time></trkpt><trkpt lat="49.1336332989252" lon="2.5079435395772784"><ele>78.0</ele><time>2026-04-17T17:31:43.998Z</time></trkpt><trkpt lat="49.13369521052978" lon="2.5080216148631185"><ele>78.0</ele><time>2026-04-17T17:31:55.998Z</time></trkpt><trkpt lat="49.13365094025867" lon="2.507938306813087"><ele>78.0</ele><time>2026-04-17T17:33:54.998Z</time></trkpt><trkpt lat="49.13394954725323" lon="2.507706323490417"><ele>78.0</ele><time>2026-04-17T17:34:30.997Z</time></trkpt><trkpt lat="49.133867270838515" lon="2.507975862203251"><ele>78.0</ele><time>2026-04-17T17:34:31.997Z</time></trkpt><trkpt lat="49.133696324366525" lon="2.5080794152124612"><ele>78.0</ele><time>2026-04-17T17:34:32.997Z</time></trkpt><trkpt lat="49.13366593410799" lon="2.5079874701259195"><ele>78.0</ele><time>2026-04-17T17:34:36.997Z</time></trkpt><trkpt lat="49.133623432075645" lon="2.5078845800922243"><ele>78.0</ele><time>2026-04-17T17:34:51Z</time></trkpt><trkpt lat="49.13353319922773" lon="2.5078455396555124"><ele>78.0</ele><time>2026-04-17T17:35:34.999Z</time></trkpt><trkpt lat="49.13355626207908" lon="2.5079353798472264"><ele>78.0</ele><time>2026-04-17T17:35:48.998Z</time></trkpt><trkpt lat="49.133621379739985" lon="2.5079528054774594"><ele>78.0</ele><time>2026-04-17T17:36:10.998Z</time></trkpt><trkpt lat="49.133666592619186" lon="2.5080443072529586"><ele>78.0</ele><time>2026-04-17T17:36:38.997Z</time></trkpt><trkpt lat="49.13373093486724" lon="2.5080169643570986"><ele>78.0</ele><time>2026-04-17T17:37:25.999Z</time></trkpt><trkpt lat="49.13368368862404" lon="2.5079512372122834"><ele>78.0</ele><time>2026-04-17T17:37:34.999Z</time></trkpt><trkpt lat="49.133617563811015" lon="2.507931156314127"><ele>78.0</ele><time>2026-04-17T17:37:41.999Z</time></trkpt><trkpt lat="49.133652186493386" lon="2.508011886508935"><ele>78.0</ele><time>2026-04-17T17:38:49Z</time></trkpt><trkpt lat="49.133736981184626" lon="2.507993006158766"><ele>78.0</ele><time>2026-04-17T17:39:25.999Z</time></trkpt><trkpt lat="49.13376904308777" lon="2.507896353846163"><ele>78.0</ele><time>2026-04-17T17:39:56.998Z</time></trkpt><trkpt lat="49.13381281840568" lon="2.507811113164359"><ele>78.0</ele><time>2026-04-17T17:39:58.998Z</time></trkpt><trkpt lat="49.13385766666163" lon="2.5077016729961517"><ele>78.0</ele><time>2026-04-17T17:40:00.998Z</time></trkpt><trkpt lat="49.133900678347246" lon="2.5075828543991756"><ele>77.8</ele><time>2026-04-17T17:40:02.998Z</time></trkpt><trkpt lat="49.13394765878154" lon="2.5074695076849913"><ele>77.6</ele><time>2026-04-17T17:40:04.998Z</time></trkpt><trkpt lat="49.13400398550157" lon="2.507335415956507"><ele>77.4</ele><time>2026-04-17T17:40:06.998Z</time></trkpt><trkpt lat="49.13405984339203" lon="2.5071897940929673"><ele>77.2</ele><time>2026-04-17T17:40:08.998Z</time></trkpt><trkpt lat="49.134129623293965" lon="2.5070605193877253"><ele>77.0</ele><time>2026-04-17T17:40:10.998Z</time></trkpt><trkpt lat="49.13416872037631" lon="2.5069282309905563"><ele>77.5</ele><time>2026-04-17T17:40:12.998Z</time></trkpt><trkpt lat="49.134206066229666" lon="2.5068281534976182"><ele>78.0</ele><time>2026-04-17T17:40:14.998Z</time></trkpt><trkpt lat="49.13424271736976" lon="2.5067419105675017"><ele>78.5</ele><time>2026-04-17T17:40:16.998Z</time></trkpt><trkpt lat="49.134297712302995" lon="2.5066923753614425"><ele>79.0</ele><time>2026-04-17T17:40:19.998Z</time></trkpt><trkpt lat="49.13433844956929" lon="2.5067978925340664"><ele>79.5</ele><time>2026-04-17T17:40:20.998Z</time></trkpt><trkpt lat="49.13443332549059" lon="2.5068539884829972"><ele>80.0</ele><time>2026-04-17T17:40:22.998Z</time></trkpt><trkpt lat="49.13454680704373" lon="2.50691526048296"><ele>80.0</ele><time>2026-04-17T17:40:24.998Z</time></trkpt><trkpt lat="49.13460988588651" lon="2.5069458310647854"><ele>80.0</ele><time>2026-04-17T17:40:25.997Z</time></trkpt><trkpt lat="49.134678175565156" lon="2.506975641920173"><ele>80.0</ele><time>2026-04-17T17:40:26.997Z</time></trkpt><trkpt lat="49.13475497787067" lon="2.5070036115125753"><ele>80.0</ele><time>2026-04-17T17:40:27.997Z</time></trkpt><trkpt lat="49.134829443957024" lon="2.507028280641678"><ele>80.0</ele><time>2026-04-17T17:40:28.997Z</time></trkpt><trkpt lat="49.13490613468526" lon="2.507049008101878"><ele>80.0</ele><time>2026-04-17T17:40:29.997Z</time></trkpt><trkpt lat="49.134985606443685" lon="2.5070716625830083"><ele>79.16666666666667</ele><time>2026-04-17T17:40:30.997Z</time></trkpt><trkpt lat="49.1350660431148" lon="2.5070914647247187"><ele>78.33333333333334</ele><time>2026-04-17T17:40:31.997Z</time></trkpt><trkpt lat="49.13514512832673" lon="2.5071100920443476"><ele>77.5</ele><time>2026-04-17T17:40:32.997Z</time></trkpt><trkpt lat="49.135221725497566" lon="2.5071271117280713"><ele>76.66666666666667</ele><time>2026-04-17T17:40:33.997Z</time></trkpt><trkpt lat="49.13529566812297" lon="2.5071429325041543"><ele>75.83333333333333</ele><time>2026-04-17T17:40:34.997Z</time></trkpt><trkpt lat="49.13536836344074" lon="2.50715848640052"><ele>75.0</ele><time>2026-04-17T17:40:35.997Z</time></trkpt><trkpt lat="49.13544021904467" lon="2.507173860635009"><ele>74.99999999999999</ele><time>2026-04-17T17:40:36.997Z</time></trkpt><trkpt lat="49.13551133049949" lon="2.5071890756517927"><ele>75.0</ele><time>2026-04-17T17:40:37.997Z</time></trkpt><trkpt lat="49.135580781317735" lon="2.507204552536491"><ele>75.0</ele><time>2026-04-17T17:40:38.997Z</time></trkpt><trkpt lat="49.13564900521384" lon="2.507219910415121"><ele>75.0</ele><time>2026-04-17T17:40:39.997Z</time></trkpt><trkpt lat="49.13571825408747" lon="2.507235499028446"><ele>75.0</ele><time>2026-04-17T17:40:40.997Z</time></trkpt><trkpt lat="49.13578415793677" lon="2.5072502748132157"><ele>74.99999999999999</ele><time>2026-04-17T17:40:41.997Z</time></trkpt><trkpt lat="49.135851400463096" lon="2.5072649468161536"><ele>75.0</ele><time>2026-04-17T17:40:42.997Z</time></trkpt><trkpt lat="49.135979322528016" lon="2.5072928589731522"><ele>75.0</ele><time>2026-04-17T17:40:44.997Z</time></trkpt><trkpt lat="49.136062705516046" lon="2.5071134903015246"><ele>75.0</ele><time>2026-04-17T17:40:45.997Z</time></trkpt><trkpt lat="49.13613605281659" lon="2.5070473074503954"><ele>75.0</ele><time>2026-04-17T17:40:46.997Z</time></trkpt><trkpt lat="49.13621318798482" lon="2.506970026060023"><ele>75.0</ele><time>2026-04-17T17:40:47.997Z</time></trkpt><trkpt lat="49.13629491470512" lon="2.5068885302584425"><ele>75.0</ele><time>2026-04-17T17:40:48.997Z</time></trkpt><trkpt lat="49.13637847382845" lon="2.5067940456928564"><ele>76.25</ele><time>2026-04-17T17:40:49.997Z</time></trkpt><trkpt lat="49.136467574985254" lon="2.5066977253183857"><ele>77.5</ele><time>2026-04-17T17:40:50.997Z</time></trkpt><trkpt lat="49.13656029498962" lon="2.506595900635098"><ele>78.75</ele><time>2026-04-17T17:40:51.997Z</time></trkpt><trkpt lat="49.13665532351625" lon="2.506484097655334"><ele>80.0</ele><time>2026-04-17T17:40:52.997Z</time></trkpt><trkpt lat="49.136747416950996" lon="2.506352188481"><ele>80.25</ele><time>2026-04-17T17:40:53.997Z</time></trkpt><trkpt lat="49.13683850585217" lon="2.5062046716351296"><ele>80.5</ele><time>2026-04-17T17:40:55Z</time></trkpt><trkpt lat="49.13692802718077" lon="2.5060572346760446"><ele>80.75</ele><time>2026-04-17T17:40:56Z</time></trkpt><trkpt lat="49.137021778442794" lon="2.505906734008174"><ele>81.0</ele><time>2026-04-17T17:40:57Z</time></trkpt><trkpt lat="49.137120988460225" lon="2.505753386852173"><ele>81.0</ele><time>2026-04-17T17:40:58Z</time></trkpt><trkpt lat="49.13722076544406" lon="2.5055935298990697"><ele>81.0</ele><time>2026-04-17T17:40:59Z</time></trkpt><trkpt lat="49.13732143164839" lon="2.5054282924137654"><ele>81.0</ele><time>2026-04-17T17:41:00Z</time></trkpt><trkpt lat="49.13742185842563" lon="2.5052607212172737"><ele>81.0</ele><time>2026-04-17T17:41:01Z</time></trkpt><trkpt lat="49.13751697370451" lon="2.5050843659015527"><ele>79.66666666666667</ele><time>2026-04-17T17:41:02Z</time></trkpt><trkpt lat="49.1376002283962" lon="2.504891702378272"><ele>78.33333333333334</ele><time>2026-04-17T17:41:03Z</time></trkpt><trkpt lat="49.13767084094446" lon="2.5046884311131103"><ele>77.0</ele><time>2026-04-17T17:41:04Z</time></trkpt><trkpt lat="49.13772552064873" lon="2.50447193162505"><ele>77.0</ele><time>2026-04-17T17:41:05Z</time></trkpt><trkpt lat="49.1377742639798" lon="2.5042522988054357"><ele>77.0</ele><time>2026-04-17T17:41:06Z</time></trkpt><trkpt lat="49.137823542896136" lon="2.5040307420997907"><ele>77.0</ele><time>2026-04-17T17:41:07Z</time></trkpt><trkpt lat="49.13788117048523" lon="2.5038128294968955"><ele>77.0</ele><time>2026-04-17T17:41:08Z</time></trkpt><trkpt lat="49.13794161107586" lon="2.5036027473484017"><ele>77.0</ele><time>2026-04-17T17:41:09Z</time></trkpt><trkpt lat="49.13800734101305" lon="2.503398419506596"><ele>77.0</ele><time>2026-04-17T17:41:10Z</time></trkpt><trkpt lat="49.13807911633893" lon="2.503202920992292"><ele>77.0</ele><time>2026-04-17T17:41:11Z</time></trkpt><trkpt lat="49.13815484544528" lon="2.5030103228331853"><ele>77.25</ele><time>2026-04-17T17:41:12Z</time></trkpt><trkpt lat="49.13822741234455" lon="2.502816918631751"><ele>77.5</ele><time>2026-04-17T17:41:13Z</time></trkpt><trkpt lat="49.13829994401677" lon="2.5026231396189247"><ele>77.75</ele><time>2026-04-17T17:41:14Z</time></trkpt><trkpt lat="49.13837223410717" lon="2.5024299717526883"><ele>78.0</ele><time>2026-04-17T17:41:15Z</time></trkpt><trkpt lat="49.13844338078389" lon="2.502235024896404"><ele>79.0</ele><time>2026-04-17T17:41:16Z</time></trkpt><trkpt lat="49.13851571071472" lon="2.502042652011226"><ele>80.0</ele><time>2026-04-17T17:41:17Z</time></trkpt><trkpt lat="49.13858537968542" lon="2.501850975378423"><ele>81.0</ele><time>2026-04-17T17:41:18Z</time></trkpt><trkpt lat="49.13864312780851" lon="2.5016519002823525"><ele>82.0</ele><time>2026-04-17T17:41:19Z</time></trkpt><trkpt lat="49.13868419535555" lon="2.5014454965063364"><ele>82.5</ele><time>2026-04-17T17:41:20Z</time></trkpt><trkpt lat="49.13870910036652" lon="2.5012317595022058"><ele>83.0</ele><time>2026-04-17T17:41:21Z</time></trkpt><trkpt lat="49.138720413074886" lon="2.5010108481907682"><ele>83.5</ele><time>2026-04-17T17:41:21.999Z</time></trkpt><trkpt lat="49.13872659026177" lon="2.500785525706842"><ele>84.0</ele><time>2026-04-17T17:41:22.999Z</time></trkpt><trkpt lat="49.13873161843302" lon="2.5005607471476377"><ele>84.25</ele><time>2026-04-17T17:41:23.999Z</time></trkpt><trkpt lat="49.13873698721014" lon="2.5003348637501985"><ele>84.5</ele><time>2026-04-17T17:41:24.999Z</time></trkpt><trkpt lat="49.13874198910181" lon="2.50010719177989"><ele>84.75</ele><time>2026-04-17T17:41:25.999Z</time></trkpt><trkpt lat="49.13874872502195" lon="2.4998783196819243"><ele>85.0</ele><time>2026-04-17T17:41:26.999Z</time></trkpt><trkpt lat="49.1387535505221" lon="2.4996498587970795"><ele>86.0</ele><time>2026-04-17T17:41:27.999Z</time></trkpt><trkpt lat="49.13875679638083" lon="2.499421285808921"><ele>87.0</ele><time>2026-04-17T17:41:28.999Z</time></trkpt><trkpt lat="49.13876153895337" lon="2.4991916535582366"><ele>88.0</ele><time>2026-04-17T17:41:29.999Z</time></trkpt><trkpt lat="49.13876621592013" lon="2.498961782061699"><ele>88.0</ele><time>2026-04-17T17:41:30.999Z</time></trkpt><trkpt lat="49.138771798499384" lon="2.4987321287889506"><ele>88.0</ele><time>2026-04-17T17:41:31.999Z</time></trkpt><trkpt lat="49.13877906383169" lon="2.498501971839809"><ele>88.0</ele><time>2026-04-17T17:41:32.999Z</time></trkpt><trkpt lat="49.138784985161465" lon="2.4982717489631376"><ele>88.0</ele><time>2026-04-17T17:41:33.999Z</time></trkpt><trkpt lat="49.138790837710076" lon="2.498040276535805"><ele>88.0</ele><time>2026-04-17T17:41:34.999Z</time></trkpt><trkpt lat="49.138795746886736" lon="2.497809506050602"><ele>88.0</ele><time>2026-04-17T17:41:35.999Z</time></trkpt><trkpt lat="49.13880106653002" lon="2.4975781977395646"><ele>88.0</ele><time>2026-04-17T17:41:36.999Z</time></trkpt><trkpt lat="49.138805806687685" lon="2.4973481517013605"><ele>88.0</ele><time>2026-04-17T17:41:37.999Z</time></trkpt><trkpt lat="49.138809567061124" lon="2.497118409392988"><ele>88.0</ele><time>2026-04-17T17:41:38.999Z</time></trkpt><trkpt lat="49.13881335833685" lon="2.4968896461333747"><ele>88.0</ele><time>2026-04-17T17:41:39.999Z</time></trkpt><trkpt lat="49.13881658186061" lon="2.496662615393521"><ele>88.0</ele><time>2026-04-17T17:41:40.999Z</time></trkpt><trkpt lat="49.13882199598466" lon="2.4964352991600665"><ele>88.0</ele><time>2026-04-17T17:41:41.999Z</time></trkpt><trkpt lat="49.138828567721546" lon="2.496207943037129"><ele>88.0</ele><time>2026-04-17T17:41:42.999Z</time></trkpt><trkpt lat="49.13883510313108" lon="2.4959798669526108"><ele>88.25</ele><time>2026-04-17T17:41:43.999Z</time></trkpt><trkpt lat="49.138840913817674" lon="2.495750902360553"><ele>88.5</ele><time>2026-04-17T17:41:44.999Z</time></trkpt><trkpt lat="49.138844822545124" lon="2.4955210716117375"><ele>88.75</ele><time>2026-04-17T17:41:45.999Z</time></trkpt><trkpt lat="49.13884785713367" lon="2.4952931511693426"><ele>89.0</ele><time>2026-04-17T17:41:46.999Z</time></trkpt><trkpt lat="49.138850941605305" lon="2.4950659169624334"><ele>89.0</ele><time>2026-04-17T17:41:47.999Z</time></trkpt><trkpt lat="49.138857991727626" lon="2.4948417512991496"><ele>89.0</ele><time>2026-04-17T17:41:48.999Z</time></trkpt><trkpt lat="49.13886577501408" lon="2.4946179593267153"><ele>89.0</ele><time>2026-04-17T17:41:49.999Z</time></trkpt><trkpt lat="49.138872633047995" lon="2.494395635179815"><ele>89.0</ele><time>2026-04-17T17:41:50.999Z</time></trkpt><trkpt lat="49.13887778348499" lon="2.4941757863627094"><ele>89.0</ele><time>2026-04-17T17:41:51.999Z</time></trkpt><trkpt lat="49.13888402386253" lon="2.493956809749958"><ele>89.0</ele><time>2026-04-17T17:41:52.999Z</time></trkpt><trkpt lat="49.138889189980425" lon="2.493739088218639"><ele>89.0</ele><time>2026-04-17T17:41:53.999Z</time></trkpt><trkpt lat="49.138894053073194" lon="2.493523648109646"><ele>89.0</ele><time>2026-04-17T17:41:54.999Z</time></trkpt><trkpt lat="49.138898764474554" lon="2.4933156181615628"><ele>89.0</ele><time>2026-04-17T17:41:55.998Z</time></trkpt><trkpt lat="49.138903962622045" lon="2.4931150518276524"><ele>89.0</ele><time>2026-04-17T17:41:56.998Z</time></trkpt><trkpt lat="49.13890912776561" lon="2.4929211793823725"><ele>89.0</ele><time>2026-04-17T17:41:57.998Z</time></trkpt><trkpt lat="49.13891615032092" lon="2.492732491820756"><ele>89.0</ele><time>2026-04-17T17:41:58.998Z</time></trkpt><trkpt lat="49.13892585332874" lon="2.492542891736657"><ele>88.75</ele><time>2026-04-17T17:41:59.998Z</time></trkpt><trkpt lat="49.13894187690647" lon="2.492352330409784"><ele>88.5</ele><time>2026-04-17T17:42:00.998Z</time></trkpt><trkpt lat="49.138967400440116" lon="2.492161790537546"><ele>88.25</ele><time>2026-04-17T17:42:01.998Z</time></trkpt><trkpt lat="49.13900566362824" lon="2.491976583503462"><ele>88.0</ele><time>2026-04-17T17:42:02.998Z</time></trkpt><trkpt lat="49.13905941053056" lon="2.4918008219172636"><ele>88.0</ele><time>2026-04-17T17:42:03.998Z</time></trkpt><trkpt lat="49.139126483883715" lon="2.491640399106821"><ele>88.0</ele><time>2026-04-17T17:42:04.998Z</time></trkpt><trkpt lat="49.139202545892964" lon="2.4914871612914187"><ele>88.0</ele><time>2026-04-17T17:42:05.998Z</time></trkpt><trkpt lat="49.13928298439059" lon="2.4913391503970916"><ele>88.0</ele><time>2026-04-17T17:42:06.998Z</time></trkpt><trkpt lat="49.13936037230498" lon="2.491191464421088"><ele>87.5</ele><time>2026-04-17T17:42:07.998Z</time></trkpt><trkpt lat="49.13943752415645" lon="2.4910423363241434"><ele>87.0</ele><time>2026-04-17T17:42:08.998Z</time></trkpt><trkpt lat="49.13951390462185" lon="2.4908950245938146"><ele>86.5</ele><time>2026-04-17T17:42:09.998Z</time></trkpt><trkpt lat="49.13958767616861" lon="2.4907475431857407"><ele>86.0</ele><time>2026-04-17T17:42:10.998Z</time></trkpt><trkpt lat="49.139652901095815" lon="2.4905935406935735"><ele>86.0</ele><time>2026-04-17T17:42:11.998Z</time></trkpt><trkpt lat="49.13970901555347" lon="2.4904345526001195"><ele>86.0</ele><time>2026-04-17T17:42:12.998Z</time></trkpt><trkpt lat="49.13975470102503" lon="2.490270970824403"><ele>86.0</ele><time>2026-04-17T17:42:13.998Z</time></trkpt><trkpt lat="49.139782853367656" lon="2.4901018194720583"><ele>86.0</ele><time>2026-04-17T17:42:14.998Z</time></trkpt><trkpt lat="49.139791988051016" lon="2.489933755033382"><ele>86.0</ele><time>2026-04-17T17:42:15.998Z</time></trkpt><trkpt lat="49.13978829317264" lon="2.4897710302087703"><ele>86.0</ele><time>2026-04-17T17:42:16.998Z</time></trkpt><trkpt lat="49.139771918236406" lon="2.489610951040554"><ele>86.0</ele><time>2026-04-17T17:42:17.998Z</time></trkpt><trkpt lat="49.13974301345077" lon="2.4894495388151143"><ele>86.0</ele><time>2026-04-17T17:42:18.998Z</time></trkpt><trkpt lat="49.1397015510951" lon="2.489282870505859"><ele>86.0</ele><time>2026-04-17T17:42:19.998Z</time></trkpt><trkpt lat="49.13964735817677" lon="2.489118128016013"><ele>86.25</ele><time>2026-04-17T17:42:20.998Z</time></trkpt><trkpt lat="49.13958413394051" lon="2.4889623465767725"><ele>86.5</ele><time>2026-04-17T17:42:21.998Z</time></trkpt><trkpt lat="49.13952135316664" lon="2.488801252531396"><ele>86.75</ele><time>2026-04-17T17:42:22.998Z</time></trkpt><trkpt lat="49.13945975908073" lon="2.488631479037972"><ele>87.0</ele><time>2026-04-17T17:42:23.998Z</time></trkpt><trkpt lat="49.13939972019361" lon="2.4884678531759423"><ele>88.0</ele><time>2026-04-17T17:42:24.998Z</time></trkpt><trkpt lat="49.139339853645794" lon="2.4883042523495207"><ele>89.0</ele><time>2026-04-17T17:42:25.998Z</time></trkpt><trkpt lat="49.1392784408745" lon="2.488142487894261"><ele>90.0</ele><time>2026-04-17T17:42:26.998Z</time></trkpt><trkpt lat="49.13921613733724" lon="2.4879777175015527"><ele>91.0</ele><time>2026-04-17T17:42:27.998Z</time></trkpt><trkpt lat="49.13915567574729" lon="2.487804619371249"><ele>91.25</ele><time>2026-04-17T17:42:28.997Z</time></trkpt><trkpt lat="49.13910401433059" lon="2.4876199623974573"><ele>91.5</ele><time>2026-04-17T17:42:29.997Z</time></trkpt><trkpt lat="49.13907028017935" lon="2.4874244590296355"><ele>91.75</ele><time>2026-04-17T17:42:30.997Z</time></trkpt><trkpt lat="49.1390511427165" lon="2.487222566379683"><ele>92.0</ele><time>2026-04-17T17:42:31.997Z</time></trkpt><trkpt lat="49.1390477616785" lon="2.4870205596470987"><ele>92.25</ele><time>2026-04-17T17:42:32.997Z</time></trkpt><trkpt lat="49.139052410433806" lon="2.486820040282444"><ele>92.5</ele><time>2026-04-17T17:42:33.997Z</time></trkpt><trkpt lat="49.13905598023994" lon="2.486620967545046"><ele>92.75</ele><time>2026-04-17T17:42:34.997Z</time></trkpt><trkpt lat="49.13905996650576" lon="2.486423762919642"><ele>93.0</ele><time>2026-04-17T17:42:35.997Z</time></trkpt><trkpt lat="49.13906368963293" lon="2.4862268189668506"><ele>93.0</ele><time>2026-04-17T17:42:36.997Z</time></trkpt><trkpt lat="49.139068409246846" lon="2.486031204276655"><ele>93.0</ele><time>2026-04-17T17:42:37.997Z</time></trkpt><trkpt lat="49.139074714751196" lon="2.4858391713566608"><ele>93.0</ele><time>2026-04-17T17:42:38.997Z</time></trkpt><trkpt lat="49.1390799530803" lon="2.485648988772666"><ele>93.0</ele><time>2026-04-17T17:42:39.997Z</time></trkpt><trkpt lat="49.139084451884635" lon="2.4854666648103114"><ele>93.0</ele><time>2026-04-17T17:42:40.997Z</time></trkpt><trkpt lat="49.139086090316624" lon="2.485311051194434"><ele>93.0</ele><time>2026-04-17T17:42:41.997Z</time></trkpt><trkpt lat="49.139086999822624" lon="2.485175732024383"><ele>93.0</ele><time>2026-04-17T17:42:42.997Z</time></trkpt><trkpt lat="49.139087870375164" lon="2.485047725036003"><ele>93.0</ele><time>2026-04-17T17:42:43.997Z</time></trkpt><trkpt lat="49.13908605532967" lon="2.4849217162220367"><ele>93.0</ele><time>2026-04-17T17:42:44.997Z</time></trkpt><trkpt lat="49.13907293068558" lon="2.4847961474953535"><ele>93.0</ele><time>2026-04-17T17:42:45.997Z</time></trkpt><trkpt lat="49.13903824435874" lon="2.4846763421345885"><ele>93.16666666666667</ele><time>2026-04-17T17:42:46.997Z</time></trkpt><trkpt lat="49.13899110833146" lon="2.4845623877029293"><ele>93.33333333333333</ele><time>2026-04-17T17:42:47.997Z</time></trkpt><trkpt lat="49.1389341397692" lon="2.4844617017344475"><ele>93.5</ele><time>2026-04-17T17:42:48.997Z</time></trkpt><trkpt lat="49.138874349764436" lon="2.4843679264923777"><ele>93.66666666666666</ele><time>2026-04-17T17:42:49.997Z</time></trkpt><trkpt lat="49.138815138087026" lon="2.4842772640255952"><ele>93.83333333333333</ele><time>2026-04-17T17:42:50.997Z</time></trkpt><trkpt lat="49.138761887117134" lon="2.4841795641371975"><ele>94.0</ele><time>2026-04-17T17:42:51.997Z</time></trkpt><trkpt lat="49.13871682316621" lon="2.4840713605388207"><ele>94.0</ele><time>2026-04-17T17:42:52.997Z</time></trkpt><trkpt lat="49.13868318107778" lon="2.4839539053910378"><ele>94.0</ele><time>2026-04-17T17:42:53.997Z</time></trkpt><trkpt lat="49.13866031641661" lon="2.4838307080105406"><ele>94.0</ele><time>2026-04-17T17:42:54.997Z</time></trkpt><trkpt lat="49.13864499934005" lon="2.4837022027176463"><ele>94.0</ele><time>2026-04-17T17:42:55.997Z</time></trkpt><trkpt lat="49.1386366945957" lon="2.4835697319621115"><ele>94.0</ele><time>2026-04-17T17:42:56.997Z</time></trkpt><trkpt lat="49.13864382095853" lon="2.483433717298862"><ele>94.0</ele><time>2026-04-17T17:42:57.997Z</time></trkpt><trkpt lat="49.13865490744196" lon="2.4832892541001685"><ele>92.80000000000001</ele><time>2026-04-17T17:42:58.997Z</time></trkpt><trkpt lat="49.13866866998693" lon="2.4831379357053263"><ele>91.60000000000001</ele><time>2026-04-17T17:42:59.997Z</time></trkpt><trkpt lat="49.13869116918446" lon="2.482983617919816"><ele>90.4</ele><time>2026-04-17T17:43:01Z</time></trkpt><trkpt lat="49.1387153111465" lon="2.4828262643300403"><ele>89.2</ele><time>2026-04-17T17:43:02Z</time></trkpt><trkpt lat="49.138739660946285" lon="2.482669362152057"><ele>88.0</ele><time>2026-04-17T17:43:02.999Z</time></trkpt><trkpt lat="49.13876480081639" lon="2.4825151856183365"><ele>86.80000000000001</ele><time>2026-04-17T17:43:04Z</time></trkpt><trkpt lat="49.138789270240736" lon="2.4823628216102476"><ele>85.6</ele><time>2026-04-17T17:43:05Z</time></trkpt><trkpt lat="49.13881561414095" lon="2.4822126070862374"><ele>84.4</ele><time>2026-04-17T17:43:06Z</time></trkpt><trkpt lat="49.138845161077235" lon="2.482066728898409"><ele>83.19999999999999</ele><time>2026-04-17T17:43:07Z</time></trkpt><trkpt lat="49.13887591603266" lon="2.4819248021091154"><ele>82.0</ele><time>2026-04-17T17:43:08Z</time></trkpt><trkpt lat="49.138908649768645" lon="2.481788057649306"><ele>81.8</ele><time>2026-04-17T17:43:09Z</time></trkpt><trkpt lat="49.13894688367713" lon="2.481655323070114"><ele>81.6</ele><time>2026-04-17T17:43:10Z</time></trkpt><trkpt lat="49.13898901848673" lon="2.481528823561172"><ele>81.39999999999999</ele><time>2026-04-17T17:43:11Z</time></trkpt><trkpt lat="49.13903707474146" lon="2.4814050652087896"><ele>81.19999999999999</ele><time>2026-04-17T17:43:12Z</time></trkpt><trkpt lat="49.139089451707385" lon="2.4812814295454113"><ele>81.0</ele><time>2026-04-17T17:43:13Z</time></trkpt><trkpt lat="49.13913998889328" lon="2.481163398255089"><ele>79.16666666666667</ele><time>2026-04-17T17:43:14Z</time></trkpt><trkpt lat="49.13918404970788" lon="2.481062745888941"><ele>77.33333333333333</ele><time>2026-04-17T17:43:15Z</time></trkpt><trkpt lat="49.1392173566727" lon="2.480980736372108"><ele>75.5</ele><time>2026-04-17T17:43:16Z</time></trkpt><trkpt lat="49.13929007433916" lon="2.480805800791734"><ele>73.66666666666666</ele><time>2026-04-17T17:43:18Z</time></trkpt><trkpt lat="49.13933133169158" lon="2.480707153110466"><ele>71.83333333333333</ele><time>2026-04-17T17:43:19Z</time></trkpt><trkpt lat="49.139371704256845" lon="2.4806084744585446"><ele>70.0</ele><time>2026-04-17T17:43:20Z</time></trkpt><trkpt lat="49.139408205443345" lon="2.480501618075253"><ele>68.83333333333333</ele><time>2026-04-17T17:43:20.999Z</time></trkpt><trkpt lat="49.1394400821614" lon="2.4803898234176764"><ele>67.66666666666666</ele><time>2026-04-17T17:43:21.999Z</time></trkpt><trkpt lat="49.1394644177024" lon="2.4802640179038073"><ele>66.5</ele><time>2026-04-17T17:43:22.999Z</time></trkpt><trkpt lat="49.1394811309924" lon="2.480136856832201"><ele>65.33333333333333</ele><time>2026-04-17T17:43:23.999Z</time></trkpt><trkpt lat="49.139496661264666" lon="2.4800082890138695"><ele>64.16666666666667</ele><time>2026-04-17T17:43:24.999Z</time></trkpt><trkpt lat="49.13951302755613" lon="2.4798814041796393"><ele>63.0</ele><time>2026-04-17T17:43:25.999Z</time></trkpt><trkpt lat="49.13952796507035" lon="2.479754244220456"><ele>63.0</ele><time>2026-04-17T17:43:26.999Z</time></trkpt><trkpt lat="49.13954387618964" lon="2.4796235683298846"><ele>63.0</ele><time>2026-04-17T17:43:27.999Z</time></trkpt><trkpt lat="49.13956008472167" lon="2.479488220829018"><ele>63.0</ele><time>2026-04-17T17:43:28.999Z</time></trkpt><trkpt lat="49.13957757736445" lon="2.4793539874241066"><ele>63.0</ele><time>2026-04-17T17:43:29.999Z</time></trkpt><trkpt lat="49.13959708221458" lon="2.4792412473752687"><ele>63.0</ele><time>2026-04-17T17:43:30.999Z</time></trkpt><trkpt lat="49.13962073729071" lon="2.479142284223172"><ele>63.0</ele><time>2026-04-17T17:43:31.999Z</time></trkpt><trkpt lat="49.13965495466593" lon="2.4790443446169115"><ele>62.333333333333336</ele><time>2026-04-17T17:43:32.999Z</time></trkpt><trkpt lat="49.13969530619985" lon="2.4789441357500004"><ele>61.66666666666667</ele><time>2026-04-17T17:43:33.999Z</time></trkpt><trkpt lat="49.139740730471324" lon="2.478851693234593"><ele>61.0</ele><time>2026-04-17T17:43:34.999Z</time></trkpt><trkpt lat="49.13978637579417" lon="2.4787743173615007"><ele>60.333333333333336</ele><time>2026-04-17T17:43:35.999Z</time></trkpt><trkpt lat="49.139866697793" lon="2.478634170315623"><ele>59.66666666666667</ele><time>2026-04-17T17:43:37.999Z</time></trkpt><trkpt lat="49.13990677489941" lon="2.4785574657306615"><ele>59.0</ele><time>2026-04-17T17:43:38.999Z</time></trkpt><trkpt lat="49.13994649372617" lon="2.4784801087474375"><ele>59.0</ele><time>2026-04-17T17:43:39.999Z</time></trkpt><trkpt lat="49.140014368775354" lon="2.4783566810539996"><ele>59.00000000000001</ele><time>2026-04-17T17:43:41.999Z</time></trkpt><trkpt lat="49.14008366337537" lon="2.478231892507717"><ele>59.00000000000001</ele><time>2026-04-17T17:43:43.999Z</time></trkpt><trkpt lat="49.140160451073285" lon="2.478099511587175"><ele>59.0</ele><time>2026-04-17T17:43:45.999Z</time></trkpt><trkpt lat="49.14023482264694" lon="2.4779690533803405"><ele>59.0</ele><time>2026-04-17T17:43:47.999Z</time></trkpt><trkpt lat="49.14030954844785" lon="2.477840222146273"><ele>58.16666666666667</ele><time>2026-04-17T17:43:49.999Z</time></trkpt><trkpt lat="49.140374803027385" lon="2.4777252432921126"><ele>57.333333333333336</ele><time>2026-04-17T17:43:51.999Z</time></trkpt><trkpt lat="49.14042008811346" lon="2.477643306469977"><ele>56.5</ele><time>2026-04-17T17:43:53.999Z</time></trkpt><trkpt lat="49.14047915007949" lon="2.4775378802165102"><ele>55.66666666666667</ele><time>2026-04-17T17:43:57.999Z</time></trkpt><trkpt lat="49.14055242811342" lon="2.477408357422631"><ele>54.833333333333336</ele><time>2026-04-17T17:43:59.999Z</time></trkpt><trkpt lat="49.140599801116096" lon="2.4773251441490545"><ele>54.0</ele><time>2026-04-17T17:44:00.998Z</time></trkpt><trkpt lat="49.140647327527624" lon="2.4772445330700092"><ele>54.0</ele><time>2026-04-17T17:44:01.998Z</time></trkpt><trkpt lat="49.14069725680517" lon="2.477160979028379"><ele>54.0</ele><time>2026-04-17T17:44:02.998Z</time></trkpt><trkpt lat="49.140749778320455" lon="2.4770710584557234"><ele>54.0</ele><time>2026-04-17T17:44:03.998Z</time></trkpt><trkpt lat="49.14080150679884" lon="2.476978711847316"><ele>54.0</ele><time>2026-04-17T17:44:04.998Z</time></trkpt><trkpt lat="49.14085013633988" lon="2.4768800981918466"><ele>54.0</ele><time>2026-04-17T17:44:05.998Z</time></trkpt><trkpt lat="49.1408972316975" lon="2.4767786827861884"><ele>54.0</ele><time>2026-04-17T17:44:06.998Z</time></trkpt><trkpt lat="49.14094098647319" lon="2.476681305078796"><ele>53.166666666666664</ele><time>2026-04-17T17:44:07.998Z</time></trkpt><trkpt lat="49.14098368790417" lon="2.4765904011850974"><ele>52.33333333333333</ele><time>2026-04-17T17:44:08.998Z</time></trkpt><trkpt lat="49.14102370543838" lon="2.476507784110736"><ele>51.5</ele><time>2026-04-17T17:44:09.998Z</time></trkpt><trkpt lat="49.14109402197462" lon="2.476376250020566"><ele>50.666666666666664</ele><time>2026-04-17T17:44:11.998Z</time></trkpt><trkpt lat="49.14106502847096" lon="2.47626233620893"><ele>49.83333333333333</ele><time>2026-04-17T17:44:12.998Z</time></trkpt><trkpt lat="49.141030897690015" lon="2.4761674441559727"><ele>49.0</ele><time>2026-04-17T17:44:13.998Z</time></trkpt><trkpt lat="49.14099601359862" lon="2.47604433487452"><ele>48.6</ele><time>2026-04-17T17:44:14.998Z</time></trkpt><trkpt lat="49.140954799938086" lon="2.4759021492969437"><ele>48.2</ele><time>2026-04-17T17:44:15.998Z</time></trkpt><trkpt lat="49.140911384358205" lon="2.475755641520597"><ele>47.800000000000004</ele><time>2026-04-17T17:44:16.998Z</time></trkpt><trkpt lat="49.14086684525964" lon="2.475606005357272"><ele>47.400000000000006</ele><time>2026-04-17T17:44:17.998Z</time></trkpt><trkpt lat="49.14082507530213" lon="2.4754596406615894"><ele>47.0</ele><time>2026-04-17T17:44:18.998Z</time></trkpt><trkpt lat="49.1407830712445" lon="2.4753222713197984"><ele>46.8</ele><time>2026-04-17T17:44:19.998Z</time></trkpt><trkpt lat="49.14074344063782" lon="2.4751832869233374"><ele>46.6</ele><time>2026-04-17T17:44:20.998Z</time></trkpt><trkpt lat="49.14070445902497" lon="2.4750535011074435"><ele>46.4</ele><time>2026-04-17T17:44:21.998Z</time></trkpt><trkpt lat="49.14066645542382" lon="2.474923956961838"><ele>46.199999999999996</ele><time>2026-04-17T17:44:22.998Z</time></trkpt><trkpt lat="49.140628443207284" lon="2.4747933577055585"><ele>46.0</ele><time>2026-04-17T17:44:23.998Z</time></trkpt><trkpt lat="49.14059197556754" lon="2.4746615725932366"><ele>46.4</ele><time>2026-04-17T17:44:24.998Z</time></trkpt><trkpt lat="49.14055478510849" lon="2.4745277944527033"><ele>46.8</ele><time>2026-04-17T17:44:25.998Z</time></trkpt><trkpt lat="49.14051669092816" lon="2.474393614152892"><ele>47.199999999999996</ele><time>2026-04-17T17:44:26.998Z</time></trkpt><trkpt lat="49.140478898030885" lon="2.4742641905216214"><ele>47.599999999999994</ele><time>2026-04-17T17:44:27.998Z</time></trkpt><trkpt lat="49.14044160387005" lon="2.474132628210421"><ele>48.0</ele><time>2026-04-17T17:44:28.998Z</time></trkpt><trkpt lat="49.140404206588805" lon="2.4740020258470157"><ele>48.0</ele><time>2026-04-17T17:44:29.998Z</time></trkpt><trkpt lat="49.140368626506095" lon="2.473873957903111"><ele>48.0</ele><time>2026-04-17T17:44:30.998Z</time></trkpt><trkpt lat="49.14033159494322" lon="2.4737497770250503"><ele>48.0</ele><time>2026-04-17T17:44:31.998Z</time></trkpt><trkpt lat="49.140296620766" lon="2.4736307896012675"><ele>48.0</ele><time>2026-04-17T17:44:32.998Z</time></trkpt><trkpt lat="49.1402624645278" lon="2.4735146624328066"><ele>48.0</ele><time>2026-04-17T17:44:33.998Z</time></trkpt><trkpt lat="49.140230329107204" lon="2.4734049444967554"><ele>48.0</ele><time>2026-04-17T17:44:34.997Z</time></trkpt><trkpt lat="49.140200605604555" lon="2.4733017710654734"><ele>47.666666666666664</ele><time>2026-04-17T17:44:35.997Z</time></trkpt><trkpt lat="49.14015813775657" lon="2.473156018069431"><ele>47.333333333333336</ele><time>2026-04-17T17:44:37.997Z</time></trkpt><trkpt lat="49.140125601545016" lon="2.473048516299235"><ele>47.0</ele><time>2026-04-17T17:44:39.997Z</time></trkpt><trkpt lat="49.14008444904085" lon="2.472892372647433"><ele>46.66666666666667</ele><time>2026-04-17T17:44:41.997Z</time></trkpt><trkpt lat="49.14005705789142" lon="2.472798106223564"><ele>46.333333333333336</ele><time>2026-04-17T17:44:42.997Z</time></trkpt><trkpt lat="49.14002731445895" lon="2.4726988999344357"><ele>46.0</ele><time>2026-04-17T17:44:43.997Z</time></trkpt><trkpt lat="49.139998881526594" lon="2.4726041600095923"><ele>46.0</ele><time>2026-04-17T17:44:44.997Z</time></trkpt><trkpt lat="49.13997207853777" lon="2.472514633454409"><ele>46.0</ele><time>2026-04-17T17:44:45.997Z</time></trkpt><trkpt lat="49.13992575553454" lon="2.472338928170927"><ele>46.0</ele><time>2026-04-17T17:44:47.997Z</time></trkpt><trkpt lat="49.13988046752138" lon="2.472175179700657"><ele>46.0</ele><time>2026-04-17T17:44:49.997Z</time></trkpt><trkpt lat="49.139834905707" lon="2.4720224857965123"><ele>46.0</ele><time>2026-04-17T17:44:51.997Z</time></trkpt><trkpt lat="49.13979207377251" lon="2.4718706485434785"><ele>47.0</ele><time>2026-04-17T17:44:53.997Z</time></trkpt><trkpt lat="49.13975001020085" lon="2.471719764783511"><ele>48.0</ele><time>2026-04-17T17:44:55.997Z</time></trkpt><trkpt lat="49.13970955997607" lon="2.471575407280877"><ele>49.0</ele><time>2026-04-17T17:44:57.997Z</time></trkpt><trkpt lat="49.13965539648584" lon="2.471396650951953"><ele>50.0</ele><time>2026-04-17T17:44:59.997Z</time></trkpt><trkpt lat="49.13962495930749" lon="2.471282075474015"><ele>51.0</ele><time>2026-04-17T17:45:00.997Z</time></trkpt><trkpt lat="49.13959368856982" lon="2.4711722482313676"><ele>51.0</ele><time>2026-04-17T17:45:01.997Z</time></trkpt><trkpt lat="49.139558814004914" lon="2.4710542772063695"><ele>51.0</ele><time>2026-04-17T17:45:02.997Z</time></trkpt><trkpt lat="49.13952251393446" lon="2.4709258841029507"><ele>51.0</ele><time>2026-04-17T17:45:03.997Z</time></trkpt><trkpt lat="49.13948657225481" lon="2.470795940293967"><ele>51.0</ele><time>2026-04-17T17:45:04.997Z</time></trkpt><trkpt lat="49.13945104697198" lon="2.4706714574719992"><ele>51.0</ele><time>2026-04-17T17:45:05.997Z</time></trkpt><trkpt lat="49.13941648688594" lon="2.470546448946768"><ele>51.0</ele><time>2026-04-17T17:45:07Z</time></trkpt><trkpt lat="49.13938194151247" lon="2.470426766522827"><ele>51.0</ele><time>2026-04-17T17:45:08Z</time></trkpt><trkpt lat="49.1393466586966" lon="2.470310465081313"><ele>51.0</ele><time>2026-04-17T17:45:09Z</time></trkpt><trkpt lat="49.13931314787283" lon="2.470197744735077"><ele>51.0</ele><time>2026-04-17T17:45:10Z</time></trkpt><trkpt lat="49.13927983796912" lon="2.4700857908267664"><ele>51.0</ele><time>2026-04-17T17:45:11Z</time></trkpt><trkpt lat="49.13924834586414" lon="2.469975245578323"><ele>51.0</ele><time>2026-04-17T17:45:12Z</time></trkpt><trkpt lat="49.13921904196036" lon="2.469869717142492"><ele>51.0</ele><time>2026-04-17T17:45:13Z</time></trkpt><trkpt lat="49.13919232653466" lon="2.469770088481999"><ele>51.0</ele><time>2026-04-17T17:45:14Z</time></trkpt><trkpt lat="49.1391808351699" lon="2.4696709495927114"><ele>51.0</ele><time>2026-04-17T17:45:15Z</time></trkpt><trkpt lat="49.13919403344871" lon="2.469563953791998"><ele>51.0</ele><time>2026-04-17T17:45:16Z</time></trkpt><trkpt lat="49.13919151449694" lon="2.469464122308717"><ele>51.0</ele><time>2026-04-17T17:45:17Z</time></trkpt><trkpt lat="49.13911509833994" lon="2.4693047158838004"><ele>51.0</ele><time>2026-04-17T17:45:19Z</time></trkpt><trkpt lat="49.139048951671874" lon="2.4692517604356037"><ele>51.0</ele><time>2026-04-17T17:45:20Z</time></trkpt><trkpt lat="49.13900324534373" lon="2.4691579741476866"><ele>51.5</ele><time>2026-04-17T17:45:21Z</time></trkpt><trkpt lat="49.13896615669596" lon="2.4690455020680013"><ele>52.0</ele><time>2026-04-17T17:45:22Z</time></trkpt><trkpt lat="49.13892983238838" lon="2.4689236944103228"><ele>52.5</ele><time>2026-04-17T17:45:23Z</time></trkpt><trkpt lat="49.13889374675645" lon="2.4688017038390444"><ele>53.0</ele><time>2026-04-17T17:45:24Z</time></trkpt><trkpt lat="49.13885885912802" lon="2.468679984135728"><ele>53.5</ele><time>2026-04-17T17:45:25Z</time></trkpt><trkpt lat="49.13882511082856" lon="2.4685580232601536"><ele>54.0</ele><time>2026-04-17T17:45:26Z</time></trkpt><trkpt lat="49.13879257796909" lon="2.468440949559147"><ele>54.166666666666664</ele><time>2026-04-17T17:45:27Z</time></trkpt><trkpt lat="49.138762796991166" lon="2.4683335420806753"><ele>54.33333333333333</ele><time>2026-04-17T17:45:28Z</time></trkpt><trkpt lat="49.13874152861072" lon="2.468240823896703"><ele>54.5</ele><time>2026-04-17T17:45:29Z</time></trkpt><trkpt lat="49.13870724567189" lon="2.468084415697218"><ele>54.666666666666664</ele><time>2026-04-17T17:45:31Z</time></trkpt><trkpt lat="49.138662614074356" lon="2.467917350490942"><ele>54.83333333333333</ele><time>2026-04-17T17:45:33Z</time></trkpt><trkpt lat="49.13863590097876" lon="2.467822044648886"><ele>55.0</ele><time>2026-04-17T17:45:34Z</time></trkpt><trkpt lat="49.138605812459645" lon="2.467718699992386"><ele>55.33333333333333</ele><time>2026-04-17T17:45:35Z</time></trkpt><trkpt lat="49.13857347643494" lon="2.467603541384605"><ele>55.666666666666664</ele><time>2026-04-17T17:45:35.999Z</time></trkpt><trkpt lat="49.138542865690276" lon="2.4674960637079826"><ele>56.0</ele><time>2026-04-17T17:45:36.999Z</time></trkpt><trkpt lat="49.138493165659945" lon="2.467331217620033"><ele>56.33333333333333</ele><time>2026-04-17T17:45:38.999Z</time></trkpt><trkpt lat="49.13846658554307" lon="2.467238669242548"><ele>56.666666666666664</ele><time>2026-04-17T17:45:39.999Z</time></trkpt><trkpt lat="49.13843919551675" lon="2.4671363254557064"><ele>57.0</ele><time>2026-04-17T17:45:40.999Z</time></trkpt><trkpt lat="49.13841166540765" lon="2.467029986872212"><ele>57.0</ele><time>2026-04-17T17:45:41.999Z</time></trkpt><trkpt lat="49.13836798006428" lon="2.466879749317446"><ele>57.0</ele><time>2026-04-17T17:45:43.999Z</time></trkpt><trkpt lat="49.13832388760471" lon="2.4667278296013424"><ele>57.0</ele><time>2026-04-17T17:45:45.999Z</time></trkpt><trkpt lat="49.13829243865783" lon="2.4666197956134153"><ele>57.0</ele><time>2026-04-17T17:45:46.999Z</time></trkpt><trkpt lat="49.13825631682375" lon="2.4664954373293835"><ele>57.0</ele><time>2026-04-17T17:45:47.999Z</time></trkpt><trkpt lat="49.138220250625224" lon="2.4663706144103243"><ele>56.833333333333336</ele><time>2026-04-17T17:45:48.999Z</time></trkpt><trkpt lat="49.13818659499406" lon="2.466251345237905"><ele>56.66666666666667</ele><time>2026-04-17T17:45:49.999Z</time></trkpt><trkpt lat="49.13815526072288" lon="2.4661377516599705"><ele>56.5</ele><time>2026-04-17T17:45:50.999Z</time></trkpt><trkpt lat="49.13812621198538" lon="2.4660335042470174"><ele>56.333333333333336</ele><time>2026-04-17T17:45:51.999Z</time></trkpt><trkpt lat="49.13809815990593" lon="2.4659380817217014"><ele>56.16666666666667</ele><time>2026-04-17T17:45:52.999Z</time></trkpt><trkpt lat="49.13806794951923" lon="2.465852097531034"><ele>56.0</ele><time>2026-04-17T17:45:53.999Z</time></trkpt><trkpt lat="49.138061569676466" lon="2.465695055049968"><ele>56.0</ele><time>2026-04-17T17:45:55.999Z</time></trkpt><trkpt lat="49.13820361125006" lon="2.4656604371088116"><ele>55.99999999999999</ele><time>2026-04-17T17:45:57.999Z</time></trkpt><trkpt lat="49.13827931122128" lon="2.4656608087080483"><ele>55.99999999999999</ele><time>2026-04-17T17:45:58.999Z</time></trkpt><trkpt lat="49.13836234128666" lon="2.465661216288673"><ele>56.0</ele><time>2026-04-17T17:45:59.999Z</time></trkpt><trkpt lat="49.13845157712384" lon="2.4656629320265857"><ele>56.0</ele><time>2026-04-17T17:46:00.999Z</time></trkpt><trkpt lat="49.138547262079044" lon="2.4656653914362687"><ele>56.0</ele><time>2026-04-17T17:46:01.999Z</time></trkpt><trkpt lat="49.13864180295955" lon="2.4656672515668285"><ele>55.99999999999999</ele><time>2026-04-17T17:46:02.999Z</time></trkpt><trkpt lat="49.13873730530506" lon="2.465668510546861"><ele>55.99999999999999</ele><time>2026-04-17T17:46:03.999Z</time></trkpt><trkpt lat="49.138828926256195" lon="2.465669904724576"><ele>56.0</ele><time>2026-04-17T17:46:04.999Z</time></trkpt><trkpt lat="49.1389196422585" lon="2.4656712343848217"><ele>56.0</ele><time>2026-04-17T17:46:05.999Z</time></trkpt><trkpt lat="49.139008407212415" lon="2.465672535447438"><ele>56.00000000000001</ele><time>2026-04-17T17:46:06.999Z</time></trkpt><trkpt lat="49.139095863061904" lon="2.465673817321467"><ele>56.0</ele><time>2026-04-17T17:46:07.999Z</time></trkpt><trkpt lat="49.13918078173435" lon="2.465675062007971"><ele>56.0</ele><time>2026-04-17T17:46:08.999Z</time></trkpt><trkpt lat="49.139265295442456" lon="2.46567583981908"><ele>56.0</ele><time>2026-04-17T17:46:09.999Z</time></trkpt><trkpt lat="49.13934401638722" lon="2.4656748345427957"><ele>56.00000000000001</ele><time>2026-04-17T17:46:10.999Z</time></trkpt><trkpt lat="49.13941848149495" lon="2.465670664054617"><ele>56.0</ele><time>2026-04-17T17:46:11.998Z</time></trkpt><trkpt lat="49.139483959789644" lon="2.4656182678281287"><ele>56.00000000000001</ele><time>2026-04-17T17:46:12.998Z</time></trkpt><trkpt lat="49.13954940512436" lon="2.4655812137111552"><ele>56.0</ele><time>2026-04-17T17:46:13.998Z</time></trkpt><trkpt lat="49.13961643925709" lon="2.4655491091928656"><ele>56.0</ele><time>2026-04-17T17:46:14.998Z</time></trkpt><trkpt lat="49.1396789383039" lon="2.465520101113564"><ele>56.0</ele><time>2026-04-17T17:46:15.998Z</time></trkpt><trkpt lat="49.139779648323916" lon="2.4654489053292754"><ele>56.00000000000001</ele><time>2026-04-17T17:46:17.998Z</time></trkpt><trkpt lat="49.13976152596012" lon="2.4652614789536256"><ele>56.0</ele><time>2026-04-17T17:46:18.998Z</time></trkpt><trkpt lat="49.13976366005005" lon="2.4651377101129897"><ele>56.0</ele><time>2026-04-17T17:46:19.998Z</time></trkpt><trkpt lat="49.13977870096189" lon="2.4650020966832202"><ele>55.99999999999999</ele><time>2026-04-17T17:46:20.998Z</time></trkpt><trkpt lat="49.13980071526092" lon="2.4648524784579133"><ele>55.99999999999999</ele><time>2026-04-17T17:46:21.998Z</time></trkpt><trkpt lat="49.13982431483598" lon="2.4646969161851793"><ele>56.0</ele><time>2026-04-17T17:46:22.998Z</time></trkpt><trkpt lat="49.139847344045805" lon="2.4645395131376033"><ele>56.0</ele><time>2026-04-17T17:46:23.998Z</time></trkpt><trkpt lat="49.13987575781057" lon="2.464383191806811"><ele>56.0</ele><time>2026-04-17T17:46:24.998Z</time></trkpt><trkpt lat="49.13990745405988" lon="2.4642292635966787"><ele>55.99999999999999</ele><time>2026-04-17T17:46:25.998Z</time></trkpt><trkpt lat="49.13993597813468" lon="2.4640750213665092"><ele>55.99999999999999</ele><time>2026-04-17T17:46:26.998Z</time></trkpt><trkpt lat="49.139961209526454" lon="2.4639234856796883"><ele>56.0</ele><time>2026-04-17T17:46:27.998Z</time></trkpt><trkpt lat="49.139984263291765" lon="2.4637734819926695"><ele>56.0</ele><time>2026-04-17T17:46:28.998Z</time></trkpt><trkpt lat="49.14000287383535" lon="2.463622166561176"><ele>56.0</ele><time>2026-04-17T17:46:29.998Z</time></trkpt><trkpt lat="49.140021118291315" lon="2.4634703761196155"><ele>55.99999999999999</ele><time>2026-04-17T17:46:30.998Z</time></trkpt><trkpt lat="49.14005659593985" lon="2.4633226412301514"><ele>55.99999999999999</ele><time>2026-04-17T17:46:31.998Z</time></trkpt><trkpt lat="49.14008281795263" lon="2.463165664825353"><ele>56.0</ele><time>2026-04-17T17:46:32.998Z</time></trkpt><trkpt lat="49.140111252030415" lon="2.462993500662703"><ele>56.0</ele><time>2026-04-17T17:46:33.998Z</time></trkpt><trkpt lat="49.140126492804846" lon="2.4628113402556697"><ele>56.5</ele><time>2026-04-17T17:46:34.998Z</time></trkpt><trkpt lat="49.140160161851725" lon="2.4626395555785368"><ele>57.0</ele><time>2026-04-17T17:46:35.998Z</time></trkpt><trkpt lat="49.140193244059056" lon="2.462469805599044"><ele>57.5</ele><time>2026-04-17T17:46:36.998Z</time></trkpt><trkpt lat="49.14022680018794" lon="2.4623063607524487"><ele>58.0</ele><time>2026-04-17T17:46:37.998Z</time></trkpt><trkpt lat="49.140260699208696" lon="2.462144072927474"><ele>58.599999999999994</ele><time>2026-04-17T17:46:38.998Z</time></trkpt><trkpt lat="49.14029286272051" lon="2.46198566060299"><ele>59.199999999999996</ele><time>2026-04-17T17:46:39.998Z</time></trkpt><trkpt lat="49.14032073792972" lon="2.461830352184543"><ele>59.8</ele><time>2026-04-17T17:46:40.998Z</time></trkpt><trkpt lat="49.14034634616541" lon="2.46168979012829"><ele>60.4</ele><time>2026-04-17T17:46:41.998Z</time></trkpt><trkpt lat="49.140369783984525" lon="2.46156905173421"><ele>61.0</ele><time>2026-04-17T17:46:42.998Z</time></trkpt><trkpt lat="49.14039740430385" lon="2.461462442563769"><ele>60.99999999999999</ele><time>2026-04-17T17:46:43.998Z</time></trkpt><trkpt lat="49.14044530201693" lon="2.4613676888979636"><ele>61.0</ele><time>2026-04-17T17:46:44.998Z</time></trkpt><trkpt lat="49.14050542796525" lon="2.461290524323502"><ele>61.0</ele><time>2026-04-17T17:46:45.998Z</time></trkpt><trkpt lat="49.14057724285055" lon="2.461241084121202"><ele>61.0</ele><time>2026-04-17T17:46:46.997Z</time></trkpt><trkpt lat="49.140655078895115" lon="2.4612487133363627"><ele>60.99999999999999</ele><time>2026-04-17T17:46:47.997Z</time></trkpt><trkpt lat="49.140757804164245" lon="2.4612356290939195"><ele>61.0</ele><time>2026-04-17T17:46:49.997Z</time></trkpt><trkpt lat="49.14082444424306" lon="2.461248728297759"><ele>59.599999999999994</ele><time>2026-04-17T17:46:51.997Z</time></trkpt><trkpt lat="49.14093736249642" lon="2.461292524612038"><ele>58.199999999999996</ele><time>2026-04-17T17:46:53.997Z</time></trkpt><trkpt lat="49.14101902041742" lon="2.46130748443209"><ele>56.800000000000004</ele><time>2026-04-17T17:46:54.997Z</time></trkpt><trkpt lat="49.14111177976823" lon="2.4613244780479713"><ele>55.400000000000006</ele><time>2026-04-17T17:46:55.997Z</time></trkpt><trkpt lat="49.14120813452298" lon="2.461316629468667"><ele>54.0</ele><time>2026-04-17T17:46:56.997Z</time></trkpt><trkpt lat="49.14130539529041" lon="2.461334794258369"><ele>54.0</ele><time>2026-04-17T17:46:57.997Z</time></trkpt><trkpt lat="49.141403581319295" lon="2.461354245845306"><ele>54.0</ele><time>2026-04-17T17:46:58.997Z</time></trkpt><trkpt lat="49.14149863583367" lon="2.4613730524706505"><ele>54.0</ele><time>2026-04-17T17:46:59.997Z</time></trkpt><trkpt lat="49.14157784342377" lon="2.4614071610950785"><ele>54.0</ele><time>2026-04-17T17:47:00.997Z</time></trkpt><trkpt lat="49.141646779322244" lon="2.461419921111623"><ele>54.0</ele><time>2026-04-17T17:47:01.997Z</time></trkpt><trkpt lat="49.14171192977425" lon="2.461437520295517"><ele>54.0</ele><time>2026-04-17T17:47:02.997Z</time></trkpt><trkpt lat="49.14180616659799" lon="2.461482592127849"><ele>53.166666666666664</ele><time>2026-04-17T17:47:04.997Z</time></trkpt><trkpt lat="49.14192034735633" lon="2.4614732582963246"><ele>52.33333333333333</ele><time>2026-04-17T17:47:06.997Z</time></trkpt><trkpt lat="49.14198897657489" lon="2.4614766754408333"><ele>51.5</ele><time>2026-04-17T17:47:07.997Z</time></trkpt><trkpt lat="49.14206530023985" lon="2.4614907271681945"><ele>50.666666666666664</ele><time>2026-04-17T17:47:08.997Z</time></trkpt><trkpt lat="49.14214558205549" lon="2.461507043121713"><ele>49.83333333333333</ele><time>2026-04-17T17:47:09.997Z</time></trkpt><trkpt lat="49.142226658703045" lon="2.4615217128840907"><ele>49.0</ele><time>2026-04-17T17:47:10.997Z</time></trkpt><trkpt lat="49.14231036557035" lon="2.4615381963408955"><ele>47.99999999999999</ele><time>2026-04-17T17:47:12Z</time></trkpt><trkpt lat="49.14239413824924" lon="2.4615561043464016"><ele>47.0</ele><time>2026-04-17T17:47:13Z</time></trkpt><trkpt lat="49.14247819215287" lon="2.461575224986267"><ele>46.0</ele><time>2026-04-17T17:47:14Z</time></trkpt><trkpt lat="49.142564296860655" lon="2.4615923593010245"><ele>45.0</ele><time>2026-04-17T17:47:15Z</time></trkpt><trkpt lat="49.1426454547351" lon="2.4616081860100083"><ele>44.0</ele><time>2026-04-17T17:47:16Z</time></trkpt><trkpt lat="49.14271899575819" lon="2.461621520558494"><ele>43.0</ele><time>2026-04-17T17:47:17Z</time></trkpt><trkpt lat="49.14282733976867" lon="2.4616452880516584"><ele>43.0</ele><time>2026-04-17T17:47:19Z</time></trkpt><trkpt lat="49.142919471544296" lon="2.4616965990154247"><ele>43.0</ele><time>2026-04-17T17:47:21Z</time></trkpt><trkpt lat="49.143008414839315" lon="2.461729485126001"><ele>43.0</ele><time>2026-04-17T17:47:23Z</time></trkpt><trkpt lat="49.143068400765834" lon="2.4616412756999915"><ele>43.0</ele><time>2026-04-17T17:47:25Z</time></trkpt><trkpt lat="49.14305329566469" lon="2.4614723879334997"><ele>43.0</ele><time>2026-04-17T17:47:27Z</time></trkpt><trkpt lat="49.14304376756431" lon="2.461369429575114"><ele>43.4</ele><time>2026-04-17T17:47:28Z</time></trkpt><trkpt lat="49.14304387547438" lon="2.461248764626207"><ele>43.8</ele><time>2026-04-17T17:47:29Z</time></trkpt><trkpt lat="49.143049059628275" lon="2.461110330332005"><ele>44.2</ele><time>2026-04-17T17:47:30Z</time></trkpt><trkpt lat="49.14305336404038" lon="2.460957758871336"><ele>44.6</ele><time>2026-04-17T17:47:31Z</time></trkpt><trkpt lat="49.14305850207677" lon="2.460800308257062"><ele>45.0</ele><time>2026-04-17T17:47:32Z</time></trkpt><trkpt lat="49.14306492637282" lon="2.460623870508277"><ele>45.75</ele><time>2026-04-17T17:47:33Z</time></trkpt><trkpt lat="49.143073731060284" lon="2.460428495672186"><ele>46.5</ele><time>2026-04-17T17:47:34Z</time></trkpt><trkpt lat="49.143082849399995" lon="2.4602184462885033"><ele>47.25</ele><time>2026-04-17T17:47:35Z</time></trkpt><trkpt lat="49.1430913531929" lon="2.460002146369242"><ele>48.0</ele><time>2026-04-17T17:47:36Z</time></trkpt><trkpt lat="49.14310070043603" lon="2.459790871838247"><ele>48.25</ele><time>2026-04-17T17:47:37Z</time></trkpt><trkpt lat="49.14310915033785" lon="2.4595732320967016"><ele>48.5</ele><time>2026-04-17T17:47:38Z</time></trkpt><trkpt lat="49.143117736007746" lon="2.4593447595459756"><ele>48.75</ele><time>2026-04-17T17:47:39Z</time></trkpt><trkpt lat="49.14312876978155" lon="2.4591122084409816"><ele>49.0</ele><time>2026-04-17T17:47:40Z</time></trkpt><trkpt lat="49.14313982515529" lon="2.4588749991245593"><ele>48.666666666666664</ele><time>2026-04-17T17:47:41Z</time></trkpt><trkpt lat="49.14314714665797" lon="2.458633813385218"><ele>48.33333333333333</ele><time>2026-04-17T17:47:42Z</time></trkpt><trkpt lat="49.14315613267409" lon="2.4583891195458394"><ele>48.0</ele><time>2026-04-17T17:47:42.999Z</time></trkpt><trkpt lat="49.14316326069104" lon="2.4581392491211633"><ele>48.0</ele><time>2026-04-17T17:47:43.999Z</time></trkpt><trkpt lat="49.143172246116016" lon="2.457878136343437"><ele>48.0</ele><time>2026-04-17T17:47:44.999Z</time></trkpt><trkpt lat="49.14318058085626" lon="2.457625367678949"><ele>48.0</ele><time>2026-04-17T17:47:45.999Z</time></trkpt><trkpt lat="49.14318830217945" lon="2.457375289153504"><ele>48.0</ele><time>2026-04-17T17:47:46.999Z</time></trkpt><trkpt lat="49.143198852180475" lon="2.457122500785822"><ele>48.0</ele><time>2026-04-17T17:47:47.999Z</time></trkpt><trkpt lat="49.143207808935216" lon="2.456868306367224"><ele>48.0</ele><time>2026-04-17T17:47:48.999Z</time></trkpt><trkpt lat="49.14321666120946" lon="2.456613388774076"><ele>47.333333333333336</ele><time>2026-04-17T17:47:49.999Z</time></trkpt><trkpt lat="49.14322715636966" lon="2.4563563222310494"><ele>46.66666666666667</ele><time>2026-04-17T17:47:50.999Z</time></trkpt><trkpt lat="49.14323834124179" lon="2.4560997661275317"><ele>46.0</ele><time>2026-04-17T17:47:51.999Z</time></trkpt><trkpt lat="49.14324785015698" lon="2.45584282198335"><ele>46.0</ele><time>2026-04-17T17:47:52.999Z</time></trkpt><trkpt lat="49.143254173306175" lon="2.45558754566307"><ele>46.0</ele><time>2026-04-17T17:47:53.999Z</time></trkpt><trkpt lat="49.14326121044676" lon="2.4553334526507498"><ele>46.0</ele><time>2026-04-17T17:47:54.999Z</time></trkpt><trkpt lat="49.14326939656595" lon="2.4550801325585505"><ele>46.333333333333336</ele><time>2026-04-17T17:47:55.999Z</time></trkpt><trkpt lat="49.14328015742851" lon="2.454829341216312"><ele>46.666666666666664</ele><time>2026-04-17T17:47:56.999Z</time></trkpt><trkpt lat="49.14329004673533" lon="2.4545784649481877"><ele>47.0</ele><time>2026-04-17T17:47:57.999Z</time></trkpt><trkpt lat="49.14330046526071" lon="2.4543297937683093"><ele>47.0</ele><time>2026-04-17T17:47:58.999Z</time></trkpt><trkpt lat="49.14331139461149" lon="2.4540830726760694"><ele>47.0</ele><time>2026-04-17T17:47:59.999Z</time></trkpt><trkpt lat="49.14332147467953" lon="2.4538390061171924"><ele>47.0</ele><time>2026-04-17T17:48:00.999Z</time></trkpt><trkpt lat="49.14333149514877" lon="2.453595706076156"><ele>46.0</ele><time>2026-04-17T17:48:01.999Z</time></trkpt><trkpt lat="49.143341222723656" lon="2.4533558700576785"><ele>45.0</ele><time>2026-04-17T17:48:02.999Z</time></trkpt><trkpt lat="49.14334982908463" lon="2.453116068075995"><ele>44.0</ele><time>2026-04-17T17:48:03.999Z</time></trkpt><trkpt lat="49.14335711781897" lon="2.452879234733256"><ele>44.0</ele><time>2026-04-17T17:48:04.999Z</time></trkpt><trkpt lat="49.143365603660385" lon="2.452642169078581"><ele>44.0</ele><time>2026-04-17T17:48:05.999Z</time></trkpt><trkpt lat="49.14337437095849" lon="2.452403837818121"><ele>44.0</ele><time>2026-04-17T17:48:06.999Z</time></trkpt><trkpt lat="49.14338512593822" lon="2.4521637539863623"><ele>43.666666666666664</ele><time>2026-04-17T17:48:07.999Z</time></trkpt><trkpt lat="49.14339743776497" lon="2.4519229514577163"><ele>43.333333333333336</ele><time>2026-04-17T17:48:08.999Z</time></trkpt><trkpt lat="49.14340623456216" lon="2.451681881390306"><ele>43.0</ele><time>2026-04-17T17:48:09.999Z</time></trkpt><trkpt lat="49.14341312343414" lon="2.4514403853417903"><ele>43.0</ele><time>2026-04-17T17:48:10.999Z</time></trkpt><trkpt lat="49.14342016561877" lon="2.451201434629143"><ele>43.0</ele><time>2026-04-17T17:48:11.999Z</time></trkpt><trkpt lat="49.14342783641713" lon="2.450961102156017"><ele>43.0</ele><time>2026-04-17T17:48:12.999Z</time></trkpt><trkpt lat="49.14344349631856" lon="2.450720817552972"><ele>43.0</ele><time>2026-04-17T17:48:13.999Z</time></trkpt><trkpt lat="49.14346740475732" lon="2.4504844627521494"><ele>43.0</ele><time>2026-04-17T17:48:14.999Z</time></trkpt><trkpt lat="49.14350548174892" lon="2.450251304346607"><ele>43.0</ele><time>2026-04-17T17:48:15.999Z</time></trkpt><trkpt lat="49.14355349764747" lon="2.450022395812078"><ele>42.66666666666667</ele><time>2026-04-17T17:48:16.999Z</time></trkpt><trkpt lat="49.14360258555977" lon="2.449789048371246"><ele>42.333333333333336</ele><time>2026-04-17T17:48:17.999Z</time></trkpt><trkpt lat="49.14365236638718" lon="2.449556760585196"><ele>42.0</ele><time>2026-04-17T17:48:18.998Z</time></trkpt><trkpt lat="49.14370199633356" lon="2.449324683012581"><ele>43.333333333333336</ele><time>2026-04-17T17:48:19.998Z</time></trkpt><trkpt lat="49.14375197245899" lon="2.449095461464306"><ele>44.66666666666667</ele><time>2026-04-17T17:48:20.998Z</time></trkpt><trkpt lat="49.14380138884768" lon="2.448870891900759"><ele>46.0</ele><time>2026-04-17T17:48:21.998Z</time></trkpt><trkpt lat="49.14385017509257" lon="2.4486483311201708"><ele>46.66666666666667</ele><time>2026-04-17T17:48:22.998Z</time></trkpt><trkpt lat="49.143899210870636" lon="2.448426370339493"><ele>47.333333333333336</ele><time>2026-04-17T17:48:23.998Z</time></trkpt><trkpt lat="49.143948409620286" lon="2.448203420045054"><ele>48.0</ele><time>2026-04-17T17:48:24.998Z</time></trkpt><trkpt lat="49.14399862930157" lon="2.4479800266997476"><ele>46.333333333333336</ele><time>2026-04-17T17:48:25.998Z</time></trkpt><trkpt lat="49.14404783376281" lon="2.4477535106960855"><ele>44.66666666666667</ele><time>2026-04-17T17:48:26.998Z</time></trkpt><trkpt lat="49.14409777523149" lon="2.447527084268042"><ele>43.0</ele><time>2026-04-17T17:48:27.998Z</time></trkpt><trkpt lat="49.14414832976443" lon="2.4472986925364957"><ele>43.66666666666667</ele><time>2026-04-17T17:48:28.998Z</time></trkpt><trkpt lat="49.14420045036182" lon="2.447068084749026"><ele>44.333333333333336</ele><time>2026-04-17T17:48:29.998Z</time></trkpt><trkpt lat="49.14425162902288" lon="2.4468383190552374"><ele>45.0</ele><time>2026-04-17T17:48:30.998Z</time></trkpt><trkpt lat="49.14430328009658" lon="2.446604569898812"><ele>45.0</ele><time>2026-04-17T17:48:31.998Z</time></trkpt><trkpt lat="49.14435447155658" lon="2.4463740291808675"><ele>45.0</ele><time>2026-04-17T17:48:32.998Z</time></trkpt><trkpt lat="49.14440512778129" lon="2.4461426064396723"><ele>45.0</ele><time>2026-04-17T17:48:33.998Z</time></trkpt><trkpt lat="49.14445510704642" lon="2.4459131803637546"><ele>45.0</ele><time>2026-04-17T17:48:34.998Z</time></trkpt><trkpt lat="49.144505231265896" lon="2.4456827338396594"><ele>45.0</ele><time>2026-04-17T17:48:35.998Z</time></trkpt><trkpt lat="49.14455324964276" lon="2.4454550168791895"><ele>45.0</ele><time>2026-04-17T17:48:36.998Z</time></trkpt><trkpt lat="49.144600970036066" lon="2.445227939209653"><ele>45.333333333333336</ele><time>2026-04-17T17:48:37.998Z</time></trkpt><trkpt lat="49.1446520624446" lon="2.445003911316779"><ele>45.66666666666667</ele><time>2026-04-17T17:48:38.998Z</time></trkpt><trkpt lat="49.14470423709244" lon="2.4447793930244317"><ele>46.0</ele><time>2026-04-17T17:48:39.998Z</time></trkpt><trkpt lat="49.1447558728102" lon="2.4445582975413656"><ele>46.5</ele><time>2026-04-17T17:48:40.998Z</time></trkpt><trkpt lat="49.144805269854466" lon="2.4443387717640346"><ele>47.0</ele><time>2026-04-17T17:48:41.998Z</time></trkpt><trkpt lat="49.14485286977072" lon="2.4441225866892493"><ele>47.5</ele><time>2026-04-17T17:48:42.998Z</time></trkpt><trkpt lat="49.14489851374541" lon="2.443910537605854"><ele>48.0</ele><time>2026-04-17T17:48:43.998Z</time></trkpt><trkpt lat="49.14494469235913" lon="2.443702258614367"><ele>46.75</ele><time>2026-04-17T17:48:44.998Z</time></trkpt><trkpt lat="49.14498936539389" lon="2.443497448806295"><ele>45.5</ele><time>2026-04-17T17:48:45.998Z</time></trkpt><trkpt lat="49.14503467715131" lon="2.4432954636410975"><ele>44.25</ele><time>2026-04-17T17:48:46.998Z</time></trkpt><trkpt lat="49.14507926909036" lon="2.4430988755990724"><ele>43.0</ele><time>2026-04-17T17:48:47.998Z</time></trkpt><trkpt lat="49.14512223649439" lon="2.442904676264953"><ele>43.0</ele><time>2026-04-17T17:48:48.998Z</time></trkpt><trkpt lat="49.1451633229628" lon="2.442717035198132"><ele>43.0</ele><time>2026-04-17T17:48:49.998Z</time></trkpt><trkpt lat="49.14520329102664" lon="2.4425411468767986"><ele>43.0</ele><time>2026-04-17T17:48:50.998Z</time></trkpt><trkpt lat="49.14524360354209" lon="2.442379877769408"><ele>43.0</ele><time>2026-04-17T17:48:51.998Z</time></trkpt><trkpt lat="49.14527816492364" lon="2.4422404076260937"><ele>42.8</ele><time>2026-04-17T17:48:52.998Z</time></trkpt><trkpt lat="49.14530768484932" lon="2.4421003250940028"><ele>42.599999999999994</ele><time>2026-04-17T17:48:53.997Z</time></trkpt><trkpt lat="49.145334978636896" lon="2.4419595864039794"><ele>42.400000000000006</ele><time>2026-04-17T17:48:54.997Z</time></trkpt><trkpt lat="49.145362375124414" lon="2.4418222602089537"><ele>42.2</ele><time>2026-04-17T17:48:55.997Z</time></trkpt><trkpt lat="49.145388349123635" lon="2.4416884068424287"><ele>42.0</ele><time>2026-04-17T17:48:56.997Z</time></trkpt><trkpt lat="49.14541436513797" lon="2.4415630629064973"><ele>42.0</ele><time>2026-04-17T17:48:57.997Z</time></trkpt><trkpt lat="49.14544179359856" lon="2.441444711002983"><ele>42.0</ele><time>2026-04-17T17:48:58.997Z</time></trkpt><trkpt lat="49.145470476299664" lon="2.4413336104995778"><ele>42.0</ele><time>2026-04-17T17:48:59.997Z</time></trkpt><trkpt lat="49.14550179693141" lon="2.441231931588582"><ele>42.0</ele><time>2026-04-17T17:49:00.997Z</time></trkpt><trkpt lat="49.14553355388937" lon="2.441141691524149"><ele>42.0</ele><time>2026-04-17T17:49:01.997Z</time></trkpt><trkpt lat="49.1455824320919" lon="2.441029163807163"><ele>42.0</ele><time>2026-04-17T17:49:03.997Z</time></trkpt><trkpt lat="49.1456549264746" lon="2.4408741709826165"><ele>42.0</ele><time>2026-04-17T17:49:05.997Z</time></trkpt><trkpt lat="49.14568670142902" lon="2.4407758255922634"><ele>42.0</ele><time>2026-04-17T17:49:06.997Z</time></trkpt><trkpt lat="49.14569702172728" lon="2.440667739648028"><ele>42.0</ele><time>2026-04-17T17:49:07.997Z</time></trkpt><trkpt lat="49.14566553557989" lon="2.440554475821567"><ele>42.0</ele><time>2026-04-17T17:49:08.997Z</time></trkpt><trkpt lat="49.14561075460788" lon="2.440483933650406"><ele>42.0</ele><time>2026-04-17T17:49:09.997Z</time></trkpt><trkpt lat="49.14553829377687" lon="2.440453806407635"><ele>42.0</ele><time>2026-04-17T17:49:10.997Z</time></trkpt><trkpt lat="49.145457697536" lon="2.4404606727189955"><ele>42.0</ele><time>2026-04-17T17:49:11.997Z</time></trkpt><trkpt lat="49.145374048913766" lon="2.440494063525114"><ele>42.0</ele><time>2026-04-17T17:49:12.997Z</time></trkpt><trkpt lat="49.145276115231916" lon="2.44050351462676"><ele>42.0</ele><time>2026-04-17T17:49:13.997Z</time></trkpt><trkpt lat="49.145184128383725" lon="2.440467613996933"><ele>42.0</ele><time>2026-04-17T17:49:14.997Z</time></trkpt><trkpt lat="49.14507770066872" lon="2.440418674224937"><ele>42.0</ele><time>2026-04-17T17:49:15.997Z</time></trkpt><trkpt lat="49.1449593304929" lon="2.440368877279296"><ele>42.0</ele><time>2026-04-17T17:49:16.997Z</time></trkpt><trkpt lat="49.144830543515596" lon="2.440318647040207"><ele>42.0</ele><time>2026-04-17T17:49:18Z</time></trkpt><trkpt lat="49.14469331855839" lon="2.440267597483983"><ele>42.0</ele><time>2026-04-17T17:49:19Z</time></trkpt><trkpt lat="49.1445485617613" lon="2.440209610069856"><ele>42.0</ele><time>2026-04-17T17:49:20Z</time></trkpt><trkpt lat="49.144395940855" lon="2.440142654213067"><ele>42.0</ele><time>2026-04-17T17:49:21Z</time></trkpt><trkpt lat="49.14423824315288" lon="2.440079646093225"><ele>42.0</ele><time>2026-04-17T17:49:22Z</time></trkpt><trkpt lat="49.144086680366435" lon="2.440011978307058"><ele>42.0</ele><time>2026-04-17T17:49:23Z</time></trkpt><trkpt lat="49.143931510249374" lon="2.4399396724964055"><ele>44.66666666666667</ele><time>2026-04-17T17:49:24Z</time></trkpt><trkpt lat="49.143769393855955" lon="2.439866036687609"><ele>47.333333333333336</ele><time>2026-04-17T17:49:25Z</time></trkpt><trkpt lat="49.143603155310515" lon="2.4397920944105063"><ele>50.0</ele><time>2026-04-17T17:49:26Z</time></trkpt><trkpt lat="49.14343482188416" lon="2.4397179044201263"><ele>50.0</ele><time>2026-04-17T17:49:27Z</time></trkpt><trkpt lat="49.14326287385845" lon="2.4396453292336275"><ele>50.0</ele><time>2026-04-17T17:49:28Z</time></trkpt><trkpt lat="49.143090082953826" lon="2.4395688338284014"><ele>50.0</ele><time>2026-04-17T17:49:29Z</time></trkpt><trkpt lat="49.14291596318035" lon="2.439489040010366"><ele>50.333333333333336</ele><time>2026-04-17T17:49:30Z</time></trkpt><trkpt lat="49.142740278891694" lon="2.439406486739654"><ele>50.66666666666667</ele><time>2026-04-17T17:49:31Z</time></trkpt><trkpt lat="49.142562828500914" lon="2.4393252037637065"><ele>51.0</ele><time>2026-04-17T17:49:32Z</time></trkpt><trkpt lat="49.14238375413001" lon="2.439247605081383"><ele>53.0</ele><time>2026-04-17T17:49:33Z</time></trkpt><trkpt lat="49.14220455220518" lon="2.4391708193749273"><ele>55.0</ele><time>2026-04-17T17:49:34Z</time></trkpt><trkpt lat="49.14202934800332" lon="2.4390939029624166"><ele>57.0</ele><time>2026-04-17T17:49:35Z</time></trkpt><trkpt lat="49.14185940365076" lon="2.4390181679127143"><ele>57.0</ele><time>2026-04-17T17:49:36Z</time></trkpt><trkpt lat="49.141690821558676" lon="2.438942012348026"><ele>57.0</ele><time>2026-04-17T17:49:37Z</time></trkpt><trkpt lat="49.141523466521555" lon="2.4388634533614204"><ele>64.0</ele><time>2026-04-17T17:49:38Z</time></trkpt></trkseg></trk></gpx>